<?xml version='1.0' encoding='UTF-8'?><gpx version="1.1" creator="JPX - https://github.com/jenetics/jpx" xmlns="http://www.topografix.com/GPX/1/1"><trk><trkseg><trkpt lat="43.9948807" lon="11.9085484"><ele>239.00000000000003</ele><time>2026-04-18T12:49:10.553Z</time></trkpt><trkpt lat="43.9948426" lon="11.908636"><ele>239.0</ele><time>2026-04-18T12:49:19.563Z</time></trkpt><trkpt lat="43.9947563" lon="11.9086094"><ele>239.0</ele><time>2026-04-18T12:49:22.545Z</time></trkpt><trkpt lat="43.9947111" lon="11.9086773"><ele>239.0</ele><time>2026-04-18T12:49:38.548Z</time></trkpt><trkpt lat="43.9947822" lon="11.9087799"><ele>239.00000000000003</ele><time>2026-04-18T12:49:40.554Z</time></trkpt><trkpt lat="43.9948482" lon="11.9088338"><ele>239.0</ele><time>2026-04-18T12:49:41.552Z</time></trkpt><trkpt lat="43.9949238" lon="11.9088871"><ele>239.0</ele><time>2026-04-18T12:49:42.554Z</time></trkpt><trkpt lat="43.9950011" lon="11.9089449"><ele>238.99999999999997</ele><time>2026-04-18T12:49:43.549Z</time></trkpt><trkpt lat="43.9950797" lon="11.9090075"><ele>238.99999999999997</ele><time>2026-04-18T12:49:44.551Z</time></trkpt><trkpt lat="43.9951612" lon="11.9090859"><ele>239.0</ele><time>2026-04-18T12:49:45.552Z</time></trkpt><trkpt lat="43.9952464" lon="11.9091697"><ele>239.0</ele><time>2026-04-18T12:49:46.551Z</time></trkpt><trkpt lat="43.9953397" lon="11.9092558"><ele>238.6</ele><time>2026-04-18T12:49:47.564Z</time></trkpt><trkpt lat="43.9954287" lon="11.9093417"><ele>238.2</ele><time>2026-04-18T12:49:48.55Z</time></trkpt><trkpt lat="43.9955191" lon="11.9094279"><ele>237.79999999999998</ele><time>2026-04-18T12:49:49.547Z</time></trkpt><trkpt lat="43.9956136" lon="11.9095141"><ele>237.39999999999998</ele><time>2026-04-18T12:49:50.548Z</time></trkpt><trkpt lat="43.9957092" lon="11.9096"><ele>237.0</ele><time>2026-04-18T12:49:51.552Z</time></trkpt><trkpt lat="43.9958045" lon="11.9096828"><ele>237.2</ele><time>2026-04-18T12:49:52.546Z</time></trkpt><trkpt lat="43.9958991" lon="11.9097625"><ele>237.39999999999998</ele><time>2026-04-18T12:49:53.547Z</time></trkpt><trkpt lat="43.9959927" lon="11.9098425"><ele>237.60000000000002</ele><time>2026-04-18T12:49:54.548Z</time></trkpt><trkpt lat="43.9960874" lon="11.9099186"><ele>237.8</ele><time>2026-04-18T12:49:55.541Z</time></trkpt><trkpt lat="43.9961829" lon="11.9099978"><ele>238.0</ele><time>2026-04-18T12:49:56.557Z</time></trkpt><trkpt lat="43.9962835" lon="11.9100779"><ele>237.60000000000002</ele><time>2026-04-18T12:49:57.564Z</time></trkpt><trkpt lat="43.996381" lon="11.9101677"><ele>237.20000000000002</ele><time>2026-04-18T12:49:58.546Z</time></trkpt><trkpt lat="43.9964732" lon="11.9102641"><ele>236.8</ele><time>2026-04-18T12:49:59.55Z</time></trkpt><trkpt lat="43.9965604" lon="11.9103561"><ele>236.4</ele><time>2026-04-18T12:50:00.546Z</time></trkpt><trkpt lat="43.9966371" lon="11.9104304"><ele>236.0</ele><time>2026-04-18T12:50:01.552Z</time></trkpt><trkpt lat="43.9967021" lon="11.9105037"><ele>235.8</ele><time>2026-04-18T12:50:02.546Z</time></trkpt><trkpt lat="43.9967584" lon="11.9105794"><ele>235.60000000000002</ele><time>2026-04-18T12:50:03.552Z</time></trkpt><trkpt lat="43.996797" lon="11.9106812"><ele>235.4</ele><time>2026-04-18T12:50:04.562Z</time></trkpt><trkpt lat="43.9968047" lon="11.910816"><ele>235.2</ele><time>2026-04-18T12:50:05.553Z</time></trkpt><trkpt lat="43.9967848" lon="11.9109769"><ele>235.0</ele><time>2026-04-18T12:50:06.546Z</time></trkpt><trkpt lat="43.9967574" lon="11.9111398"><ele>235.0</ele><time>2026-04-18T12:50:07.56Z</time></trkpt><trkpt lat="43.9967284" lon="11.9113045"><ele>235.0</ele><time>2026-04-18T12:50:08.555Z</time></trkpt><trkpt lat="43.9967022" lon="11.911471"><ele>235.0</ele><time>2026-04-18T12:50:09.561Z</time></trkpt><trkpt lat="43.9966799" lon="11.9116277"><ele>235.0</ele><time>2026-04-18T12:50:10.556Z</time></trkpt><trkpt lat="43.9966603" lon="11.9117828"><ele>234.6</ele><time>2026-04-18T12:50:11.545Z</time></trkpt><trkpt lat="43.9966431" lon="11.9119264"><ele>234.2</ele><time>2026-04-18T12:50:12.547Z</time></trkpt><trkpt lat="43.9966263" lon="11.9120639"><ele>233.8</ele><time>2026-04-18T12:50:13.567Z</time></trkpt><trkpt lat="43.9966062" lon="11.91219"><ele>233.4</ele><time>2026-04-18T12:50:14.55Z</time></trkpt><trkpt lat="43.9965882" lon="11.9123168"><ele>233.0</ele><time>2026-04-18T12:50:15.556Z</time></trkpt><trkpt lat="43.9965714" lon="11.9124499"><ele>232.0</ele><time>2026-04-18T12:50:16.551Z</time></trkpt><trkpt lat="43.9965639" lon="11.912587"><ele>231.0</ele><time>2026-04-18T12:50:17.552Z</time></trkpt><trkpt lat="43.9965578" lon="11.9127252"><ele>230.0</ele><time>2026-04-18T12:50:18.55Z</time></trkpt><trkpt lat="43.9965668" lon="11.9128622"><ele>229.0</ele><time>2026-04-18T12:50:19.556Z</time></trkpt><trkpt lat="43.996592" lon="11.9129852"><ele>228.0</ele><time>2026-04-18T12:50:20.55Z</time></trkpt><trkpt lat="43.9966434" lon="11.9130857"><ele>228.0</ele><time>2026-04-18T12:50:21.548Z</time></trkpt><trkpt lat="43.9967228" lon="11.9131629"><ele>228.0</ele><time>2026-04-18T12:50:22.552Z</time></trkpt><trkpt lat="43.9968276" lon="11.9132095"><ele>228.0</ele><time>2026-04-18T12:50:23.551Z</time></trkpt><trkpt lat="43.996943" lon="11.9132352"><ele>228.0</ele><time>2026-04-18T12:50:24.55Z</time></trkpt><trkpt lat="43.9970762" lon="11.9132571"><ele>228.0</ele><time>2026-04-18T12:50:25.551Z</time></trkpt><trkpt lat="43.9972154" lon="11.9132877"><ele>228.0</ele><time>2026-04-18T12:50:26.552Z</time></trkpt><trkpt lat="43.9973571" lon="11.9133176"><ele>228.0</ele><time>2026-04-18T12:50:27.557Z</time></trkpt><trkpt lat="43.9974965" lon="11.9133544"><ele>228.0</ele><time>2026-04-18T12:50:28.557Z</time></trkpt><trkpt lat="43.9976357" lon="11.9133904"><ele>226.0</ele><time>2026-04-18T12:50:29.548Z</time></trkpt><trkpt lat="43.9977694" lon="11.913417"><ele>224.0</ele><time>2026-04-18T12:50:30.559Z</time></trkpt><trkpt lat="43.9979036" lon="11.9134488"><ele>222.0</ele><time>2026-04-18T12:50:31.546Z</time></trkpt><trkpt lat="43.9980398" lon="11.9134838"><ele>220.0</ele><time>2026-04-18T12:50:32.558Z</time></trkpt><trkpt lat="43.9981819" lon="11.9135177"><ele>220.0</ele><time>2026-04-18T12:50:33.55Z</time></trkpt><trkpt lat="43.9983257" lon="11.9135543"><ele>220.0</ele><time>2026-04-18T12:50:34.553Z</time></trkpt><trkpt lat="43.9984703" lon="11.9135907"><ele>220.0</ele><time>2026-04-18T12:50:35.553Z</time></trkpt><trkpt lat="43.9986168" lon="11.9136254"><ele>220.0</ele><time>2026-04-18T12:50:36.548Z</time></trkpt><trkpt lat="43.9987636" lon="11.9136588"><ele>219.0</ele><time>2026-04-18T12:50:37.552Z</time></trkpt><trkpt lat="43.9989148" lon="11.9136917"><ele>218.0</ele><time>2026-04-18T12:50:38.548Z</time></trkpt><trkpt lat="43.999071" lon="11.9137245"><ele>217.0</ele><time>2026-04-18T12:50:39.548Z</time></trkpt><trkpt lat="43.9992256" lon="11.9137542"><ele>215.33333333333331</ele><time>2026-04-18T12:50:40.555Z</time></trkpt><trkpt lat="43.9993803" lon="11.9137865"><ele>213.66666666666669</ele><time>2026-04-18T12:50:41.56Z</time></trkpt><trkpt lat="43.9995333" lon="11.9138187"><ele>212.0</ele><time>2026-04-18T12:50:42.55Z</time></trkpt><trkpt lat="43.9996882" lon="11.913856"><ele>212.0</ele><time>2026-04-18T12:50:43.548Z</time></trkpt><trkpt lat="43.9998429" lon="11.9138873"><ele>212.0</ele><time>2026-04-18T12:50:44.549Z</time></trkpt><trkpt lat="43.9999896" lon="11.9139184"><ele>212.0</ele><time>2026-04-18T12:50:45.545Z</time></trkpt><trkpt lat="44.0001323" lon="11.9139514"><ele>212.0</ele><time>2026-04-18T12:50:46.548Z</time></trkpt><trkpt lat="44.0002663" lon="11.9139793"><ele>212.0</ele><time>2026-04-18T12:50:47.55Z</time></trkpt><trkpt lat="44.0003922" lon="11.9140142"><ele>212.0</ele><time>2026-04-18T12:50:48.549Z</time></trkpt><trkpt lat="44.0005109" lon="11.914065"><ele>212.0</ele><time>2026-04-18T12:50:49.56Z</time></trkpt><trkpt lat="44.0006204" lon="11.9141315"><ele>212.0</ele><time>2026-04-18T12:50:50.553Z</time></trkpt><trkpt lat="44.0007269" lon="11.9142203"><ele>211.0</ele><time>2026-04-18T12:50:51.551Z</time></trkpt><trkpt lat="44.0008318" lon="11.9143196"><ele>210.0</ele><time>2026-04-18T12:50:52.546Z</time></trkpt><trkpt lat="44.0009379" lon="11.9144218"><ele>209.0</ele><time>2026-04-18T12:50:53.549Z</time></trkpt><trkpt lat="44.0010491" lon="11.9145221"><ele>208.0</ele><time>2026-04-18T12:50:54.543Z</time></trkpt><trkpt lat="44.0011649" lon="11.9146273"><ele>207.0</ele><time>2026-04-18T12:50:55.546Z</time></trkpt><trkpt lat="44.0012832" lon="11.9147407"><ele>206.0</ele><time>2026-04-18T12:50:56.545Z</time></trkpt><trkpt lat="44.0014066" lon="11.9148554"><ele>205.0</ele><time>2026-04-18T12:50:57.545Z</time></trkpt><trkpt lat="44.0015315" lon="11.9149767"><ele>204.0</ele><time>2026-04-18T12:50:58.552Z</time></trkpt><trkpt lat="44.0016511" lon="11.9151125"><ele>205.0</ele><time>2026-04-18T12:50:59.544Z</time></trkpt><trkpt lat="44.0017642" lon="11.9152512"><ele>206.0</ele><time>2026-04-18T12:51:00.547Z</time></trkpt><trkpt lat="44.0018699" lon="11.9153898"><ele>207.0</ele><time>2026-04-18T12:51:01.544Z</time></trkpt><trkpt lat="44.0019662" lon="11.9155426"><ele>208.0</ele><time>2026-04-18T12:51:02.551Z</time></trkpt><trkpt lat="44.0020553" lon="11.9157106"><ele>208.0</ele><time>2026-04-18T12:51:03.552Z</time></trkpt><trkpt lat="44.0021393" lon="11.915885"><ele>208.0</ele><time>2026-04-18T12:51:04.542Z</time></trkpt><trkpt lat="44.0022163" lon="11.9160681"><ele>208.0</ele><time>2026-04-18T12:51:05.556Z</time></trkpt><trkpt lat="44.002282" lon="11.9162658"><ele>210.33333333333331</ele><time>2026-04-18T12:51:06.549Z</time></trkpt><trkpt lat="44.0023351" lon="11.9164673"><ele>212.66666666666669</ele><time>2026-04-18T12:51:07.551Z</time></trkpt><trkpt lat="44.0023862" lon="11.9166742"><ele>215.0</ele><time>2026-04-18T12:51:08.555Z</time></trkpt><trkpt lat="44.0024363" lon="11.9168817"><ele>215.33333333333334</ele><time>2026-04-18T12:51:09.547Z</time></trkpt><trkpt lat="44.0024858" lon="11.9170907"><ele>215.66666666666669</ele><time>2026-04-18T12:51:10.543Z</time></trkpt><trkpt lat="44.0025381" lon="11.9173049"><ele>216.0</ele><time>2026-04-18T12:51:11.55Z</time></trkpt><trkpt lat="44.0025932" lon="11.9175202"><ele>217.33333333333331</ele><time>2026-04-18T12:51:12.553Z</time></trkpt><trkpt lat="44.002649" lon="11.9177372"><ele>218.66666666666666</ele><time>2026-04-18T12:51:13.556Z</time></trkpt><trkpt lat="44.0027097" lon="11.9179538"><ele>220.0</ele><time>2026-04-18T12:51:14.548Z</time></trkpt><trkpt lat="44.0027735" lon="11.9181705"><ele>220.0</ele><time>2026-04-18T12:51:15.549Z</time></trkpt><trkpt lat="44.002841" lon="11.9183853"><ele>220.0</ele><time>2026-04-18T12:51:16.552Z</time></trkpt><trkpt lat="44.002912" lon="11.9185991"><ele>220.0</ele><time>2026-04-18T12:51:17.546Z</time></trkpt><trkpt lat="44.0029824" lon="11.9188091"><ele>225.33333333333331</ele><time>2026-04-18T12:51:18.55Z</time></trkpt><trkpt lat="44.0030508" lon="11.9190138"><ele>230.66666666666669</ele><time>2026-04-18T12:51:19.549Z</time></trkpt><trkpt lat="44.0031186" lon="11.919223"><ele>236.0</ele><time>2026-04-18T12:51:20.554Z</time></trkpt><trkpt lat="44.0031867" lon="11.9194354"><ele>236.33333333333334</ele><time>2026-04-18T12:51:21.549Z</time></trkpt><trkpt lat="44.0032589" lon="11.9196459"><ele>236.66666666666669</ele><time>2026-04-18T12:51:22.547Z</time></trkpt><trkpt lat="44.0033331" lon="11.919857"><ele>237.0</ele><time>2026-04-18T12:51:23.562Z</time></trkpt><trkpt lat="44.003406" lon="11.9200721"><ele>237.0</ele><time>2026-04-18T12:51:24.552Z</time></trkpt><trkpt lat="44.0034802" lon="11.920291"><ele>237.0</ele><time>2026-04-18T12:51:25.549Z</time></trkpt><trkpt lat="44.0035539" lon="11.9205112"><ele>237.0</ele><time>2026-04-18T12:51:26.555Z</time></trkpt><trkpt lat="44.003631" lon="11.9207289"><ele>243.33333333333331</ele><time>2026-04-18T12:51:27.55Z</time></trkpt><trkpt lat="44.0037086" lon="11.9209442"><ele>249.66666666666666</ele><time>2026-04-18T12:51:28.545Z</time></trkpt><trkpt lat="44.0037862" lon="11.9211552"><ele>256.0</ele><time>2026-04-18T12:51:29.546Z</time></trkpt><trkpt lat="44.0038656" lon="11.9213624"><ele>256.0</ele><time>2026-04-18T12:51:30.551Z</time></trkpt><trkpt lat="44.0039481" lon="11.921566"><ele>256.0</ele><time>2026-04-18T12:51:31.545Z</time></trkpt><trkpt lat="44.0040325" lon="11.9217698"><ele>256.0</ele><time>2026-04-18T12:51:32.542Z</time></trkpt><trkpt lat="44.0041136" lon="11.9219701"><ele>249.33333333333331</ele><time>2026-04-18T12:51:33.552Z</time></trkpt><trkpt lat="44.0041941" lon="11.9221681"><ele>242.66666666666669</ele><time>2026-04-18T12:51:34.554Z</time></trkpt><trkpt lat="44.0042724" lon="11.922369"><ele>236.0</ele><time>2026-04-18T12:51:35.56Z</time></trkpt><trkpt lat="44.0043405" lon="11.9225781"><ele>236.0</ele><time>2026-04-18T12:51:36.547Z</time></trkpt><trkpt lat="44.0044012" lon="11.9227923"><ele>236.0</ele><time>2026-04-18T12:51:37.546Z</time></trkpt><trkpt lat="44.0044585" lon="11.9230143"><ele>236.0</ele><time>2026-04-18T12:51:38.551Z</time></trkpt><trkpt lat="44.0045109" lon="11.9232459"><ele>236.66666666666669</ele><time>2026-04-18T12:51:39.551Z</time></trkpt><trkpt lat="44.0045636" lon="11.9234795"><ele>237.33333333333331</ele><time>2026-04-18T12:51:40.549Z</time></trkpt><trkpt lat="44.0046158" lon="11.9237186"><ele>238.0</ele><time>2026-04-18T12:51:41.546Z</time></trkpt><trkpt lat="44.0046697" lon="11.9239549"><ele>238.0</ele><time>2026-04-18T12:51:42.569Z</time></trkpt><trkpt lat="44.0047254" lon="11.9241918"><ele>238.0</ele><time>2026-04-18T12:51:43.552Z</time></trkpt><trkpt lat="44.0047782" lon="11.924426"><ele>238.0</ele><time>2026-04-18T12:51:44.543Z</time></trkpt><trkpt lat="44.004829" lon="11.924667"><ele>238.66666666666666</ele><time>2026-04-18T12:51:45.558Z</time></trkpt><trkpt lat="44.0048805" lon="11.9249059"><ele>239.33333333333331</ele><time>2026-04-18T12:51:46.556Z</time></trkpt><trkpt lat="44.0049311" lon="11.9251413"><ele>240.0</ele><time>2026-04-18T12:51:47.55Z</time></trkpt><trkpt lat="44.0049816" lon="11.9253731"><ele>239.33333333333331</ele><time>2026-04-18T12:51:48.554Z</time></trkpt><trkpt lat="44.0050322" lon="11.9256063"><ele>238.66666666666666</ele><time>2026-04-18T12:51:49.547Z</time></trkpt><trkpt lat="44.00508" lon="11.9258403"><ele>238.0</ele><time>2026-04-18T12:51:50.553Z</time></trkpt><trkpt lat="44.0051352" lon="11.9260725"><ele>238.0</ele><time>2026-04-18T12:51:51.568Z</time></trkpt><trkpt lat="44.0051855" lon="11.9262984"><ele>238.0</ele><time>2026-04-18T12:51:52.551Z</time></trkpt><trkpt lat="44.0052343" lon="11.9265115"><ele>238.0</ele><time>2026-04-18T12:51:53.558Z</time></trkpt><trkpt lat="44.0052798" lon="11.9267132"><ele>238.33333333333331</ele><time>2026-04-18T12:51:54.555Z</time></trkpt><trkpt lat="44.0053217" lon="11.9269173"><ele>238.66666666666669</ele><time>2026-04-18T12:51:55.551Z</time></trkpt><trkpt lat="44.0053541" lon="11.9271238"><ele>239.0</ele><time>2026-04-18T12:51:56.56Z</time></trkpt><trkpt lat="44.005374" lon="11.9273385"><ele>239.0</ele><time>2026-04-18T12:51:57.547Z</time></trkpt><trkpt lat="44.0053772" lon="11.9275553"><ele>239.0</ele><time>2026-04-18T12:51:58.545Z</time></trkpt><trkpt lat="44.0053692" lon="11.9277722"><ele>239.0</ele><time>2026-04-18T12:51:59.557Z</time></trkpt><trkpt lat="44.0053528" lon="11.9279856"><ele>238.0</ele><time>2026-04-18T12:52:00.551Z</time></trkpt><trkpt lat="44.0053275" lon="11.928196"><ele>237.0</ele><time>2026-04-18T12:52:01.553Z</time></trkpt><trkpt lat="44.0053008" lon="11.9284111"><ele>236.0</ele><time>2026-04-18T12:52:02.546Z</time></trkpt><trkpt lat="44.0052714" lon="11.9286281"><ele>235.33333333333334</ele><time>2026-04-18T12:52:03.551Z</time></trkpt><trkpt lat="44.0052467" lon="11.9288447"><ele>234.66666666666669</ele><time>2026-04-18T12:52:04.553Z</time></trkpt><trkpt lat="44.0052288" lon="11.9290654"><ele>234.0</ele><time>2026-04-18T12:52:05.562Z</time></trkpt><trkpt lat="44.0052225" lon="11.9292933"><ele>233.66666666666669</ele><time>2026-04-18T12:52:06.544Z</time></trkpt><trkpt lat="44.0052319" lon="11.9295241"><ele>233.33333333333334</ele><time>2026-04-18T12:52:07.553Z</time></trkpt><trkpt lat="44.0052521" lon="11.9297578"><ele>233.0</ele><time>2026-04-18T12:52:08.555Z</time></trkpt><trkpt lat="44.0052815" lon="11.9299897"><ele>231.0</ele><time>2026-04-18T12:52:09.557Z</time></trkpt><trkpt lat="44.0053263" lon="11.9302197"><ele>229.0</ele><time>2026-04-18T12:52:10.549Z</time></trkpt><trkpt lat="44.0053872" lon="11.9304424"><ele>227.0</ele><time>2026-04-18T12:52:11.55Z</time></trkpt><trkpt lat="44.0054611" lon="11.9306643"><ele>227.0</ele><time>2026-04-18T12:52:12.555Z</time></trkpt><trkpt lat="44.0055442" lon="11.9308882"><ele>227.0</ele><time>2026-04-18T12:52:13.554Z</time></trkpt><trkpt lat="44.0056307" lon="11.9311105"><ele>227.0</ele><time>2026-04-18T12:52:14.549Z</time></trkpt><trkpt lat="44.0057226" lon="11.9313354"><ele>224.33333333333334</ele><time>2026-04-18T12:52:15.55Z</time></trkpt><trkpt lat="44.0058176" lon="11.9315608"><ele>221.66666666666669</ele><time>2026-04-18T12:52:16.548Z</time></trkpt><trkpt lat="44.0059126" lon="11.9317908"><ele>219.0</ele><time>2026-04-18T12:52:17.548Z</time></trkpt><trkpt lat="44.0060095" lon="11.932021"><ele>217.0</ele><time>2026-04-18T12:52:18.551Z</time></trkpt><trkpt lat="44.0061081" lon="11.9322461"><ele>215.0</ele><time>2026-04-18T12:52:19.556Z</time></trkpt><trkpt lat="44.0062077" lon="11.9324706"><ele>213.0</ele><time>2026-04-18T12:52:20.552Z</time></trkpt><trkpt lat="44.0063069" lon="11.9326975"><ele>213.0</ele><time>2026-04-18T12:52:21.548Z</time></trkpt><trkpt lat="44.0064027" lon="11.932918"><ele>213.0</ele><time>2026-04-18T12:52:22.552Z</time></trkpt><trkpt lat="44.0064993" lon="11.9331394"><ele>213.0</ele><time>2026-04-18T12:52:23.547Z</time></trkpt><trkpt lat="44.0065933" lon="11.9333554"><ele>215.0</ele><time>2026-04-18T12:52:24.563Z</time></trkpt><trkpt lat="44.0066819" lon="11.9335728"><ele>217.0</ele><time>2026-04-18T12:52:25.55Z</time></trkpt><trkpt lat="44.0067569" lon="11.933796"><ele>219.0</ele><time>2026-04-18T12:52:26.55Z</time></trkpt><trkpt lat="44.0068146" lon="11.93402"><ele>219.0</ele><time>2026-04-18T12:52:27.555Z</time></trkpt><trkpt lat="44.0068666" lon="11.9342486"><ele>219.0</ele><time>2026-04-18T12:52:28.554Z</time></trkpt><trkpt lat="44.0069027" lon="11.934488"><ele>219.0</ele><time>2026-04-18T12:52:29.548Z</time></trkpt><trkpt lat="44.0069252" lon="11.9347261"><ele>219.0</ele><time>2026-04-18T12:52:30.55Z</time></trkpt><trkpt lat="44.0069406" lon="11.9349648"><ele>219.0</ele><time>2026-04-18T12:52:31.549Z</time></trkpt><trkpt lat="44.0069571" lon="11.9352074"><ele>219.0</ele><time>2026-04-18T12:52:32.548Z</time></trkpt><trkpt lat="44.0069681" lon="11.9354521"><ele>219.0</ele><time>2026-04-18T12:52:33.548Z</time></trkpt><trkpt lat="44.0069838" lon="11.9356862"><ele>219.0</ele><time>2026-04-18T12:52:34.563Z</time></trkpt><trkpt lat="44.0069934" lon="11.9359159"><ele>219.0</ele><time>2026-04-18T12:52:35.546Z</time></trkpt><trkpt lat="44.0070072" lon="11.9361393"><ele>219.0</ele><time>2026-04-18T12:52:36.56Z</time></trkpt><trkpt lat="44.0070195" lon="11.9363661"><ele>219.0</ele><time>2026-04-18T12:52:37.556Z</time></trkpt><trkpt lat="44.0070308" lon="11.9365937"><ele>219.0</ele><time>2026-04-18T12:52:38.544Z</time></trkpt><trkpt lat="44.0070459" lon="11.9368184"><ele>219.0</ele><time>2026-04-18T12:52:39.549Z</time></trkpt><trkpt lat="44.0070604" lon="11.9370431"><ele>219.0</ele><time>2026-04-18T12:52:40.559Z</time></trkpt><trkpt lat="44.0070731" lon="11.9372674"><ele>219.0</ele><time>2026-04-18T12:52:41.559Z</time></trkpt><trkpt lat="44.0070852" lon="11.9374912"><ele>218.33333333333331</ele><time>2026-04-18T12:52:42.555Z</time></trkpt><trkpt lat="44.0070987" lon="11.9377172"><ele>217.66666666666666</ele><time>2026-04-18T12:52:43.545Z</time></trkpt><trkpt lat="44.0071141" lon="11.9379399"><ele>217.0</ele><time>2026-04-18T12:52:44.558Z</time></trkpt><trkpt lat="44.0071281" lon="11.9381602"><ele>217.0</ele><time>2026-04-18T12:52:45.558Z</time></trkpt><trkpt lat="44.0071447" lon="11.9383735"><ele>217.0</ele><time>2026-04-18T12:52:46.552Z</time></trkpt><trkpt lat="44.0071665" lon="11.9385832"><ele>217.0</ele><time>2026-04-18T12:52:47.558Z</time></trkpt><trkpt lat="44.007179" lon="11.9387962"><ele>217.66666666666666</ele><time>2026-04-18T12:52:48.549Z</time></trkpt><trkpt lat="44.0071899" lon="11.9390107"><ele>218.33333333333331</ele><time>2026-04-18T12:52:49.56Z</time></trkpt><trkpt lat="44.0072026" lon="11.9392296"><ele>219.0</ele><time>2026-04-18T12:52:50.554Z</time></trkpt><trkpt lat="44.0072173" lon="11.9394529"><ele>219.33333333333331</ele><time>2026-04-18T12:52:51.551Z</time></trkpt><trkpt lat="44.0072327" lon="11.939679"><ele>219.66666666666666</ele><time>2026-04-18T12:52:52.557Z</time></trkpt><trkpt lat="44.0072478" lon="11.9399001"><ele>220.0</ele><time>2026-04-18T12:52:53.552Z</time></trkpt><trkpt lat="44.0072564" lon="11.9401175"><ele>220.0</ele><time>2026-04-18T12:52:54.547Z</time></trkpt><trkpt lat="44.0072687" lon="11.9403185"><ele>220.0</ele><time>2026-04-18T12:52:55.55Z</time></trkpt><trkpt lat="44.007275" lon="11.9405102"><ele>220.0</ele><time>2026-04-18T12:52:56.552Z</time></trkpt><trkpt lat="44.0072701" lon="11.940692"><ele>220.0</ele><time>2026-04-18T12:52:57.553Z</time></trkpt><trkpt lat="44.007252" lon="11.9408629"><ele>219.5</ele><time>2026-04-18T12:52:58.566Z</time></trkpt><trkpt lat="44.0072177" lon="11.9410228"><ele>219.0</ele><time>2026-04-18T12:52:59.549Z</time></trkpt><trkpt lat="44.007167" lon="11.9411649"><ele>218.5</ele><time>2026-04-18T12:53:00.553Z</time></trkpt><trkpt lat="44.0071037" lon="11.9413016"><ele>218.0</ele><time>2026-04-18T12:53:01.547Z</time></trkpt><trkpt lat="44.0070326" lon="11.9414322"><ele>218.0</ele><time>2026-04-18T12:53:02.548Z</time></trkpt><trkpt lat="44.0069348" lon="11.9415622"><ele>218.0</ele><time>2026-04-18T12:53:03.55Z</time></trkpt><trkpt lat="44.0068288" lon="11.9416897"><ele>218.0</ele><time>2026-04-18T12:53:04.557Z</time></trkpt><trkpt lat="44.0067236" lon="11.9418234"><ele>218.0</ele><time>2026-04-18T12:53:05.545Z</time></trkpt><trkpt lat="44.0066283" lon="11.9419714"><ele>219.25</ele><time>2026-04-18T12:53:06.549Z</time></trkpt><trkpt lat="44.0065514" lon="11.942144"><ele>220.5</ele><time>2026-04-18T12:53:07.558Z</time></trkpt><trkpt lat="44.0064972" lon="11.942331"><ele>221.75</ele><time>2026-04-18T12:53:08.547Z</time></trkpt><trkpt lat="44.0064611" lon="11.9425272"><ele>223.0</ele><time>2026-04-18T12:53:09.555Z</time></trkpt><trkpt lat="44.0064356" lon="11.9427288"><ele>223.0</ele><time>2026-04-18T12:53:10.556Z</time></trkpt><trkpt lat="44.0064137" lon="11.9429309"><ele>223.0</ele><time>2026-04-18T12:53:11.554Z</time></trkpt><trkpt lat="44.0063934" lon="11.9431343"><ele>223.0</ele><time>2026-04-18T12:53:12.544Z</time></trkpt><trkpt lat="44.0063874" lon="11.9433387"><ele>223.0</ele><time>2026-04-18T12:53:13.555Z</time></trkpt><trkpt lat="44.0064027" lon="11.943541"><ele>223.5</ele><time>2026-04-18T12:53:14.558Z</time></trkpt><trkpt lat="44.0064408" lon="11.9437394"><ele>224.0</ele><time>2026-04-18T12:53:15.549Z</time></trkpt><trkpt lat="44.0064991" lon="11.9439215"><ele>224.5</ele><time>2026-04-18T12:53:16.549Z</time></trkpt><trkpt lat="44.0065781" lon="11.9440922"><ele>225.0</ele><time>2026-04-18T12:53:17.554Z</time></trkpt><trkpt lat="44.0066749" lon="11.9442491"><ele>222.66666666666669</ele><time>2026-04-18T12:53:18.548Z</time></trkpt><trkpt lat="44.0067913" lon="11.9443873"><ele>220.33333333333334</ele><time>2026-04-18T12:53:19.548Z</time></trkpt><trkpt lat="44.0069249" lon="11.9445018"><ele>218.0</ele><time>2026-04-18T12:53:20.558Z</time></trkpt><trkpt lat="44.0070715" lon="11.9445969"><ele>218.0</ele><time>2026-04-18T12:53:21.549Z</time></trkpt><trkpt lat="44.0072169" lon="11.9446946"><ele>218.0</ele><time>2026-04-18T12:53:22.55Z</time></trkpt><trkpt lat="44.0073652" lon="11.9447929"><ele>218.0</ele><time>2026-04-18T12:53:23.551Z</time></trkpt><trkpt lat="44.0075157" lon="11.9448962"><ele>218.0</ele><time>2026-04-18T12:53:24.559Z</time></trkpt><trkpt lat="44.0076708" lon="11.9450039"><ele>218.0</ele><time>2026-04-18T12:53:25.553Z</time></trkpt><trkpt lat="44.0078231" lon="11.9451165"><ele>218.0</ele><time>2026-04-18T12:53:26.555Z</time></trkpt><trkpt lat="44.0079756" lon="11.9452215"><ele>218.0</ele><time>2026-04-18T12:53:27.557Z</time></trkpt><trkpt lat="44.0081225" lon="11.9453286"><ele>218.0</ele><time>2026-04-18T12:53:28.546Z</time></trkpt><trkpt lat="44.0082705" lon="11.945435"><ele>218.0</ele><time>2026-04-18T12:53:29.554Z</time></trkpt><trkpt lat="44.0084207" lon="11.945552"><ele>214.66666666666669</ele><time>2026-04-18T12:53:30.559Z</time></trkpt><trkpt lat="44.0085712" lon="11.9456813"><ele>211.33333333333331</ele><time>2026-04-18T12:53:31.542Z</time></trkpt><trkpt lat="44.0087155" lon="11.9458281"><ele>208.0</ele><time>2026-04-18T12:53:32.547Z</time></trkpt><trkpt lat="44.0088456" lon="11.9459983"><ele>208.0</ele><time>2026-04-18T12:53:33.551Z</time></trkpt><trkpt lat="44.0089572" lon="11.9461822"><ele>208.0</ele><time>2026-04-18T12:53:34.555Z</time></trkpt><trkpt lat="44.009057" lon="11.9463804"><ele>208.0</ele><time>2026-04-18T12:53:35.552Z</time></trkpt><trkpt lat="44.0091584" lon="11.9465742"><ele>205.0</ele><time>2026-04-18T12:53:36.55Z</time></trkpt><trkpt lat="44.009255" lon="11.9467638"><ele>202.0</ele><time>2026-04-18T12:53:37.549Z</time></trkpt><trkpt lat="44.0093468" lon="11.9469551"><ele>199.0</ele><time>2026-04-18T12:53:38.552Z</time></trkpt><trkpt lat="44.0094399" lon="11.9471465"><ele>199.0</ele><time>2026-04-18T12:53:39.549Z</time></trkpt><trkpt lat="44.0095328" lon="11.9473405"><ele>199.0</ele><time>2026-04-18T12:53:40.551Z</time></trkpt><trkpt lat="44.0096309" lon="11.9475344"><ele>199.0</ele><time>2026-04-18T12:53:41.544Z</time></trkpt><trkpt lat="44.0097299" lon="11.9477332"><ele>197.66666666666666</ele><time>2026-04-18T12:53:42.551Z</time></trkpt><trkpt lat="44.009831" lon="11.9479304"><ele>196.33333333333331</ele><time>2026-04-18T12:53:43.565Z</time></trkpt><trkpt lat="44.0099289" lon="11.9481259"><ele>195.0</ele><time>2026-04-18T12:53:44.55Z</time></trkpt><trkpt lat="44.0100207" lon="11.9483236"><ele>197.0</ele><time>2026-04-18T12:53:45.545Z</time></trkpt><trkpt lat="44.0101137" lon="11.9485238"><ele>199.0</ele><time>2026-04-18T12:53:46.561Z</time></trkpt><trkpt lat="44.0102065" lon="11.9487263"><ele>201.0</ele><time>2026-04-18T12:53:47.552Z</time></trkpt><trkpt lat="44.0102899" lon="11.9489371"><ele>201.0</ele><time>2026-04-18T12:53:48.55Z</time></trkpt><trkpt lat="44.0103651" lon="11.9491624"><ele>201.0</ele><time>2026-04-18T12:53:49.554Z</time></trkpt><trkpt lat="44.0104396" lon="11.9493906"><ele>201.0</ele><time>2026-04-18T12:53:50.557Z</time></trkpt><trkpt lat="44.0105136" lon="11.9496199"><ele>202.0</ele><time>2026-04-18T12:53:51.553Z</time></trkpt><trkpt lat="44.0105864" lon="11.9498504"><ele>203.0</ele><time>2026-04-18T12:53:52.551Z</time></trkpt><trkpt lat="44.0106622" lon="11.9500831"><ele>204.0</ele><time>2026-04-18T12:53:53.559Z</time></trkpt><trkpt lat="44.0107391" lon="11.9503149"><ele>205.33333333333331</ele><time>2026-04-18T12:53:54.55Z</time></trkpt><trkpt lat="44.0108181" lon="11.9505505"><ele>206.66666666666666</ele><time>2026-04-18T12:53:55.547Z</time></trkpt><trkpt lat="44.0108966" lon="11.9507865"><ele>208.0</ele><time>2026-04-18T12:53:56.551Z</time></trkpt><trkpt lat="44.0109752" lon="11.9510263"><ele>204.33333333333331</ele><time>2026-04-18T12:53:57.55Z</time></trkpt><trkpt lat="44.011051" lon="11.9512606"><ele>200.66666666666669</ele><time>2026-04-18T12:53:58.561Z</time></trkpt><trkpt lat="44.0111247" lon="11.9514908"><ele>197.0</ele><time>2026-04-18T12:53:59.544Z</time></trkpt><trkpt lat="44.0112011" lon="11.9517131"><ele>197.0</ele><time>2026-04-18T12:54:00.554Z</time></trkpt><trkpt lat="44.0112778" lon="11.9519328"><ele>197.0</ele><time>2026-04-18T12:54:01.548Z</time></trkpt><trkpt lat="44.0113503" lon="11.9521528"><ele>197.0</ele><time>2026-04-18T12:54:02.554Z</time></trkpt><trkpt lat="44.01142" lon="11.9523698"><ele>197.66666666666669</ele><time>2026-04-18T12:54:03.548Z</time></trkpt><trkpt lat="44.0114877" lon="11.9525858"><ele>198.33333333333331</ele><time>2026-04-18T12:54:04.548Z</time></trkpt><trkpt lat="44.0115594" lon="11.9527969"><ele>199.0</ele><time>2026-04-18T12:54:05.547Z</time></trkpt><trkpt lat="44.0116277" lon="11.9530068"><ele>196.0</ele><time>2026-04-18T12:54:06.56Z</time></trkpt><trkpt lat="44.0116995" lon="11.9532137"><ele>193.0</ele><time>2026-04-18T12:54:07.548Z</time></trkpt><trkpt lat="44.0117732" lon="11.9534216"><ele>190.0</ele><time>2026-04-18T12:54:08.55Z</time></trkpt><trkpt lat="44.0118448" lon="11.9536297"><ele>190.0</ele><time>2026-04-18T12:54:09.554Z</time></trkpt><trkpt lat="44.0119144" lon="11.9538359"><ele>190.0</ele><time>2026-04-18T12:54:10.551Z</time></trkpt><trkpt lat="44.0119832" lon="11.9540415"><ele>190.0</ele><time>2026-04-18T12:54:11.555Z</time></trkpt><trkpt lat="44.0120424" lon="11.9542492"><ele>191.0</ele><time>2026-04-18T12:54:12.55Z</time></trkpt><trkpt lat="44.0120955" lon="11.9544612"><ele>192.0</ele><time>2026-04-18T12:54:13.551Z</time></trkpt><trkpt lat="44.0121482" lon="11.9546819"><ele>193.0</ele><time>2026-04-18T12:54:14.548Z</time></trkpt><trkpt lat="44.0122011" lon="11.9549062"><ele>193.0</ele><time>2026-04-18T12:54:15.545Z</time></trkpt><trkpt lat="44.0122467" lon="11.9551358"><ele>193.0</ele><time>2026-04-18T12:54:16.563Z</time></trkpt><trkpt lat="44.0122896" lon="11.9553693"><ele>193.0</ele><time>2026-04-18T12:54:17.55Z</time></trkpt><trkpt lat="44.0123273" lon="11.9556039"><ele>193.0</ele><time>2026-04-18T12:54:18.552Z</time></trkpt><trkpt lat="44.012364" lon="11.9558401"><ele>193.0</ele><time>2026-04-18T12:54:19.547Z</time></trkpt><trkpt lat="44.0124003" lon="11.9560743"><ele>193.0</ele><time>2026-04-18T12:54:20.558Z</time></trkpt><trkpt lat="44.0124367" lon="11.9563126"><ele>193.33333333333331</ele><time>2026-04-18T12:54:21.561Z</time></trkpt><trkpt lat="44.0124712" lon="11.9565486"><ele>193.66666666666669</ele><time>2026-04-18T12:54:22.551Z</time></trkpt><trkpt lat="44.0125062" lon="11.9567876"><ele>194.0</ele><time>2026-04-18T12:54:23.554Z</time></trkpt><trkpt lat="44.012543" lon="11.9570254"><ele>191.0</ele><time>2026-04-18T12:54:24.548Z</time></trkpt><trkpt lat="44.0125794" lon="11.9572642"><ele>188.0</ele><time>2026-04-18T12:54:25.551Z</time></trkpt><trkpt lat="44.0126144" lon="11.9575076"><ele>185.0</ele><time>2026-04-18T12:54:26.55Z</time></trkpt><trkpt lat="44.0126505" lon="11.9577558"><ele>185.0</ele><time>2026-04-18T12:54:27.553Z</time></trkpt><trkpt lat="44.0126851" lon="11.9580055"><ele>185.0</ele><time>2026-04-18T12:54:28.547Z</time></trkpt><trkpt lat="44.0127185" lon="11.9582552"><ele>185.0</ele><time>2026-04-18T12:54:29.554Z</time></trkpt><trkpt lat="44.0127584" lon="11.9585087"><ele>186.0</ele><time>2026-04-18T12:54:30.557Z</time></trkpt><trkpt lat="44.0127937" lon="11.9587602"><ele>187.0</ele><time>2026-04-18T12:54:31.547Z</time></trkpt><trkpt lat="44.0128302" lon="11.9590104"><ele>188.0</ele><time>2026-04-18T12:54:32.556Z</time></trkpt><trkpt lat="44.0128662" lon="11.9592621"><ele>189.66666666666666</ele><time>2026-04-18T12:54:33.552Z</time></trkpt><trkpt lat="44.0129045" lon="11.9595144"><ele>191.33333333333331</ele><time>2026-04-18T12:54:34.544Z</time></trkpt><trkpt lat="44.0129419" lon="11.9597654"><ele>193.0</ele><time>2026-04-18T12:54:35.545Z</time></trkpt><trkpt lat="44.0129781" lon="11.9600142"><ele>196.0</ele><time>2026-04-18T12:54:36.562Z</time></trkpt><trkpt lat="44.0130161" lon="11.960264"><ele>199.0</ele><time>2026-04-18T12:54:37.552Z</time></trkpt><trkpt lat="44.0130573" lon="11.9605073"><ele>202.0</ele><time>2026-04-18T12:54:38.547Z</time></trkpt><trkpt lat="44.0131058" lon="11.9607439"><ele>204.0</ele><time>2026-04-18T12:54:39.546Z</time></trkpt><trkpt lat="44.0131594" lon="11.9609551"><ele>206.0</ele><time>2026-04-18T12:54:40.551Z</time></trkpt><trkpt lat="44.0132178" lon="11.9611527"><ele>208.0</ele><time>2026-04-18T12:54:41.549Z</time></trkpt><trkpt lat="44.0132855" lon="11.9613436"><ele>204.0</ele><time>2026-04-18T12:54:42.551Z</time></trkpt><trkpt lat="44.0133627" lon="11.9615305"><ele>200.0</ele><time>2026-04-18T12:54:43.555Z</time></trkpt><trkpt lat="44.0134568" lon="11.9617109"><ele>196.0</ele><time>2026-04-18T12:54:44.548Z</time></trkpt><trkpt lat="44.0135554" lon="11.9618962"><ele>196.0</ele><time>2026-04-18T12:54:45.547Z</time></trkpt><trkpt lat="44.0136528" lon="11.9620921"><ele>196.0</ele><time>2026-04-18T12:54:46.55Z</time></trkpt><trkpt lat="44.0137536" lon="11.962294"><ele>196.0</ele><time>2026-04-18T12:54:47.548Z</time></trkpt><trkpt lat="44.0138567" lon="11.9624972"><ele>193.33333333333331</ele><time>2026-04-18T12:54:48.545Z</time></trkpt><trkpt lat="44.0139649" lon="11.9627019"><ele>190.66666666666666</ele><time>2026-04-18T12:54:49.568Z</time></trkpt><trkpt lat="44.0140846" lon="11.9628999"><ele>188.0</ele><time>2026-04-18T12:54:50.546Z</time></trkpt><trkpt lat="44.0142162" lon="11.9630938"><ele>188.0</ele><time>2026-04-18T12:54:51.547Z</time></trkpt><trkpt lat="44.0143584" lon="11.9632788"><ele>188.0</ele><time>2026-04-18T12:54:52.553Z</time></trkpt><trkpt lat="44.0145041" lon="11.9634603"><ele>188.0</ele><time>2026-04-18T12:54:53.554Z</time></trkpt><trkpt lat="44.0146532" lon="11.9636393"><ele>191.0</ele><time>2026-04-18T12:54:54.547Z</time></trkpt><trkpt lat="44.0148003" lon="11.9638206"><ele>194.0</ele><time>2026-04-18T12:54:55.549Z</time></trkpt><trkpt lat="44.0149487" lon="11.9640023"><ele>197.0</ele><time>2026-04-18T12:54:56.547Z</time></trkpt><trkpt lat="44.0150982" lon="11.9641835"><ele>193.0</ele><time>2026-04-18T12:54:57.556Z</time></trkpt><trkpt lat="44.0152472" lon="11.9643659"><ele>189.0</ele><time>2026-04-18T12:54:58.553Z</time></trkpt><trkpt lat="44.015398" lon="11.9645423"><ele>185.0</ele><time>2026-04-18T12:54:59.548Z</time></trkpt><trkpt lat="44.0155517" lon="11.9647214"><ele>185.0</ele><time>2026-04-18T12:55:00.55Z</time></trkpt><trkpt lat="44.0157005" lon="11.9648996"><ele>185.0</ele><time>2026-04-18T12:55:01.553Z</time></trkpt><trkpt lat="44.0158467" lon="11.9650754"><ele>185.0</ele><time>2026-04-18T12:55:02.56Z</time></trkpt><trkpt lat="44.0159923" lon="11.9652499"><ele>182.66666666666666</ele><time>2026-04-18T12:55:03.552Z</time></trkpt><trkpt lat="44.016134" lon="11.9654288"><ele>180.33333333333334</ele><time>2026-04-18T12:55:04.558Z</time></trkpt><trkpt lat="44.0162692" lon="11.9656026"><ele>178.0</ele><time>2026-04-18T12:55:05.544Z</time></trkpt><trkpt lat="44.0163944" lon="11.9657842"><ele>179.66666666666669</ele><time>2026-04-18T12:55:06.56Z</time></trkpt><trkpt lat="44.0165087" lon="11.9659894"><ele>181.33333333333334</ele><time>2026-04-18T12:55:07.547Z</time></trkpt><trkpt lat="44.0166053" lon="11.9662135"><ele>183.0</ele><time>2026-04-18T12:55:08.558Z</time></trkpt><trkpt lat="44.0166859" lon="11.9664457"><ele>185.33333333333334</ele><time>2026-04-18T12:55:09.554Z</time></trkpt><trkpt lat="44.0167591" lon="11.9666926"><ele>187.66666666666669</ele><time>2026-04-18T12:55:10.548Z</time></trkpt><trkpt lat="44.016828" lon="11.9669467"><ele>190.0</ele><time>2026-04-18T12:55:11.544Z</time></trkpt><trkpt lat="44.0168953" lon="11.9671983"><ele>190.33333333333334</ele><time>2026-04-18T12:55:12.547Z</time></trkpt><trkpt lat="44.0169647" lon="11.9674439"><ele>190.66666666666666</ele><time>2026-04-18T12:55:13.558Z</time></trkpt><trkpt lat="44.0170402" lon="11.9676842"><ele>191.0</ele><time>2026-04-18T12:55:14.553Z</time></trkpt><trkpt lat="44.0171206" lon="11.9679195"><ele>193.33333333333331</ele><time>2026-04-18T12:55:15.553Z</time></trkpt><trkpt lat="44.0172087" lon="11.96815"><ele>195.66666666666666</ele><time>2026-04-18T12:55:16.544Z</time></trkpt><trkpt lat="44.0173042" lon="11.9683713"><ele>198.0</ele><time>2026-04-18T12:55:17.556Z</time></trkpt><trkpt lat="44.0174079" lon="11.9685837"><ele>198.66666666666669</ele><time>2026-04-18T12:55:18.547Z</time></trkpt><trkpt lat="44.0175205" lon="11.9687888"><ele>199.33333333333334</ele><time>2026-04-18T12:55:19.554Z</time></trkpt><trkpt lat="44.0176405" lon="11.9689834"><ele>200.0</ele><time>2026-04-18T12:55:20.557Z</time></trkpt><trkpt lat="44.0177729" lon="11.9691671"><ele>205.66666666666669</ele><time>2026-04-18T12:55:21.55Z</time></trkpt><trkpt lat="44.017917" lon="11.9693471"><ele>211.33333333333331</ele><time>2026-04-18T12:55:22.554Z</time></trkpt><trkpt lat="44.0180701" lon="11.9695169"><ele>217.0</ele><time>2026-04-18T12:55:23.557Z</time></trkpt><trkpt lat="44.0182328" lon="11.9696814"><ele>215.0</ele><time>2026-04-18T12:55:24.55Z</time></trkpt><trkpt lat="44.0184" lon="11.9698342"><ele>213.0</ele><time>2026-04-18T12:55:25.548Z</time></trkpt><trkpt lat="44.0185723" lon="11.9699844"><ele>211.0</ele><time>2026-04-18T12:55:26.556Z</time></trkpt><trkpt lat="44.0187481" lon="11.9701309"><ele>211.0</ele><time>2026-04-18T12:55:27.543Z</time></trkpt><trkpt lat="44.0189223" lon="11.9702843"><ele>211.0</ele><time>2026-04-18T12:55:28.547Z</time></trkpt><trkpt lat="44.0190971" lon="11.9704409"><ele>211.0</ele><time>2026-04-18T12:55:29.545Z</time></trkpt><trkpt lat="44.0192727" lon="11.9706008"><ele>209.0</ele><time>2026-04-18T12:55:30.557Z</time></trkpt><trkpt lat="44.0194474" lon="11.9707657"><ele>207.0</ele><time>2026-04-18T12:55:31.561Z</time></trkpt><trkpt lat="44.0196248" lon="11.97093"><ele>205.0</ele><time>2026-04-18T12:55:32.569Z</time></trkpt><trkpt lat="44.0197993" lon="11.9710965"><ele>205.0</ele><time>2026-04-18T12:55:33.543Z</time></trkpt><trkpt lat="44.0199728" lon="11.9712619"><ele>205.0</ele><time>2026-04-18T12:55:34.547Z</time></trkpt><trkpt lat="44.0201485" lon="11.9714266"><ele>205.0</ele><time>2026-04-18T12:55:35.547Z</time></trkpt><trkpt lat="44.0203201" lon="11.9715912"><ele>203.66666666666666</ele><time>2026-04-18T12:55:36.556Z</time></trkpt><trkpt lat="44.020492" lon="11.9717513"><ele>202.33333333333331</ele><time>2026-04-18T12:55:37.552Z</time></trkpt><trkpt lat="44.0206628" lon="11.971909"><ele>201.0</ele><time>2026-04-18T12:55:38.553Z</time></trkpt><trkpt lat="44.0208331" lon="11.9720642"><ele>200.0</ele><time>2026-04-18T12:55:39.556Z</time></trkpt><trkpt lat="44.021004" lon="11.9722233"><ele>199.0</ele><time>2026-04-18T12:55:40.547Z</time></trkpt><trkpt lat="44.0211744" lon="11.9723816"><ele>198.0</ele><time>2026-04-18T12:55:41.559Z</time></trkpt><trkpt lat="44.0213429" lon="11.972543"><ele>198.0</ele><time>2026-04-18T12:55:42.551Z</time></trkpt><trkpt lat="44.0215126" lon="11.9727021"><ele>198.0</ele><time>2026-04-18T12:55:43.551Z</time></trkpt><trkpt lat="44.0216837" lon="11.9728626"><ele>198.0</ele><time>2026-04-18T12:55:44.552Z</time></trkpt><trkpt lat="44.0218557" lon="11.9730232"><ele>198.0</ele><time>2026-04-18T12:55:45.554Z</time></trkpt><trkpt lat="44.0220259" lon="11.9731861"><ele>198.0</ele><time>2026-04-18T12:55:46.547Z</time></trkpt><trkpt lat="44.0221957" lon="11.973344"><ele>198.0</ele><time>2026-04-18T12:55:47.544Z</time></trkpt><trkpt lat="44.0223648" lon="11.9735016"><ele>197.0</ele><time>2026-04-18T12:55:48.556Z</time></trkpt><trkpt lat="44.0225319" lon="11.9736557"><ele>196.0</ele><time>2026-04-18T12:55:49.552Z</time></trkpt><trkpt lat="44.0226974" lon="11.9738102"><ele>195.0</ele><time>2026-04-18T12:55:50.554Z</time></trkpt><trkpt lat="44.0228648" lon="11.973967"><ele>195.0</ele><time>2026-04-18T12:55:51.554Z</time></trkpt><trkpt lat="44.0230307" lon="11.9741211"><ele>195.0</ele><time>2026-04-18T12:55:52.547Z</time></trkpt><trkpt lat="44.0232028" lon="11.9742736"><ele>195.0</ele><time>2026-04-18T12:55:53.546Z</time></trkpt><trkpt lat="44.0233728" lon="11.9744347"><ele>195.66666666666669</ele><time>2026-04-18T12:55:54.549Z</time></trkpt><trkpt lat="44.023545" lon="11.9746004"><ele>196.33333333333334</ele><time>2026-04-18T12:55:55.556Z</time></trkpt><trkpt lat="44.0237216" lon="11.9747635"><ele>197.0</ele><time>2026-04-18T12:55:56.554Z</time></trkpt><trkpt lat="44.0238994" lon="11.9749259"><ele>198.0</ele><time>2026-04-18T12:55:57.55Z</time></trkpt><trkpt lat="44.0240727" lon="11.9750842"><ele>199.0</ele><time>2026-04-18T12:55:58.556Z</time></trkpt><trkpt lat="44.024242" lon="11.9752395"><ele>200.0</ele><time>2026-04-18T12:55:59.562Z</time></trkpt><trkpt lat="44.0244068" lon="11.9753903"><ele>197.0</ele><time>2026-04-18T12:56:00.549Z</time></trkpt><trkpt lat="44.024564" lon="11.9755343"><ele>194.0</ele><time>2026-04-18T12:56:01.556Z</time></trkpt><trkpt lat="44.0247151" lon="11.9756741"><ele>191.0</ele><time>2026-04-18T12:56:02.564Z</time></trkpt><trkpt lat="44.0248614" lon="11.9758167"><ele>188.0</ele><time>2026-04-18T12:56:03.548Z</time></trkpt><trkpt lat="44.0250019" lon="11.9759742"><ele>185.0</ele><time>2026-04-18T12:56:04.558Z</time></trkpt><trkpt lat="44.0251307" lon="11.9761524"><ele>182.0</ele><time>2026-04-18T12:56:05.551Z</time></trkpt><trkpt lat="44.0252439" lon="11.976356"><ele>182.0</ele><time>2026-04-18T12:56:06.562Z</time></trkpt><trkpt lat="44.0253495" lon="11.9765828"><ele>182.0</ele><time>2026-04-18T12:56:07.55Z</time></trkpt><trkpt lat="44.0254542" lon="11.9768285"><ele>182.0</ele><time>2026-04-18T12:56:08.558Z</time></trkpt><trkpt lat="44.0255598" lon="11.977075"><ele>182.33333333333331</ele><time>2026-04-18T12:56:09.552Z</time></trkpt><trkpt lat="44.0256707" lon="11.9773101"><ele>182.66666666666666</ele><time>2026-04-18T12:56:10.552Z</time></trkpt><trkpt lat="44.025782" lon="11.9775461"><ele>183.0</ele><time>2026-04-18T12:56:11.558Z</time></trkpt><trkpt lat="44.0258893" lon="11.9777741"><ele>183.0</ele><time>2026-04-18T12:56:12.554Z</time></trkpt><trkpt lat="44.0259928" lon="11.9779934"><ele>183.0</ele><time>2026-04-18T12:56:13.547Z</time></trkpt><trkpt lat="44.0260854" lon="11.9782073"><ele>183.0</ele><time>2026-04-18T12:56:14.562Z</time></trkpt><trkpt lat="44.0261788" lon="11.9784093"><ele>183.0</ele><time>2026-04-18T12:56:15.55Z</time></trkpt><trkpt lat="44.0262707" lon="11.9786031"><ele>183.0</ele><time>2026-04-18T12:56:16.554Z</time></trkpt><trkpt lat="44.026375" lon="11.9787849"><ele>183.0</ele><time>2026-04-18T12:56:17.55Z</time></trkpt><trkpt lat="44.0265111" lon="11.9789511"><ele>182.33333333333334</ele><time>2026-04-18T12:56:18.544Z</time></trkpt><trkpt lat="44.0266474" lon="11.979119"><ele>181.66666666666669</ele><time>2026-04-18T12:56:19.548Z</time></trkpt><trkpt lat="44.0267817" lon="11.9792788"><ele>181.0</ele><time>2026-04-18T12:56:20.55Z</time></trkpt><trkpt lat="44.0269131" lon="11.9794349"><ele>181.0</ele><time>2026-04-18T12:56:21.554Z</time></trkpt><trkpt lat="44.0270453" lon="11.979599"><ele>181.0</ele><time>2026-04-18T12:56:22.546Z</time></trkpt><trkpt lat="44.0271689" lon="11.979781"><ele>181.0</ele><time>2026-04-18T12:56:23.562Z</time></trkpt><trkpt lat="44.0272751" lon="11.9799827"><ele>181.0</ele><time>2026-04-18T12:56:24.545Z</time></trkpt><trkpt lat="44.0273697" lon="11.9802041"><ele>181.0</ele><time>2026-04-18T12:56:25.552Z</time></trkpt><trkpt lat="44.0274601" lon="11.9804493"><ele>181.0</ele><time>2026-04-18T12:56:26.551Z</time></trkpt><trkpt lat="44.0275558" lon="11.9806982"><ele>178.66666666666669</ele><time>2026-04-18T12:56:27.55Z</time></trkpt><trkpt lat="44.0276563" lon="11.9809355"><ele>176.33333333333334</ele><time>2026-04-18T12:56:28.552Z</time></trkpt><trkpt lat="44.0277745" lon="11.9811591"><ele>174.0</ele><time>2026-04-18T12:56:29.551Z</time></trkpt><trkpt lat="44.0279091" lon="11.9813648"><ele>174.0</ele><time>2026-04-18T12:56:30.55Z</time></trkpt><trkpt lat="44.0280558" lon="11.9815567"><ele>174.0</ele><time>2026-04-18T12:56:31.55Z</time></trkpt><trkpt lat="44.0282101" lon="11.9817418"><ele>174.0</ele><time>2026-04-18T12:56:32.555Z</time></trkpt><trkpt lat="44.0283647" lon="11.9819309"><ele>171.33333333333334</ele><time>2026-04-18T12:56:33.551Z</time></trkpt><trkpt lat="44.0285207" lon="11.9821173"><ele>168.66666666666669</ele><time>2026-04-18T12:56:34.556Z</time></trkpt><trkpt lat="44.0286792" lon="11.9823048"><ele>166.0</ele><time>2026-04-18T12:56:35.566Z</time></trkpt><trkpt lat="44.0288386" lon="11.9824933"><ele>167.0</ele><time>2026-04-18T12:56:36.545Z</time></trkpt><trkpt lat="44.0289951" lon="11.9826865"><ele>168.0</ele><time>2026-04-18T12:56:37.552Z</time></trkpt><trkpt lat="44.0291487" lon="11.982873"><ele>169.0</ele><time>2026-04-18T12:56:38.544Z</time></trkpt><trkpt lat="44.0293063" lon="11.9830587"><ele>166.66666666666669</ele><time>2026-04-18T12:56:39.566Z</time></trkpt><trkpt lat="44.0294666" lon="11.9832444"><ele>164.33333333333334</ele><time>2026-04-18T12:56:40.556Z</time></trkpt><trkpt lat="44.0296285" lon="11.9834275"><ele>162.0</ele><time>2026-04-18T12:56:41.561Z</time></trkpt><trkpt lat="44.0297918" lon="11.9836128"><ele>162.0</ele><time>2026-04-18T12:56:42.549Z</time></trkpt><trkpt lat="44.029957" lon="11.9837958"><ele>162.0</ele><time>2026-04-18T12:56:43.551Z</time></trkpt><trkpt lat="44.0301236" lon="11.9839767"><ele>162.0</ele><time>2026-04-18T12:56:44.557Z</time></trkpt><trkpt lat="44.0302898" lon="11.9841582"><ele>161.0</ele><time>2026-04-18T12:56:45.549Z</time></trkpt><trkpt lat="44.0304534" lon="11.98434"><ele>160.0</ele><time>2026-04-18T12:56:46.55Z</time></trkpt><trkpt lat="44.0306174" lon="11.9845213"><ele>159.0</ele><time>2026-04-18T12:56:47.547Z</time></trkpt><trkpt lat="44.0307815" lon="11.9847006"><ele>159.0</ele><time>2026-04-18T12:56:48.563Z</time></trkpt><trkpt lat="44.0309454" lon="11.9848766"><ele>159.0</ele><time>2026-04-18T12:56:49.559Z</time></trkpt><trkpt lat="44.0311098" lon="11.9850538"><ele>159.0</ele><time>2026-04-18T12:56:50.549Z</time></trkpt><trkpt lat="44.0312723" lon="11.9852336"><ele>159.0</ele><time>2026-04-18T12:56:51.549Z</time></trkpt><trkpt lat="44.031432" lon="11.9854118"><ele>159.0</ele><time>2026-04-18T12:56:52.553Z</time></trkpt><trkpt lat="44.0315963" lon="11.9855909"><ele>159.0</ele><time>2026-04-18T12:56:53.554Z</time></trkpt><trkpt lat="44.0317561" lon="11.9857702"><ele>159.66666666666666</ele><time>2026-04-18T12:56:54.546Z</time></trkpt><trkpt lat="44.0319182" lon="11.9859501"><ele>160.33333333333331</ele><time>2026-04-18T12:56:55.549Z</time></trkpt><trkpt lat="44.0320806" lon="11.9861289"><ele>161.0</ele><time>2026-04-18T12:56:56.556Z</time></trkpt><trkpt lat="44.0322428" lon="11.9863094"><ele>161.0</ele><time>2026-04-18T12:56:57.558Z</time></trkpt><trkpt lat="44.0324073" lon="11.9864906"><ele>161.0</ele><time>2026-04-18T12:56:58.55Z</time></trkpt><trkpt lat="44.032571" lon="11.9866736"><ele>161.0</ele><time>2026-04-18T12:56:59.548Z</time></trkpt><trkpt lat="44.0327352" lon="11.9868603"><ele>161.33333333333331</ele><time>2026-04-18T12:57:00.554Z</time></trkpt><trkpt lat="44.0329018" lon="11.9870461"><ele>161.66666666666666</ele><time>2026-04-18T12:57:01.544Z</time></trkpt><trkpt lat="44.0330677" lon="11.9872269"><ele>162.0</ele><time>2026-04-18T12:57:02.554Z</time></trkpt><trkpt lat="44.0332311" lon="11.9874151"><ele>161.0</ele><time>2026-04-18T12:57:03.554Z</time></trkpt><trkpt lat="44.0333874" lon="11.9876164"><ele>160.0</ele><time>2026-04-18T12:57:04.551Z</time></trkpt><trkpt lat="44.033538" lon="11.9878265"><ele>159.0</ele><time>2026-04-18T12:57:05.553Z</time></trkpt><trkpt lat="44.0336844" lon="11.9880448"><ele>159.0</ele><time>2026-04-18T12:57:06.553Z</time></trkpt><trkpt lat="44.0338295" lon="11.988271"><ele>159.0</ele><time>2026-04-18T12:57:07.551Z</time></trkpt><trkpt lat="44.0339718" lon="11.9884995"><ele>159.0</ele><time>2026-04-18T12:57:08.551Z</time></trkpt><trkpt lat="44.0341175" lon="11.9887336"><ele>157.0</ele><time>2026-04-18T12:57:09.547Z</time></trkpt><trkpt lat="44.0342652" lon="11.9889634"><ele>155.0</ele><time>2026-04-18T12:57:10.552Z</time></trkpt><trkpt lat="44.0344113" lon="11.9891979"><ele>153.0</ele><time>2026-04-18T12:57:11.559Z</time></trkpt><trkpt lat="44.0345599" lon="11.9894333"><ele>153.0</ele><time>2026-04-18T12:57:12.556Z</time></trkpt><trkpt lat="44.0347105" lon="11.9896706"><ele>153.0</ele><time>2026-04-18T12:57:13.552Z</time></trkpt><trkpt lat="44.0348627" lon="11.9899071"><ele>150.0</ele><time>2026-04-18T12:57:14.547Z</time></trkpt><trkpt lat="44.035015" lon="11.990149"><ele>147.0</ele><time>2026-04-18T12:57:15.547Z</time></trkpt><trkpt lat="44.0351674" lon="11.9903886"><ele>147.0</ele><time>2026-04-18T12:57:16.56Z</time></trkpt><trkpt lat="44.0353221" lon="11.9906296"><ele>147.0</ele><time>2026-04-18T12:57:17.548Z</time></trkpt><trkpt lat="44.0354724" lon="11.990874"><ele>151.0</ele><time>2026-04-18T12:57:18.543Z</time></trkpt><trkpt lat="44.0356224" lon="11.9911107"><ele>155.0</ele><time>2026-04-18T12:57:19.554Z</time></trkpt><trkpt lat="44.0357742" lon="11.9913439"><ele>153.0</ele><time>2026-04-18T12:57:20.561Z</time></trkpt><trkpt lat="44.0359213" lon="11.9915779"><ele>151.0</ele><time>2026-04-18T12:57:21.55Z</time></trkpt><trkpt lat="44.0360662" lon="11.9918077"><ele>149.0</ele><time>2026-04-18T12:57:22.555Z</time></trkpt><trkpt lat="44.0362073" lon="11.9920312"><ele>149.0</ele><time>2026-04-18T12:57:23.557Z</time></trkpt><trkpt lat="44.0363472" lon="11.9922468"><ele>149.0</ele><time>2026-04-18T12:57:24.548Z</time></trkpt><trkpt lat="44.036492" lon="11.9924417"><ele>149.0</ele><time>2026-04-18T12:57:25.547Z</time></trkpt><trkpt lat="44.0366507" lon="11.9926173"><ele>149.0</ele><time>2026-04-18T12:57:26.549Z</time></trkpt><trkpt lat="44.0368268" lon="11.9927724"><ele>149.0</ele><time>2026-04-18T12:57:27.547Z</time></trkpt><trkpt lat="44.0370136" lon="11.9929259"><ele>149.0</ele><time>2026-04-18T12:57:28.551Z</time></trkpt><trkpt lat="44.0372015" lon="11.9930783"><ele>149.0</ele><time>2026-04-18T12:57:29.542Z</time></trkpt><trkpt lat="44.0373912" lon="11.993241"><ele>149.0</ele><time>2026-04-18T12:57:30.546Z</time></trkpt><trkpt lat="44.0375798" lon="11.9933994"><ele>149.0</ele><time>2026-04-18T12:57:31.545Z</time></trkpt><trkpt lat="44.0377564" lon="11.9935445"><ele>148.0</ele><time>2026-04-18T12:57:32.558Z</time></trkpt><trkpt lat="44.0379205" lon="11.9936798"><ele>147.0</ele><time>2026-04-18T12:57:33.553Z</time></trkpt><trkpt lat="44.0380747" lon="11.993815"><ele>146.0</ele><time>2026-04-18T12:57:34.546Z</time></trkpt><trkpt lat="44.0382222" lon="11.9939661"><ele>144.0</ele><time>2026-04-18T12:57:35.559Z</time></trkpt><trkpt lat="44.0383531" lon="11.9941397"><ele>142.0</ele><time>2026-04-18T12:57:36.548Z</time></trkpt><trkpt lat="44.0384614" lon="11.9943475"><ele>140.0</ele><time>2026-04-18T12:57:37.544Z</time></trkpt><trkpt lat="44.0385521" lon="11.9945862"><ele>140.0</ele><time>2026-04-18T12:57:38.548Z</time></trkpt><trkpt lat="44.0386161" lon="11.9948464"><ele>140.0</ele><time>2026-04-18T12:57:39.553Z</time></trkpt><trkpt lat="44.0386615" lon="11.9951375"><ele>140.0</ele><time>2026-04-18T12:57:40.547Z</time></trkpt><trkpt lat="44.0386881" lon="11.9954323"><ele>141.0</ele><time>2026-04-18T12:57:41.554Z</time></trkpt><trkpt lat="44.0386938" lon="11.9957261"><ele>142.0</ele><time>2026-04-18T12:57:42.549Z</time></trkpt><trkpt lat="44.0387061" lon="11.9960077"><ele>143.0</ele><time>2026-04-18T12:57:43.549Z</time></trkpt><trkpt lat="44.0387311" lon="11.9962624"><ele>140.33333333333331</ele><time>2026-04-18T12:57:44.546Z</time></trkpt><trkpt lat="44.0387804" lon="11.9965045"><ele>137.66666666666666</ele><time>2026-04-18T12:57:45.551Z</time></trkpt><trkpt lat="44.0388616" lon="11.996737"><ele>135.0</ele><time>2026-04-18T12:57:46.56Z</time></trkpt><trkpt lat="44.0389667" lon="11.996956"><ele>131.0</ele><time>2026-04-18T12:57:47.546Z</time></trkpt><trkpt lat="44.0390885" lon="11.997161"><ele>127.0</ele><time>2026-04-18T12:57:48.551Z</time></trkpt><trkpt lat="44.0392161" lon="11.9973654"><ele>123.0</ele><time>2026-04-18T12:57:49.548Z</time></trkpt><trkpt lat="44.0393437" lon="11.9975694"><ele>122.33333333333334</ele><time>2026-04-18T12:57:50.557Z</time></trkpt><trkpt lat="44.0394665" lon="11.9977705"><ele>121.66666666666667</ele><time>2026-04-18T12:57:51.549Z</time></trkpt><trkpt lat="44.0395909" lon="11.9979704"><ele>121.0</ele><time>2026-04-18T12:57:52.55Z</time></trkpt><trkpt lat="44.0397157" lon="11.9981684"><ele>121.0</ele><time>2026-04-18T12:57:53.552Z</time></trkpt><trkpt lat="44.0398388" lon="11.9983677"><ele>121.0</ele><time>2026-04-18T12:57:54.543Z</time></trkpt><trkpt lat="44.0399602" lon="11.9985645"><ele>121.0</ele><time>2026-04-18T12:57:55.554Z</time></trkpt><trkpt lat="44.0400811" lon="11.9987633"><ele>121.0</ele><time>2026-04-18T12:57:56.551Z</time></trkpt><trkpt lat="44.0402062" lon="11.9989676"><ele>121.0</ele><time>2026-04-18T12:57:57.553Z</time></trkpt><trkpt lat="44.0403348" lon="11.9991704"><ele>121.0</ele><time>2026-04-18T12:57:58.551Z</time></trkpt><trkpt lat="44.0404622" lon="11.9993784"><ele>120.66666666666667</ele><time>2026-04-18T12:57:59.556Z</time></trkpt><trkpt lat="44.0405879" lon="11.9995926"><ele>120.33333333333334</ele><time>2026-04-18T12:58:00.551Z</time></trkpt><trkpt lat="44.0407077" lon="11.9998093"><ele>120.0</ele><time>2026-04-18T12:58:01.554Z</time></trkpt><trkpt lat="44.0408248" lon="12.0000352"><ele>120.0</ele><time>2026-04-18T12:58:02.548Z</time></trkpt><trkpt lat="44.0409388" lon="12.0002648"><ele>120.0</ele><time>2026-04-18T12:58:03.553Z</time></trkpt><trkpt lat="44.0410459" lon="12.0004966"><ele>120.0</ele><time>2026-04-18T12:58:04.543Z</time></trkpt><trkpt lat="44.0411542" lon="12.0007283"><ele>119.66666666666666</ele><time>2026-04-18T12:58:05.553Z</time></trkpt><trkpt lat="44.0412619" lon="12.0009623"><ele>119.33333333333333</ele><time>2026-04-18T12:58:06.551Z</time></trkpt><trkpt lat="44.0413702" lon="12.0011971"><ele>119.0</ele><time>2026-04-18T12:58:07.552Z</time></trkpt><trkpt lat="44.0414749" lon="12.0014336"><ele>118.66666666666666</ele><time>2026-04-18T12:58:08.547Z</time></trkpt><trkpt lat="44.0415814" lon="12.0016664"><ele>118.33333333333334</ele><time>2026-04-18T12:58:09.555Z</time></trkpt><trkpt lat="44.0416874" lon="12.0019024"><ele>118.0</ele><time>2026-04-18T12:58:10.547Z</time></trkpt><trkpt lat="44.0417917" lon="12.0021348"><ele>118.0</ele><time>2026-04-18T12:58:11.554Z</time></trkpt><trkpt lat="44.0418923" lon="12.0023657"><ele>118.0</ele><time>2026-04-18T12:58:12.552Z</time></trkpt><trkpt lat="44.0419955" lon="12.0025928"><ele>118.0</ele><time>2026-04-18T12:58:13.556Z</time></trkpt><trkpt lat="44.0421003" lon="12.0028168"><ele>118.0</ele><time>2026-04-18T12:58:14.556Z</time></trkpt><trkpt lat="44.0422048" lon="12.0030412"><ele>118.0</ele><time>2026-04-18T12:58:15.548Z</time></trkpt><trkpt lat="44.0423057" lon="12.0032648"><ele>118.0</ele><time>2026-04-18T12:58:16.551Z</time></trkpt><trkpt lat="44.0424045" lon="12.0034869"><ele>118.0</ele><time>2026-04-18T12:58:17.551Z</time></trkpt><trkpt lat="44.0425031" lon="12.003711"><ele>118.0</ele><time>2026-04-18T12:58:18.553Z</time></trkpt><trkpt lat="44.0425899" lon="12.0039377"><ele>118.0</ele><time>2026-04-18T12:58:19.547Z</time></trkpt><trkpt lat="44.0426501" lon="12.0041742"><ele>117.66666666666667</ele><time>2026-04-18T12:58:20.549Z</time></trkpt><trkpt lat="44.0426872" lon="12.0044132"><ele>117.33333333333334</ele><time>2026-04-18T12:58:21.559Z</time></trkpt><trkpt lat="44.0427098" lon="12.0046567"><ele>117.0</ele><time>2026-04-18T12:58:22.55Z</time></trkpt><trkpt lat="44.042729" lon="12.004885"><ele>117.0</ele><time>2026-04-18T12:58:23.551Z</time></trkpt><trkpt lat="44.0427526" lon="12.0050968"><ele>117.0</ele><time>2026-04-18T12:58:24.565Z</time></trkpt><trkpt lat="44.0427855" lon="12.0052863"><ele>117.0</ele><time>2026-04-18T12:58:25.556Z</time></trkpt><trkpt lat="44.042837" lon="12.0054619"><ele>117.0</ele><time>2026-04-18T12:58:26.556Z</time></trkpt><trkpt lat="44.042915" lon="12.0056226"><ele>117.0</ele><time>2026-04-18T12:58:27.553Z</time></trkpt><trkpt lat="44.0430214" lon="12.0057571"><ele>117.0</ele><time>2026-04-18T12:58:28.556Z</time></trkpt><trkpt lat="44.0431492" lon="12.0058531"><ele>117.0</ele><time>2026-04-18T12:58:29.555Z</time></trkpt><trkpt lat="44.043292" lon="12.0059229"><ele>117.0</ele><time>2026-04-18T12:58:30.553Z</time></trkpt><trkpt lat="44.0434486" lon="12.0059576"><ele>117.5</ele><time>2026-04-18T12:58:31.551Z</time></trkpt><trkpt lat="44.0436066" lon="12.0059802"><ele>118.0</ele><time>2026-04-18T12:58:32.559Z</time></trkpt><trkpt lat="44.0437539" lon="12.0060067"><ele>118.5</ele><time>2026-04-18T12:58:33.556Z</time></trkpt><trkpt lat="44.0438928" lon="12.0060325"><ele>119.0</ele><time>2026-04-18T12:58:34.547Z</time></trkpt><trkpt lat="44.0440256" lon="12.0060584"><ele>118.4</ele><time>2026-04-18T12:58:35.549Z</time></trkpt><trkpt lat="44.044142" lon="12.0060856"><ele>117.80000000000001</ele><time>2026-04-18T12:58:36.551Z</time></trkpt><trkpt lat="44.0442374" lon="12.0061223"><ele>117.19999999999999</ele><time>2026-04-18T12:58:37.548Z</time></trkpt><trkpt lat="44.0443162" lon="12.0061826"><ele>116.6</ele><time>2026-04-18T12:58:38.552Z</time></trkpt><trkpt lat="44.0443785" lon="12.0062604"><ele>116.0</ele><time>2026-04-18T12:58:39.557Z</time></trkpt><trkpt lat="44.0444275" lon="12.0063362"><ele>115.99999999999999</ele><time>2026-04-18T12:58:40.571Z</time></trkpt><trkpt lat="44.0444613" lon="12.0064226"><ele>116.0</ele><time>2026-04-18T12:58:41.556Z</time></trkpt><trkpt lat="44.0444736" lon="12.0065109"><ele>116.0</ele><time>2026-04-18T12:58:42.553Z</time></trkpt><trkpt lat="44.0444568" lon="12.0066213"><ele>116.0</ele><time>2026-04-18T12:58:43.567Z</time></trkpt><trkpt lat="44.044414" lon="12.0067305"><ele>115.99999999999999</ele><time>2026-04-18T12:58:44.549Z</time></trkpt><trkpt lat="44.0443451" lon="12.0068338"><ele>116.0</ele><time>2026-04-18T12:58:45.545Z</time></trkpt><trkpt lat="44.0442397" lon="12.0069424"><ele>119.75</ele><time>2026-04-18T12:58:46.553Z</time></trkpt><trkpt lat="44.0441291" lon="12.0070599"><ele>123.5</ele><time>2026-04-18T12:58:47.554Z</time></trkpt><trkpt lat="44.0439991" lon="12.0071708"><ele>127.25</ele><time>2026-04-18T12:58:48.555Z</time></trkpt><trkpt lat="44.0438635" lon="12.0072716"><ele>131.0</ele><time>2026-04-18T12:58:49.55Z</time></trkpt><trkpt lat="44.043737" lon="12.0073736"><ele>131.0</ele><time>2026-04-18T12:58:50.551Z</time></trkpt><trkpt lat="44.0436259" lon="12.0074875"><ele>131.0</ele><time>2026-04-18T12:58:51.561Z</time></trkpt><trkpt lat="44.0435579" lon="12.0076147"><ele>131.0</ele><time>2026-04-18T12:58:52.553Z</time></trkpt><trkpt lat="44.0435269" lon="12.0077707"><ele>131.0</ele><time>2026-04-18T12:58:53.559Z</time></trkpt><trkpt lat="44.0435217" lon="12.0079768"><ele>133.33333333333331</ele><time>2026-04-18T12:58:54.558Z</time></trkpt><trkpt lat="44.043526" lon="12.0082071"><ele>135.66666666666666</ele><time>2026-04-18T12:58:55.555Z</time></trkpt><trkpt lat="44.0435217" lon="12.0084512"><ele>138.0</ele><time>2026-04-18T12:58:56.549Z</time></trkpt><trkpt lat="44.0434836" lon="12.0086881"><ele>139.33333333333334</ele><time>2026-04-18T12:58:57.551Z</time></trkpt><trkpt lat="44.0434184" lon="12.0089136"><ele>140.66666666666669</ele><time>2026-04-18T12:58:58.556Z</time></trkpt><trkpt lat="44.0433373" lon="12.0091389"><ele>142.0</ele><time>2026-04-18T12:58:59.558Z</time></trkpt><trkpt lat="44.0432466" lon="12.0093626"><ele>144.5</ele><time>2026-04-18T12:59:00.552Z</time></trkpt><trkpt lat="44.0431598" lon="12.0095671"><ele>147.0</ele><time>2026-04-18T12:59:01.547Z</time></trkpt><trkpt lat="44.0430869" lon="12.0097418"><ele>149.5</ele><time>2026-04-18T12:59:02.554Z</time></trkpt><trkpt lat="44.0430177" lon="12.0098867"><ele>152.0</ele><time>2026-04-18T12:59:03.549Z</time></trkpt><trkpt lat="44.0429487" lon="12.0099936"><ele>152.0</ele><time>2026-04-18T12:59:04.557Z</time></trkpt><trkpt lat="44.042872" lon="12.0100239"><ele>152.0</ele><time>2026-04-18T12:59:05.552Z</time></trkpt><trkpt lat="44.0427997" lon="12.0100006"><ele>152.0</ele><time>2026-04-18T12:59:06.559Z</time></trkpt><trkpt lat="44.0427202" lon="12.0099428"><ele>152.0</ele><time>2026-04-18T12:59:07.557Z</time></trkpt><trkpt lat="44.0426335" lon="12.0099001"><ele>152.0</ele><time>2026-04-18T12:59:08.55Z</time></trkpt><trkpt lat="44.0425521" lon="12.0099188"><ele>152.0</ele><time>2026-04-18T12:59:09.569Z</time></trkpt><trkpt lat="44.0424772" lon="12.0099982"><ele>153.75</ele><time>2026-04-18T12:59:10.565Z</time></trkpt><trkpt lat="44.0424363" lon="12.0101208"><ele>155.5</ele><time>2026-04-18T12:59:11.547Z</time></trkpt><trkpt lat="44.0424293" lon="12.0102989"><ele>157.25</ele><time>2026-04-18T12:59:12.549Z</time></trkpt><trkpt lat="44.042443" lon="12.0104953"><ele>159.0</ele><time>2026-04-18T12:59:13.548Z</time></trkpt><trkpt lat="44.0424512" lon="12.0107177"><ele>163.0</ele><time>2026-04-18T12:59:14.559Z</time></trkpt><trkpt lat="44.042422" lon="12.0109441"><ele>167.0</ele><time>2026-04-18T12:59:15.553Z</time></trkpt><trkpt lat="44.042356" lon="12.0111543"><ele>171.0</ele><time>2026-04-18T12:59:16.552Z</time></trkpt><trkpt lat="44.0422542" lon="12.0113626"><ele>171.0</ele><time>2026-04-18T12:59:17.553Z</time></trkpt><trkpt lat="44.042121" lon="12.0115545"><ele>171.0</ele><time>2026-04-18T12:59:18.55Z</time></trkpt><trkpt lat="44.0419615" lon="12.011732"><ele>171.0</ele><time>2026-04-18T12:59:19.551Z</time></trkpt><trkpt lat="44.0418098" lon="12.0118851"><ele>171.75</ele><time>2026-04-18T12:59:20.556Z</time></trkpt><trkpt lat="44.0416733" lon="12.012011"><ele>172.5</ele><time>2026-04-18T12:59:21.549Z</time></trkpt><trkpt lat="44.0415505" lon="12.0121102"><ele>173.25</ele><time>2026-04-18T12:59:22.547Z</time></trkpt><trkpt lat="44.0414381" lon="12.0122113"><ele>174.0</ele><time>2026-04-18T12:59:23.552Z</time></trkpt><trkpt lat="44.0413253" lon="12.012339"><ele>177.66666666666666</ele><time>2026-04-18T12:59:24.555Z</time></trkpt><trkpt lat="44.041223" lon="12.0124947"><ele>181.33333333333331</ele><time>2026-04-18T12:59:25.565Z</time></trkpt><trkpt lat="44.0411219" lon="12.0126669"><ele>185.0</ele><time>2026-04-18T12:59:26.55Z</time></trkpt><trkpt lat="44.0410201" lon="12.0128482"><ele>185.0</ele><time>2026-04-18T12:59:27.557Z</time></trkpt><trkpt lat="44.040914" lon="12.0130421"><ele>185.0</ele><time>2026-04-18T12:59:28.554Z</time></trkpt><trkpt lat="44.0408025" lon="12.0132496"><ele>185.0</ele><time>2026-04-18T12:59:29.548Z</time></trkpt><trkpt lat="44.0406874" lon="12.0134589"><ele>186.66666666666666</ele><time>2026-04-18T12:59:30.553Z</time></trkpt><trkpt lat="44.0405607" lon="12.0136775"><ele>188.33333333333334</ele><time>2026-04-18T12:59:31.558Z</time></trkpt><trkpt lat="44.0404214" lon="12.0138954"><ele>190.0</ele><time>2026-04-18T12:59:32.55Z</time></trkpt><trkpt lat="44.0402829" lon="12.0141108"><ele>191.66666666666669</ele><time>2026-04-18T12:59:33.549Z</time></trkpt><trkpt lat="44.0401509" lon="12.0143158"><ele>193.33333333333334</ele><time>2026-04-18T12:59:34.555Z</time></trkpt><trkpt lat="44.0400419" lon="12.0145226"><ele>195.0</ele><time>2026-04-18T12:59:35.552Z</time></trkpt><trkpt lat="44.0399528" lon="12.0147202"><ele>195.0</ele><time>2026-04-18T12:59:36.552Z</time></trkpt><trkpt lat="44.0398805" lon="12.0149255"><ele>195.0</ele><time>2026-04-18T12:59:37.554Z</time></trkpt><trkpt lat="44.0398156" lon="12.015141"><ele>195.0</ele><time>2026-04-18T12:59:38.553Z</time></trkpt><trkpt lat="44.0397547" lon="12.0153597"><ele>199.33333333333331</ele><time>2026-04-18T12:59:39.555Z</time></trkpt><trkpt lat="44.0396968" lon="12.0155864"><ele>203.66666666666666</ele><time>2026-04-18T12:59:40.552Z</time></trkpt><trkpt lat="44.0396382" lon="12.0158118"><ele>208.0</ele><time>2026-04-18T12:59:41.548Z</time></trkpt><trkpt lat="44.0395784" lon="12.016029"><ele>212.0</ele><time>2026-04-18T12:59:42.553Z</time></trkpt><trkpt lat="44.0395145" lon="12.016237"><ele>216.0</ele><time>2026-04-18T12:59:43.549Z</time></trkpt><trkpt lat="44.0394484" lon="12.0164299"><ele>220.0</ele><time>2026-04-18T12:59:44.556Z</time></trkpt><trkpt lat="44.0393618" lon="12.0166141"><ele>222.0</ele><time>2026-04-18T12:59:45.549Z</time></trkpt><trkpt lat="44.0392624" lon="12.0167814"><ele>224.0</ele><time>2026-04-18T12:59:46.566Z</time></trkpt><trkpt lat="44.0391618" lon="12.0169399"><ele>226.0</ele><time>2026-04-18T12:59:47.553Z</time></trkpt><trkpt lat="44.0390547" lon="12.0170948"><ele>228.5</ele><time>2026-04-18T12:59:48.553Z</time></trkpt><trkpt lat="44.0389498" lon="12.0172385"><ele>231.0</ele><time>2026-04-18T12:59:49.556Z</time></trkpt><trkpt lat="44.0388464" lon="12.0173712"><ele>233.5</ele><time>2026-04-18T12:59:50.551Z</time></trkpt><trkpt lat="44.0387454" lon="12.0174945"><ele>236.0</ele><time>2026-04-18T12:59:51.549Z</time></trkpt><trkpt lat="44.0386429" lon="12.0176084"><ele>237.20000000000002</ele><time>2026-04-18T12:59:52.553Z</time></trkpt><trkpt lat="44.0385459" lon="12.017709"><ele>238.40000000000003</ele><time>2026-04-18T12:59:53.555Z</time></trkpt><trkpt lat="44.0384586" lon="12.0177824"><ele>239.6</ele><time>2026-04-18T12:59:54.555Z</time></trkpt><trkpt lat="44.0383834" lon="12.0178299"><ele>240.8</ele><time>2026-04-18T12:59:55.561Z</time></trkpt><trkpt lat="44.0383213" lon="12.0178694"><ele>242.0</ele><time>2026-04-18T12:59:56.549Z</time></trkpt><trkpt lat="44.0382606" lon="12.017979"><ele>242.0</ele><time>2026-04-18T12:59:58.555Z</time></trkpt><trkpt lat="44.0382877" lon="12.018142"><ele>242.0</ele><time>2026-04-18T13:00:00.554Z</time></trkpt><trkpt lat="44.0383531" lon="12.0182728"><ele>242.0</ele><time>2026-04-18T13:00:02.559Z</time></trkpt><trkpt lat="44.0383939" lon="12.0183588"><ele>242.0</ele><time>2026-04-18T13:00:03.557Z</time></trkpt><trkpt lat="44.038453" lon="12.0184747"><ele>242.0</ele><time>2026-04-18T13:00:04.555Z</time></trkpt><trkpt lat="44.0385142" lon="12.0185863"><ele>243.0</ele><time>2026-04-18T13:00:05.56Z</time></trkpt><trkpt lat="44.0385702" lon="12.0186918"><ele>244.0</ele><time>2026-04-18T13:00:06.554Z</time></trkpt><trkpt lat="44.0386283" lon="12.0188019"><ele>245.0</ele><time>2026-04-18T13:00:07.558Z</time></trkpt><trkpt lat="44.0386871" lon="12.0189162"><ele>246.0</ele><time>2026-04-18T13:00:08.552Z</time></trkpt><trkpt lat="44.0387451" lon="12.0190396"><ele>247.0</ele><time>2026-04-18T13:00:09.567Z</time></trkpt><trkpt lat="44.0388069" lon="12.0191712"><ele>248.0</ele><time>2026-04-18T13:00:10.55Z</time></trkpt><trkpt lat="44.0388706" lon="12.0193075"><ele>249.0</ele><time>2026-04-18T13:00:11.547Z</time></trkpt><trkpt lat="44.0389325" lon="12.0194475"><ele>250.0</ele><time>2026-04-18T13:00:12.543Z</time></trkpt><trkpt lat="44.0389875" lon="12.0195905"><ele>251.0</ele><time>2026-04-18T13:00:13.561Z</time></trkpt><trkpt lat="44.0390327" lon="12.0197388"><ele>251.0</ele><time>2026-04-18T13:00:14.553Z</time></trkpt><trkpt lat="44.0390733" lon="12.0198928"><ele>251.00000000000003</ele><time>2026-04-18T13:00:15.544Z</time></trkpt><trkpt lat="44.0391195" lon="12.0200378"><ele>251.00000000000003</ele><time>2026-04-18T13:00:16.548Z</time></trkpt><trkpt lat="44.0391762" lon="12.0201589"><ele>251.0</ele><time>2026-04-18T13:00:17.55Z</time></trkpt><trkpt lat="44.0392513" lon="12.0202747"><ele>251.0</ele><time>2026-04-18T13:00:18.55Z</time></trkpt><trkpt lat="44.0393371" lon="12.0204158"><ele>252.0</ele><time>2026-04-18T13:00:19.558Z</time></trkpt><trkpt lat="44.0394303" lon="12.0205698"><ele>253.0</ele><time>2026-04-18T13:00:20.548Z</time></trkpt><trkpt lat="44.0395239" lon="12.0207245"><ele>254.0</ele><time>2026-04-18T13:00:21.549Z</time></trkpt><trkpt lat="44.0396189" lon="12.0208806"><ele>255.0</ele><time>2026-04-18T13:00:22.546Z</time></trkpt><trkpt lat="44.0397159" lon="12.0210431"><ele>255.0</ele><time>2026-04-18T13:00:23.552Z</time></trkpt><trkpt lat="44.0398162" lon="12.0212137"><ele>255.0</ele><time>2026-04-18T13:00:24.545Z</time></trkpt><trkpt lat="44.039916" lon="12.0213881"><ele>255.0</ele><time>2026-04-18T13:00:25.545Z</time></trkpt><trkpt lat="44.0400185" lon="12.0215656"><ele>256.5</ele><time>2026-04-18T13:00:26.546Z</time></trkpt><trkpt lat="44.0401177" lon="12.021739"><ele>258.0</ele><time>2026-04-18T13:00:27.549Z</time></trkpt><trkpt lat="44.0402101" lon="12.0218991"><ele>259.5</ele><time>2026-04-18T13:00:28.546Z</time></trkpt><trkpt lat="44.0402945" lon="12.0220475"><ele>261.0</ele><time>2026-04-18T13:00:29.546Z</time></trkpt><trkpt lat="44.0403718" lon="12.0221901"><ele>261.0</ele><time>2026-04-18T13:00:30.552Z</time></trkpt><trkpt lat="44.0404487" lon="12.0223299"><ele>261.0</ele><time>2026-04-18T13:00:31.548Z</time></trkpt><trkpt lat="44.0405331" lon="12.0224495"><ele>261.0</ele><time>2026-04-18T13:00:32.546Z</time></trkpt><trkpt lat="44.0406311" lon="12.0225424"><ele>261.0</ele><time>2026-04-18T13:00:33.551Z</time></trkpt><trkpt lat="44.0407534" lon="12.0226069"><ele>261.75</ele><time>2026-04-18T13:00:34.548Z</time></trkpt><trkpt lat="44.0408927" lon="12.0226529"><ele>262.5</ele><time>2026-04-18T13:00:35.546Z</time></trkpt><trkpt lat="44.0410334" lon="12.0226944"><ele>263.25</ele><time>2026-04-18T13:00:36.551Z</time></trkpt><trkpt lat="44.0411611" lon="12.0227323"><ele>264.0</ele><time>2026-04-18T13:00:37.547Z</time></trkpt><trkpt lat="44.0412747" lon="12.022765"><ele>264.0</ele><time>2026-04-18T13:00:38.553Z</time></trkpt><trkpt lat="44.0413855" lon="12.0227949"><ele>264.0</ele><time>2026-04-18T13:00:39.551Z</time></trkpt><trkpt lat="44.0414887" lon="12.0228343"><ele>264.0</ele><time>2026-04-18T13:00:40.55Z</time></trkpt><trkpt lat="44.041588" lon="12.0228974"><ele>264.0</ele><time>2026-04-18T13:00:41.549Z</time></trkpt><trkpt lat="44.0416827" lon="12.0229899"><ele>264.0</ele><time>2026-04-18T13:00:42.543Z</time></trkpt><trkpt lat="44.0417656" lon="12.023098"><ele>265.25</ele><time>2026-04-18T13:00:43.548Z</time></trkpt><trkpt lat="44.0418416" lon="12.023235"><ele>266.5</ele><time>2026-04-18T13:00:44.55Z</time></trkpt><trkpt lat="44.0419228" lon="12.023395"><ele>267.75</ele><time>2026-04-18T13:00:45.551Z</time></trkpt><trkpt lat="44.0420062" lon="12.0235487"><ele>269.0</ele><time>2026-04-18T13:00:46.553Z</time></trkpt><trkpt lat="44.0420847" lon="12.0236983"><ele>269.0</ele><time>2026-04-18T13:00:47.551Z</time></trkpt><trkpt lat="44.0421578" lon="12.0238435"><ele>269.0</ele><time>2026-04-18T13:00:48.55Z</time></trkpt><trkpt lat="44.0422345" lon="12.0239865"><ele>269.0</ele><time>2026-04-18T13:00:49.554Z</time></trkpt><trkpt lat="44.0423136" lon="12.0241237"><ele>269.0</ele><time>2026-04-18T13:00:50.551Z</time></trkpt><trkpt lat="44.0423935" lon="12.0242658"><ele>268.5</ele><time>2026-04-18T13:00:51.546Z</time></trkpt><trkpt lat="44.0424724" lon="12.0244037"><ele>268.0</ele><time>2026-04-18T13:00:52.541Z</time></trkpt><trkpt lat="44.0425509" lon="12.0245364"><ele>267.5</ele><time>2026-04-18T13:00:53.548Z</time></trkpt><trkpt lat="44.0426351" lon="12.0246569"><ele>267.0</ele><time>2026-04-18T13:00:54.546Z</time></trkpt><trkpt lat="44.0427182" lon="12.0247748"><ele>267.0</ele><time>2026-04-18T13:00:55.553Z</time></trkpt><trkpt lat="44.0427938" lon="12.0248912"><ele>267.0</ele><time>2026-04-18T13:00:56.554Z</time></trkpt><trkpt lat="44.042866" lon="12.0249977"><ele>267.0</ele><time>2026-04-18T13:00:57.549Z</time></trkpt><trkpt lat="44.0429351" lon="12.0251128"><ele>267.0</ele><time>2026-04-18T13:00:58.548Z</time></trkpt><trkpt lat="44.0430029" lon="12.0252309"><ele>267.0</ele><time>2026-04-18T13:00:59.555Z</time></trkpt><trkpt lat="44.0430625" lon="12.0253518"><ele>268.2</ele><time>2026-04-18T13:01:00.549Z</time></trkpt><trkpt lat="44.0431213" lon="12.0254731"><ele>269.4</ele><time>2026-04-18T13:01:01.542Z</time></trkpt><trkpt lat="44.0431808" lon="12.0256038"><ele>270.6</ele><time>2026-04-18T13:01:02.548Z</time></trkpt><trkpt lat="44.0432362" lon="12.0257282"><ele>271.8</ele><time>2026-04-18T13:01:03.543Z</time></trkpt><trkpt lat="44.0432911" lon="12.0258379"><ele>273.0</ele><time>2026-04-18T13:01:04.542Z</time></trkpt><trkpt lat="44.0433543" lon="12.0259174"><ele>273.0</ele><time>2026-04-18T13:01:05.551Z</time></trkpt><trkpt lat="44.043423" lon="12.0259642"><ele>273.0</ele><time>2026-04-18T13:01:06.543Z</time></trkpt><trkpt lat="44.0434978" lon="12.0259745"><ele>273.0</ele><time>2026-04-18T13:01:07.547Z</time></trkpt><trkpt lat="44.0435814" lon="12.0259564"><ele>273.0</ele><time>2026-04-18T13:01:08.546Z</time></trkpt><trkpt lat="44.0436677" lon="12.0259256"><ele>273.0</ele><time>2026-04-18T13:01:09.543Z</time></trkpt><trkpt lat="44.0437613" lon="12.0258914"><ele>273.0</ele><time>2026-04-18T13:01:10.55Z</time></trkpt><trkpt lat="44.0438706" lon="12.0258548"><ele>273.0</ele><time>2026-04-18T13:01:11.547Z</time></trkpt><trkpt lat="44.0439826" lon="12.0258326"><ele>273.0</ele><time>2026-04-18T13:01:12.548Z</time></trkpt><trkpt lat="44.0440907" lon="12.0258443"><ele>273.0</ele><time>2026-04-18T13:01:13.549Z</time></trkpt><trkpt lat="44.0441961" lon="12.0258861"><ele>273.0</ele><time>2026-04-18T13:01:14.554Z</time></trkpt><trkpt lat="44.0442936" lon="12.0259232"><ele>273.0</ele><time>2026-04-18T13:01:15.549Z</time></trkpt><trkpt lat="44.0443777" lon="12.0259418"><ele>273.1666666666667</ele><time>2026-04-18T13:01:16.544Z</time></trkpt><trkpt lat="44.0444463" lon="12.0259383"><ele>273.3333333333333</ele><time>2026-04-18T13:01:17.552Z</time></trkpt><trkpt lat="44.0445524" lon="12.025921"><ele>273.5</ele><time>2026-04-18T13:01:19.55Z</time></trkpt><trkpt lat="44.0446497" lon="12.0259259"><ele>273.66666666666663</ele><time>2026-04-18T13:01:21.547Z</time></trkpt><trkpt lat="44.0447249" lon="12.0259347"><ele>273.8333333333333</ele><time>2026-04-18T13:01:22.545Z</time></trkpt><trkpt lat="44.0447939" lon="12.0259463"><ele>274.0</ele><time>2026-04-18T13:01:23.548Z</time></trkpt><trkpt lat="44.044906" lon="12.0259966"><ele>272.8333333333333</ele><time>2026-04-18T13:01:25.546Z</time></trkpt><trkpt lat="44.0449783" lon="12.0260493"><ele>271.66666666666663</ele><time>2026-04-18T13:01:26.547Z</time></trkpt><trkpt lat="44.0450458" lon="12.0261171"><ele>270.5</ele><time>2026-04-18T13:01:27.548Z</time></trkpt><trkpt lat="44.0451087" lon="12.026193"><ele>269.3333333333333</ele><time>2026-04-18T13:01:28.55Z</time></trkpt><trkpt lat="44.0451561" lon="12.0262585"><ele>268.1666666666667</ele><time>2026-04-18T13:01:29.552Z</time></trkpt><trkpt lat="44.0452175" lon="12.0263625"><ele>267.0</ele><time>2026-04-18T13:01:31.545Z</time></trkpt><trkpt lat="44.0452662" lon="12.0264882"><ele>267.0</ele><time>2026-04-18T13:01:33.556Z</time></trkpt><trkpt lat="44.0452993" lon="12.0266436"><ele>267.0</ele><time>2026-04-18T13:01:35.549Z</time></trkpt><trkpt lat="44.0453147" lon="12.0267287"><ele>267.0</ele><time>2026-04-18T13:01:36.548Z</time></trkpt><trkpt lat="44.0453496" lon="12.0268865"><ele>267.0</ele><time>2026-04-18T13:01:38.546Z</time></trkpt><trkpt lat="44.0453669" lon="12.0270432"><ele>267.0</ele><time>2026-04-18T13:01:40.546Z</time></trkpt><trkpt lat="44.0453991" lon="12.0271767"><ele>269.8</ele><time>2026-04-18T13:01:42.558Z</time></trkpt><trkpt lat="44.0454731" lon="12.0272947"><ele>272.6</ele><time>2026-04-18T13:01:44.55Z</time></trkpt><trkpt lat="44.0455459" lon="12.0273802"><ele>275.40000000000003</ele><time>2026-04-18T13:01:46.547Z</time></trkpt><trkpt lat="44.045618" lon="12.0275282"><ele>278.2</ele><time>2026-04-18T13:01:48.549Z</time></trkpt><trkpt lat="44.045655" lon="12.0276217"><ele>281.0</ele><time>2026-04-18T13:01:49.555Z</time></trkpt><trkpt lat="44.0456808" lon="12.0277138"><ele>282.40000000000003</ele><time>2026-04-18T13:01:50.547Z</time></trkpt><trkpt lat="44.045701" lon="12.027891"><ele>283.8</ele><time>2026-04-18T13:01:52.541Z</time></trkpt><trkpt lat="44.0457062" lon="12.0280058"><ele>285.20000000000005</ele><time>2026-04-18T13:01:53.549Z</time></trkpt><trkpt lat="44.0457162" lon="12.0281179"><ele>286.6</ele><time>2026-04-18T13:01:54.547Z</time></trkpt><trkpt lat="44.0457278" lon="12.0282131"><ele>288.0</ele><time>2026-04-18T13:01:55.55Z</time></trkpt><trkpt lat="44.0457754" lon="12.0283536"><ele>283.8</ele><time>2026-04-18T13:01:57.547Z</time></trkpt><trkpt lat="44.0458839" lon="12.0284483"><ele>279.6</ele><time>2026-04-18T13:01:59.547Z</time></trkpt><trkpt lat="44.0459863" lon="12.0285644"><ele>275.4</ele><time>2026-04-18T13:02:01.551Z</time></trkpt><trkpt lat="44.04605" lon="12.0286438"><ele>271.2</ele><time>2026-04-18T13:02:02.544Z</time></trkpt><trkpt lat="44.0461142" lon="12.0287261"><ele>267.0</ele><time>2026-04-18T13:02:03.555Z</time></trkpt><trkpt lat="44.0461818" lon="12.0287963"><ele>267.0</ele><time>2026-04-18T13:02:04.556Z</time></trkpt><trkpt lat="44.0462563" lon="12.0288591"><ele>267.0</ele><time>2026-04-18T13:02:05.545Z</time></trkpt><trkpt lat="44.0463211" lon="12.0289152"><ele>267.0</ele><time>2026-04-18T13:02:06.552Z</time></trkpt><trkpt lat="44.0463693" lon="12.0289735"><ele>267.0</ele><time>2026-04-18T13:02:07.555Z</time></trkpt><trkpt lat="44.0464251" lon="12.029111"><ele>267.0</ele><time>2026-04-18T13:02:09.55Z</time></trkpt><trkpt lat="44.0464319" lon="12.02925"><ele>267.0</ele><time>2026-04-18T13:02:11.548Z</time></trkpt><trkpt lat="44.0464564" lon="12.029378"><ele>267.6</ele><time>2026-04-18T13:02:13.546Z</time></trkpt><trkpt lat="44.0465029" lon="12.0295396"><ele>268.2</ele><time>2026-04-18T13:02:15.546Z</time></trkpt><trkpt lat="44.0465265" lon="12.029627"><ele>268.8</ele><time>2026-04-18T13:02:16.547Z</time></trkpt><trkpt lat="44.0465667" lon="12.0297687"><ele>269.4</ele><time>2026-04-18T13:02:18.545Z</time></trkpt><trkpt lat="44.0466194" lon="12.0299154"><ele>270.0</ele><time>2026-04-18T13:02:20.552Z</time></trkpt><trkpt lat="44.0466647" lon="12.0300497"><ele>270.6</ele><time>2026-04-18T13:02:22.559Z</time></trkpt><trkpt lat="44.0467023" lon="12.0301798"><ele>271.2</ele><time>2026-04-18T13:02:24.562Z</time></trkpt><trkpt lat="44.0467471" lon="12.0303345"><ele>271.8</ele><time>2026-04-18T13:02:26.551Z</time></trkpt><trkpt lat="44.04678" lon="12.0304313"><ele>272.4</ele><time>2026-04-18T13:02:27.549Z</time></trkpt><trkpt lat="44.0468216" lon="12.0305361"><ele>273.0</ele><time>2026-04-18T13:02:28.547Z</time></trkpt><trkpt lat="44.0468651" lon="12.0306354"><ele>273.0</ele><time>2026-04-18T13:02:29.557Z</time></trkpt><trkpt lat="44.046911" lon="12.030734"><ele>273.0</ele><time>2026-04-18T13:02:30.549Z</time></trkpt><trkpt lat="44.0469663" lon="12.0308588"><ele>273.0</ele><time>2026-04-18T13:02:31.549Z</time></trkpt><trkpt lat="44.0470214" lon="12.0309793"><ele>273.0</ele><time>2026-04-18T13:02:32.549Z</time></trkpt><trkpt lat="44.0470705" lon="12.0310917"><ele>273.0</ele><time>2026-04-18T13:02:33.548Z</time></trkpt><trkpt lat="44.0471162" lon="12.0312069"><ele>274.8</ele><time>2026-04-18T13:02:34.55Z</time></trkpt><trkpt lat="44.0471659" lon="12.0313302"><ele>276.6</ele><time>2026-04-18T13:02:35.549Z</time></trkpt><trkpt lat="44.0472204" lon="12.031456"><ele>278.4</ele><time>2026-04-18T13:02:36.546Z</time></trkpt><trkpt lat="44.0472765" lon="12.0315856"><ele>280.2</ele><time>2026-04-18T13:02:37.547Z</time></trkpt><trkpt lat="44.0473335" lon="12.0317179"><ele>282.0</ele><time>2026-04-18T13:02:38.546Z</time></trkpt><trkpt lat="44.047391" lon="12.0318493"><ele>282.4</ele><time>2026-04-18T13:02:39.549Z</time></trkpt><trkpt lat="44.0474449" lon="12.0319815"><ele>282.79999999999995</ele><time>2026-04-18T13:02:40.55Z</time></trkpt><trkpt lat="44.0474988" lon="12.0321147"><ele>283.2</ele><time>2026-04-18T13:02:41.55Z</time></trkpt><trkpt lat="44.0475521" lon="12.0322492"><ele>283.59999999999997</ele><time>2026-04-18T13:02:42.556Z</time></trkpt><trkpt lat="44.0476011" lon="12.0323809"><ele>284.0</ele><time>2026-04-18T13:02:43.551Z</time></trkpt><trkpt lat="44.0476469" lon="12.0325071"><ele>285.59999999999997</ele><time>2026-04-18T13:02:44.549Z</time></trkpt><trkpt lat="44.0476926" lon="12.0326301"><ele>287.2</ele><time>2026-04-18T13:02:45.548Z</time></trkpt><trkpt lat="44.0477451" lon="12.0327492"><ele>288.79999999999995</ele><time>2026-04-18T13:02:46.547Z</time></trkpt><trkpt lat="44.0477989" lon="12.0328668"><ele>290.4</ele><time>2026-04-18T13:02:47.549Z</time></trkpt><trkpt lat="44.0478565" lon="12.0329847"><ele>292.0</ele><time>2026-04-18T13:02:48.545Z</time></trkpt><trkpt lat="44.0479189" lon="12.0331092"><ele>292.0</ele><time>2026-04-18T13:02:49.551Z</time></trkpt><trkpt lat="44.0479797" lon="12.0332397"><ele>292.0</ele><time>2026-04-18T13:02:50.546Z</time></trkpt><trkpt lat="44.0480438" lon="12.0333738"><ele>292.0</ele><time>2026-04-18T13:02:51.546Z</time></trkpt><trkpt lat="44.0481072" lon="12.0335184"><ele>292.0</ele><time>2026-04-18T13:02:52.551Z</time></trkpt><trkpt lat="44.0481733" lon="12.033665"><ele>291.5</ele><time>2026-04-18T13:02:53.552Z</time></trkpt><trkpt lat="44.0482411" lon="12.0338132"><ele>291.0</ele><time>2026-04-18T13:02:54.551Z</time></trkpt><trkpt lat="44.048308" lon="12.0339655"><ele>290.5</ele><time>2026-04-18T13:02:55.549Z</time></trkpt><trkpt lat="44.0483779" lon="12.0341192"><ele>290.0</ele><time>2026-04-18T13:02:56.559Z</time></trkpt><trkpt lat="44.0484426" lon="12.0342674"><ele>291.75</ele><time>2026-04-18T13:02:57.549Z</time></trkpt><trkpt lat="44.0485037" lon="12.0344033"><ele>293.5</ele><time>2026-04-18T13:02:58.548Z</time></trkpt><trkpt lat="44.0485646" lon="12.0345386"><ele>295.25</ele><time>2026-04-18T13:02:59.555Z</time></trkpt><trkpt lat="44.0486392" lon="12.0346701"><ele>297.0</ele><time>2026-04-18T13:03:00.547Z</time></trkpt><trkpt lat="44.048724" lon="12.0348035"><ele>297.0</ele><time>2026-04-18T13:03:01.545Z</time></trkpt><trkpt lat="44.048824" lon="12.0349411"><ele>297.0</ele><time>2026-04-18T13:03:02.553Z</time></trkpt><trkpt lat="44.0489263" lon="12.0350776"><ele>297.0</ele><time>2026-04-18T13:03:03.55Z</time></trkpt><trkpt lat="44.0490202" lon="12.0352125"><ele>297.0</ele><time>2026-04-18T13:03:04.553Z</time></trkpt><trkpt lat="44.0491131" lon="12.0353451"><ele>297.25</ele><time>2026-04-18T13:03:05.544Z</time></trkpt><trkpt lat="44.0492094" lon="12.0354863"><ele>297.5</ele><time>2026-04-18T13:03:06.552Z</time></trkpt><trkpt lat="44.0493051" lon="12.0356229"><ele>297.75</ele><time>2026-04-18T13:03:07.549Z</time></trkpt><trkpt lat="44.0493943" lon="12.0357564"><ele>298.0</ele><time>2026-04-18T13:03:08.558Z</time></trkpt><trkpt lat="44.0494768" lon="12.0358774"><ele>300.25</ele><time>2026-04-18T13:03:09.556Z</time></trkpt><trkpt lat="44.0495604" lon="12.0359986"><ele>302.5</ele><time>2026-04-18T13:03:10.549Z</time></trkpt><trkpt lat="44.0496522" lon="12.0361274"><ele>304.75</ele><time>2026-04-18T13:03:11.546Z</time></trkpt><trkpt lat="44.0497448" lon="12.0362608"><ele>307.0</ele><time>2026-04-18T13:03:12.544Z</time></trkpt><trkpt lat="44.049829" lon="12.0363931"><ele>307.0</ele><time>2026-04-18T13:03:13.548Z</time></trkpt><trkpt lat="44.0498924" lon="12.0365146"><ele>307.0</ele><time>2026-04-18T13:03:14.554Z</time></trkpt><trkpt lat="44.0499421" lon="12.036658"><ele>307.0</ele><time>2026-04-18T13:03:15.548Z</time></trkpt><trkpt lat="44.0499852" lon="12.0368264"><ele>307.0</ele><time>2026-04-18T13:03:16.552Z</time></trkpt><trkpt lat="44.0500259" lon="12.0370042"><ele>307.4</ele><time>2026-04-18T13:03:17.552Z</time></trkpt><trkpt lat="44.0500676" lon="12.0371692"><ele>307.79999999999995</ele><time>2026-04-18T13:03:18.547Z</time></trkpt><trkpt lat="44.0501089" lon="12.0373206"><ele>308.2</ele><time>2026-04-18T13:03:19.552Z</time></trkpt><trkpt lat="44.0501493" lon="12.0374547"><ele>308.59999999999997</ele><time>2026-04-18T13:03:20.551Z</time></trkpt><trkpt lat="44.0501813" lon="12.0375765"><ele>309.0</ele><time>2026-04-18T13:03:21.545Z</time></trkpt><trkpt lat="44.0501965" lon="12.0376872"><ele>310.5</ele><time>2026-04-18T13:03:22.554Z</time></trkpt><trkpt lat="44.0501901" lon="12.0377966"><ele>312.0</ele><time>2026-04-18T13:03:23.555Z</time></trkpt><trkpt lat="44.0501711" lon="12.0378839"><ele>313.5</ele><time>2026-04-18T13:03:24.553Z</time></trkpt><trkpt lat="44.0501004" lon="12.0379929"><ele>315.0</ele><time>2026-04-18T13:03:26.552Z</time></trkpt><trkpt lat="44.0500331" lon="12.0380235"><ele>316.5</ele><time>2026-04-18T13:03:27.541Z</time></trkpt><trkpt lat="44.0499399" lon="12.0380444"><ele>318.0</ele><time>2026-04-18T13:03:28.546Z</time></trkpt><trkpt lat="44.0498261" lon="12.0380701"><ele>319.0</ele><time>2026-04-18T13:03:29.55Z</time></trkpt><trkpt lat="44.0496953" lon="12.0380971"><ele>320.0</ele><time>2026-04-18T13:03:30.558Z</time></trkpt><trkpt lat="44.0495512" lon="12.0381356"><ele>321.0</ele><time>2026-04-18T13:03:31.552Z</time></trkpt><trkpt lat="44.0493998" lon="12.0381749"><ele>322.0</ele><time>2026-04-18T13:03:32.549Z</time></trkpt><trkpt lat="44.0492493" lon="12.0382178"><ele>323.3333333333333</ele><time>2026-04-18T13:03:33.548Z</time></trkpt><trkpt lat="44.0490946" lon="12.0382693"><ele>324.6666666666667</ele><time>2026-04-18T13:03:34.551Z</time></trkpt><trkpt lat="44.0489381" lon="12.0383272"><ele>326.0</ele><time>2026-04-18T13:03:35.55Z</time></trkpt><trkpt lat="44.0487863" lon="12.0383895"><ele>328.25</ele><time>2026-04-18T13:03:36.551Z</time></trkpt><trkpt lat="44.0486524" lon="12.0384482"><ele>330.5</ele><time>2026-04-18T13:03:37.55Z</time></trkpt><trkpt lat="44.0485243" lon="12.038501"><ele>332.75</ele><time>2026-04-18T13:03:38.551Z</time></trkpt><trkpt lat="44.048398" lon="12.0385332"><ele>335.0</ele><time>2026-04-18T13:03:39.548Z</time></trkpt><trkpt lat="44.0482844" lon="12.0385338"><ele>335.5</ele><time>2026-04-18T13:03:40.545Z</time></trkpt><trkpt lat="44.0481709" lon="12.0385063"><ele>336.0</ele><time>2026-04-18T13:03:41.551Z</time></trkpt><trkpt lat="44.0480453" lon="12.0384466"><ele>336.5</ele><time>2026-04-18T13:03:42.551Z</time></trkpt><trkpt lat="44.0478979" lon="12.0383628"><ele>337.0</ele><time>2026-04-18T13:03:43.543Z</time></trkpt><trkpt lat="44.0477454" lon="12.0382813"><ele>337.0</ele><time>2026-04-18T13:03:44.552Z</time></trkpt><trkpt lat="44.0476004" lon="12.038194"><ele>337.0</ele><time>2026-04-18T13:03:45.552Z</time></trkpt><trkpt lat="44.0474576" lon="12.0381042"><ele>337.0</ele><time>2026-04-18T13:03:46.547Z</time></trkpt><trkpt lat="44.0473119" lon="12.0380124"><ele>339.5</ele><time>2026-04-18T13:03:47.547Z</time></trkpt><trkpt lat="44.0471727" lon="12.0379271"><ele>342.0</ele><time>2026-04-18T13:03:48.547Z</time></trkpt><trkpt lat="44.0470502" lon="12.0378587"><ele>344.5</ele><time>2026-04-18T13:03:49.544Z</time></trkpt><trkpt lat="44.0469417" lon="12.0378105"><ele>347.0</ele><time>2026-04-18T13:03:50.553Z</time></trkpt><trkpt lat="44.0468489" lon="12.0377758"><ele>347.0</ele><time>2026-04-18T13:03:51.557Z</time></trkpt><trkpt lat="44.0467635" lon="12.0377595"><ele>347.0</ele><time>2026-04-18T13:03:52.552Z</time></trkpt><trkpt lat="44.0466837" lon="12.0377686"><ele>347.0</ele><time>2026-04-18T13:03:53.544Z</time></trkpt><trkpt lat="44.046606" lon="12.0378102"><ele>347.0</ele><time>2026-04-18T13:03:54.553Z</time></trkpt><trkpt lat="44.0465357" lon="12.0378861"><ele>347.0</ele><time>2026-04-18T13:03:55.549Z</time></trkpt><trkpt lat="44.0464898" lon="12.0379914"><ele>347.0</ele><time>2026-04-18T13:03:56.556Z</time></trkpt><trkpt lat="44.0464756" lon="12.0381203"><ele>348.0</ele><time>2026-04-18T13:03:57.547Z</time></trkpt><trkpt lat="44.0464918" lon="12.038268"><ele>349.0</ele><time>2026-04-18T13:03:58.545Z</time></trkpt><trkpt lat="44.0465265" lon="12.0384347"><ele>350.0</ele><time>2026-04-18T13:03:59.548Z</time></trkpt><trkpt lat="44.0465831" lon="12.0386062"><ele>351.0</ele><time>2026-04-18T13:04:00.551Z</time></trkpt><trkpt lat="44.0466618" lon="12.0387766"><ele>351.0</ele><time>2026-04-18T13:04:01.542Z</time></trkpt><trkpt lat="44.0467457" lon="12.03895"><ele>351.0</ele><time>2026-04-18T13:04:02.546Z</time></trkpt><trkpt lat="44.0468316" lon="12.0391253"><ele>351.0</ele><time>2026-04-18T13:04:03.546Z</time></trkpt><trkpt lat="44.0469172" lon="12.0393088"><ele>353.6666666666667</ele><time>2026-04-18T13:04:04.557Z</time></trkpt><trkpt lat="44.0470023" lon="12.0395018"><ele>356.33333333333337</ele><time>2026-04-18T13:04:05.549Z</time></trkpt><trkpt lat="44.0470894" lon="12.0396936"><ele>359.0</ele><time>2026-04-18T13:04:06.545Z</time></trkpt><trkpt lat="44.0471753" lon="12.0398775"><ele>359.6666666666667</ele><time>2026-04-18T13:04:07.552Z</time></trkpt><trkpt lat="44.0472569" lon="12.0400579"><ele>360.3333333333333</ele><time>2026-04-18T13:04:08.551Z</time></trkpt><trkpt lat="44.0473361" lon="12.04024"><ele>361.0</ele><time>2026-04-18T13:04:09.55Z</time></trkpt><trkpt lat="44.0474174" lon="12.040418"><ele>360.66666666666663</ele><time>2026-04-18T13:04:10.549Z</time></trkpt><trkpt lat="44.0475097" lon="12.0405787"><ele>360.3333333333333</ele><time>2026-04-18T13:04:11.553Z</time></trkpt><trkpt lat="44.0476141" lon="12.0407319"><ele>360.0</ele><time>2026-04-18T13:04:12.548Z</time></trkpt><trkpt lat="44.0477285" lon="12.0408815"><ele>362.3333333333333</ele><time>2026-04-18T13:04:13.552Z</time></trkpt><trkpt lat="44.04785" lon="12.0410378"><ele>364.66666666666663</ele><time>2026-04-18T13:04:14.551Z</time></trkpt><trkpt lat="44.0479757" lon="12.0411939"><ele>367.0</ele><time>2026-04-18T13:04:15.544Z</time></trkpt><trkpt lat="44.0480971" lon="12.041351"><ele>367.0</ele><time>2026-04-18T13:04:16.546Z</time></trkpt><trkpt lat="44.0482103" lon="12.0414873"><ele>367.0</ele><time>2026-04-18T13:04:17.55Z</time></trkpt><trkpt lat="44.0483147" lon="12.0416132"><ele>367.0</ele><time>2026-04-18T13:04:18.555Z</time></trkpt><trkpt lat="44.0484167" lon="12.0417358"><ele>367.0</ele><time>2026-04-18T13:04:19.549Z</time></trkpt><trkpt lat="44.0485216" lon="12.0418575"><ele>367.5</ele><time>2026-04-18T13:04:20.546Z</time></trkpt><trkpt lat="44.0486257" lon="12.0419757"><ele>368.0</ele><time>2026-04-18T13:04:21.551Z</time></trkpt><trkpt lat="44.048734" lon="12.0420875"><ele>368.5</ele><time>2026-04-18T13:04:22.547Z</time></trkpt><trkpt lat="44.0488473" lon="12.0421857"><ele>369.0</ele><time>2026-04-18T13:04:23.551Z</time></trkpt><trkpt lat="44.0489728" lon="12.0422807"><ele>369.0</ele><time>2026-04-18T13:04:24.548Z</time></trkpt><trkpt lat="44.0491101" lon="12.0423807"><ele>369.0</ele><time>2026-04-18T13:04:25.546Z</time></trkpt><trkpt lat="44.0492523" lon="12.0424851"><ele>369.0</ele><time>2026-04-18T13:04:26.554Z</time></trkpt><trkpt lat="44.0494003" lon="12.0425892"><ele>367.6666666666667</ele><time>2026-04-18T13:04:27.552Z</time></trkpt><trkpt lat="44.0495405" lon="12.0426965"><ele>366.33333333333337</ele><time>2026-04-18T13:04:28.547Z</time></trkpt><trkpt lat="44.0496768" lon="12.0428008"><ele>365.0</ele><time>2026-04-18T13:04:29.557Z</time></trkpt><trkpt lat="44.0498081" lon="12.0429038"><ele>365.0</ele><time>2026-04-18T13:04:30.554Z</time></trkpt><trkpt lat="44.0499429" lon="12.0430112"><ele>365.0</ele><time>2026-04-18T13:04:31.547Z</time></trkpt><trkpt lat="44.050081" lon="12.0431242"><ele>365.0</ele><time>2026-04-18T13:04:32.548Z</time></trkpt><trkpt lat="44.0502183" lon="12.0432358"><ele>364.75</ele><time>2026-04-18T13:04:33.547Z</time></trkpt><trkpt lat="44.0503528" lon="12.0433442"><ele>364.5</ele><time>2026-04-18T13:04:34.557Z</time></trkpt><trkpt lat="44.0504841" lon="12.0434441"><ele>364.25</ele><time>2026-04-18T13:04:35.546Z</time></trkpt><trkpt lat="44.0506117" lon="12.0435372"><ele>364.0</ele><time>2026-04-18T13:04:36.555Z</time></trkpt><trkpt lat="44.0507427" lon="12.0436348"><ele>365.25</ele><time>2026-04-18T13:04:37.549Z</time></trkpt><trkpt lat="44.0508754" lon="12.0437291"><ele>366.5</ele><time>2026-04-18T13:04:38.546Z</time></trkpt><trkpt lat="44.0510036" lon="12.0438153"><ele>367.75</ele><time>2026-04-18T13:04:39.548Z</time></trkpt><trkpt lat="44.0511274" lon="12.0438961"><ele>369.0</ele><time>2026-04-18T13:04:40.552Z</time></trkpt><trkpt lat="44.0512444" lon="12.0439826"><ele>369.0</ele><time>2026-04-18T13:04:41.548Z</time></trkpt><trkpt lat="44.0513556" lon="12.0440651"><ele>369.0</ele><time>2026-04-18T13:04:42.554Z</time></trkpt><trkpt lat="44.0514623" lon="12.0441442"><ele>369.0</ele><time>2026-04-18T13:04:43.562Z</time></trkpt><trkpt lat="44.0515672" lon="12.0442187"><ele>369.0</ele><time>2026-04-18T13:04:44.549Z</time></trkpt><trkpt lat="44.0516643" lon="12.0442923"><ele>366.75</ele><time>2026-04-18T13:04:45.554Z</time></trkpt><trkpt lat="44.0517633" lon="12.0443667"><ele>364.5</ele><time>2026-04-18T13:04:46.543Z</time></trkpt><trkpt lat="44.0518661" lon="12.0444452"><ele>362.25</ele><time>2026-04-18T13:04:47.542Z</time></trkpt><trkpt lat="44.0519647" lon="12.0445387"><ele>360.0</ele><time>2026-04-18T13:04:48.559Z</time></trkpt><trkpt lat="44.0520557" lon="12.044669"><ele>360.0</ele><time>2026-04-18T13:04:49.549Z</time></trkpt><trkpt lat="44.0521335" lon="12.0448339"><ele>360.0</ele><time>2026-04-18T13:04:50.543Z</time></trkpt><trkpt lat="44.0522028" lon="12.0450209"><ele>360.0</ele><time>2026-04-18T13:04:51.552Z</time></trkpt><trkpt lat="44.0522649" lon="12.0452257"><ele>356.5</ele><time>2026-04-18T13:04:52.548Z</time></trkpt><trkpt lat="44.0523265" lon="12.0454247"><ele>353.0</ele><time>2026-04-18T13:04:53.547Z</time></trkpt><trkpt lat="44.0523849" lon="12.0456082"><ele>349.5</ele><time>2026-04-18T13:04:54.553Z</time></trkpt><trkpt lat="44.0524455" lon="12.0457941"><ele>346.0</ele><time>2026-04-18T13:04:55.551Z</time></trkpt><trkpt lat="44.0525051" lon="12.0459715"><ele>346.0</ele><time>2026-04-18T13:04:56.545Z</time></trkpt><trkpt lat="44.0525631" lon="12.0461386"><ele>346.0</ele><time>2026-04-18T13:04:57.548Z</time></trkpt><trkpt lat="44.0526252" lon="12.0463015"><ele>346.0</ele><time>2026-04-18T13:04:58.551Z</time></trkpt><trkpt lat="44.0526922" lon="12.0464476"><ele>346.0</ele><time>2026-04-18T13:04:59.547Z</time></trkpt><trkpt lat="44.0527767" lon="12.0465965"><ele>344.0</ele><time>2026-04-18T13:05:00.554Z</time></trkpt><trkpt lat="44.0528799" lon="12.046762"><ele>342.0</ele><time>2026-04-18T13:05:01.553Z</time></trkpt><trkpt lat="44.0529911" lon="12.0469302"><ele>340.0</ele><time>2026-04-18T13:05:02.548Z</time></trkpt><trkpt lat="44.0531011" lon="12.0470902"><ele>340.0</ele><time>2026-04-18T13:05:03.552Z</time></trkpt><trkpt lat="44.0532143" lon="12.0472581"><ele>340.0</ele><time>2026-04-18T13:05:04.554Z</time></trkpt><trkpt lat="44.053324" lon="12.0474191"><ele>340.0</ele><time>2026-04-18T13:05:05.548Z</time></trkpt><trkpt lat="44.0534252" lon="12.0475785"><ele>340.75</ele><time>2026-04-18T13:05:06.554Z</time></trkpt><trkpt lat="44.0535225" lon="12.0477336"><ele>341.5</ele><time>2026-04-18T13:05:07.549Z</time></trkpt><trkpt lat="44.053617" lon="12.0478874"><ele>342.25</ele><time>2026-04-18T13:05:08.548Z</time></trkpt><trkpt lat="44.0537143" lon="12.0480325"><ele>343.0</ele><time>2026-04-18T13:05:09.548Z</time></trkpt><trkpt lat="44.0538082" lon="12.0481855"><ele>340.3333333333333</ele><time>2026-04-18T13:05:10.548Z</time></trkpt><trkpt lat="44.0539169" lon="12.048341"><ele>337.6666666666667</ele><time>2026-04-18T13:05:11.548Z</time></trkpt><trkpt lat="44.0540292" lon="12.0485106"><ele>335.0</ele><time>2026-04-18T13:05:12.55Z</time></trkpt><trkpt lat="44.0541411" lon="12.0486743"><ele>333.0</ele><time>2026-04-18T13:05:13.545Z</time></trkpt><trkpt lat="44.054253" lon="12.0488383"><ele>331.0</ele><time>2026-04-18T13:05:14.557Z</time></trkpt><trkpt lat="44.0543661" lon="12.0490035"><ele>329.0</ele><time>2026-04-18T13:05:15.547Z</time></trkpt><trkpt lat="44.0544798" lon="12.049178"><ele>328.6666666666667</ele><time>2026-04-18T13:05:16.546Z</time></trkpt><trkpt lat="44.0545974" lon="12.0493561"><ele>328.3333333333333</ele><time>2026-04-18T13:05:17.541Z</time></trkpt><trkpt lat="44.0547131" lon="12.0495368"><ele>328.0</ele><time>2026-04-18T13:05:18.547Z</time></trkpt><trkpt lat="44.0548308" lon="12.0497183"><ele>328.0</ele><time>2026-04-18T13:05:19.543Z</time></trkpt><trkpt lat="44.0549452" lon="12.0498976"><ele>328.0</ele><time>2026-04-18T13:05:20.551Z</time></trkpt><trkpt lat="44.0550651" lon="12.0500834"><ele>328.0</ele><time>2026-04-18T13:05:21.553Z</time></trkpt><trkpt lat="44.0551921" lon="12.0502827"><ele>327.66666666666663</ele><time>2026-04-18T13:05:22.55Z</time></trkpt><trkpt lat="44.0553281" lon="12.0504954"><ele>327.3333333333333</ele><time>2026-04-18T13:05:23.552Z</time></trkpt><trkpt lat="44.0554683" lon="12.050713"><ele>327.0</ele><time>2026-04-18T13:05:24.548Z</time></trkpt><trkpt lat="44.0556077" lon="12.0509295"><ele>327.6666666666667</ele><time>2026-04-18T13:05:25.548Z</time></trkpt><trkpt lat="44.0557458" lon="12.0511396"><ele>328.33333333333337</ele><time>2026-04-18T13:05:26.552Z</time></trkpt><trkpt lat="44.0558718" lon="12.0513368"><ele>329.0</ele><time>2026-04-18T13:05:27.546Z</time></trkpt><trkpt lat="44.055995" lon="12.0515261"><ele>329.0</ele><time>2026-04-18T13:05:28.549Z</time></trkpt><trkpt lat="44.0561165" lon="12.0517199"><ele>329.0</ele><time>2026-04-18T13:05:29.549Z</time></trkpt><trkpt lat="44.0562404" lon="12.0519118"><ele>329.0</ele><time>2026-04-18T13:05:30.547Z</time></trkpt><trkpt lat="44.056361" lon="12.0520987"><ele>329.0</ele><time>2026-04-18T13:05:31.549Z</time></trkpt><trkpt lat="44.0564822" lon="12.052285"><ele>329.0</ele><time>2026-04-18T13:05:32.546Z</time></trkpt><trkpt lat="44.0565988" lon="12.0524664"><ele>329.0</ele><time>2026-04-18T13:05:33.545Z</time></trkpt><trkpt lat="44.0567128" lon="12.052638"><ele>330.6666666666667</ele><time>2026-04-18T13:05:34.553Z</time></trkpt><trkpt lat="44.056827" lon="12.0528156"><ele>332.3333333333333</ele><time>2026-04-18T13:05:35.558Z</time></trkpt><trkpt lat="44.0569405" lon="12.0529912"><ele>334.0</ele><time>2026-04-18T13:05:36.55Z</time></trkpt><trkpt lat="44.0570586" lon="12.0531638"><ele>332.66666666666663</ele><time>2026-04-18T13:05:37.55Z</time></trkpt><trkpt lat="44.0571805" lon="12.0533447"><ele>331.3333333333333</ele><time>2026-04-18T13:05:38.552Z</time></trkpt><trkpt lat="44.0573065" lon="12.0535287"><ele>330.0</ele><time>2026-04-18T13:05:39.554Z</time></trkpt><trkpt lat="44.0574329" lon="12.0537171"><ele>331.6666666666667</ele><time>2026-04-18T13:05:40.55Z</time></trkpt><trkpt lat="44.0575604" lon="12.0539089"><ele>333.33333333333337</ele><time>2026-04-18T13:05:41.546Z</time></trkpt><trkpt lat="44.0576847" lon="12.0541003"><ele>335.0</ele><time>2026-04-18T13:05:42.549Z</time></trkpt><trkpt lat="44.0577949" lon="12.054284"><ele>335.0</ele><time>2026-04-18T13:05:43.549Z</time></trkpt><trkpt lat="44.0578977" lon="12.0544479"><ele>335.0</ele><time>2026-04-18T13:05:44.547Z</time></trkpt><trkpt lat="44.0579901" lon="12.0545876"><ele>335.0</ele><time>2026-04-18T13:05:45.553Z</time></trkpt><trkpt lat="44.0580763" lon="12.0547072"><ele>335.0</ele><time>2026-04-18T13:05:46.542Z</time></trkpt><trkpt lat="44.058171" lon="12.0548012"><ele>335.0</ele><time>2026-04-18T13:05:47.55Z</time></trkpt><trkpt lat="44.0582747" lon="12.0548704"><ele>335.0</ele><time>2026-04-18T13:05:48.554Z</time></trkpt><trkpt lat="44.0583779" lon="12.0548991"><ele>335.0</ele><time>2026-04-18T13:05:49.553Z</time></trkpt><trkpt lat="44.0584842" lon="12.054889"><ele>335.0</ele><time>2026-04-18T13:05:50.548Z</time></trkpt><trkpt lat="44.0585996" lon="12.0548504"><ele>335.0</ele><time>2026-04-18T13:05:51.548Z</time></trkpt><trkpt lat="44.0587198" lon="12.0548085"><ele>336.4</ele><time>2026-04-18T13:05:52.555Z</time></trkpt><trkpt lat="44.0588407" lon="12.0547851"><ele>337.8</ele><time>2026-04-18T13:05:53.543Z</time></trkpt><trkpt lat="44.0589516" lon="12.0547845"><ele>339.20000000000005</ele><time>2026-04-18T13:05:54.546Z</time></trkpt><trkpt lat="44.0590452" lon="12.0547898"><ele>340.6</ele><time>2026-04-18T13:05:55.547Z</time></trkpt><trkpt lat="44.0591063" lon="12.0548132"><ele>342.0</ele><time>2026-04-18T13:05:56.551Z</time></trkpt><trkpt lat="44.0591714" lon="12.0549168"><ele>343.0</ele><time>2026-04-18T13:05:58.55Z</time></trkpt><trkpt lat="44.0592091" lon="12.0550928"><ele>344.0</ele><time>2026-04-18T13:06:00.551Z</time></trkpt><trkpt lat="44.0592278" lon="12.0552284"><ele>345.0</ele><time>2026-04-18T13:06:01.549Z</time></trkpt><trkpt lat="44.0592574" lon="12.0553809"><ele>346.0</ele><time>2026-04-18T13:06:02.562Z</time></trkpt><trkpt lat="44.0592897" lon="12.0555477"><ele>346.0</ele><time>2026-04-18T13:06:03.543Z</time></trkpt><trkpt lat="44.0593258" lon="12.055713"><ele>346.0</ele><time>2026-04-18T13:06:04.546Z</time></trkpt><trkpt lat="44.0593684" lon="12.0558725"><ele>346.0</ele><time>2026-04-18T13:06:05.553Z</time></trkpt><trkpt lat="44.0594225" lon="12.0560435"><ele>346.0</ele><time>2026-04-18T13:06:06.56Z</time></trkpt><trkpt lat="44.0594997" lon="12.0562065"><ele>346.0</ele><time>2026-04-18T13:06:07.552Z</time></trkpt><trkpt lat="44.0595972" lon="12.056354"><ele>346.0</ele><time>2026-04-18T13:06:08.557Z</time></trkpt><trkpt lat="44.0597076" lon="12.056508"><ele>346.0</ele><time>2026-04-18T13:06:09.552Z</time></trkpt><trkpt lat="44.0598247" lon="12.0566585"><ele>346.0</ele><time>2026-04-18T13:06:10.548Z</time></trkpt><trkpt lat="44.0599409" lon="12.0568077"><ele>346.0</ele><time>2026-04-18T13:06:11.546Z</time></trkpt><trkpt lat="44.0600546" lon="12.0569414"><ele>346.0</ele><time>2026-04-18T13:06:12.551Z</time></trkpt><trkpt lat="44.0601564" lon="12.0570636"><ele>346.0</ele><time>2026-04-18T13:06:13.548Z</time></trkpt><trkpt lat="44.0602478" lon="12.057187"><ele>345.5</ele><time>2026-04-18T13:06:14.549Z</time></trkpt><trkpt lat="44.0603299" lon="12.0573121"><ele>345.0</ele><time>2026-04-18T13:06:15.55Z</time></trkpt><trkpt lat="44.0604034" lon="12.0574411"><ele>344.5</ele><time>2026-04-18T13:06:16.546Z</time></trkpt><trkpt lat="44.060462" lon="12.0575807"><ele>344.0</ele><time>2026-04-18T13:06:17.553Z</time></trkpt><trkpt lat="44.0605093" lon="12.057731"><ele>344.0</ele><time>2026-04-18T13:06:18.548Z</time></trkpt><trkpt lat="44.0605509" lon="12.0578941"><ele>344.0</ele><time>2026-04-18T13:06:19.546Z</time></trkpt><trkpt lat="44.0605955" lon="12.0580668"><ele>344.0</ele><time>2026-04-18T13:06:20.547Z</time></trkpt><trkpt lat="44.0606405" lon="12.0582414"><ele>344.0</ele><time>2026-04-18T13:06:21.553Z</time></trkpt><trkpt lat="44.0606835" lon="12.0584007"><ele>344.0</ele><time>2026-04-18T13:06:22.552Z</time></trkpt><trkpt lat="44.0607241" lon="12.0585483"><ele>344.0</ele><time>2026-04-18T13:06:23.553Z</time></trkpt><trkpt lat="44.0607663" lon="12.0586954"><ele>344.0</ele><time>2026-04-18T13:06:24.555Z</time></trkpt><trkpt lat="44.0608225" lon="12.0588421"><ele>344.0</ele><time>2026-04-18T13:06:25.547Z</time></trkpt><trkpt lat="44.0608957" lon="12.0589892"><ele>343.0</ele><time>2026-04-18T13:06:26.551Z</time></trkpt><trkpt lat="44.0609828" lon="12.0591438"><ele>342.0</ele><time>2026-04-18T13:06:27.547Z</time></trkpt><trkpt lat="44.061084" lon="12.0593127"><ele>341.0</ele><time>2026-04-18T13:06:28.545Z</time></trkpt><trkpt lat="44.0611899" lon="12.0594819"><ele>341.0</ele><time>2026-04-18T13:06:29.548Z</time></trkpt><trkpt lat="44.0613037" lon="12.0596605"><ele>341.0</ele><time>2026-04-18T13:06:30.548Z</time></trkpt><trkpt lat="44.0614191" lon="12.0598374"><ele>341.0</ele><time>2026-04-18T13:06:31.548Z</time></trkpt><trkpt lat="44.0615332" lon="12.0600091"><ele>338.0</ele><time>2026-04-18T13:06:32.548Z</time></trkpt><trkpt lat="44.0616462" lon="12.0601791"><ele>335.0</ele><time>2026-04-18T13:06:33.548Z</time></trkpt><trkpt lat="44.0617529" lon="12.0603439"><ele>332.0</ele><time>2026-04-18T13:06:34.553Z</time></trkpt><trkpt lat="44.0618517" lon="12.0605006"><ele>332.0</ele><time>2026-04-18T13:06:35.545Z</time></trkpt><trkpt lat="44.0619448" lon="12.0606569"><ele>332.0</ele><time>2026-04-18T13:06:36.555Z</time></trkpt><trkpt lat="44.0620271" lon="12.0608236"><ele>332.0</ele><time>2026-04-18T13:06:37.553Z</time></trkpt><trkpt lat="44.0621041" lon="12.0610015"><ele>332.0</ele><time>2026-04-18T13:06:38.552Z</time></trkpt><trkpt lat="44.0621772" lon="12.0611854"><ele>330.0</ele><time>2026-04-18T13:06:39.552Z</time></trkpt><trkpt lat="44.0622577" lon="12.0613697"><ele>328.0</ele><time>2026-04-18T13:06:40.543Z</time></trkpt><trkpt lat="44.0623471" lon="12.0615535"><ele>326.0</ele><time>2026-04-18T13:06:41.545Z</time></trkpt><trkpt lat="44.0624477" lon="12.061738"><ele>327.0</ele><time>2026-04-18T13:06:42.551Z</time></trkpt><trkpt lat="44.0625618" lon="12.0619188"><ele>328.0</ele><time>2026-04-18T13:06:43.548Z</time></trkpt><trkpt lat="44.0626852" lon="12.0620916"><ele>329.0</ele><time>2026-04-18T13:06:44.551Z</time></trkpt><trkpt lat="44.062808" lon="12.0622548"><ele>329.0</ele><time>2026-04-18T13:06:45.551Z</time></trkpt><trkpt lat="44.0629244" lon="12.0624118"><ele>329.0</ele><time>2026-04-18T13:06:46.545Z</time></trkpt><trkpt lat="44.0630324" lon="12.0625688"><ele>329.0</ele><time>2026-04-18T13:06:47.546Z</time></trkpt><trkpt lat="44.0631296" lon="12.0627357"><ele>330.0</ele><time>2026-04-18T13:06:48.551Z</time></trkpt><trkpt lat="44.0632173" lon="12.0629133"><ele>331.0</ele><time>2026-04-18T13:06:49.542Z</time></trkpt><trkpt lat="44.0632949" lon="12.0631079"><ele>332.0</ele><time>2026-04-18T13:06:50.551Z</time></trkpt><trkpt lat="44.0633633" lon="12.0633102"><ele>333.0</ele><time>2026-04-18T13:06:51.562Z</time></trkpt><trkpt lat="44.0634232" lon="12.0635122"><ele>334.0</ele><time>2026-04-18T13:06:52.559Z</time></trkpt><trkpt lat="44.0634814" lon="12.0637032"><ele>335.0</ele><time>2026-04-18T13:06:53.552Z</time></trkpt><trkpt lat="44.063544" lon="12.0638832"><ele>335.0</ele><time>2026-04-18T13:06:54.551Z</time></trkpt><trkpt lat="44.0636162" lon="12.0640567"><ele>335.0</ele><time>2026-04-18T13:06:55.55Z</time></trkpt><trkpt lat="44.0636993" lon="12.0642206"><ele>335.0</ele><time>2026-04-18T13:06:56.558Z</time></trkpt><trkpt lat="44.0637867" lon="12.0643622"><ele>335.0</ele><time>2026-04-18T13:06:57.547Z</time></trkpt><trkpt lat="44.0638714" lon="12.0644728"><ele>334.75</ele><time>2026-04-18T13:06:58.552Z</time></trkpt><trkpt lat="44.0639644" lon="12.0645629"><ele>334.5</ele><time>2026-04-18T13:06:59.548Z</time></trkpt><trkpt lat="44.0640741" lon="12.0646492"><ele>334.25</ele><time>2026-04-18T13:07:00.546Z</time></trkpt><trkpt lat="44.0641859" lon="12.0647285"><ele>334.0</ele><time>2026-04-18T13:07:01.551Z</time></trkpt><trkpt lat="44.0642911" lon="12.0648088"><ele>334.6</ele><time>2026-04-18T13:07:02.55Z</time></trkpt><trkpt lat="44.0643811" lon="12.0648856"><ele>335.2</ele><time>2026-04-18T13:07:03.548Z</time></trkpt><trkpt lat="44.0644653" lon="12.0649573"><ele>335.8</ele><time>2026-04-18T13:07:04.547Z</time></trkpt><trkpt lat="44.0645452" lon="12.0650182"><ele>336.40000000000003</ele><time>2026-04-18T13:07:05.546Z</time></trkpt><trkpt lat="44.0646242" lon="12.0650751"><ele>337.0</ele><time>2026-04-18T13:07:06.551Z</time></trkpt><trkpt lat="44.0647017" lon="12.0651363"><ele>337.0</ele><time>2026-04-18T13:07:07.544Z</time></trkpt><trkpt lat="44.0647866" lon="12.0651988"><ele>337.0</ele><time>2026-04-18T13:07:08.548Z</time></trkpt><trkpt lat="44.0648749" lon="12.0652386"><ele>337.0</ele><time>2026-04-18T13:07:09.549Z</time></trkpt><trkpt lat="44.0649587" lon="12.0652545"><ele>337.0</ele><time>2026-04-18T13:07:10.548Z</time></trkpt><trkpt lat="44.0650297" lon="12.0652255"><ele>337.0</ele><time>2026-04-18T13:07:11.547Z</time></trkpt><trkpt lat="44.0651032" lon="12.0651601"><ele>337.0</ele><time>2026-04-18T13:07:12.548Z</time></trkpt><trkpt lat="44.0651789" lon="12.0650672"><ele>337.0</ele><time>2026-04-18T13:07:13.555Z</time></trkpt><trkpt lat="44.0652597" lon="12.0649758"><ele>337.0</ele><time>2026-04-18T13:07:14.554Z</time></trkpt><trkpt lat="44.065348" lon="12.0648991"><ele>337.0</ele><time>2026-04-18T13:07:15.546Z</time></trkpt><trkpt lat="44.0654472" lon="12.0648268"><ele>337.0</ele><time>2026-04-18T13:07:16.552Z</time></trkpt><trkpt lat="44.0655588" lon="12.0647789"><ele>337.0</ele><time>2026-04-18T13:07:17.543Z</time></trkpt><trkpt lat="44.0656765" lon="12.0647635"><ele>336.0</ele><time>2026-04-18T13:07:18.548Z</time></trkpt><trkpt lat="44.0657956" lon="12.0647622"><ele>335.0</ele><time>2026-04-18T13:07:19.558Z</time></trkpt><trkpt lat="44.0659177" lon="12.0647621"><ele>334.0</ele><time>2026-04-18T13:07:20.551Z</time></trkpt><trkpt lat="44.0660363" lon="12.064774"><ele>333.0</ele><time>2026-04-18T13:07:21.551Z</time></trkpt><trkpt lat="44.0661536" lon="12.0647975"><ele>333.0</ele><time>2026-04-18T13:07:22.557Z</time></trkpt><trkpt lat="44.0662757" lon="12.0648224"><ele>333.0</ele><time>2026-04-18T13:07:23.549Z</time></trkpt><trkpt lat="44.0663952" lon="12.0648428"><ele>333.0</ele><time>2026-04-18T13:07:24.551Z</time></trkpt><trkpt lat="44.0665111" lon="12.0648571"><ele>333.0</ele><time>2026-04-18T13:07:25.55Z</time></trkpt><trkpt lat="44.0666255" lon="12.0648723"><ele>332.25</ele><time>2026-04-18T13:07:26.552Z</time></trkpt><trkpt lat="44.0667378" lon="12.0648921"><ele>331.5</ele><time>2026-04-18T13:07:27.551Z</time></trkpt><trkpt lat="44.0668514" lon="12.064921"><ele>330.75</ele><time>2026-04-18T13:07:28.55Z</time></trkpt><trkpt lat="44.0669619" lon="12.0649597"><ele>330.0</ele><time>2026-04-18T13:07:29.545Z</time></trkpt><trkpt lat="44.067072" lon="12.0650149"><ele>329.25</ele><time>2026-04-18T13:07:30.555Z</time></trkpt><trkpt lat="44.0671845" lon="12.0650923"><ele>328.5</ele><time>2026-04-18T13:07:31.541Z</time></trkpt><trkpt lat="44.0673188" lon="12.0651859"><ele>327.75</ele><time>2026-04-18T13:07:32.559Z</time></trkpt><trkpt lat="44.0674629" lon="12.0652753"><ele>327.0</ele><time>2026-04-18T13:07:33.551Z</time></trkpt><trkpt lat="44.067589" lon="12.0653482"><ele>328.75</ele><time>2026-04-18T13:07:34.552Z</time></trkpt><trkpt lat="44.0677001" lon="12.0654232"><ele>330.5</ele><time>2026-04-18T13:07:35.552Z</time></trkpt><trkpt lat="44.0678102" lon="12.0655091"><ele>332.25</ele><time>2026-04-18T13:07:36.554Z</time></trkpt><trkpt lat="44.0679113" lon="12.0656142"><ele>334.0</ele><time>2026-04-18T13:07:37.549Z</time></trkpt><trkpt lat="44.0679991" lon="12.0657339"><ele>335.25</ele><time>2026-04-18T13:07:38.553Z</time></trkpt><trkpt lat="44.0680794" lon="12.0658545"><ele>336.5</ele><time>2026-04-18T13:07:39.549Z</time></trkpt><trkpt lat="44.0681631" lon="12.0659681"><ele>337.75</ele><time>2026-04-18T13:07:40.548Z</time></trkpt><trkpt lat="44.0682517" lon="12.0660778"><ele>339.0</ele><time>2026-04-18T13:07:41.545Z</time></trkpt><trkpt lat="44.0683394" lon="12.0661791"><ele>339.0</ele><time>2026-04-18T13:07:42.554Z</time></trkpt><trkpt lat="44.0684153" lon="12.0662671"><ele>339.0</ele><time>2026-04-18T13:07:43.556Z</time></trkpt><trkpt lat="44.0684795" lon="12.0663458"><ele>339.0</ele><time>2026-04-18T13:07:44.549Z</time></trkpt><trkpt lat="44.0685372" lon="12.066417"><ele>339.0</ele><time>2026-04-18T13:07:45.547Z</time></trkpt><trkpt lat="44.0685881" lon="12.0664785"><ele>339.0</ele><time>2026-04-18T13:07:46.549Z</time></trkpt><trkpt lat="44.0686907" lon="12.0665762"><ele>338.0</ele><time>2026-04-18T13:07:48.545Z</time></trkpt><trkpt lat="44.0687894" lon="12.0666398"><ele>337.0</ele><time>2026-04-18T13:07:50.547Z</time></trkpt><trkpt lat="44.0688725" lon="12.0666909"><ele>336.0</ele><time>2026-04-18T13:07:52.55Z</time></trkpt><trkpt lat="44.0689223" lon="12.0667468"><ele>335.0</ele><time>2026-04-18T13:07:54.547Z</time></trkpt><trkpt lat="44.0689032" lon="12.0668307"><ele>334.0</ele><time>2026-04-18T13:08:51.541Z</time></trkpt><trkpt lat="44.0688142" lon="12.0669067"><ele>333.0</ele><time>2026-04-18T13:08:54.548Z</time></trkpt><trkpt lat="44.0687355" lon="12.0669619"><ele>333.0</ele><time>2026-04-18T13:08:56.547Z</time></trkpt><trkpt lat="44.0686522" lon="12.0670258"><ele>333.0</ele><time>2026-04-18T13:08:58.548Z</time></trkpt><trkpt lat="44.0685744" lon="12.0671373"><ele>333.0</ele><time>2026-04-18T13:09:00.544Z</time></trkpt><trkpt lat="44.0685322" lon="12.0673086"><ele>333.0</ele><time>2026-04-18T13:09:02.548Z</time></trkpt><trkpt lat="44.0685155" lon="12.0674119"><ele>333.0</ele><time>2026-04-18T13:09:03.548Z</time></trkpt><trkpt lat="44.0685027" lon="12.0675275"><ele>331.2</ele><time>2026-04-18T13:09:04.547Z</time></trkpt><trkpt lat="44.0684902" lon="12.0676499"><ele>329.4</ele><time>2026-04-18T13:09:05.547Z</time></trkpt><trkpt lat="44.0684716" lon="12.0677914"><ele>327.59999999999997</ele><time>2026-04-18T13:09:06.55Z</time></trkpt><trkpt lat="44.0684455" lon="12.0679457"><ele>325.79999999999995</ele><time>2026-04-18T13:09:07.547Z</time></trkpt><trkpt lat="44.0684196" lon="12.0681021"><ele>324.0</ele><time>2026-04-18T13:09:08.543Z</time></trkpt><trkpt lat="44.0683976" lon="12.0682507"><ele>323.0</ele><time>2026-04-18T13:09:09.544Z</time></trkpt><trkpt lat="44.0683803" lon="12.0683971"><ele>322.0</ele><time>2026-04-18T13:09:10.55Z</time></trkpt><trkpt lat="44.0683605" lon="12.0685549"><ele>321.0</ele><time>2026-04-18T13:09:11.547Z</time></trkpt><trkpt lat="44.0683356" lon="12.0687124"><ele>320.0</ele><time>2026-04-18T13:09:12.551Z</time></trkpt><trkpt lat="44.0683062" lon="12.068871"><ele>315.0</ele><time>2026-04-18T13:09:13.554Z</time></trkpt><trkpt lat="44.0682628" lon="12.0690412"><ele>310.0</ele><time>2026-04-18T13:09:14.549Z</time></trkpt><trkpt lat="44.0682182" lon="12.0692138"><ele>305.0</ele><time>2026-04-18T13:09:15.553Z</time></trkpt><trkpt lat="44.0681758" lon="12.0693811"><ele>300.0</ele><time>2026-04-18T13:09:16.545Z</time></trkpt><trkpt lat="44.0681345" lon="12.0695449"><ele>300.0</ele><time>2026-04-18T13:09:17.559Z</time></trkpt><trkpt lat="44.0680941" lon="12.0697073"><ele>300.0</ele><time>2026-04-18T13:09:18.55Z</time></trkpt><trkpt lat="44.0680588" lon="12.0698666"><ele>300.0</ele><time>2026-04-18T13:09:19.549Z</time></trkpt><trkpt lat="44.0680307" lon="12.0700248"><ele>300.0</ele><time>2026-04-18T13:09:20.553Z</time></trkpt><trkpt lat="44.0680101" lon="12.0701831"><ele>300.25</ele><time>2026-04-18T13:09:21.55Z</time></trkpt><trkpt lat="44.0679888" lon="12.07034"><ele>300.5</ele><time>2026-04-18T13:09:22.544Z</time></trkpt><trkpt lat="44.0679585" lon="12.0705016"><ele>300.75</ele><time>2026-04-18T13:09:23.546Z</time></trkpt><trkpt lat="44.06793" lon="12.0706754"><ele>301.0</ele><time>2026-04-18T13:09:24.548Z</time></trkpt><trkpt lat="44.0679026" lon="12.0708498"><ele>302.25</ele><time>2026-04-18T13:09:25.545Z</time></trkpt><trkpt lat="44.0678711" lon="12.0710232"><ele>303.5</ele><time>2026-04-18T13:09:26.55Z</time></trkpt><trkpt lat="44.0678411" lon="12.0711969"><ele>304.75</ele><time>2026-04-18T13:09:27.553Z</time></trkpt><trkpt lat="44.0678077" lon="12.0713781"><ele>306.0</ele><time>2026-04-18T13:09:28.547Z</time></trkpt><trkpt lat="44.0677708" lon="12.0715537"><ele>305.25</ele><time>2026-04-18T13:09:29.553Z</time></trkpt><trkpt lat="44.0677377" lon="12.0717223"><ele>304.5</ele><time>2026-04-18T13:09:30.547Z</time></trkpt><trkpt lat="44.0677052" lon="12.071891"><ele>303.75</ele><time>2026-04-18T13:09:31.548Z</time></trkpt><trkpt lat="44.0676747" lon="12.0720619"><ele>303.0</ele><time>2026-04-18T13:09:32.555Z</time></trkpt><trkpt lat="44.0676416" lon="12.0722319"><ele>303.0</ele><time>2026-04-18T13:09:33.551Z</time></trkpt><trkpt lat="44.0676118" lon="12.072411"><ele>303.0</ele><time>2026-04-18T13:09:34.55Z</time></trkpt><trkpt lat="44.0675795" lon="12.0725879"><ele>303.0</ele><time>2026-04-18T13:09:35.552Z</time></trkpt><trkpt lat="44.0675469" lon="12.0727498"><ele>303.0</ele><time>2026-04-18T13:09:36.547Z</time></trkpt><trkpt lat="44.0675177" lon="12.0729115"><ele>303.0</ele><time>2026-04-18T13:09:37.548Z</time></trkpt><trkpt lat="44.0674857" lon="12.0730741"><ele>303.0</ele><time>2026-04-18T13:09:38.55Z</time></trkpt><trkpt lat="44.0674528" lon="12.0732408"><ele>303.0</ele><time>2026-04-18T13:09:39.553Z</time></trkpt><trkpt lat="44.0674261" lon="12.0734214"><ele>303.0</ele><time>2026-04-18T13:09:40.555Z</time></trkpt><trkpt lat="44.0674038" lon="12.0736084"><ele>300.25</ele><time>2026-04-18T13:09:41.552Z</time></trkpt><trkpt lat="44.067388" lon="12.0737852"><ele>297.5</ele><time>2026-04-18T13:09:42.549Z</time></trkpt><trkpt lat="44.0673759" lon="12.0739573"><ele>294.75</ele><time>2026-04-18T13:09:43.547Z</time></trkpt><trkpt lat="44.0673665" lon="12.0741132"><ele>292.0</ele><time>2026-04-18T13:09:44.548Z</time></trkpt><trkpt lat="44.0673643" lon="12.0742663"><ele>292.0</ele><time>2026-04-18T13:09:45.544Z</time></trkpt><trkpt lat="44.0673636" lon="12.0744448"><ele>292.0</ele><time>2026-04-18T13:09:46.552Z</time></trkpt><trkpt lat="44.0673668" lon="12.0746312"><ele>292.0</ele><time>2026-04-18T13:09:47.546Z</time></trkpt><trkpt lat="44.0673742" lon="12.0748073"><ele>292.0</ele><time>2026-04-18T13:09:48.558Z</time></trkpt><trkpt lat="44.067377" lon="12.0749773"><ele>293.0</ele><time>2026-04-18T13:09:49.551Z</time></trkpt><trkpt lat="44.0673691" lon="12.0751492"><ele>294.0</ele><time>2026-04-18T13:09:50.543Z</time></trkpt><trkpt lat="44.0673703" lon="12.075314"><ele>295.0</ele><time>2026-04-18T13:09:51.55Z</time></trkpt><trkpt lat="44.0673835" lon="12.0754647"><ele>296.0</ele><time>2026-04-18T13:09:52.548Z</time></trkpt><trkpt lat="44.0674033" lon="12.0756193"><ele>296.0</ele><time>2026-04-18T13:09:53.558Z</time></trkpt><trkpt lat="44.0674242" lon="12.0757616"><ele>296.0</ele><time>2026-04-18T13:09:54.549Z</time></trkpt><trkpt lat="44.0674515" lon="12.0758793"><ele>296.0</ele><time>2026-04-18T13:09:55.548Z</time></trkpt><trkpt lat="44.0674416" lon="12.0760202"><ele>296.0</ele><time>2026-04-18T13:09:57.548Z</time></trkpt><trkpt lat="44.0673593" lon="12.0760792"><ele>296.0</ele><time>2026-04-18T13:09:59.55Z</time></trkpt><trkpt lat="44.0672652" lon="12.0760837"><ele>297.25</ele><time>2026-04-18T13:10:01.545Z</time></trkpt><trkpt lat="44.0671445" lon="12.0760723"><ele>298.5</ele><time>2026-04-18T13:10:03.553Z</time></trkpt><trkpt lat="44.067029" lon="12.0760466"><ele>299.75</ele><time>2026-04-18T13:10:05.558Z</time></trkpt><trkpt lat="44.0669403" lon="12.075956"><ele>301.0</ele><time>2026-04-18T13:10:07.551Z</time></trkpt><trkpt lat="44.0668707" lon="12.0758335"><ele>300.0</ele><time>2026-04-18T13:10:09.544Z</time></trkpt><trkpt lat="44.0667988" lon="12.0756926"><ele>299.0</ele><time>2026-04-18T13:10:11.547Z</time></trkpt><trkpt lat="44.0667239" lon="12.0755499"><ele>298.0</ele><time>2026-04-18T13:10:13.549Z</time></trkpt><trkpt lat="44.0666811" lon="12.075463"><ele>297.0</ele><time>2026-04-18T13:10:14.548Z</time></trkpt><trkpt lat="44.0666345" lon="12.0753698"><ele>296.0</ele><time>2026-04-18T13:10:15.546Z</time></trkpt><trkpt lat="44.0665902" lon="12.0752832"><ele>293.2</ele><time>2026-04-18T13:10:16.547Z</time></trkpt><trkpt lat="44.066546" lon="12.0752089"><ele>290.40000000000003</ele><time>2026-04-18T13:10:17.548Z</time></trkpt><trkpt lat="44.0664937" lon="12.0751437"><ele>287.6</ele><time>2026-04-18T13:10:18.556Z</time></trkpt><trkpt lat="44.066382" lon="12.0750861"><ele>284.8</ele><time>2026-04-18T13:10:20.548Z</time></trkpt><trkpt lat="44.0662528" lon="12.075137"><ele>282.0</ele><time>2026-04-18T13:10:22.545Z</time></trkpt><trkpt lat="44.0661797" lon="12.0751884"><ele>282.0</ele><time>2026-04-18T13:10:23.551Z</time></trkpt><trkpt lat="44.0661086" lon="12.0752496"><ele>282.0</ele><time>2026-04-18T13:10:24.55Z</time></trkpt><trkpt lat="44.066043" lon="12.0753093"><ele>282.0</ele><time>2026-04-18T13:10:25.553Z</time></trkpt><trkpt lat="44.0659731" lon="12.0753703"><ele>282.0</ele><time>2026-04-18T13:10:26.555Z</time></trkpt><trkpt lat="44.065894" lon="12.0754414"><ele>282.0</ele><time>2026-04-18T13:10:27.545Z</time></trkpt><trkpt lat="44.0658083" lon="12.0755114"><ele>282.0</ele><time>2026-04-18T13:10:28.552Z</time></trkpt><trkpt lat="44.0657289" lon="12.0755755"><ele>280.3333333333333</ele><time>2026-04-18T13:10:29.555Z</time></trkpt><trkpt lat="44.0656604" lon="12.0756367"><ele>278.6666666666667</ele><time>2026-04-18T13:10:30.546Z</time></trkpt><trkpt lat="44.06559" lon="12.0756978"><ele>277.0</ele><time>2026-04-18T13:10:31.55Z</time></trkpt><trkpt lat="44.065525" lon="12.0757574"><ele>275.33333333333337</ele><time>2026-04-18T13:10:32.55Z</time></trkpt><trkpt lat="44.0654626" lon="12.0758152"><ele>273.6666666666667</ele><time>2026-04-18T13:10:33.55Z</time></trkpt><trkpt lat="44.0653963" lon="12.0758612"><ele>272.0</ele><time>2026-04-18T13:10:34.547Z</time></trkpt><trkpt lat="44.0653243" lon="12.0758944"><ele>272.0</ele><time>2026-04-18T13:10:35.547Z</time></trkpt><trkpt lat="44.0652491" lon="12.0759128"><ele>272.0</ele><time>2026-04-18T13:10:36.546Z</time></trkpt><trkpt lat="44.0651635" lon="12.0759169"><ele>272.0</ele><time>2026-04-18T13:10:37.55Z</time></trkpt><trkpt lat="44.0650797" lon="12.0759183"><ele>272.0</ele><time>2026-04-18T13:10:38.545Z</time></trkpt><trkpt lat="44.0650017" lon="12.0759167"><ele>272.0</ele><time>2026-04-18T13:10:39.556Z</time></trkpt><trkpt lat="44.0649306" lon="12.075922"><ele>272.0</ele><time>2026-04-18T13:10:40.542Z</time></trkpt><trkpt lat="44.0648544" lon="12.0759431"><ele>269.4</ele><time>2026-04-18T13:10:41.555Z</time></trkpt><trkpt lat="44.0647827" lon="12.0759851"><ele>266.79999999999995</ele><time>2026-04-18T13:10:42.549Z</time></trkpt><trkpt lat="44.064715" lon="12.0760499"><ele>264.2</ele><time>2026-04-18T13:10:43.556Z</time></trkpt><trkpt lat="44.064652" lon="12.0761446"><ele>261.59999999999997</ele><time>2026-04-18T13:10:44.546Z</time></trkpt><trkpt lat="44.0645932" lon="12.0762576"><ele>259.0</ele><time>2026-04-18T13:10:45.547Z</time></trkpt><trkpt lat="44.0645387" lon="12.0763791"><ele>259.0</ele><time>2026-04-18T13:10:46.548Z</time></trkpt><trkpt lat="44.0644901" lon="12.076511"><ele>259.0</ele><time>2026-04-18T13:10:47.549Z</time></trkpt><trkpt lat="44.0644367" lon="12.0766553"><ele>259.0</ele><time>2026-04-18T13:10:48.551Z</time></trkpt><trkpt lat="44.0643784" lon="12.0768048"><ele>259.0</ele><time>2026-04-18T13:10:49.548Z</time></trkpt><trkpt lat="44.0643204" lon="12.0769519"><ele>259.0</ele><time>2026-04-18T13:10:50.549Z</time></trkpt><trkpt lat="44.0642675" lon="12.077084"><ele>259.0</ele><time>2026-04-18T13:10:51.547Z</time></trkpt><trkpt lat="44.0642198" lon="12.0772105"><ele>259.0</ele><time>2026-04-18T13:10:52.552Z</time></trkpt><trkpt lat="44.0641723" lon="12.0773363"><ele>259.0</ele><time>2026-04-18T13:10:53.547Z</time></trkpt><trkpt lat="44.0641183" lon="12.0774679"><ele>259.0</ele><time>2026-04-18T13:10:54.551Z</time></trkpt><trkpt lat="44.0640632" lon="12.0775985"><ele>257.8</ele><time>2026-04-18T13:10:55.55Z</time></trkpt><trkpt lat="44.0640074" lon="12.0777055"><ele>256.59999999999997</ele><time>2026-04-18T13:10:56.546Z</time></trkpt><trkpt lat="44.0639497" lon="12.077807"><ele>255.4</ele><time>2026-04-18T13:10:57.543Z</time></trkpt><trkpt lat="44.0638854" lon="12.0778838"><ele>254.2</ele><time>2026-04-18T13:10:58.548Z</time></trkpt><trkpt lat="44.0638084" lon="12.0779472"><ele>253.0</ele><time>2026-04-18T13:10:59.54Z</time></trkpt><trkpt lat="44.0637062" lon="12.0779942"><ele>253.0</ele><time>2026-04-18T13:11:00.55Z</time></trkpt><trkpt lat="44.0635827" lon="12.0780364"><ele>253.0</ele><time>2026-04-18T13:11:01.545Z</time></trkpt><trkpt lat="44.0634566" lon="12.0780756"><ele>253.0</ele><time>2026-04-18T13:11:02.549Z</time></trkpt><trkpt lat="44.0633445" lon="12.0781138"><ele>253.0</ele><time>2026-04-18T13:11:03.552Z</time></trkpt><trkpt lat="44.0632349" lon="12.0781472"><ele>253.2</ele><time>2026-04-18T13:11:04.543Z</time></trkpt><trkpt lat="44.0631172" lon="12.0781806"><ele>253.4</ele><time>2026-04-18T13:11:05.549Z</time></trkpt><trkpt lat="44.0630054" lon="12.0782161"><ele>253.59999999999997</ele><time>2026-04-18T13:11:06.551Z</time></trkpt><trkpt lat="44.0628994" lon="12.0782459"><ele>253.79999999999998</ele><time>2026-04-18T13:11:07.544Z</time></trkpt><trkpt lat="44.0627995" lon="12.0782788"><ele>254.0</ele><time>2026-04-18T13:11:08.552Z</time></trkpt><trkpt lat="44.0627062" lon="12.078307"><ele>254.0</ele><time>2026-04-18T13:11:09.547Z</time></trkpt><trkpt lat="44.0626195" lon="12.0783397"><ele>253.99999999999997</ele><time>2026-04-18T13:11:10.545Z</time></trkpt><trkpt lat="44.0625331" lon="12.0783905"><ele>253.99999999999997</ele><time>2026-04-18T13:11:11.545Z</time></trkpt><trkpt lat="44.0624491" lon="12.0784675"><ele>254.0</ele><time>2026-04-18T13:11:12.551Z</time></trkpt><trkpt lat="44.0623725" lon="12.0785675"><ele>254.0</ele><time>2026-04-18T13:11:13.549Z</time></trkpt><trkpt lat="44.0622994" lon="12.0786751"><ele>251.39999999999998</ele><time>2026-04-18T13:11:14.549Z</time></trkpt><trkpt lat="44.0622328" lon="12.0787804"><ele>248.79999999999998</ele><time>2026-04-18T13:11:15.549Z</time></trkpt><trkpt lat="44.0621663" lon="12.0788833"><ele>246.20000000000002</ele><time>2026-04-18T13:11:16.545Z</time></trkpt><trkpt lat="44.0620995" lon="12.0789918"><ele>243.60000000000002</ele><time>2026-04-18T13:11:17.551Z</time></trkpt><trkpt lat="44.062025" lon="12.0791192"><ele>241.0</ele><time>2026-04-18T13:11:18.547Z</time></trkpt><trkpt lat="44.0619487" lon="12.0792586"><ele>241.0</ele><time>2026-04-18T13:11:19.549Z</time></trkpt><trkpt lat="44.0618793" lon="12.0793793"><ele>241.00000000000003</ele><time>2026-04-18T13:11:20.545Z</time></trkpt><trkpt lat="44.0618144" lon="12.0794943"><ele>241.00000000000003</ele><time>2026-04-18T13:11:21.548Z</time></trkpt><trkpt lat="44.0617495" lon="12.0796008"><ele>241.0</ele><time>2026-04-18T13:11:22.555Z</time></trkpt><trkpt lat="44.0616817" lon="12.0797128"><ele>241.0</ele><time>2026-04-18T13:11:23.551Z</time></trkpt><trkpt lat="44.0616091" lon="12.0798139"><ele>239.4</ele><time>2026-04-18T13:11:24.55Z</time></trkpt><trkpt lat="44.0615137" lon="12.0799001"><ele>237.8</ele><time>2026-04-18T13:11:25.551Z</time></trkpt><trkpt lat="44.0614085" lon="12.0799791"><ele>236.20000000000002</ele><time>2026-04-18T13:11:26.55Z</time></trkpt><trkpt lat="44.0613138" lon="12.080047"><ele>234.60000000000002</ele><time>2026-04-18T13:11:27.545Z</time></trkpt><trkpt lat="44.0612297" lon="12.0801023"><ele>233.0</ele><time>2026-04-18T13:11:28.545Z</time></trkpt><trkpt lat="44.0611505" lon="12.0801651"><ele>233.00000000000003</ele><time>2026-04-18T13:11:29.551Z</time></trkpt><trkpt lat="44.0610789" lon="12.0802324"><ele>233.0</ele><time>2026-04-18T13:11:30.554Z</time></trkpt><trkpt lat="44.0610178" lon="12.0803208"><ele>233.0</ele><time>2026-04-18T13:11:31.55Z</time></trkpt><trkpt lat="44.0609626" lon="12.0804247"><ele>233.0</ele><time>2026-04-18T13:11:32.545Z</time></trkpt><trkpt lat="44.0609173" lon="12.080529"><ele>233.00000000000003</ele><time>2026-04-18T13:11:33.548Z</time></trkpt><trkpt lat="44.060877" lon="12.0806355"><ele>233.0</ele><time>2026-04-18T13:11:34.548Z</time></trkpt><trkpt lat="44.0608366" lon="12.080743"><ele>233.50000000000003</ele><time>2026-04-18T13:11:35.56Z</time></trkpt><trkpt lat="44.0608012" lon="12.0808552"><ele>234.0</ele><time>2026-04-18T13:11:36.547Z</time></trkpt><trkpt lat="44.0607644" lon="12.0809649"><ele>234.5</ele><time>2026-04-18T13:11:37.549Z</time></trkpt><trkpt lat="44.0607223" lon="12.0810724"><ele>235.0</ele><time>2026-04-18T13:11:38.544Z</time></trkpt><trkpt lat="44.0606682" lon="12.0811751"><ele>235.50000000000003</ele><time>2026-04-18T13:11:39.548Z</time></trkpt><trkpt lat="44.0606022" lon="12.0812551"><ele>236.0</ele><time>2026-04-18T13:11:40.545Z</time></trkpt><trkpt lat="44.0605293" lon="12.0813222"><ele>232.20000000000002</ele><time>2026-04-18T13:11:41.545Z</time></trkpt><trkpt lat="44.0604506" lon="12.0813752"><ele>228.40000000000003</ele><time>2026-04-18T13:11:42.549Z</time></trkpt><trkpt lat="44.0603532" lon="12.0814084"><ele>224.6</ele><time>2026-04-18T13:11:43.552Z</time></trkpt><trkpt lat="44.0602494" lon="12.0814352"><ele>220.8</ele><time>2026-04-18T13:11:44.544Z</time></trkpt><trkpt lat="44.0601525" lon="12.0814613"><ele>217.0</ele><time>2026-04-18T13:11:45.55Z</time></trkpt><trkpt lat="44.060061" lon="12.0814923"><ele>217.0</ele><time>2026-04-18T13:11:46.554Z</time></trkpt><trkpt lat="44.059978" lon="12.0815346"><ele>217.0</ele><time>2026-04-18T13:11:47.548Z</time></trkpt><trkpt lat="44.0598875" lon="12.0815897"><ele>217.0</ele><time>2026-04-18T13:11:48.55Z</time></trkpt><trkpt lat="44.0597984" lon="12.0816675"><ele>217.0</ele><time>2026-04-18T13:11:49.55Z</time></trkpt><trkpt lat="44.0597054" lon="12.0817509"><ele>217.0</ele><time>2026-04-18T13:11:50.554Z</time></trkpt><trkpt lat="44.0596063" lon="12.0818201"><ele>215.0</ele><time>2026-04-18T13:11:51.547Z</time></trkpt><trkpt lat="44.0594942" lon="12.0818809"><ele>213.0</ele><time>2026-04-18T13:11:52.547Z</time></trkpt><trkpt lat="44.0593904" lon="12.08195"><ele>211.0</ele><time>2026-04-18T13:11:53.555Z</time></trkpt><trkpt lat="44.0592962" lon="12.0820302"><ele>209.0</ele><time>2026-04-18T13:11:54.548Z</time></trkpt><trkpt lat="44.0592059" lon="12.0821133"><ele>209.00000000000003</ele><time>2026-04-18T13:11:55.546Z</time></trkpt><trkpt lat="44.0591179" lon="12.0821908"><ele>209.0</ele><time>2026-04-18T13:11:56.549Z</time></trkpt><trkpt lat="44.0590449" lon="12.0822548"><ele>209.0</ele><time>2026-04-18T13:11:57.545Z</time></trkpt><trkpt lat="44.0589838" lon="12.0823311"><ele>209.0</ele><time>2026-04-18T13:11:58.543Z</time></trkpt><trkpt lat="44.0589391" lon="12.0824227"><ele>209.00000000000003</ele><time>2026-04-18T13:11:59.547Z</time></trkpt><trkpt lat="44.0588983" lon="12.08252"><ele>209.0</ele><time>2026-04-18T13:12:00.546Z</time></trkpt><trkpt lat="44.0588528" lon="12.0825933"><ele>206.50000000000003</ele><time>2026-04-18T13:12:01.551Z</time></trkpt><trkpt lat="44.0587817" lon="12.0826002"><ele>204.0</ele><time>2026-04-18T13:12:02.554Z</time></trkpt><trkpt lat="44.0586808" lon="12.0825088"><ele>201.5</ele><time>2026-04-18T13:12:04.54Z</time></trkpt><trkpt lat="44.0586519" lon="12.0824208"><ele>199.0</ele><time>2026-04-18T13:12:05.553Z</time></trkpt><trkpt lat="44.0586401" lon="12.0823194"><ele>196.50000000000003</ele><time>2026-04-18T13:12:06.547Z</time></trkpt><trkpt lat="44.058644" lon="12.0822193"><ele>194.0</ele><time>2026-04-18T13:12:07.544Z</time></trkpt><trkpt lat="44.0586554" lon="12.082128"><ele>193.39999999999998</ele><time>2026-04-18T13:12:08.549Z</time></trkpt><trkpt lat="44.0586237" lon="12.0820196"><ele>192.8</ele><time>2026-04-18T13:12:10.55Z</time></trkpt><trkpt lat="44.0585358" lon="12.0820083"><ele>192.2</ele><time>2026-04-18T13:12:12.555Z</time></trkpt><trkpt lat="44.0584571" lon="12.0821176"><ele>191.60000000000002</ele><time>2026-04-18T13:12:14.549Z</time></trkpt><trkpt lat="44.0584138" lon="12.0822298"><ele>191.0</ele><time>2026-04-18T13:12:15.546Z</time></trkpt><trkpt lat="44.058375" lon="12.0823709"><ele>191.60000000000002</ele><time>2026-04-18T13:12:16.546Z</time></trkpt><trkpt lat="44.0583333" lon="12.0825003"><ele>192.2</ele><time>2026-04-18T13:12:17.551Z</time></trkpt><trkpt lat="44.0582825" lon="12.0826135"><ele>192.8</ele><time>2026-04-18T13:12:18.549Z</time></trkpt><trkpt lat="44.0582203" lon="12.0827031"><ele>193.39999999999998</ele><time>2026-04-18T13:12:19.553Z</time></trkpt><trkpt lat="44.0581469" lon="12.0827838"><ele>194.0</ele><time>2026-04-18T13:12:20.547Z</time></trkpt><trkpt lat="44.0580582" lon="12.0828512"><ele>190.6</ele><time>2026-04-18T13:12:21.551Z</time></trkpt><trkpt lat="44.0579616" lon="12.0829033"><ele>187.2</ele><time>2026-04-18T13:12:22.546Z</time></trkpt><trkpt lat="44.0578687" lon="12.0829525"><ele>183.79999999999998</ele><time>2026-04-18T13:12:23.55Z</time></trkpt><trkpt lat="44.0577805" lon="12.0830018"><ele>180.39999999999998</ele><time>2026-04-18T13:12:24.547Z</time></trkpt><trkpt lat="44.0577084" lon="12.0830598"><ele>177.0</ele><time>2026-04-18T13:12:25.555Z</time></trkpt><trkpt lat="44.0576616" lon="12.0831421"><ele>177.0</ele><time>2026-04-18T13:12:26.552Z</time></trkpt><trkpt lat="44.0576424" lon="12.0832369"><ele>177.0</ele><time>2026-04-18T13:12:27.546Z</time></trkpt><trkpt lat="44.0576463" lon="12.0833541"><ele>177.0</ele><time>2026-04-18T13:12:28.554Z</time></trkpt><trkpt lat="44.0576639" lon="12.0834867"><ele>177.0</ele><time>2026-04-18T13:12:29.551Z</time></trkpt><trkpt lat="44.0576734" lon="12.0836261"><ele>177.0</ele><time>2026-04-18T13:12:30.546Z</time></trkpt><trkpt lat="44.057661" lon="12.0837772"><ele>177.39999999999998</ele><time>2026-04-18T13:12:31.547Z</time></trkpt><trkpt lat="44.057644" lon="12.0839249"><ele>177.79999999999998</ele><time>2026-04-18T13:12:32.547Z</time></trkpt><trkpt lat="44.0576339" lon="12.0840689"><ele>178.2</ele><time>2026-04-18T13:12:33.548Z</time></trkpt><trkpt lat="44.0576249" lon="12.0842037"><ele>178.6</ele><time>2026-04-18T13:12:34.55Z</time></trkpt><trkpt lat="44.0576158" lon="12.0843386"><ele>179.0</ele><time>2026-04-18T13:12:35.546Z</time></trkpt><trkpt lat="44.0576106" lon="12.0844715"><ele>177.83333333333331</ele><time>2026-04-18T13:12:36.551Z</time></trkpt><trkpt lat="44.0576158" lon="12.0845968"><ele>176.66666666666666</ele><time>2026-04-18T13:12:37.543Z</time></trkpt><trkpt lat="44.0576249" lon="12.0847206"><ele>175.5</ele><time>2026-04-18T13:12:38.545Z</time></trkpt><trkpt lat="44.0576308" lon="12.0848422"><ele>174.33333333333334</ele><time>2026-04-18T13:12:39.549Z</time></trkpt><trkpt lat="44.0576254" lon="12.0849577"><ele>173.16666666666669</ele><time>2026-04-18T13:12:40.551Z</time></trkpt><trkpt lat="44.057599" lon="12.0850759"><ele>172.0</ele><time>2026-04-18T13:12:41.547Z</time></trkpt><trkpt lat="44.0575689" lon="12.0851923"><ele>170.5</ele><time>2026-04-18T13:12:42.551Z</time></trkpt><trkpt lat="44.0575392" lon="12.0853108"><ele>169.0</ele><time>2026-04-18T13:12:43.548Z</time></trkpt><trkpt lat="44.0575259" lon="12.0854265"><ele>167.5</ele><time>2026-04-18T13:12:44.552Z</time></trkpt><trkpt lat="44.0575347" lon="12.0855367"><ele>166.0</ele><time>2026-04-18T13:12:45.555Z</time></trkpt><trkpt lat="44.0575769" lon="12.0856377"><ele>164.5</ele><time>2026-04-18T13:12:46.563Z</time></trkpt><trkpt lat="44.0576424" lon="12.0857252"><ele>163.0</ele><time>2026-04-18T13:12:47.547Z</time></trkpt><trkpt lat="44.0577193" lon="12.0857924"><ele>160.6</ele><time>2026-04-18T13:12:48.548Z</time></trkpt><trkpt lat="44.0577896" lon="12.085856"><ele>158.20000000000002</ele><time>2026-04-18T13:12:49.55Z</time></trkpt><trkpt lat="44.0578451" lon="12.085923"><ele>155.8</ele><time>2026-04-18T13:12:50.548Z</time></trkpt><trkpt lat="44.0578794" lon="12.0859967"><ele>153.4</ele><time>2026-04-18T13:12:51.548Z</time></trkpt><trkpt lat="44.0578588" lon="12.0861438"><ele>151.0</ele><time>2026-04-18T13:12:53.549Z</time></trkpt><trkpt lat="44.0577463" lon="12.0862076"><ele>151.0</ele><time>2026-04-18T13:12:55.551Z</time></trkpt><trkpt lat="44.0576546" lon="12.0862129"><ele>151.0</ele><time>2026-04-18T13:12:56.55Z</time></trkpt><trkpt lat="44.0575436" lon="12.0862326"><ele>151.0</ele><time>2026-04-18T13:12:57.548Z</time></trkpt><trkpt lat="44.0574316" lon="12.0862792"><ele>151.0</ele><time>2026-04-18T13:12:58.558Z</time></trkpt><trkpt lat="44.0573271" lon="12.086339"><ele>151.0</ele><time>2026-04-18T13:12:59.547Z</time></trkpt><trkpt lat="44.0572249" lon="12.0863973"><ele>148.4</ele><time>2026-04-18T13:13:00.553Z</time></trkpt><trkpt lat="44.0571274" lon="12.0864495"><ele>145.8</ele><time>2026-04-18T13:13:01.548Z</time></trkpt><trkpt lat="44.0570336" lon="12.0864944"><ele>143.20000000000002</ele><time>2026-04-18T13:13:02.548Z</time></trkpt><trkpt lat="44.0569398" lon="12.0865296"><ele>140.6</ele><time>2026-04-18T13:13:03.55Z</time></trkpt><trkpt lat="44.0568387" lon="12.0865639"><ele>138.0</ele><time>2026-04-18T13:13:04.548Z</time></trkpt><trkpt lat="44.0567431" lon="12.0865995"><ele>135.6</ele><time>2026-04-18T13:13:05.544Z</time></trkpt><trkpt lat="44.0566453" lon="12.0866147"><ele>133.20000000000002</ele><time>2026-04-18T13:13:06.548Z</time></trkpt><trkpt lat="44.0565461" lon="12.0866126"><ele>130.8</ele><time>2026-04-18T13:13:07.544Z</time></trkpt><trkpt lat="44.0564518" lon="12.086593"><ele>128.4</ele><time>2026-04-18T13:13:08.55Z</time></trkpt><trkpt lat="44.0563684" lon="12.0865477"><ele>126.0</ele><time>2026-04-18T13:13:09.551Z</time></trkpt><trkpt lat="44.0562938" lon="12.0864942"><ele>125.8</ele><time>2026-04-18T13:13:10.551Z</time></trkpt><trkpt lat="44.0562307" lon="12.0864441"><ele>125.6</ele><time>2026-04-18T13:13:11.547Z</time></trkpt><trkpt lat="44.0561257" lon="12.0864315"><ele>125.4</ele><time>2026-04-18T13:13:13.542Z</time></trkpt><trkpt lat="44.0560609" lon="12.0865879"><ele>125.2</ele><time>2026-04-18T13:13:15.56Z</time></trkpt><trkpt lat="44.056056" lon="12.0867211"><ele>125.0</ele><time>2026-04-18T13:13:16.552Z</time></trkpt><trkpt lat="44.0560632" lon="12.086877"><ele>123.8</ele><time>2026-04-18T13:13:17.548Z</time></trkpt><trkpt lat="44.0560497" lon="12.0870198"><ele>122.6</ele><time>2026-04-18T13:13:18.549Z</time></trkpt><trkpt lat="44.0560133" lon="12.0871417"><ele>121.4</ele><time>2026-04-18T13:13:19.547Z</time></trkpt><trkpt lat="44.0559597" lon="12.0872325"><ele>120.2</ele><time>2026-04-18T13:13:20.543Z</time></trkpt><trkpt lat="44.0558878" lon="12.0873119"><ele>119.0</ele><time>2026-04-18T13:13:21.545Z</time></trkpt><trkpt lat="44.0557974" lon="12.0873857"><ele>119.16666666666666</ele><time>2026-04-18T13:13:22.554Z</time></trkpt><trkpt lat="44.0557077" lon="12.0874474"><ele>119.33333333333333</ele><time>2026-04-18T13:13:23.544Z</time></trkpt><trkpt lat="44.0556242" lon="12.087508"><ele>119.5</ele><time>2026-04-18T13:13:24.545Z</time></trkpt><trkpt lat="44.0555524" lon="12.0875676"><ele>119.66666666666666</ele><time>2026-04-18T13:13:25.548Z</time></trkpt><trkpt lat="44.0554891" lon="12.0876227"><ele>119.83333333333333</ele><time>2026-04-18T13:13:26.555Z</time></trkpt><trkpt lat="44.0554315" lon="12.0876799"><ele>120.0</ele><time>2026-04-18T13:13:27.553Z</time></trkpt><trkpt lat="44.0553368" lon="12.0877851"><ele>120.0</ele><time>2026-04-18T13:13:29.549Z</time></trkpt><trkpt lat="44.0552563" lon="12.0878905"><ele>120.0</ele><time>2026-04-18T13:13:31.558Z</time></trkpt><trkpt lat="44.055218" lon="12.0879961"><ele>120.0</ele><time>2026-04-18T13:13:33.555Z</time></trkpt><trkpt lat="44.055246" lon="12.0880821"><ele>120.0</ele><time>2026-04-18T13:13:35.556Z</time></trkpt><trkpt lat="44.0553153" lon="12.0881801"><ele>120.0</ele><time>2026-04-18T13:13:37.547Z</time></trkpt><trkpt lat="44.0554076" lon="12.0882905"><ele>119.66666666666667</ele><time>2026-04-18T13:13:39.547Z</time></trkpt><trkpt lat="44.0554689" lon="12.0883557"><ele>119.33333333333334</ele><time>2026-04-18T13:13:40.551Z</time></trkpt><trkpt lat="44.0555344" lon="12.0884208"><ele>119.0</ele><time>2026-04-18T13:13:41.552Z</time></trkpt><trkpt lat="44.0556091" lon="12.0884803"><ele>118.66666666666667</ele><time>2026-04-18T13:13:42.548Z</time></trkpt><trkpt lat="44.0556894" lon="12.0885138"><ele>118.33333333333334</ele><time>2026-04-18T13:13:43.549Z</time></trkpt><trkpt lat="44.0557656" lon="12.0885077"><ele>118.0</ele><time>2026-04-18T13:13:44.545Z</time></trkpt><trkpt lat="44.0558374" lon="12.088469"><ele>118.00000000000001</ele><time>2026-04-18T13:13:45.545Z</time></trkpt><trkpt lat="44.0559001" lon="12.0884352"><ele>118.0</ele><time>2026-04-18T13:13:46.545Z</time></trkpt><trkpt lat="44.0559629" lon="12.0884031"><ele>118.0</ele><time>2026-04-18T13:13:47.549Z</time></trkpt><trkpt lat="44.056029" lon="12.0883777"><ele>118.0</ele><time>2026-04-18T13:13:48.553Z</time></trkpt><trkpt lat="44.0561383" lon="12.08836"><ele>118.00000000000001</ele><time>2026-04-18T13:13:50.547Z</time></trkpt><trkpt lat="44.0562013" lon="12.0884176"><ele>118.0</ele><time>2026-04-18T13:13:52.551Z</time></trkpt><trkpt lat="44.0561873" lon="12.0885543"><ele>118.0</ele><time>2026-04-18T13:13:54.549Z</time></trkpt><trkpt lat="44.0561616" lon="12.0886472"><ele>118.00000000000001</ele><time>2026-04-18T13:13:55.547Z</time></trkpt><trkpt lat="44.056128" lon="12.0887688"><ele>118.00000000000001</ele><time>2026-04-18T13:13:56.548Z</time></trkpt><trkpt lat="44.0560835" lon="12.0889255"><ele>118.0</ele><time>2026-04-18T13:13:57.551Z</time></trkpt><trkpt lat="44.0560404" lon="12.0890829"><ele>118.0</ele><time>2026-04-18T13:13:58.556Z</time></trkpt><trkpt lat="44.0559871" lon="12.0892346"><ele>119.5</ele><time>2026-04-18T13:13:59.544Z</time></trkpt><trkpt lat="44.0559267" lon="12.0893938"><ele>121.0</ele><time>2026-04-18T13:14:00.553Z</time></trkpt><trkpt lat="44.0558615" lon="12.0895586"><ele>122.5</ele><time>2026-04-18T13:14:01.545Z</time></trkpt><trkpt lat="44.0558018" lon="12.0897185"><ele>124.0</ele><time>2026-04-18T13:14:02.544Z</time></trkpt><trkpt lat="44.0557439" lon="12.0898603"><ele>126.25</ele><time>2026-04-18T13:14:03.554Z</time></trkpt><trkpt lat="44.0556806" lon="12.0899942"><ele>128.5</ele><time>2026-04-18T13:14:04.55Z</time></trkpt><trkpt lat="44.0556046" lon="12.0901163"><ele>130.75</ele><time>2026-04-18T13:14:05.546Z</time></trkpt><trkpt lat="44.055527" lon="12.090228"><ele>133.0</ele><time>2026-04-18T13:14:06.549Z</time></trkpt><trkpt lat="44.0554387" lon="12.0903129"><ele>133.0</ele><time>2026-04-18T13:14:07.547Z</time></trkpt><trkpt lat="44.0553456" lon="12.0903717"><ele>133.0</ele><time>2026-04-18T13:14:08.554Z</time></trkpt><trkpt lat="44.0552536" lon="12.0904332"><ele>133.0</ele><time>2026-04-18T13:14:09.545Z</time></trkpt><trkpt lat="44.0551851" lon="12.0905196"><ele>133.0</ele><time>2026-04-18T13:14:10.547Z</time></trkpt><trkpt lat="44.0551437" lon="12.0906388"><ele>133.0</ele><time>2026-04-18T13:14:11.541Z</time></trkpt><trkpt lat="44.0551068" lon="12.0908074"><ele>133.5</ele><time>2026-04-18T13:14:12.553Z</time></trkpt><trkpt lat="44.0550596" lon="12.0909952"><ele>134.0</ele><time>2026-04-18T13:14:13.552Z</time></trkpt><trkpt lat="44.0550025" lon="12.091164"><ele>134.5</ele><time>2026-04-18T13:14:14.547Z</time></trkpt><trkpt lat="44.0549313" lon="12.0913188"><ele>135.0</ele><time>2026-04-18T13:14:15.554Z</time></trkpt><trkpt lat="44.0548586" lon="12.0914636"><ele>136.5</ele><time>2026-04-18T13:14:16.547Z</time></trkpt><trkpt lat="44.0547887" lon="12.0915907"><ele>138.0</ele><time>2026-04-18T13:14:17.551Z</time></trkpt><trkpt lat="44.0547279" lon="12.0916999"><ele>139.5</ele><time>2026-04-18T13:14:18.545Z</time></trkpt><trkpt lat="44.0546788" lon="12.0917846"><ele>141.0</ele><time>2026-04-18T13:14:19.549Z</time></trkpt><trkpt lat="44.0546419" lon="12.0918563"><ele>142.5</ele><time>2026-04-18T13:14:20.554Z</time></trkpt><trkpt lat="44.0546064" lon="12.0919756"><ele>144.0</ele><time>2026-04-18T13:14:22.544Z</time></trkpt><trkpt lat="44.0546546" lon="12.0920412"><ele>144.0</ele><time>2026-04-18T13:14:24.549Z</time></trkpt><trkpt lat="44.054754" lon="12.092044"><ele>144.0</ele><time>2026-04-18T13:14:26.547Z</time></trkpt><trkpt lat="44.054844" lon="12.0920528"><ele>144.0</ele><time>2026-04-18T13:14:27.548Z</time></trkpt><trkpt lat="44.0549535" lon="12.0920758"><ele>144.0</ele><time>2026-04-18T13:14:28.546Z</time></trkpt><trkpt lat="44.0550677" lon="12.0920957"><ele>144.0</ele><time>2026-04-18T13:14:29.547Z</time></trkpt><trkpt lat="44.0551768" lon="12.0921027"><ele>146.0</ele><time>2026-04-18T13:14:30.548Z</time></trkpt><trkpt lat="44.0552779" lon="12.0921036"><ele>148.0</ele><time>2026-04-18T13:14:31.556Z</time></trkpt><trkpt lat="44.0553641" lon="12.0920697"><ele>150.0</ele><time>2026-04-18T13:14:32.545Z</time></trkpt><trkpt lat="44.0554414" lon="12.0919986"><ele>152.0</ele><time>2026-04-18T13:14:33.55Z</time></trkpt><trkpt lat="44.0555238" lon="12.0919157"><ele>154.0</ele><time>2026-04-18T13:14:34.546Z</time></trkpt><trkpt lat="44.0556245" lon="12.0918291"><ele>154.0</ele><time>2026-04-18T13:14:35.553Z</time></trkpt><trkpt lat="44.0557257" lon="12.0917461"><ele>154.0</ele><time>2026-04-18T13:14:36.55Z</time></trkpt><trkpt lat="44.0558219" lon="12.0916715"><ele>154.0</ele><time>2026-04-18T13:14:37.553Z</time></trkpt><trkpt lat="44.0559236" lon="12.091623"><ele>154.0</ele><time>2026-04-18T13:14:38.565Z</time></trkpt><trkpt lat="44.0560205" lon="12.0916054"><ele>154.0</ele><time>2026-04-18T13:14:39.55Z</time></trkpt><trkpt lat="44.0561247" lon="12.0916179"><ele>157.8</ele><time>2026-04-18T13:14:40.542Z</time></trkpt><trkpt lat="44.0562296" lon="12.0916353"><ele>161.60000000000002</ele><time>2026-04-18T13:14:41.541Z</time></trkpt><trkpt lat="44.0563102" lon="12.0916691"><ele>165.4</ele><time>2026-04-18T13:14:42.551Z</time></trkpt><trkpt lat="44.0563718" lon="12.0917149"><ele>169.20000000000002</ele><time>2026-04-18T13:14:43.553Z</time></trkpt><trkpt lat="44.0564188" lon="12.0918562"><ele>173.0</ele><time>2026-04-18T13:14:45.545Z</time></trkpt><trkpt lat="44.0564001" lon="12.0919689"><ele>173.0</ele><time>2026-04-18T13:14:46.55Z</time></trkpt><trkpt lat="44.0563718" lon="12.0920987"><ele>173.0</ele><time>2026-04-18T13:14:47.548Z</time></trkpt><trkpt lat="44.0563335" lon="12.0922466"><ele>173.0</ele><time>2026-04-18T13:14:48.543Z</time></trkpt><trkpt lat="44.0562892" lon="12.0924173"><ele>173.0</ele><time>2026-04-18T13:14:49.544Z</time></trkpt><trkpt lat="44.0562513" lon="12.0925996"><ele>175.4</ele><time>2026-04-18T13:14:50.545Z</time></trkpt><trkpt lat="44.056223" lon="12.0927763"><ele>177.8</ele><time>2026-04-18T13:14:51.545Z</time></trkpt><trkpt lat="44.0562083" lon="12.0929344"><ele>180.2</ele><time>2026-04-18T13:14:52.544Z</time></trkpt><trkpt lat="44.056184" lon="12.0930664"><ele>182.6</ele><time>2026-04-18T13:14:53.548Z</time></trkpt><trkpt lat="44.0561536" lon="12.0931951"><ele>185.0</ele><time>2026-04-18T13:14:54.551Z</time></trkpt><trkpt lat="44.0561115" lon="12.0933283"><ele>187.2</ele><time>2026-04-18T13:14:55.551Z</time></trkpt><trkpt lat="44.0560656" lon="12.0934536"><ele>189.4</ele><time>2026-04-18T13:14:56.548Z</time></trkpt><trkpt lat="44.0560255" lon="12.0935534"><ele>191.60000000000002</ele><time>2026-04-18T13:14:57.551Z</time></trkpt><trkpt lat="44.056008" lon="12.093644"><ele>193.8</ele><time>2026-04-18T13:14:58.551Z</time></trkpt><trkpt lat="44.0560374" lon="12.0937682"><ele>196.0</ele><time>2026-04-18T13:15:00.546Z</time></trkpt><trkpt lat="44.056159" lon="12.0938375"><ele>196.0</ele><time>2026-04-18T13:15:02.545Z</time></trkpt><trkpt lat="44.0562495" lon="12.0938811"><ele>196.0</ele><time>2026-04-18T13:15:03.545Z</time></trkpt><trkpt lat="44.056348" lon="12.0939297"><ele>196.0</ele><time>2026-04-18T13:15:04.548Z</time></trkpt><trkpt lat="44.0564433" lon="12.0939656"><ele>196.0</ele><time>2026-04-18T13:15:05.551Z</time></trkpt><trkpt lat="44.0565365" lon="12.0939806"><ele>196.0</ele><time>2026-04-18T13:15:06.554Z</time></trkpt><trkpt lat="44.0566295" lon="12.093963"><ele>198.8</ele><time>2026-04-18T13:15:07.551Z</time></trkpt><trkpt lat="44.0567268" lon="12.0939209"><ele>201.60000000000002</ele><time>2026-04-18T13:15:08.554Z</time></trkpt><trkpt lat="44.0568237" lon="12.0938742"><ele>204.4</ele><time>2026-04-18T13:15:09.547Z</time></trkpt><trkpt lat="44.0569264" lon="12.0938326"><ele>207.2</ele><time>2026-04-18T13:15:10.547Z</time></trkpt><trkpt lat="44.0570327" lon="12.0937918"><ele>210.0</ele><time>2026-04-18T13:15:11.546Z</time></trkpt><trkpt lat="44.057141" lon="12.0937498"><ele>210.0</ele><time>2026-04-18T13:15:12.542Z</time></trkpt><trkpt lat="44.0572467" lon="12.093709"><ele>210.0</ele><time>2026-04-18T13:15:13.548Z</time></trkpt><trkpt lat="44.0573521" lon="12.0936691"><ele>210.0</ele><time>2026-04-18T13:15:14.54Z</time></trkpt><trkpt lat="44.0574597" lon="12.0936216"><ele>210.0</ele><time>2026-04-18T13:15:15.55Z</time></trkpt><trkpt lat="44.0575632" lon="12.0935736"><ele>210.0</ele><time>2026-04-18T13:15:16.549Z</time></trkpt><trkpt lat="44.0576581" lon="12.0935247"><ele>212.66666666666666</ele><time>2026-04-18T13:15:17.543Z</time></trkpt><trkpt lat="44.0577456" lon="12.0934857"><ele>215.33333333333331</ele><time>2026-04-18T13:15:18.545Z</time></trkpt><trkpt lat="44.0578304" lon="12.0934524"><ele>218.0</ele><time>2026-04-18T13:15:19.549Z</time></trkpt><trkpt lat="44.0579077" lon="12.093439"><ele>220.66666666666666</ele><time>2026-04-18T13:15:20.547Z</time></trkpt><trkpt lat="44.0579804" lon="12.0934573"><ele>223.33333333333331</ele><time>2026-04-18T13:15:21.554Z</time></trkpt><trkpt lat="44.058046" lon="12.0935053"><ele>226.0</ele><time>2026-04-18T13:15:22.547Z</time></trkpt><trkpt lat="44.0581107" lon="12.0935643"><ele>225.99999999999997</ele><time>2026-04-18T13:15:23.545Z</time></trkpt><trkpt lat="44.0581835" lon="12.0936381"><ele>226.0</ele><time>2026-04-18T13:15:24.549Z</time></trkpt><trkpt lat="44.0582568" lon="12.0937135"><ele>226.0</ele><time>2026-04-18T13:15:25.548Z</time></trkpt><trkpt lat="44.0583212" lon="12.093784"><ele>226.0</ele><time>2026-04-18T13:15:26.552Z</time></trkpt><trkpt lat="44.0583692" lon="12.0938639"><ele>225.99999999999997</ele><time>2026-04-18T13:15:27.546Z</time></trkpt><trkpt lat="44.0584029" lon="12.0939499"><ele>226.0</ele><time>2026-04-18T13:15:28.546Z</time></trkpt><trkpt lat="44.0584315" lon="12.0940447"><ele>229.66666666666666</ele><time>2026-04-18T13:15:29.545Z</time></trkpt><trkpt lat="44.0584611" lon="12.094141"><ele>233.33333333333331</ele><time>2026-04-18T13:15:30.549Z</time></trkpt><trkpt lat="44.0584871" lon="12.0942462"><ele>237.0</ele><time>2026-04-18T13:15:31.549Z</time></trkpt><trkpt lat="44.0585219" lon="12.0943607"><ele>240.66666666666669</ele><time>2026-04-18T13:15:32.548Z</time></trkpt><trkpt lat="44.0585591" lon="12.0944734"><ele>244.33333333333334</ele><time>2026-04-18T13:15:33.545Z</time></trkpt><trkpt lat="44.0585933" lon="12.0945796"><ele>248.0</ele><time>2026-04-18T13:15:34.549Z</time></trkpt><trkpt lat="44.0586025" lon="12.094685"><ele>248.00000000000003</ele><time>2026-04-18T13:15:35.546Z</time></trkpt><trkpt lat="44.05859" lon="12.0947846"><ele>248.0</ele><time>2026-04-18T13:15:36.549Z</time></trkpt><trkpt lat="44.0585531" lon="12.0948771"><ele>248.0</ele><time>2026-04-18T13:15:37.55Z</time></trkpt><trkpt lat="44.0585013" lon="12.0949674"><ele>248.0</ele><time>2026-04-18T13:15:38.549Z</time></trkpt><trkpt lat="44.0584448" lon="12.0950629"><ele>248.00000000000003</ele><time>2026-04-18T13:15:39.552Z</time></trkpt><trkpt lat="44.0583871" lon="12.09516"><ele>248.0</ele><time>2026-04-18T13:15:40.547Z</time></trkpt><trkpt lat="44.0583348" lon="12.0952613"><ele>247.4</ele><time>2026-04-18T13:15:41.551Z</time></trkpt><trkpt lat="44.0582901" lon="12.0953734"><ele>246.8</ele><time>2026-04-18T13:15:42.558Z</time></trkpt><trkpt lat="44.0582773" lon="12.0955163"><ele>246.2</ele><time>2026-04-18T13:15:43.546Z</time></trkpt><trkpt lat="44.0582753" lon="12.0956676"><ele>245.6</ele><time>2026-04-18T13:15:44.554Z</time></trkpt><trkpt lat="44.058277" lon="12.0958181"><ele>245.0</ele><time>2026-04-18T13:15:45.546Z</time></trkpt><trkpt lat="44.0582907" lon="12.095972"><ele>249.0</ele><time>2026-04-18T13:15:46.549Z</time></trkpt><trkpt lat="44.0583099" lon="12.0961216"><ele>253.0</ele><time>2026-04-18T13:15:47.546Z</time></trkpt><trkpt lat="44.0583314" lon="12.0962715"><ele>257.0</ele><time>2026-04-18T13:15:48.545Z</time></trkpt><trkpt lat="44.0583395" lon="12.0964127"><ele>261.0</ele><time>2026-04-18T13:15:49.552Z</time></trkpt><trkpt lat="44.0583358" lon="12.0965367"><ele>265.0</ele><time>2026-04-18T13:15:50.552Z</time></trkpt><trkpt lat="44.0583392" lon="12.0966397"><ele>267.5</ele><time>2026-04-18T13:15:51.55Z</time></trkpt><trkpt lat="44.0583653" lon="12.0967244"><ele>270.0</ele><time>2026-04-18T13:15:52.548Z</time></trkpt><trkpt lat="44.0584104" lon="12.0967911"><ele>272.5</ele><time>2026-04-18T13:15:53.548Z</time></trkpt><trkpt lat="44.0584677" lon="12.0968461"><ele>275.0</ele><time>2026-04-18T13:15:54.553Z</time></trkpt><trkpt lat="44.0585515" lon="12.0968958"><ele>277.5</ele><time>2026-04-18T13:15:55.553Z</time></trkpt><trkpt lat="44.058639" lon="12.0969512"><ele>280.0</ele><time>2026-04-18T13:15:56.553Z</time></trkpt><trkpt lat="44.0587226" lon="12.0970281"><ele>280.0</ele><time>2026-04-18T13:15:57.549Z</time></trkpt><trkpt lat="44.0588085" lon="12.0971163"><ele>280.0</ele><time>2026-04-18T13:15:58.548Z</time></trkpt><trkpt lat="44.058894" lon="12.0972061"><ele>280.0</ele><time>2026-04-18T13:15:59.554Z</time></trkpt><trkpt lat="44.0589764" lon="12.0972944"><ele>280.0</ele><time>2026-04-18T13:16:00.548Z</time></trkpt><trkpt lat="44.0590582" lon="12.0973721"><ele>280.0</ele><time>2026-04-18T13:16:01.555Z</time></trkpt><trkpt lat="44.0591467" lon="12.0974375"><ele>284.0</ele><time>2026-04-18T13:16:02.547Z</time></trkpt><trkpt lat="44.0592396" lon="12.0974919"><ele>288.0</ele><time>2026-04-18T13:16:03.546Z</time></trkpt><trkpt lat="44.0593322" lon="12.0975501"><ele>292.0</ele><time>2026-04-18T13:16:04.552Z</time></trkpt><trkpt lat="44.0594181" lon="12.0976078"><ele>296.0</ele><time>2026-04-18T13:16:05.549Z</time></trkpt><trkpt lat="44.0595014" lon="12.097666"><ele>300.0</ele><time>2026-04-18T13:16:06.55Z</time></trkpt><trkpt lat="44.0595734" lon="12.0977345"><ele>300.0</ele><time>2026-04-18T13:16:07.552Z</time></trkpt><trkpt lat="44.0596448" lon="12.0977978"><ele>300.0</ele><time>2026-04-18T13:16:08.545Z</time></trkpt><trkpt lat="44.0597164" lon="12.0978828"><ele>300.0</ele><time>2026-04-18T13:16:10.547Z</time></trkpt><trkpt lat="44.0596505" lon="12.0979146"><ele>300.0</ele><time>2026-04-18T13:16:18.544Z</time></trkpt><trkpt lat="44.0595895" lon="12.097886"><ele>300.0</ele><time>2026-04-18T13:16:19.547Z</time></trkpt><trkpt lat="44.0595074" lon="12.0978501"><ele>300.0</ele><time>2026-04-18T13:16:20.55Z</time></trkpt><trkpt lat="44.0594182" lon="12.0978331"><ele>300.0</ele><time>2026-04-18T13:16:21.554Z</time></trkpt><trkpt lat="44.0593236" lon="12.0978508"><ele>300.0</ele><time>2026-04-18T13:16:22.549Z</time></trkpt><trkpt lat="44.0592495" lon="12.0979056"><ele>300.0</ele><time>2026-04-18T13:16:23.547Z</time></trkpt><trkpt lat="44.0592015" lon="12.0980011"><ele>300.0</ele><time>2026-04-18T13:16:24.546Z</time></trkpt><trkpt lat="44.0591641" lon="12.0981356"><ele>300.0</ele><time>2026-04-18T13:16:25.547Z</time></trkpt><trkpt lat="44.0591474" lon="12.0982962"><ele>299.5</ele><time>2026-04-18T13:16:26.542Z</time></trkpt><trkpt lat="44.0591283" lon="12.0984686"><ele>299.0</ele><time>2026-04-18T13:16:27.551Z</time></trkpt><trkpt lat="44.0591104" lon="12.0986315"><ele>298.5</ele><time>2026-04-18T13:16:28.55Z</time></trkpt><trkpt lat="44.0590933" lon="12.0988026"><ele>298.0</ele><time>2026-04-18T13:16:29.543Z</time></trkpt><trkpt lat="44.0590817" lon="12.0989787"><ele>299.75</ele><time>2026-04-18T13:16:30.554Z</time></trkpt><trkpt lat="44.0590802" lon="12.0991547"><ele>301.5</ele><time>2026-04-18T13:16:31.554Z</time></trkpt><trkpt lat="44.0590922" lon="12.0993299"><ele>303.25</ele><time>2026-04-18T13:16:32.547Z</time></trkpt><trkpt lat="44.0591167" lon="12.0995021"><ele>305.0</ele><time>2026-04-18T13:16:33.548Z</time></trkpt><trkpt lat="44.0591481" lon="12.0996759"><ele>309.5</ele><time>2026-04-18T13:16:34.549Z</time></trkpt><trkpt lat="44.0591723" lon="12.0998492"><ele>314.0</ele><time>2026-04-18T13:16:35.55Z</time></trkpt><trkpt lat="44.0591859" lon="12.1000253"><ele>318.5</ele><time>2026-04-18T13:16:36.551Z</time></trkpt><trkpt lat="44.0591886" lon="12.1002106"><ele>323.0</ele><time>2026-04-18T13:16:37.553Z</time></trkpt><trkpt lat="44.0591869" lon="12.1004013"><ele>324.5</ele><time>2026-04-18T13:16:38.547Z</time></trkpt><trkpt lat="44.0591854" lon="12.1005874"><ele>326.0</ele><time>2026-04-18T13:16:39.546Z</time></trkpt><trkpt lat="44.0591799" lon="12.1007693"><ele>327.5</ele><time>2026-04-18T13:16:40.548Z</time></trkpt><trkpt lat="44.0591736" lon="12.1009508"><ele>329.0</ele><time>2026-04-18T13:16:41.548Z</time></trkpt><trkpt lat="44.0591682" lon="12.1011341"><ele>331.75</ele><time>2026-04-18T13:16:42.555Z</time></trkpt><trkpt lat="44.0591634" lon="12.1013277"><ele>334.5</ele><time>2026-04-18T13:16:43.549Z</time></trkpt><trkpt lat="44.0591685" lon="12.1015144"><ele>337.25</ele><time>2026-04-18T13:16:44.549Z</time></trkpt><trkpt lat="44.0591935" lon="12.1016952"><ele>340.0</ele><time>2026-04-18T13:16:45.546Z</time></trkpt><trkpt lat="44.059235" lon="12.1018842"><ele>341.5</ele><time>2026-04-18T13:16:46.544Z</time></trkpt><trkpt lat="44.0592711" lon="12.1020749"><ele>343.0</ele><time>2026-04-18T13:16:47.554Z</time></trkpt><trkpt lat="44.0592967" lon="12.1022633"><ele>344.5</ele><time>2026-04-18T13:16:48.549Z</time></trkpt><trkpt lat="44.0593133" lon="12.1024636"><ele>346.0</ele><time>2026-04-18T13:16:49.551Z</time></trkpt><trkpt lat="44.0593234" lon="12.1026863"><ele>346.75</ele><time>2026-04-18T13:16:50.552Z</time></trkpt><trkpt lat="44.0593283" lon="12.1028965"><ele>347.5</ele><time>2026-04-18T13:16:51.553Z</time></trkpt><trkpt lat="44.059319" lon="12.1030793"><ele>348.25</ele><time>2026-04-18T13:16:52.548Z</time></trkpt><trkpt lat="44.0592973" lon="12.1032489"><ele>349.0</ele><time>2026-04-18T13:16:53.544Z</time></trkpt><trkpt lat="44.0592623" lon="12.1034115"><ele>349.75</ele><time>2026-04-18T13:16:54.548Z</time></trkpt><trkpt lat="44.0592229" lon="12.1035693"><ele>350.5</ele><time>2026-04-18T13:16:55.549Z</time></trkpt><trkpt lat="44.0591786" lon="12.1037315"><ele>351.25</ele><time>2026-04-18T13:16:56.545Z</time></trkpt><trkpt lat="44.0591346" lon="12.1038977"><ele>352.0</ele><time>2026-04-18T13:16:57.551Z</time></trkpt><trkpt lat="44.0590836" lon="12.1040681"><ele>351.0</ele><time>2026-04-18T13:16:58.553Z</time></trkpt><trkpt lat="44.0590191" lon="12.1042386"><ele>350.0</ele><time>2026-04-18T13:16:59.543Z</time></trkpt><trkpt lat="44.0589427" lon="12.1043997"><ele>349.0</ele><time>2026-04-18T13:17:00.548Z</time></trkpt><trkpt lat="44.0588616" lon="12.1045421"><ele>348.0</ele><time>2026-04-18T13:17:01.543Z</time></trkpt><trkpt lat="44.058793" lon="12.1046743"><ele>348.0</ele><time>2026-04-18T13:17:02.544Z</time></trkpt><trkpt lat="44.0587356" lon="12.1048196"><ele>348.0</ele><time>2026-04-18T13:17:03.55Z</time></trkpt><trkpt lat="44.0586838" lon="12.1049595"><ele>348.0</ele><time>2026-04-18T13:17:04.544Z</time></trkpt><trkpt lat="44.0586517" lon="12.1050827"><ele>348.0</ele><time>2026-04-18T13:17:05.547Z</time></trkpt><trkpt lat="44.0586499" lon="12.1052048"><ele>348.0</ele><time>2026-04-18T13:17:06.546Z</time></trkpt><trkpt lat="44.0586774" lon="12.1053435"><ele>350.0</ele><time>2026-04-18T13:17:07.543Z</time></trkpt><trkpt lat="44.0587298" lon="12.1054857"><ele>352.0</ele><time>2026-04-18T13:17:08.545Z</time></trkpt><trkpt lat="44.0588124" lon="12.1056182"><ele>354.0</ele><time>2026-04-18T13:17:09.547Z</time></trkpt><trkpt lat="44.0589003" lon="12.1057402"><ele>356.0</ele><time>2026-04-18T13:17:10.548Z</time></trkpt><trkpt lat="44.058981" lon="12.1058528"><ele>356.4</ele><time>2026-04-18T13:17:11.553Z</time></trkpt><trkpt lat="44.0590335" lon="12.1059804"><ele>356.8</ele><time>2026-04-18T13:17:12.548Z</time></trkpt><trkpt lat="44.0590633" lon="12.1061286"><ele>357.2</ele><time>2026-04-18T13:17:13.548Z</time></trkpt><trkpt lat="44.0590708" lon="12.1062908"><ele>357.59999999999997</ele><time>2026-04-18T13:17:14.551Z</time></trkpt><trkpt lat="44.0590884" lon="12.1064506"><ele>358.0</ele><time>2026-04-18T13:17:15.542Z</time></trkpt><trkpt lat="44.0591467" lon="12.1066275"><ele>361.5</ele><time>2026-04-18T13:17:16.55Z</time></trkpt><trkpt lat="44.0592283" lon="12.1068003"><ele>365.0</ele><time>2026-04-18T13:17:17.549Z</time></trkpt><trkpt lat="44.0593063" lon="12.1069665"><ele>368.5</ele><time>2026-04-18T13:17:18.549Z</time></trkpt><trkpt lat="44.0593866" lon="12.1070832"><ele>372.0</ele><time>2026-04-18T13:17:19.548Z</time></trkpt><trkpt lat="44.0594762" lon="12.1071756"><ele>372.0</ele><time>2026-04-18T13:17:20.556Z</time></trkpt><trkpt lat="44.059567" lon="12.1072574"><ele>372.0</ele><time>2026-04-18T13:17:21.545Z</time></trkpt><trkpt lat="44.0596427" lon="12.1073384"><ele>372.0</ele><time>2026-04-18T13:17:22.551Z</time></trkpt><trkpt lat="44.0596837" lon="12.1074444"><ele>372.0</ele><time>2026-04-18T13:17:23.547Z</time></trkpt><trkpt lat="44.0596945" lon="12.1075818"><ele>372.0</ele><time>2026-04-18T13:17:24.553Z</time></trkpt><trkpt lat="44.0596896" lon="12.1077278"><ele>375.75</ele><time>2026-04-18T13:17:25.54Z</time></trkpt><trkpt lat="44.0596731" lon="12.1079007"><ele>379.5</ele><time>2026-04-18T13:17:26.55Z</time></trkpt><trkpt lat="44.0596562" lon="12.1081093"><ele>383.25</ele><time>2026-04-18T13:17:27.548Z</time></trkpt><trkpt lat="44.0596602" lon="12.1083268"><ele>387.0</ele><time>2026-04-18T13:17:28.56Z</time></trkpt><trkpt lat="44.0596831" lon="12.1085307"><ele>388.20000000000005</ele><time>2026-04-18T13:17:29.55Z</time></trkpt><trkpt lat="44.0597134" lon="12.1086971"><ele>389.4</ele><time>2026-04-18T13:17:30.553Z</time></trkpt><trkpt lat="44.059746" lon="12.1088392"><ele>390.6</ele><time>2026-04-18T13:17:31.546Z</time></trkpt><trkpt lat="44.0598051" lon="12.1089445"><ele>391.79999999999995</ele><time>2026-04-18T13:17:32.557Z</time></trkpt><trkpt lat="44.0598974" lon="12.1090411"><ele>393.0</ele><time>2026-04-18T13:17:33.55Z</time></trkpt><trkpt lat="44.0599914" lon="12.1091435"><ele>393.59999999999997</ele><time>2026-04-18T13:17:34.548Z</time></trkpt><trkpt lat="44.0600685" lon="12.1092549"><ele>394.2</ele><time>2026-04-18T13:17:35.547Z</time></trkpt><trkpt lat="44.0601144" lon="12.1093877"><ele>394.8</ele><time>2026-04-18T13:17:36.552Z</time></trkpt><trkpt lat="44.0601244" lon="12.1095301"><ele>395.4</ele><time>2026-04-18T13:17:37.552Z</time></trkpt><trkpt lat="44.0600937" lon="12.1096755"><ele>396.0</ele><time>2026-04-18T13:17:38.547Z</time></trkpt><trkpt lat="44.0600298" lon="12.1097996"><ele>398.66666666666663</ele><time>2026-04-18T13:17:39.548Z</time></trkpt><trkpt lat="44.0599292" lon="12.10993"><ele>401.3333333333333</ele><time>2026-04-18T13:17:40.549Z</time></trkpt><trkpt lat="44.0598042" lon="12.1100736"><ele>404.0</ele><time>2026-04-18T13:17:41.546Z</time></trkpt><trkpt lat="44.059665" lon="12.1102064"><ele>404.0</ele><time>2026-04-18T13:17:42.56Z</time></trkpt><trkpt lat="44.0595196" lon="12.1103333"><ele>404.0</ele><time>2026-04-18T13:17:43.547Z</time></trkpt><trkpt lat="44.0593827" lon="12.1104581"><ele>404.0</ele><time>2026-04-18T13:17:44.547Z</time></trkpt><trkpt lat="44.0592649" lon="12.1105822"><ele>404.0</ele><time>2026-04-18T13:17:45.556Z</time></trkpt><trkpt lat="44.0591672" lon="12.1107039"><ele>404.0</ele><time>2026-04-18T13:17:46.545Z</time></trkpt><trkpt lat="44.0590841" lon="12.1108033"><ele>404.0</ele><time>2026-04-18T13:17:47.544Z</time></trkpt><trkpt lat="44.059018" lon="12.1109032"><ele>404.0</ele><time>2026-04-18T13:17:48.552Z</time></trkpt><trkpt lat="44.0589657" lon="12.1110081"><ele>404.0</ele><time>2026-04-18T13:17:49.55Z</time></trkpt><trkpt lat="44.0589399" lon="12.1111196"><ele>402.0</ele><time>2026-04-18T13:17:50.547Z</time></trkpt><trkpt lat="44.0589468" lon="12.1112336"><ele>400.0</ele><time>2026-04-18T13:17:51.548Z</time></trkpt><trkpt lat="44.058995" lon="12.1113638"><ele>398.0</ele><time>2026-04-18T13:17:52.544Z</time></trkpt><trkpt lat="44.059065" lon="12.1114838"><ele>396.0</ele><time>2026-04-18T13:17:53.553Z</time></trkpt><trkpt lat="44.0591589" lon="12.1115674"><ele>394.0</ele><time>2026-04-18T13:17:54.552Z</time></trkpt><trkpt lat="44.0592705" lon="12.1116253"><ele>401.0</ele><time>2026-04-18T13:17:55.546Z</time></trkpt><trkpt lat="44.0593824" lon="12.1116767"><ele>408.0</ele><time>2026-04-18T13:17:56.546Z</time></trkpt><trkpt lat="44.0594928" lon="12.1117541"><ele>415.0</ele><time>2026-04-18T13:17:57.549Z</time></trkpt><trkpt lat="44.0596125" lon="12.1118668"><ele>422.0</ele><time>2026-04-18T13:17:58.549Z</time></trkpt><trkpt lat="44.0597273" lon="12.1119978"><ele>422.0</ele><time>2026-04-18T13:17:59.548Z</time></trkpt><trkpt lat="44.0598414" lon="12.112133"><ele>422.0</ele><time>2026-04-18T13:18:00.543Z</time></trkpt><trkpt lat="44.059953" lon="12.1122558"><ele>422.0</ele><time>2026-04-18T13:18:01.549Z</time></trkpt><trkpt lat="44.060062" lon="12.1123781"><ele>422.0</ele><time>2026-04-18T13:18:02.554Z</time></trkpt><trkpt lat="44.0601368" lon="12.1125169"><ele>424.20000000000005</ele><time>2026-04-18T13:18:03.549Z</time></trkpt><trkpt lat="44.0601701" lon="12.1126566"><ele>426.4</ele><time>2026-04-18T13:18:04.547Z</time></trkpt><trkpt lat="44.0601673" lon="12.1127712"><ele>428.59999999999997</ele><time>2026-04-18T13:18:05.552Z</time></trkpt><trkpt lat="44.0601463" lon="12.1128771"><ele>430.79999999999995</ele><time>2026-04-18T13:18:06.55Z</time></trkpt><trkpt lat="44.0600964" lon="12.1129904"><ele>433.0</ele><time>2026-04-18T13:18:07.539Z</time></trkpt><trkpt lat="44.0600427" lon="12.11313"><ele>434.2</ele><time>2026-04-18T13:18:08.555Z</time></trkpt><trkpt lat="44.060022" lon="12.1132708"><ele>435.4</ele><time>2026-04-18T13:18:09.543Z</time></trkpt><trkpt lat="44.0600451" lon="12.1134188"><ele>436.59999999999997</ele><time>2026-04-18T13:18:10.549Z</time></trkpt><trkpt lat="44.0600933" lon="12.113554"><ele>437.79999999999995</ele><time>2026-04-18T13:18:11.552Z</time></trkpt><trkpt lat="44.0601669" lon="12.1136762"><ele>439.0</ele><time>2026-04-18T13:18:12.551Z</time></trkpt><trkpt lat="44.0602561" lon="12.1137779"><ele>439.0</ele><time>2026-04-18T13:18:13.546Z</time></trkpt><trkpt lat="44.0603457" lon="12.1138596"><ele>439.0</ele><time>2026-04-18T13:18:14.55Z</time></trkpt><trkpt lat="44.0604231" lon="12.1139352"><ele>439.0</ele><time>2026-04-18T13:18:15.548Z</time></trkpt><trkpt lat="44.0604916" lon="12.1140197"><ele>439.0</ele><time>2026-04-18T13:18:16.551Z</time></trkpt><trkpt lat="44.0605609" lon="12.114118"><ele>439.0</ele><time>2026-04-18T13:18:17.544Z</time></trkpt><trkpt lat="44.0606184" lon="12.1142225"><ele>440.1666666666667</ele><time>2026-04-18T13:18:18.543Z</time></trkpt><trkpt lat="44.0606498" lon="12.1143069"><ele>441.33333333333337</ele><time>2026-04-18T13:18:19.551Z</time></trkpt><trkpt lat="44.0606643" lon="12.1143965"><ele>442.5</ele><time>2026-04-18T13:18:21.546Z</time></trkpt><trkpt lat="44.06058" lon="12.1144469"><ele>443.66666666666663</ele><time>2026-04-18T13:18:59.552Z</time></trkpt><trkpt lat="44.0604607" lon="12.1144414"><ele>444.8333333333333</ele><time>2026-04-18T13:19:01.553Z</time></trkpt><trkpt lat="44.0603854" lon="12.1144525"><ele>446.0</ele><time>2026-04-18T13:19:02.551Z</time></trkpt><trkpt lat="44.0603016" lon="12.1144822"><ele>446.0</ele><time>2026-04-18T13:19:03.548Z</time></trkpt><trkpt lat="44.0602142" lon="12.1145169"><ele>446.0</ele><time>2026-04-18T13:19:04.549Z</time></trkpt><trkpt lat="44.0601263" lon="12.1145501"><ele>446.0</ele><time>2026-04-18T13:19:05.548Z</time></trkpt><trkpt lat="44.0600328" lon="12.114584"><ele>446.0</ele><time>2026-04-18T13:19:06.55Z</time></trkpt><trkpt lat="44.05993" lon="12.1146068"><ele>446.0</ele><time>2026-04-18T13:19:07.549Z</time></trkpt><trkpt lat="44.0598239" lon="12.114621"><ele>444.75</ele><time>2026-04-18T13:19:08.543Z</time></trkpt><trkpt lat="44.0597082" lon="12.1146429"><ele>443.5</ele><time>2026-04-18T13:19:09.549Z</time></trkpt><trkpt lat="44.0595899" lon="12.114687"><ele>442.25</ele><time>2026-04-18T13:19:10.55Z</time></trkpt><trkpt lat="44.0594733" lon="12.1147536"><ele>441.0</ele><time>2026-04-18T13:19:11.544Z</time></trkpt><trkpt lat="44.0593558" lon="12.1148257"><ele>441.0</ele><time>2026-04-18T13:19:12.555Z</time></trkpt><trkpt lat="44.0592346" lon="12.1149033"><ele>441.0</ele><time>2026-04-18T13:19:13.547Z</time></trkpt><trkpt lat="44.0591139" lon="12.114968"><ele>441.0</ele><time>2026-04-18T13:19:14.546Z</time></trkpt><trkpt lat="44.0589989" lon="12.1150235"><ele>441.0</ele><time>2026-04-18T13:19:15.549Z</time></trkpt><trkpt lat="44.0588883" lon="12.115084"><ele>441.25</ele><time>2026-04-18T13:19:16.552Z</time></trkpt><trkpt lat="44.0587728" lon="12.1151612"><ele>441.5</ele><time>2026-04-18T13:19:17.547Z</time></trkpt><trkpt lat="44.0586532" lon="12.1152454"><ele>441.75</ele><time>2026-04-18T13:19:18.549Z</time></trkpt><trkpt lat="44.0585311" lon="12.115327"><ele>442.0</ele><time>2026-04-18T13:19:19.544Z</time></trkpt><trkpt lat="44.0584116" lon="12.1154057"><ele>442.0</ele><time>2026-04-18T13:19:20.546Z</time></trkpt><trkpt lat="44.0583025" lon="12.1154765"><ele>442.0</ele><time>2026-04-18T13:19:21.549Z</time></trkpt><trkpt lat="44.0582003" lon="12.1155453"><ele>442.0</ele><time>2026-04-18T13:19:22.548Z</time></trkpt><trkpt lat="44.0581034" lon="12.1156208"><ele>442.0</ele><time>2026-04-18T13:19:23.557Z</time></trkpt><trkpt lat="44.0580113" lon="12.1157045"><ele>440.5</ele><time>2026-04-18T13:19:24.546Z</time></trkpt><trkpt lat="44.0579226" lon="12.1158011"><ele>439.0</ele><time>2026-04-18T13:19:25.546Z</time></trkpt><trkpt lat="44.0578292" lon="12.1159026"><ele>437.5</ele><time>2026-04-18T13:19:26.548Z</time></trkpt><trkpt lat="44.0577269" lon="12.1160069"><ele>436.0</ele><time>2026-04-18T13:19:27.548Z</time></trkpt><trkpt lat="44.0576179" lon="12.1161016"><ele>436.0</ele><time>2026-04-18T13:19:28.547Z</time></trkpt><trkpt lat="44.0575101" lon="12.1161787"><ele>436.0</ele><time>2026-04-18T13:19:29.549Z</time></trkpt><trkpt lat="44.0574088" lon="12.1162407"><ele>436.0</ele><time>2026-04-18T13:19:30.552Z</time></trkpt><trkpt lat="44.057321" lon="12.116311"><ele>436.0</ele><time>2026-04-18T13:19:31.552Z</time></trkpt><trkpt lat="44.0572516" lon="12.1163918"><ele>436.0</ele><time>2026-04-18T13:19:32.554Z</time></trkpt><trkpt lat="44.0572086" lon="12.1165011"><ele>433.6</ele><time>2026-04-18T13:19:33.55Z</time></trkpt><trkpt lat="44.0571768" lon="12.1166228"><ele>431.20000000000005</ele><time>2026-04-18T13:19:34.547Z</time></trkpt><trkpt lat="44.0571687" lon="12.1167662"><ele>428.79999999999995</ele><time>2026-04-18T13:19:35.552Z</time></trkpt><trkpt lat="44.0571699" lon="12.1169258"><ele>426.4</ele><time>2026-04-18T13:19:36.548Z</time></trkpt><trkpt lat="44.0571729" lon="12.1170876"><ele>424.0</ele><time>2026-04-18T13:19:37.55Z</time></trkpt><trkpt lat="44.0571669" lon="12.1172409"><ele>424.0</ele><time>2026-04-18T13:19:38.549Z</time></trkpt><trkpt lat="44.0571391" lon="12.1173964"><ele>424.0</ele><time>2026-04-18T13:19:39.549Z</time></trkpt><trkpt lat="44.0570891" lon="12.1175511"><ele>424.0</ele><time>2026-04-18T13:19:40.549Z</time></trkpt><trkpt lat="44.0570209" lon="12.1176921"><ele>424.0</ele><time>2026-04-18T13:19:41.554Z</time></trkpt><trkpt lat="44.0569385" lon="12.1178177"><ele>423.75</ele><time>2026-04-18T13:19:42.552Z</time></trkpt><trkpt lat="44.056839" lon="12.1179323"><ele>423.5</ele><time>2026-04-18T13:19:43.545Z</time></trkpt><trkpt lat="44.0567342" lon="12.1180538"><ele>423.25</ele><time>2026-04-18T13:19:44.547Z</time></trkpt><trkpt lat="44.0566236" lon="12.1181863"><ele>423.0</ele><time>2026-04-18T13:19:45.544Z</time></trkpt><trkpt lat="44.0565111" lon="12.1183262"><ele>422.5</ele><time>2026-04-18T13:19:46.541Z</time></trkpt><trkpt lat="44.0564014" lon="12.1184703"><ele>422.0</ele><time>2026-04-18T13:19:47.55Z</time></trkpt><trkpt lat="44.0562961" lon="12.1186058"><ele>421.5</ele><time>2026-04-18T13:19:48.545Z</time></trkpt><trkpt lat="44.0561922" lon="12.1187276"><ele>421.0</ele><time>2026-04-18T13:19:49.55Z</time></trkpt><trkpt lat="44.0560807" lon="12.1188301"><ele>421.0</ele><time>2026-04-18T13:19:50.541Z</time></trkpt><trkpt lat="44.0559508" lon="12.1189024"><ele>421.0</ele><time>2026-04-18T13:19:51.552Z</time></trkpt><trkpt lat="44.0558093" lon="12.118936"><ele>421.0</ele><time>2026-04-18T13:19:52.551Z</time></trkpt><trkpt lat="44.0556635" lon="12.118953"><ele>421.0</ele><time>2026-04-18T13:19:53.55Z</time></trkpt><trkpt lat="44.0555191" lon="12.1189786"><ele>419.6666666666667</ele><time>2026-04-18T13:19:54.545Z</time></trkpt><trkpt lat="44.0553728" lon="12.1190302"><ele>418.33333333333337</ele><time>2026-04-18T13:19:55.55Z</time></trkpt><trkpt lat="44.0552305" lon="12.1191091"><ele>417.0</ele><time>2026-04-18T13:19:56.543Z</time></trkpt><trkpt lat="44.0550888" lon="12.1191944"><ele>419.5</ele><time>2026-04-18T13:19:57.548Z</time></trkpt><trkpt lat="44.0549475" lon="12.1192587"><ele>422.0</ele><time>2026-04-18T13:19:58.548Z</time></trkpt><trkpt lat="44.0548146" lon="12.1192921"><ele>424.5</ele><time>2026-04-18T13:19:59.539Z</time></trkpt><trkpt lat="44.0546894" lon="12.119306"><ele>427.0</ele><time>2026-04-18T13:20:00.562Z</time></trkpt><trkpt lat="44.0545819" lon="12.1193239"><ele>427.0</ele><time>2026-04-18T13:20:01.546Z</time></trkpt><trkpt lat="44.0544936" lon="12.1193608"><ele>427.00000000000006</ele><time>2026-04-18T13:20:02.545Z</time></trkpt><trkpt lat="44.0544226" lon="12.119438"><ele>427.00000000000006</ele><time>2026-04-18T13:20:03.558Z</time></trkpt><trkpt lat="44.0543691" lon="12.1195594"><ele>427.0</ele><time>2026-04-18T13:20:04.565Z</time></trkpt><trkpt lat="44.0543157" lon="12.1197186"><ele>427.0</ele><time>2026-04-18T13:20:05.556Z</time></trkpt><trkpt lat="44.0542515" lon="12.119898"><ele>428.75</ele><time>2026-04-18T13:20:06.545Z</time></trkpt><trkpt lat="44.0541696" lon="12.1200756"><ele>430.5</ele><time>2026-04-18T13:20:07.549Z</time></trkpt><trkpt lat="44.0540813" lon="12.1202422"><ele>432.25</ele><time>2026-04-18T13:20:08.549Z</time></trkpt><trkpt lat="44.0540023" lon="12.1203999"><ele>434.0</ele><time>2026-04-18T13:20:09.55Z</time></trkpt><trkpt lat="44.0539347" lon="12.1205493"><ele>432.79999999999995</ele><time>2026-04-18T13:20:10.55Z</time></trkpt><trkpt lat="44.0538739" lon="12.1206831"><ele>431.59999999999997</ele><time>2026-04-18T13:20:11.553Z</time></trkpt><trkpt lat="44.0538173" lon="12.1208042"><ele>430.4</ele><time>2026-04-18T13:20:12.55Z</time></trkpt><trkpt lat="44.0537565" lon="12.1209153"><ele>429.2</ele><time>2026-04-18T13:20:13.557Z</time></trkpt><trkpt lat="44.0536915" lon="12.1210088"><ele>428.0</ele><time>2026-04-18T13:20:14.548Z</time></trkpt><trkpt lat="44.0536172" lon="12.1210733"><ele>428.0</ele><time>2026-04-18T13:20:15.549Z</time></trkpt><trkpt lat="44.0535344" lon="12.1211082"><ele>427.99999999999994</ele><time>2026-04-18T13:20:16.551Z</time></trkpt><trkpt lat="44.053443" lon="12.121112"><ele>427.99999999999994</ele><time>2026-04-18T13:20:17.541Z</time></trkpt><trkpt lat="44.053343" lon="12.1211021"><ele>428.0</ele><time>2026-04-18T13:20:18.548Z</time></trkpt><trkpt lat="44.0532382" lon="12.1210683"><ele>428.0</ele><time>2026-04-18T13:20:19.547Z</time></trkpt><trkpt lat="44.0531331" lon="12.1210107"><ele>426.79999999999995</ele><time>2026-04-18T13:20:20.547Z</time></trkpt><trkpt lat="44.0530334" lon="12.1209421"><ele>425.59999999999997</ele><time>2026-04-18T13:20:21.551Z</time></trkpt><trkpt lat="44.0529414" lon="12.1208735"><ele>424.4</ele><time>2026-04-18T13:20:22.548Z</time></trkpt><trkpt lat="44.0528486" lon="12.1208044"><ele>423.20000000000005</ele><time>2026-04-18T13:20:23.551Z</time></trkpt><trkpt lat="44.0527573" lon="12.1207416"><ele>422.0</ele><time>2026-04-18T13:20:24.548Z</time></trkpt><trkpt lat="44.0526658" lon="12.1206845"><ele>420.0</ele><time>2026-04-18T13:20:25.549Z</time></trkpt><trkpt lat="44.0525781" lon="12.1206244"><ele>418.0</ele><time>2026-04-18T13:20:26.546Z</time></trkpt><trkpt lat="44.0524912" lon="12.1205583"><ele>416.0</ele><time>2026-04-18T13:20:27.552Z</time></trkpt><trkpt lat="44.0524065" lon="12.1204874"><ele>414.0</ele><time>2026-04-18T13:20:28.558Z</time></trkpt><trkpt lat="44.0523239" lon="12.1204098"><ele>412.0</ele><time>2026-04-18T13:20:29.553Z</time></trkpt><trkpt lat="44.0522434" lon="12.1203305"><ele>411.0</ele><time>2026-04-18T13:20:30.546Z</time></trkpt><trkpt lat="44.0521684" lon="12.1202448"><ele>410.0</ele><time>2026-04-18T13:20:31.551Z</time></trkpt><trkpt lat="44.0521035" lon="12.1201492"><ele>409.0</ele><time>2026-04-18T13:20:32.546Z</time></trkpt><trkpt lat="44.0520419" lon="12.1200483"><ele>408.0</ele><time>2026-04-18T13:20:33.548Z</time></trkpt><trkpt lat="44.0519823" lon="12.1199459"><ele>407.0</ele><time>2026-04-18T13:20:34.549Z</time></trkpt><trkpt lat="44.0519234" lon="12.1198447"><ele>404.66666666666663</ele><time>2026-04-18T13:20:35.549Z</time></trkpt><trkpt lat="44.0518637" lon="12.1197548"><ele>402.3333333333333</ele><time>2026-04-18T13:20:36.548Z</time></trkpt><trkpt lat="44.0517999" lon="12.1196866"><ele>400.0</ele><time>2026-04-18T13:20:37.542Z</time></trkpt><trkpt lat="44.051728" lon="12.1196381"><ele>397.66666666666663</ele><time>2026-04-18T13:20:38.544Z</time></trkpt><trkpt lat="44.0516431" lon="12.1195996"><ele>395.3333333333333</ele><time>2026-04-18T13:20:39.55Z</time></trkpt><trkpt lat="44.0515572" lon="12.1195796"><ele>393.0</ele><time>2026-04-18T13:20:40.554Z</time></trkpt><trkpt lat="44.0514735" lon="12.1195792"><ele>392.0</ele><time>2026-04-18T13:20:41.546Z</time></trkpt><trkpt lat="44.0513945" lon="12.1195941"><ele>391.0</ele><time>2026-04-18T13:20:42.551Z</time></trkpt><trkpt lat="44.0513153" lon="12.1196156"><ele>390.0</ele><time>2026-04-18T13:20:43.56Z</time></trkpt><trkpt lat="44.0512424" lon="12.1196247"><ele>389.0</ele><time>2026-04-18T13:20:44.547Z</time></trkpt><trkpt lat="44.0511742" lon="12.1196052"><ele>388.0</ele><time>2026-04-18T13:20:45.55Z</time></trkpt><trkpt lat="44.0511138" lon="12.1195444"><ele>387.0</ele><time>2026-04-18T13:20:46.543Z</time></trkpt><trkpt lat="44.0510618" lon="12.1194398"><ele>387.0</ele><time>2026-04-18T13:20:47.547Z</time></trkpt><trkpt lat="44.0510159" lon="12.1192969"><ele>387.0</ele><time>2026-04-18T13:20:48.544Z</time></trkpt><trkpt lat="44.0509661" lon="12.1191403"><ele>387.0</ele><time>2026-04-18T13:20:49.55Z</time></trkpt><trkpt lat="44.0509234" lon="12.1189924"><ele>387.0</ele><time>2026-04-18T13:20:50.543Z</time></trkpt><trkpt lat="44.0508843" lon="12.118849"><ele>385.40000000000003</ele><time>2026-04-18T13:20:51.546Z</time></trkpt><trkpt lat="44.0508468" lon="12.1187097"><ele>383.8</ele><time>2026-04-18T13:20:52.551Z</time></trkpt><trkpt lat="44.0508139" lon="12.1185729"><ele>382.2</ele><time>2026-04-18T13:20:53.553Z</time></trkpt><trkpt lat="44.050785" lon="12.1184345"><ele>380.6</ele><time>2026-04-18T13:20:54.553Z</time></trkpt><trkpt lat="44.0507487" lon="12.1182991"><ele>379.0</ele><time>2026-04-18T13:20:55.551Z</time></trkpt><trkpt lat="44.0507038" lon="12.1181674"><ele>376.2</ele><time>2026-04-18T13:20:56.545Z</time></trkpt><trkpt lat="44.0506531" lon="12.1180455"><ele>373.4</ele><time>2026-04-18T13:20:57.557Z</time></trkpt><trkpt lat="44.0506004" lon="12.1179255"><ele>370.6</ele><time>2026-04-18T13:20:58.551Z</time></trkpt><trkpt lat="44.0505447" lon="12.1178101"><ele>367.8</ele><time>2026-04-18T13:20:59.548Z</time></trkpt><trkpt lat="44.0504842" lon="12.1177026"><ele>365.0</ele><time>2026-04-18T13:21:00.55Z</time></trkpt><trkpt lat="44.0504198" lon="12.117608"><ele>365.0</ele><time>2026-04-18T13:21:01.551Z</time></trkpt><trkpt lat="44.0503496" lon="12.1175307"><ele>365.0</ele><time>2026-04-18T13:21:02.553Z</time></trkpt><trkpt lat="44.0502724" lon="12.117468"><ele>365.0</ele><time>2026-04-18T13:21:03.55Z</time></trkpt><trkpt lat="44.050191" lon="12.1174169"><ele>365.0</ele><time>2026-04-18T13:21:04.545Z</time></trkpt><trkpt lat="44.050105" lon="12.1173757"><ele>365.0</ele><time>2026-04-18T13:21:05.546Z</time></trkpt><trkpt lat="44.0500154" lon="12.1173471"><ele>361.2</ele><time>2026-04-18T13:21:06.546Z</time></trkpt><trkpt lat="44.0499228" lon="12.1173385"><ele>357.4</ele><time>2026-04-18T13:21:07.541Z</time></trkpt><trkpt lat="44.0498297" lon="12.117347"><ele>353.6</ele><time>2026-04-18T13:21:08.55Z</time></trkpt><trkpt lat="44.0497354" lon="12.1173564"><ele>349.8</ele><time>2026-04-18T13:21:09.551Z</time></trkpt><trkpt lat="44.0496361" lon="12.1173483"><ele>346.0</ele><time>2026-04-18T13:21:10.544Z</time></trkpt><trkpt lat="44.0495248" lon="12.1173139"><ele>346.0</ele><time>2026-04-18T13:21:11.548Z</time></trkpt><trkpt lat="44.0494034" lon="12.1172528"><ele>346.0</ele><time>2026-04-18T13:21:12.55Z</time></trkpt><trkpt lat="44.0492815" lon="12.117169"><ele>346.0</ele><time>2026-04-18T13:21:13.546Z</time></trkpt><trkpt lat="44.0491581" lon="12.117075"><ele>346.0</ele><time>2026-04-18T13:21:14.546Z</time></trkpt><trkpt lat="44.0490291" lon="12.1169788"><ele>343.5</ele><time>2026-04-18T13:21:15.542Z</time></trkpt><trkpt lat="44.0489011" lon="12.1168826"><ele>341.0</ele><time>2026-04-18T13:21:16.544Z</time></trkpt><trkpt lat="44.0487741" lon="12.1167881"><ele>338.5</ele><time>2026-04-18T13:21:17.547Z</time></trkpt><trkpt lat="44.0486504" lon="12.1166962"><ele>336.0</ele><time>2026-04-18T13:21:18.55Z</time></trkpt><trkpt lat="44.0485335" lon="12.116607"><ele>335.25</ele><time>2026-04-18T13:21:19.549Z</time></trkpt><trkpt lat="44.0484226" lon="12.1165159"><ele>334.5</ele><time>2026-04-18T13:21:20.548Z</time></trkpt><trkpt lat="44.0483161" lon="12.1164166"><ele>333.75</ele><time>2026-04-18T13:21:21.548Z</time></trkpt><trkpt lat="44.0482149" lon="12.1163016"><ele>333.0</ele><time>2026-04-18T13:21:22.544Z</time></trkpt><trkpt lat="44.048118" lon="12.1161779"><ele>332.75</ele><time>2026-04-18T13:21:23.545Z</time></trkpt><trkpt lat="44.0480195" lon="12.116055"><ele>332.5</ele><time>2026-04-18T13:21:24.552Z</time></trkpt><trkpt lat="44.047922" lon="12.1159336"><ele>332.25</ele><time>2026-04-18T13:21:25.548Z</time></trkpt><trkpt lat="44.0478231" lon="12.1158107"><ele>332.0</ele><time>2026-04-18T13:21:26.555Z</time></trkpt><trkpt lat="44.0477213" lon="12.1156955"><ele>330.75</ele><time>2026-04-18T13:21:27.551Z</time></trkpt><trkpt lat="44.0476142" lon="12.1155905"><ele>329.5</ele><time>2026-04-18T13:21:28.551Z</time></trkpt><trkpt lat="44.0475037" lon="12.115487"><ele>328.25</ele><time>2026-04-18T13:21:29.553Z</time></trkpt><trkpt lat="44.0473903" lon="12.115382"><ele>327.0</ele><time>2026-04-18T13:21:30.546Z</time></trkpt><trkpt lat="44.0472805" lon="12.1152781"><ele>326.5</ele><time>2026-04-18T13:21:31.548Z</time></trkpt><trkpt lat="44.0471789" lon="12.1151778"><ele>326.0</ele><time>2026-04-18T13:21:32.547Z</time></trkpt><trkpt lat="44.0470822" lon="12.115081"><ele>325.5</ele><time>2026-04-18T13:21:33.557Z</time></trkpt><trkpt lat="44.0469925" lon="12.114987"><ele>325.0</ele><time>2026-04-18T13:21:34.556Z</time></trkpt><trkpt lat="44.046899" lon="12.1148999"><ele>325.0</ele><time>2026-04-18T13:21:35.542Z</time></trkpt><trkpt lat="44.0467982" lon="12.1148325"><ele>325.0</ele><time>2026-04-18T13:21:36.554Z</time></trkpt><trkpt lat="44.0466959" lon="12.1147932"><ele>325.0</ele><time>2026-04-18T13:21:37.549Z</time></trkpt><trkpt lat="44.0465948" lon="12.1147721"><ele>325.0</ele><time>2026-04-18T13:21:38.55Z</time></trkpt><trkpt lat="44.0464888" lon="12.1147473"><ele>325.0</ele><time>2026-04-18T13:21:39.549Z</time></trkpt><trkpt lat="44.0463841" lon="12.1147115"><ele>321.75</ele><time>2026-04-18T13:21:40.542Z</time></trkpt><trkpt lat="44.0462805" lon="12.1146675"><ele>318.5</ele><time>2026-04-18T13:21:41.555Z</time></trkpt><trkpt lat="44.0461722" lon="12.1146208"><ele>315.25</ele><time>2026-04-18T13:21:42.55Z</time></trkpt><trkpt lat="44.046061" lon="12.1145718"><ele>312.0</ele><time>2026-04-18T13:21:43.55Z</time></trkpt><trkpt lat="44.0459539" lon="12.1145082"><ele>312.0</ele><time>2026-04-18T13:21:44.548Z</time></trkpt><trkpt lat="44.0458541" lon="12.1144249"><ele>312.0</ele><time>2026-04-18T13:21:45.544Z</time></trkpt><trkpt lat="44.0457693" lon="12.1143218"><ele>312.0</ele><time>2026-04-18T13:21:46.543Z</time></trkpt><trkpt lat="44.0456957" lon="12.1142123"><ele>312.0</ele><time>2026-04-18T13:21:47.55Z</time></trkpt><trkpt lat="44.0456227" lon="12.1141131"><ele>312.0</ele><time>2026-04-18T13:21:48.552Z</time></trkpt><trkpt lat="44.0455423" lon="12.1140319"><ele>308.25</ele><time>2026-04-18T13:21:49.556Z</time></trkpt><trkpt lat="44.0454445" lon="12.1139674"><ele>304.5</ele><time>2026-04-18T13:21:50.55Z</time></trkpt><trkpt lat="44.0453325" lon="12.1139152"><ele>300.75</ele><time>2026-04-18T13:21:51.554Z</time></trkpt><trkpt lat="44.0452156" lon="12.1138794"><ele>297.0</ele><time>2026-04-18T13:21:52.551Z</time></trkpt><trkpt lat="44.0450915" lon="12.1138461"><ele>297.0</ele><time>2026-04-18T13:21:53.554Z</time></trkpt><trkpt lat="44.0449704" lon="12.1138149"><ele>297.0</ele><time>2026-04-18T13:21:54.551Z</time></trkpt><trkpt lat="44.0448448" lon="12.1137866"><ele>297.0</ele><time>2026-04-18T13:21:55.559Z</time></trkpt><trkpt lat="44.0447219" lon="12.1137548"><ele>297.0</ele><time>2026-04-18T13:21:56.55Z</time></trkpt><trkpt lat="44.0445979" lon="12.1137275"><ele>297.75</ele><time>2026-04-18T13:21:57.548Z</time></trkpt><trkpt lat="44.0444734" lon="12.1137104"><ele>298.5</ele><time>2026-04-18T13:21:58.548Z</time></trkpt><trkpt lat="44.0443513" lon="12.1136899"><ele>299.25</ele><time>2026-04-18T13:21:59.552Z</time></trkpt><trkpt lat="44.0442297" lon="12.1136578"><ele>300.0</ele><time>2026-04-18T13:22:00.544Z</time></trkpt><trkpt lat="44.0441099" lon="12.1136099"><ele>300.5</ele><time>2026-04-18T13:22:01.547Z</time></trkpt><trkpt lat="44.0439926" lon="12.1135508"><ele>301.0</ele><time>2026-04-18T13:22:02.548Z</time></trkpt><trkpt lat="44.0438756" lon="12.113479"><ele>301.5</ele><time>2026-04-18T13:22:03.554Z</time></trkpt><trkpt lat="44.0437561" lon="12.1133983"><ele>302.0</ele><time>2026-04-18T13:22:04.553Z</time></trkpt><trkpt lat="44.0436393" lon="12.1133069"><ele>302.0</ele><time>2026-04-18T13:22:05.55Z</time></trkpt><trkpt lat="44.0435382" lon="12.1132048"><ele>302.0</ele><time>2026-04-18T13:22:06.55Z</time></trkpt><trkpt lat="44.0434407" lon="12.1130848"><ele>302.0</ele><time>2026-04-18T13:22:07.546Z</time></trkpt><trkpt lat="44.0433444" lon="12.1129427"><ele>302.0</ele><time>2026-04-18T13:22:08.545Z</time></trkpt><trkpt lat="44.0432551" lon="12.1127846"><ele>302.0</ele><time>2026-04-18T13:22:09.546Z</time></trkpt><trkpt lat="44.0431767" lon="12.1126349"><ele>302.0</ele><time>2026-04-18T13:22:10.553Z</time></trkpt><trkpt lat="44.0431089" lon="12.1125068"><ele>302.0</ele><time>2026-04-18T13:22:11.547Z</time></trkpt><trkpt lat="44.0430412" lon="12.1123919"><ele>302.0</ele><time>2026-04-18T13:22:12.555Z</time></trkpt><trkpt lat="44.0429721" lon="12.1122845"><ele>300.0</ele><time>2026-04-18T13:22:13.553Z</time></trkpt><trkpt lat="44.0429002" lon="12.1121829"><ele>298.0</ele><time>2026-04-18T13:22:14.553Z</time></trkpt><trkpt lat="44.0428165" lon="12.1120956"><ele>296.0</ele><time>2026-04-18T13:22:15.552Z</time></trkpt><trkpt lat="44.0427215" lon="12.1120258"><ele>294.0</ele><time>2026-04-18T13:22:16.547Z</time></trkpt><trkpt lat="44.0426131" lon="12.1119711"><ele>292.0</ele><time>2026-04-18T13:22:17.553Z</time></trkpt><trkpt lat="44.0424879" lon="12.1119323"><ele>291.75</ele><time>2026-04-18T13:22:18.548Z</time></trkpt><trkpt lat="44.0423521" lon="12.11191"><ele>291.5</ele><time>2026-04-18T13:22:19.546Z</time></trkpt><trkpt lat="44.0422261" lon="12.111884"><ele>291.25</ele><time>2026-04-18T13:22:20.553Z</time></trkpt><trkpt lat="44.0421121" lon="12.1118404"><ele>291.0</ele><time>2026-04-18T13:22:21.548Z</time></trkpt><trkpt lat="44.041995" lon="12.1117793"><ele>291.0</ele><time>2026-04-18T13:22:22.549Z</time></trkpt><trkpt lat="44.0418788" lon="12.1117026"><ele>291.0</ele><time>2026-04-18T13:22:23.55Z</time></trkpt><trkpt lat="44.0417711" lon="12.1116016"><ele>291.0</ele><time>2026-04-18T13:22:24.548Z</time></trkpt><trkpt lat="44.0416819" lon="12.111462"><ele>291.0</ele><time>2026-04-18T13:22:25.547Z</time></trkpt><trkpt lat="44.0415968" lon="12.1112872"><ele>291.75</ele><time>2026-04-18T13:22:26.547Z</time></trkpt><trkpt lat="44.041519" lon="12.1110905"><ele>292.5</ele><time>2026-04-18T13:22:27.549Z</time></trkpt><trkpt lat="44.0414409" lon="12.1109145"><ele>293.25</ele><time>2026-04-18T13:22:28.551Z</time></trkpt><trkpt lat="44.0413664" lon="12.1107706"><ele>294.0</ele><time>2026-04-18T13:22:29.551Z</time></trkpt><trkpt lat="44.0412986" lon="12.1106579"><ele>294.4</ele><time>2026-04-18T13:22:30.549Z</time></trkpt><trkpt lat="44.0412288" lon="12.1105765"><ele>294.79999999999995</ele><time>2026-04-18T13:22:31.551Z</time></trkpt><trkpt lat="44.0411398" lon="12.1105097"><ele>295.20000000000005</ele><time>2026-04-18T13:22:32.548Z</time></trkpt><trkpt lat="44.0410347" lon="12.1104506"><ele>295.6</ele><time>2026-04-18T13:22:33.552Z</time></trkpt><trkpt lat="44.040924" lon="12.1103817"><ele>296.0</ele><time>2026-04-18T13:22:34.553Z</time></trkpt><trkpt lat="44.0408084" lon="12.1103142"><ele>298.0</ele><time>2026-04-18T13:22:35.55Z</time></trkpt><trkpt lat="44.040692" lon="12.1102431"><ele>300.0</ele><time>2026-04-18T13:22:36.547Z</time></trkpt><trkpt lat="44.0405834" lon="12.1101795"><ele>302.0</ele><time>2026-04-18T13:22:37.542Z</time></trkpt><trkpt lat="44.0404812" lon="12.1101264"><ele>304.0</ele><time>2026-04-18T13:22:38.539Z</time></trkpt><trkpt lat="44.0403826" lon="12.1100814"><ele>304.0</ele><time>2026-04-18T13:22:39.549Z</time></trkpt><trkpt lat="44.0402845" lon="12.1100338"><ele>304.0</ele><time>2026-04-18T13:22:40.55Z</time></trkpt><trkpt lat="44.0401967" lon="12.1099926"><ele>304.0</ele><time>2026-04-18T13:22:41.548Z</time></trkpt><trkpt lat="44.0401203" lon="12.1099545"><ele>304.0</ele><time>2026-04-18T13:22:42.549Z</time></trkpt><trkpt lat="44.0400436" lon="12.1099121"><ele>304.0</ele><time>2026-04-18T13:22:43.555Z</time></trkpt><trkpt lat="44.0399584" lon="12.1098642"><ele>304.5</ele><time>2026-04-18T13:22:44.556Z</time></trkpt><trkpt lat="44.0398713" lon="12.1098034"><ele>305.0</ele><time>2026-04-18T13:22:45.548Z</time></trkpt><trkpt lat="44.0397945" lon="12.1097463"><ele>305.5</ele><time>2026-04-18T13:22:46.566Z</time></trkpt><trkpt lat="44.0397337" lon="12.1096977"><ele>306.0</ele><time>2026-04-18T13:22:47.549Z</time></trkpt><trkpt lat="44.0396435" lon="12.1096203"><ele>306.5</ele><time>2026-04-18T13:22:49.549Z</time></trkpt><trkpt lat="44.0395694" lon="12.1095587"><ele>307.0</ele><time>2026-04-18T13:22:52.556Z</time></trkpt><trkpt lat="44.0394833" lon="12.1095083"><ele>307.0</ele><time>2026-04-18T13:23:21.553Z</time></trkpt><trkpt lat="44.0394165" lon="12.1094591"><ele>307.0</ele><time>2026-04-18T13:23:22.556Z</time></trkpt><trkpt lat="44.0393435" lon="12.1093995"><ele>307.0</ele><time>2026-04-18T13:23:23.549Z</time></trkpt><trkpt lat="44.039265" lon="12.1093325"><ele>307.0</ele><time>2026-04-18T13:23:24.543Z</time></trkpt><trkpt lat="44.0391688" lon="12.1092626"><ele>307.0</ele><time>2026-04-18T13:23:25.554Z</time></trkpt><trkpt lat="44.0390678" lon="12.1091877"><ele>308.4</ele><time>2026-04-18T13:23:26.543Z</time></trkpt><trkpt lat="44.038965" lon="12.1091158"><ele>309.79999999999995</ele><time>2026-04-18T13:23:27.551Z</time></trkpt><trkpt lat="44.0388622" lon="12.1090679"><ele>311.2</ele><time>2026-04-18T13:23:28.545Z</time></trkpt><trkpt lat="44.0387685" lon="12.1090454"><ele>312.59999999999997</ele><time>2026-04-18T13:23:29.556Z</time></trkpt><trkpt lat="44.0386877" lon="12.1090566"><ele>314.0</ele><time>2026-04-18T13:23:30.544Z</time></trkpt><trkpt lat="44.0386164" lon="12.1091158"><ele>315.0</ele><time>2026-04-18T13:23:31.545Z</time></trkpt><trkpt lat="44.0385478" lon="12.1092355"><ele>316.0</ele><time>2026-04-18T13:23:32.552Z</time></trkpt><trkpt lat="44.0384762" lon="12.1093716"><ele>317.0</ele><time>2026-04-18T13:23:33.548Z</time></trkpt><trkpt lat="44.0383856" lon="12.1095055"><ele>318.0</ele><time>2026-04-18T13:23:34.544Z</time></trkpt><trkpt lat="44.0382691" lon="12.1096178"><ele>320.5</ele><time>2026-04-18T13:23:35.548Z</time></trkpt><trkpt lat="44.0381473" lon="12.1097347"><ele>323.0</ele><time>2026-04-18T13:23:36.546Z</time></trkpt><trkpt lat="44.038017" lon="12.1098535"><ele>325.5</ele><time>2026-04-18T13:23:37.55Z</time></trkpt><trkpt lat="44.0378999" lon="12.1099459"><ele>328.0</ele><time>2026-04-18T13:23:38.556Z</time></trkpt><trkpt lat="44.037801" lon="12.1100129"><ele>328.0</ele><time>2026-04-18T13:23:39.551Z</time></trkpt><trkpt lat="44.037697" lon="12.1100546"><ele>328.0</ele><time>2026-04-18T13:23:40.552Z</time></trkpt><trkpt lat="44.037589" lon="12.1100724"><ele>328.0</ele><time>2026-04-18T13:23:41.552Z</time></trkpt><trkpt lat="44.0374751" lon="12.1100724"><ele>328.0</ele><time>2026-04-18T13:23:42.549Z</time></trkpt><trkpt lat="44.0373432" lon="12.1100696"><ele>330.25</ele><time>2026-04-18T13:23:43.55Z</time></trkpt><trkpt lat="44.0372095" lon="12.1100645"><ele>332.5</ele><time>2026-04-18T13:23:44.556Z</time></trkpt><trkpt lat="44.0370785" lon="12.1100595"><ele>334.75</ele><time>2026-04-18T13:23:45.557Z</time></trkpt><trkpt lat="44.0369348" lon="12.1100524"><ele>337.0</ele><time>2026-04-18T13:23:46.554Z</time></trkpt><trkpt lat="44.0367786" lon="12.110052"><ele>338.3333333333333</ele><time>2026-04-18T13:23:47.544Z</time></trkpt><trkpt lat="44.0366164" lon="12.1100754"><ele>339.6666666666667</ele><time>2026-04-18T13:23:48.556Z</time></trkpt><trkpt lat="44.0364493" lon="12.1101147"><ele>341.0</ele><time>2026-04-18T13:23:49.546Z</time></trkpt><trkpt lat="44.0362759" lon="12.1101532"><ele>341.0</ele><time>2026-04-18T13:23:50.547Z</time></trkpt><trkpt lat="44.0360958" lon="12.1101849"><ele>341.0</ele><time>2026-04-18T13:23:51.55Z</time></trkpt><trkpt lat="44.0359275" lon="12.1102159"><ele>341.0</ele><time>2026-04-18T13:23:52.544Z</time></trkpt><trkpt lat="44.0357696" lon="12.110255"><ele>342.5</ele><time>2026-04-18T13:23:53.546Z</time></trkpt><trkpt lat="44.0356195" lon="12.1103009"><ele>344.0</ele><time>2026-04-18T13:23:54.554Z</time></trkpt><trkpt lat="44.0354765" lon="12.1103584"><ele>345.5</ele><time>2026-04-18T13:23:55.544Z</time></trkpt><trkpt lat="44.035354" lon="12.1104154"><ele>347.0</ele><time>2026-04-18T13:23:56.554Z</time></trkpt><trkpt lat="44.0352494" lon="12.1104539"><ele>347.0</ele><time>2026-04-18T13:23:57.555Z</time></trkpt><trkpt lat="44.0351488" lon="12.1104696"><ele>347.0</ele><time>2026-04-18T13:23:58.548Z</time></trkpt><trkpt lat="44.0350487" lon="12.1104482"><ele>347.0</ele><time>2026-04-18T13:23:59.545Z</time></trkpt><trkpt lat="44.0349702" lon="12.1103979"><ele>347.0</ele><time>2026-04-18T13:24:00.545Z</time></trkpt><trkpt lat="44.0349097" lon="12.1103211"><ele>347.0</ele><time>2026-04-18T13:24:01.548Z</time></trkpt><trkpt lat="44.034863" lon="12.110229"><ele>346.0</ele><time>2026-04-18T13:24:02.551Z</time></trkpt><trkpt lat="44.0348304" lon="12.1101507"><ele>345.0</ele><time>2026-04-18T13:24:03.552Z</time></trkpt><trkpt lat="44.0347581" lon="12.1100972"><ele>344.0</ele><time>2026-04-18T13:24:05.549Z</time></trkpt><trkpt lat="44.0347045" lon="12.1101807"><ele>343.0</ele><time>2026-04-18T13:24:07.548Z</time></trkpt><trkpt lat="44.034666" lon="12.1102645"><ele>342.0</ele><time>2026-04-18T13:24:08.546Z</time></trkpt><trkpt lat="44.0346103" lon="12.1103603"><ele>341.0</ele><time>2026-04-18T13:24:09.545Z</time></trkpt><trkpt lat="44.034546" lon="12.1104589"><ele>341.0</ele><time>2026-04-18T13:24:10.545Z</time></trkpt><trkpt lat="44.0344861" lon="12.1105579"><ele>341.0</ele><time>2026-04-18T13:24:11.546Z</time></trkpt><trkpt lat="44.0344254" lon="12.1106585"><ele>341.0</ele><time>2026-04-18T13:24:12.545Z</time></trkpt><trkpt lat="44.0343603" lon="12.1107561"><ele>341.0</ele><time>2026-04-18T13:24:13.547Z</time></trkpt><trkpt lat="44.0342949" lon="12.1108484"><ele>341.0</ele><time>2026-04-18T13:24:14.555Z</time></trkpt><trkpt lat="44.0342297" lon="12.1109383"><ele>340.1666666666667</ele><time>2026-04-18T13:24:15.554Z</time></trkpt><trkpt lat="44.0341683" lon="12.1110308"><ele>339.33333333333337</ele><time>2026-04-18T13:24:16.551Z</time></trkpt><trkpt lat="44.0341096" lon="12.1111228"><ele>338.5</ele><time>2026-04-18T13:24:17.548Z</time></trkpt><trkpt lat="44.0340541" lon="12.1112165"><ele>337.6666666666667</ele><time>2026-04-18T13:24:18.55Z</time></trkpt><trkpt lat="44.0340045" lon="12.1113115"><ele>336.8333333333333</ele><time>2026-04-18T13:24:19.549Z</time></trkpt><trkpt lat="44.0339643" lon="12.1114185"><ele>336.0</ele><time>2026-04-18T13:24:20.543Z</time></trkpt><trkpt lat="44.0339331" lon="12.1115414"><ele>332.40000000000003</ele><time>2026-04-18T13:24:21.547Z</time></trkpt><trkpt lat="44.0339067" lon="12.1116804"><ele>328.8</ele><time>2026-04-18T13:24:22.55Z</time></trkpt><trkpt lat="44.0338855" lon="12.1118156"><ele>325.20000000000005</ele><time>2026-04-18T13:24:23.544Z</time></trkpt><trkpt lat="44.0338654" lon="12.1119416"><ele>321.6</ele><time>2026-04-18T13:24:24.549Z</time></trkpt><trkpt lat="44.0338445" lon="12.1120669"><ele>318.0</ele><time>2026-04-18T13:24:25.544Z</time></trkpt><trkpt lat="44.0338211" lon="12.1121865"><ele>318.0</ele><time>2026-04-18T13:24:26.546Z</time></trkpt><trkpt lat="44.0337985" lon="12.112302"><ele>318.0</ele><time>2026-04-18T13:24:27.557Z</time></trkpt><trkpt lat="44.033777" lon="12.1124183"><ele>318.0</ele><time>2026-04-18T13:24:28.551Z</time></trkpt><trkpt lat="44.0337566" lon="12.1125347"><ele>318.0</ele><time>2026-04-18T13:24:29.549Z</time></trkpt><trkpt lat="44.0337392" lon="12.1126495"><ele>318.0</ele><time>2026-04-18T13:24:30.551Z</time></trkpt><trkpt lat="44.0337265" lon="12.1127483"><ele>318.0</ele><time>2026-04-18T13:24:31.548Z</time></trkpt><trkpt lat="44.0337109" lon="12.1128359"><ele>317.6</ele><time>2026-04-18T13:24:32.548Z</time></trkpt><trkpt lat="44.0336597" lon="12.1129692"><ele>317.20000000000005</ele><time>2026-04-18T13:24:34.546Z</time></trkpt><trkpt lat="44.0335506" lon="12.1130329"><ele>316.8</ele><time>2026-04-18T13:24:36.555Z</time></trkpt><trkpt lat="44.0334776" lon="12.1130337"><ele>316.40000000000003</ele><time>2026-04-18T13:24:37.547Z</time></trkpt><trkpt lat="44.0333965" lon="12.11301"><ele>316.0</ele><time>2026-04-18T13:24:38.55Z</time></trkpt><trkpt lat="44.0333132" lon="12.112975"><ele>313.16666666666663</ele><time>2026-04-18T13:24:39.546Z</time></trkpt><trkpt lat="44.03323" lon="12.1129467"><ele>310.3333333333333</ele><time>2026-04-18T13:24:40.549Z</time></trkpt><trkpt lat="44.0331536" lon="12.1129209"><ele>307.5</ele><time>2026-04-18T13:24:41.551Z</time></trkpt><trkpt lat="44.033086" lon="12.1129013"><ele>304.6666666666667</ele><time>2026-04-18T13:24:42.548Z</time></trkpt><trkpt lat="44.0329713" lon="12.1128801"><ele>301.83333333333337</ele><time>2026-04-18T13:24:44.551Z</time></trkpt><trkpt lat="44.0328886" lon="12.1129457"><ele>299.0</ele><time>2026-04-18T13:24:46.557Z</time></trkpt><trkpt lat="44.0328495" lon="12.1130931"><ele>299.0</ele><time>2026-04-18T13:24:48.55Z</time></trkpt><trkpt lat="44.0328487" lon="12.1131975"><ele>299.0</ele><time>2026-04-18T13:24:49.551Z</time></trkpt><trkpt lat="44.0328499" lon="12.1133196"><ele>299.0</ele><time>2026-04-18T13:24:50.543Z</time></trkpt><trkpt lat="44.03284" lon="12.1134546"><ele>299.0</ele><time>2026-04-18T13:24:51.552Z</time></trkpt><trkpt lat="44.0328121" lon="12.1135876"><ele>299.0</ele><time>2026-04-18T13:24:52.547Z</time></trkpt><trkpt lat="44.032765" lon="12.1137211"><ele>298.25</ele><time>2026-04-18T13:24:53.546Z</time></trkpt><trkpt lat="44.0327096" lon="12.113876"><ele>297.5</ele><time>2026-04-18T13:24:54.549Z</time></trkpt><trkpt lat="44.0326486" lon="12.1140295"><ele>296.75</ele><time>2026-04-18T13:24:55.549Z</time></trkpt><trkpt lat="44.0325942" lon="12.1141802"><ele>296.0</ele><time>2026-04-18T13:24:56.55Z</time></trkpt><trkpt lat="44.0325386" lon="12.114331"><ele>295.5</ele><time>2026-04-18T13:24:57.551Z</time></trkpt><trkpt lat="44.0324858" lon="12.1144833"><ele>295.0</ele><time>2026-04-18T13:24:58.548Z</time></trkpt><trkpt lat="44.0324335" lon="12.1146334"><ele>294.5</ele><time>2026-04-18T13:24:59.55Z</time></trkpt><trkpt lat="44.0323717" lon="12.1147857"><ele>294.0</ele><time>2026-04-18T13:25:00.55Z</time></trkpt><trkpt lat="44.0322949" lon="12.1149306"><ele>290.0</ele><time>2026-04-18T13:25:01.553Z</time></trkpt><trkpt lat="44.0322118" lon="12.1150633"><ele>286.0</ele><time>2026-04-18T13:25:02.545Z</time></trkpt><trkpt lat="44.0321235" lon="12.1151804"><ele>282.0</ele><time>2026-04-18T13:25:03.548Z</time></trkpt><trkpt lat="44.032037" lon="12.1152933"><ele>278.0</ele><time>2026-04-18T13:25:04.545Z</time></trkpt><trkpt lat="44.0319618" lon="12.1154206"><ele>278.0</ele><time>2026-04-18T13:25:05.548Z</time></trkpt><trkpt lat="44.0319011" lon="12.1155696"><ele>278.0</ele><time>2026-04-18T13:25:06.545Z</time></trkpt><trkpt lat="44.0318539" lon="12.115726"><ele>278.0</ele><time>2026-04-18T13:25:07.549Z</time></trkpt><trkpt lat="44.0318137" lon="12.1159047"><ele>278.0</ele><time>2026-04-18T13:25:08.553Z</time></trkpt><trkpt lat="44.0317704" lon="12.1160951"><ele>277.6666666666667</ele><time>2026-04-18T13:25:09.548Z</time></trkpt><trkpt lat="44.0317239" lon="12.1162972"><ele>277.3333333333333</ele><time>2026-04-18T13:25:10.549Z</time></trkpt><trkpt lat="44.0316805" lon="12.1164967"><ele>277.0</ele><time>2026-04-18T13:25:11.546Z</time></trkpt><trkpt lat="44.031638" lon="12.1166957"><ele>272.0</ele><time>2026-04-18T13:25:12.546Z</time></trkpt><trkpt lat="44.031593" lon="12.1168988"><ele>267.0</ele><time>2026-04-18T13:25:13.553Z</time></trkpt><trkpt lat="44.0315461" lon="12.1171049"><ele>262.0</ele><time>2026-04-18T13:25:14.547Z</time></trkpt><trkpt lat="44.0315026" lon="12.1173055"><ele>263.5</ele><time>2026-04-18T13:25:15.546Z</time></trkpt><trkpt lat="44.0314572" lon="12.1174984"><ele>265.0</ele><time>2026-04-18T13:25:16.55Z</time></trkpt><trkpt lat="44.0314061" lon="12.1176856"><ele>266.5</ele><time>2026-04-18T13:25:17.548Z</time></trkpt><trkpt lat="44.0313471" lon="12.1178713"><ele>268.0</ele><time>2026-04-18T13:25:18.549Z</time></trkpt><trkpt lat="44.0312801" lon="12.1180498"><ele>268.0</ele><time>2026-04-18T13:25:19.553Z</time></trkpt><trkpt lat="44.0312042" lon="12.1182327"><ele>268.0</ele><time>2026-04-18T13:25:20.547Z</time></trkpt><trkpt lat="44.0311215" lon="12.1184107"><ele>268.0</ele><time>2026-04-18T13:25:21.551Z</time></trkpt><trkpt lat="44.0310357" lon="12.1185927"><ele>269.3333333333333</ele><time>2026-04-18T13:25:22.553Z</time></trkpt><trkpt lat="44.0309532" lon="12.1187746"><ele>270.6666666666667</ele><time>2026-04-18T13:25:23.54Z</time></trkpt><trkpt lat="44.0308674" lon="12.1189536"><ele>272.0</ele><time>2026-04-18T13:25:24.548Z</time></trkpt><trkpt lat="44.0307881" lon="12.1191198"><ele>269.0</ele><time>2026-04-18T13:25:25.557Z</time></trkpt><trkpt lat="44.0307141" lon="12.1192749"><ele>266.0</ele><time>2026-04-18T13:25:26.545Z</time></trkpt><trkpt lat="44.0306507" lon="12.1194112"><ele>263.0</ele><time>2026-04-18T13:25:27.553Z</time></trkpt><trkpt lat="44.0305914" lon="12.1195424"><ele>260.0</ele><time>2026-04-18T13:25:28.555Z</time></trkpt><trkpt lat="44.030536" lon="12.1196613"><ele>260.0</ele><time>2026-04-18T13:25:29.55Z</time></trkpt><trkpt lat="44.0304826" lon="12.1197668"><ele>260.0</ele><time>2026-04-18T13:25:30.544Z</time></trkpt><trkpt lat="44.0304232" lon="12.1198594"><ele>260.0</ele><time>2026-04-18T13:25:31.549Z</time></trkpt><trkpt lat="44.0303546" lon="12.1199267"><ele>260.0</ele><time>2026-04-18T13:25:32.546Z</time></trkpt><trkpt lat="44.0302772" lon="12.1199572"><ele>260.0</ele><time>2026-04-18T13:25:33.545Z</time></trkpt><trkpt lat="44.030194" lon="12.1199788"><ele>260.0</ele><time>2026-04-18T13:25:34.553Z</time></trkpt><trkpt lat="44.0301117" lon="12.1200037"><ele>259.5</ele><time>2026-04-18T13:25:35.547Z</time></trkpt><trkpt lat="44.03004" lon="12.1200447"><ele>259.0</ele><time>2026-04-18T13:25:36.551Z</time></trkpt><trkpt lat="44.0299758" lon="12.1201054"><ele>258.5</ele><time>2026-04-18T13:25:37.556Z</time></trkpt><trkpt lat="44.0299201" lon="12.1201784"><ele>258.0</ele><time>2026-04-18T13:25:38.549Z</time></trkpt><trkpt lat="44.0298808" lon="12.1202673"><ele>257.5</ele><time>2026-04-18T13:25:39.546Z</time></trkpt><trkpt lat="44.0298574" lon="12.1203787"><ele>257.0</ele><time>2026-04-18T13:25:40.553Z</time></trkpt><trkpt lat="44.0298464" lon="12.1205055"><ele>257.0</ele><time>2026-04-18T13:25:41.556Z</time></trkpt><trkpt lat="44.0298502" lon="12.1206248"><ele>257.0</ele><time>2026-04-18T13:25:42.549Z</time></trkpt><trkpt lat="44.0298712" lon="12.1207389"><ele>257.0</ele><time>2026-04-18T13:25:43.555Z</time></trkpt><trkpt lat="44.0299034" lon="12.120848"><ele>257.0</ele><time>2026-04-18T13:25:44.553Z</time></trkpt><trkpt lat="44.0299506" lon="12.1209876"><ele>257.0</ele><time>2026-04-18T13:25:45.555Z</time></trkpt><trkpt lat="44.0299987" lon="12.1211223"><ele>257.6</ele><time>2026-04-18T13:25:46.549Z</time></trkpt><trkpt lat="44.0300501" lon="12.1212516"><ele>258.2</ele><time>2026-04-18T13:25:47.557Z</time></trkpt><trkpt lat="44.0300978" lon="12.1213798"><ele>258.8</ele><time>2026-04-18T13:25:48.55Z</time></trkpt><trkpt lat="44.0301439" lon="12.1215071"><ele>259.4</ele><time>2026-04-18T13:25:49.557Z</time></trkpt><trkpt lat="44.0301875" lon="12.1216347"><ele>260.0</ele><time>2026-04-18T13:25:50.545Z</time></trkpt><trkpt lat="44.0302357" lon="12.1217559"><ele>260.0</ele><time>2026-04-18T13:25:51.547Z</time></trkpt><trkpt lat="44.0302869" lon="12.1218682"><ele>260.0</ele><time>2026-04-18T13:25:52.545Z</time></trkpt><trkpt lat="44.0303402" lon="12.1219872"><ele>260.0</ele><time>2026-04-18T13:25:53.546Z</time></trkpt><trkpt lat="44.030393" lon="12.1221032"><ele>260.0</ele><time>2026-04-18T13:25:54.55Z</time></trkpt><trkpt lat="44.0304423" lon="12.1222164"><ele>260.0</ele><time>2026-04-18T13:25:55.553Z</time></trkpt><trkpt lat="44.0304857" lon="12.1223303"><ele>258.0</ele><time>2026-04-18T13:25:56.559Z</time></trkpt><trkpt lat="44.0305257" lon="12.122435"><ele>256.0</ele><time>2026-04-18T13:25:57.551Z</time></trkpt><trkpt lat="44.0305587" lon="12.1225426"><ele>254.0</ele><time>2026-04-18T13:25:58.55Z</time></trkpt><trkpt lat="44.0305745" lon="12.1226706"><ele>252.0</ele><time>2026-04-18T13:25:59.549Z</time></trkpt><trkpt lat="44.0305726" lon="12.1228189"><ele>250.0</ele><time>2026-04-18T13:26:00.551Z</time></trkpt><trkpt lat="44.0305599" lon="12.1229695"><ele>250.0</ele><time>2026-04-18T13:26:01.542Z</time></trkpt><trkpt lat="44.0305516" lon="12.123119"><ele>250.0</ele><time>2026-04-18T13:26:02.553Z</time></trkpt><trkpt lat="44.0305431" lon="12.1232545"><ele>250.0</ele><time>2026-04-18T13:26:03.545Z</time></trkpt><trkpt lat="44.0305344" lon="12.123381"><ele>250.0</ele><time>2026-04-18T13:26:04.545Z</time></trkpt><trkpt lat="44.0305108" lon="12.1234972"><ele>250.0</ele><time>2026-04-18T13:26:05.547Z</time></trkpt><trkpt lat="44.0304641" lon="12.1235954"><ele>248.0</ele><time>2026-04-18T13:26:06.547Z</time></trkpt><trkpt lat="44.0303915" lon="12.1236594"><ele>246.0</ele><time>2026-04-18T13:26:07.552Z</time></trkpt><trkpt lat="44.0303048" lon="12.1236879"><ele>244.0</ele><time>2026-04-18T13:26:08.544Z</time></trkpt><trkpt lat="44.0302113" lon="12.1236945"><ele>242.0</ele><time>2026-04-18T13:26:09.552Z</time></trkpt><trkpt lat="44.0301202" lon="12.1236622"><ele>240.0</ele><time>2026-04-18T13:26:10.551Z</time></trkpt><trkpt lat="44.0300297" lon="12.1236124"><ele>237.4</ele><time>2026-04-18T13:26:11.546Z</time></trkpt><trkpt lat="44.0299287" lon="12.1235468"><ele>234.8</ele><time>2026-04-18T13:26:12.544Z</time></trkpt><trkpt lat="44.0298267" lon="12.12347"><ele>232.2</ele><time>2026-04-18T13:26:13.55Z</time></trkpt><trkpt lat="44.0297263" lon="12.1233883"><ele>229.6</ele><time>2026-04-18T13:26:14.561Z</time></trkpt><trkpt lat="44.0296348" lon="12.1233175"><ele>227.0</ele><time>2026-04-18T13:26:15.546Z</time></trkpt><trkpt lat="44.0295558" lon="12.1232549"><ele>227.00000000000003</ele><time>2026-04-18T13:26:16.553Z</time></trkpt><trkpt lat="44.0294855" lon="12.1232157"><ele>227.0</ele><time>2026-04-18T13:26:17.549Z</time></trkpt><trkpt lat="44.0294211" lon="12.1232107"><ele>227.0</ele><time>2026-04-18T13:26:18.546Z</time></trkpt><trkpt lat="44.0293569" lon="12.1233087"><ele>227.0</ele><time>2026-04-18T13:26:20.548Z</time></trkpt><trkpt lat="44.0293512" lon="12.1233993"><ele>227.00000000000003</ele><time>2026-04-18T13:26:21.547Z</time></trkpt><trkpt lat="44.0293592" lon="12.1235115"><ele>227.0</ele><time>2026-04-18T13:26:22.55Z</time></trkpt><trkpt lat="44.0293721" lon="12.1236473"><ele>227.0</ele><time>2026-04-18T13:26:23.55Z</time></trkpt><trkpt lat="44.0293896" lon="12.1238056"><ele>227.0</ele><time>2026-04-18T13:26:24.556Z</time></trkpt><trkpt lat="44.0294042" lon="12.1239742"><ele>227.0</ele><time>2026-04-18T13:26:25.548Z</time></trkpt><trkpt lat="44.0294222" lon="12.1241309"><ele>227.0</ele><time>2026-04-18T13:26:26.551Z</time></trkpt><trkpt lat="44.029436" lon="12.1242746"><ele>225.39999999999998</ele><time>2026-04-18T13:26:27.552Z</time></trkpt><trkpt lat="44.0294486" lon="12.1244063"><ele>223.79999999999998</ele><time>2026-04-18T13:26:28.551Z</time></trkpt><trkpt lat="44.0294643" lon="12.1245323"><ele>222.2</ele><time>2026-04-18T13:26:29.547Z</time></trkpt><trkpt lat="44.029486" lon="12.1246524"><ele>220.6</ele><time>2026-04-18T13:26:30.547Z</time></trkpt><trkpt lat="44.0295247" lon="12.1247684"><ele>219.0</ele><time>2026-04-18T13:26:31.55Z</time></trkpt><trkpt lat="44.0295803" lon="12.1248875"><ele>217.66666666666666</ele><time>2026-04-18T13:26:32.55Z</time></trkpt><trkpt lat="44.0296391" lon="12.1250113"><ele>216.33333333333331</ele><time>2026-04-18T13:26:33.549Z</time></trkpt><trkpt lat="44.0296909" lon="12.1251243"><ele>215.0</ele><time>2026-04-18T13:26:34.546Z</time></trkpt><trkpt lat="44.0297337" lon="12.1252346"><ele>213.66666666666666</ele><time>2026-04-18T13:26:35.547Z</time></trkpt><trkpt lat="44.0297646" lon="12.1253365"><ele>212.33333333333331</ele><time>2026-04-18T13:26:36.549Z</time></trkpt><trkpt lat="44.0297763" lon="12.1254278"><ele>211.0</ele><time>2026-04-18T13:26:37.552Z</time></trkpt><trkpt lat="44.0297318" lon="12.1255777"><ele>210.99999999999997</ele><time>2026-04-18T13:26:39.556Z</time></trkpt><trkpt lat="44.0296756" lon="12.1256402"><ele>211.0</ele><time>2026-04-18T13:26:40.547Z</time></trkpt><trkpt lat="44.0295938" lon="12.125678"><ele>211.0</ele><time>2026-04-18T13:26:41.551Z</time></trkpt><trkpt lat="44.0295166" lon="12.1256791"><ele>211.0</ele><time>2026-04-18T13:26:42.552Z</time></trkpt><trkpt lat="44.0294399" lon="12.1256376"><ele>210.99999999999997</ele><time>2026-04-18T13:26:43.546Z</time></trkpt><trkpt lat="44.0293748" lon="12.1255817"><ele>211.0</ele><time>2026-04-18T13:26:44.546Z</time></trkpt><trkpt lat="44.029274" lon="12.1256049"><ele>210.99999999999997</ele><time>2026-04-18T13:26:46.551Z</time></trkpt><trkpt lat="44.0292482" lon="12.1256852"><ele>211.0</ele><time>2026-04-18T13:26:47.543Z</time></trkpt><trkpt lat="44.0293164" lon="12.1258275"><ele>211.0</ele><time>2026-04-18T13:26:49.554Z</time></trkpt><trkpt lat="44.0293729" lon="12.1258933"><ele>211.0</ele><time>2026-04-18T13:26:50.548Z</time></trkpt><trkpt lat="44.0293913" lon="12.1260427"><ele>210.99999999999997</ele><time>2026-04-18T13:26:52.553Z</time></trkpt><trkpt lat="44.029349" lon="12.1261213"><ele>211.0</ele><time>2026-04-18T13:26:53.55Z</time></trkpt><trkpt lat="44.029283" lon="12.1261411"><ele>209.0</ele><time>2026-04-18T13:26:54.55Z</time></trkpt><trkpt lat="44.0291985" lon="12.1261341"><ele>207.0</ele><time>2026-04-18T13:26:55.547Z</time></trkpt><trkpt lat="44.0290877" lon="12.1261244"><ele>205.0</ele><time>2026-04-18T13:26:56.55Z</time></trkpt><trkpt lat="44.0289758" lon="12.126109"><ele>203.0</ele><time>2026-04-18T13:26:57.555Z</time></trkpt><trkpt lat="44.0288612" lon="12.1260979"><ele>201.0</ele><time>2026-04-18T13:26:58.554Z</time></trkpt><trkpt lat="44.0287462" lon="12.1260805"><ele>197.75</ele><time>2026-04-18T13:26:59.55Z</time></trkpt><trkpt lat="44.0286342" lon="12.1260507"><ele>194.5</ele><time>2026-04-18T13:27:00.551Z</time></trkpt><trkpt lat="44.0285235" lon="12.1260156"><ele>191.25</ele><time>2026-04-18T13:27:01.55Z</time></trkpt><trkpt lat="44.0284036" lon="12.1259664"><ele>188.0</ele><time>2026-04-18T13:27:02.552Z</time></trkpt><trkpt lat="44.0282854" lon="12.1259168"><ele>186.2</ele><time>2026-04-18T13:27:03.547Z</time></trkpt><trkpt lat="44.0281714" lon="12.125869"><ele>184.4</ele><time>2026-04-18T13:27:04.546Z</time></trkpt><trkpt lat="44.0280653" lon="12.1258319"><ele>182.6</ele><time>2026-04-18T13:27:05.55Z</time></trkpt><trkpt lat="44.0279642" lon="12.1257972"><ele>180.79999999999998</ele><time>2026-04-18T13:27:06.543Z</time></trkpt><trkpt lat="44.0278641" lon="12.1257704"><ele>179.0</ele><time>2026-04-18T13:27:07.549Z</time></trkpt><trkpt lat="44.0277566" lon="12.125768"><ele>179.0</ele><time>2026-04-18T13:27:08.55Z</time></trkpt><trkpt lat="44.027652" lon="12.1257887"><ele>179.0</ele><time>2026-04-18T13:27:09.546Z</time></trkpt><trkpt lat="44.0275515" lon="12.1258349"><ele>179.0</ele><time>2026-04-18T13:27:10.556Z</time></trkpt><trkpt lat="44.027457" lon="12.125905"><ele>179.0</ele><time>2026-04-18T13:27:11.547Z</time></trkpt><trkpt lat="44.0273664" lon="12.1260046"><ele>179.0</ele><time>2026-04-18T13:27:12.549Z</time></trkpt><trkpt lat="44.0272736" lon="12.1261238"><ele>175.5</ele><time>2026-04-18T13:27:13.55Z</time></trkpt><trkpt lat="44.0271883" lon="12.1262595"><ele>172.0</ele><time>2026-04-18T13:27:14.545Z</time></trkpt><trkpt lat="44.0270995" lon="12.1263733"><ele>168.5</ele><time>2026-04-18T13:27:15.554Z</time></trkpt><trkpt lat="44.0270092" lon="12.1264687"><ele>165.0</ele><time>2026-04-18T13:27:16.56Z</time></trkpt><trkpt lat="44.0269068" lon="12.1265383"><ele>165.8</ele><time>2026-04-18T13:27:17.55Z</time></trkpt><trkpt lat="44.0267959" lon="12.126585"><ele>166.6</ele><time>2026-04-18T13:27:18.551Z</time></trkpt><trkpt lat="44.0266895" lon="12.1266197"><ele>167.39999999999998</ele><time>2026-04-18T13:27:19.553Z</time></trkpt><trkpt lat="44.0265832" lon="12.1266415"><ele>168.2</ele><time>2026-04-18T13:27:20.552Z</time></trkpt><trkpt lat="44.0264834" lon="12.1266624"><ele>169.0</ele><time>2026-04-18T13:27:21.552Z</time></trkpt><trkpt lat="44.0264041" lon="12.1267042"><ele>165.79999999999998</ele><time>2026-04-18T13:27:22.555Z</time></trkpt><trkpt lat="44.0263476" lon="12.1267772"><ele>162.6</ele><time>2026-04-18T13:27:23.55Z</time></trkpt><trkpt lat="44.0263162" lon="12.1268836"><ele>159.4</ele><time>2026-04-18T13:27:24.558Z</time></trkpt><trkpt lat="44.0263163" lon="12.1270161"><ele>156.2</ele><time>2026-04-18T13:27:25.544Z</time></trkpt><trkpt lat="44.0263505" lon="12.1271634"><ele>153.0</ele><time>2026-04-18T13:27:26.553Z</time></trkpt><trkpt lat="44.0264059" lon="12.1273248"><ele>152.0</ele><time>2026-04-18T13:27:27.542Z</time></trkpt><trkpt lat="44.0264639" lon="12.1274827"><ele>151.0</ele><time>2026-04-18T13:27:28.548Z</time></trkpt><trkpt lat="44.0265148" lon="12.1276204"><ele>150.0</ele><time>2026-04-18T13:27:29.548Z</time></trkpt><trkpt lat="44.0265676" lon="12.1277514"><ele>149.0</ele><time>2026-04-18T13:27:30.55Z</time></trkpt><trkpt lat="44.0266374" lon="12.1278751"><ele>149.5</ele><time>2026-04-18T13:27:31.553Z</time></trkpt><trkpt lat="44.0267193" lon="12.1279961"><ele>150.0</ele><time>2026-04-18T13:27:32.556Z</time></trkpt><trkpt lat="44.0268103" lon="12.1281231"><ele>150.5</ele><time>2026-04-18T13:27:33.545Z</time></trkpt><trkpt lat="44.0269001" lon="12.1282505"><ele>151.0</ele><time>2026-04-18T13:27:34.555Z</time></trkpt><trkpt lat="44.026984" lon="12.128382"><ele>151.0</ele><time>2026-04-18T13:27:35.547Z</time></trkpt><trkpt lat="44.0270717" lon="12.1285112"><ele>151.0</ele><time>2026-04-18T13:27:36.55Z</time></trkpt><trkpt lat="44.0271726" lon="12.1286463"><ele>151.0</ele><time>2026-04-18T13:27:37.543Z</time></trkpt><trkpt lat="44.0272853" lon="12.128776"><ele>151.0</ele><time>2026-04-18T13:27:38.542Z</time></trkpt><trkpt lat="44.0274009" lon="12.1288943"><ele>151.5</ele><time>2026-04-18T13:27:39.552Z</time></trkpt><trkpt lat="44.0275149" lon="12.1289996"><ele>152.0</ele><time>2026-04-18T13:27:40.555Z</time></trkpt><trkpt lat="44.02763" lon="12.1290938"><ele>152.5</ele><time>2026-04-18T13:27:41.549Z</time></trkpt><trkpt lat="44.0277505" lon="12.1291542"><ele>153.0</ele><time>2026-04-18T13:27:42.548Z</time></trkpt><trkpt lat="44.0278683" lon="12.1291812"><ele>150.66666666666666</ele><time>2026-04-18T13:27:43.556Z</time></trkpt><trkpt lat="44.0279739" lon="12.1291923"><ele>148.33333333333334</ele><time>2026-04-18T13:27:44.547Z</time></trkpt><trkpt lat="44.0280597" lon="12.1292205"><ele>146.0</ele><time>2026-04-18T13:27:45.545Z</time></trkpt><trkpt lat="44.0281291" lon="12.1292707"><ele>143.66666666666669</ele><time>2026-04-18T13:27:46.55Z</time></trkpt><trkpt lat="44.0281713" lon="12.1293463"><ele>141.33333333333334</ele><time>2026-04-18T13:27:47.549Z</time></trkpt><trkpt lat="44.028177" lon="12.1294428"><ele>139.0</ele><time>2026-04-18T13:27:48.553Z</time></trkpt><trkpt lat="44.0281521" lon="12.1295324"><ele>139.0</ele><time>2026-04-18T13:27:49.548Z</time></trkpt><trkpt lat="44.0281002" lon="12.1296146"><ele>139.0</ele><time>2026-04-18T13:27:50.555Z</time></trkpt><trkpt lat="44.0280318" lon="12.1296814"><ele>139.0</ele><time>2026-04-18T13:27:51.547Z</time></trkpt><trkpt lat="44.0279522" lon="12.1297197"><ele>139.0</ele><time>2026-04-18T13:27:52.554Z</time></trkpt><trkpt lat="44.0278798" lon="12.1297657"><ele>139.0</ele><time>2026-04-18T13:27:53.551Z</time></trkpt><trkpt lat="44.0278209" lon="12.129813"><ele>139.0</ele><time>2026-04-18T13:27:54.552Z</time></trkpt><trkpt lat="44.0278266" lon="12.1299743"><ele>137.16666666666669</ele><time>2026-04-18T13:27:56.557Z</time></trkpt><trkpt lat="44.027881" lon="12.1300461"><ele>135.33333333333334</ele><time>2026-04-18T13:27:57.549Z</time></trkpt><trkpt lat="44.0279543" lon="12.1300967"><ele>133.5</ele><time>2026-04-18T13:27:58.549Z</time></trkpt><trkpt lat="44.028027" lon="12.1301498"><ele>131.66666666666666</ele><time>2026-04-18T13:27:59.556Z</time></trkpt><trkpt lat="44.0280789" lon="12.1302193"><ele>129.83333333333331</ele><time>2026-04-18T13:28:00.545Z</time></trkpt><trkpt lat="44.028074" lon="12.1303696"><ele>128.0</ele><time>2026-04-18T13:28:02.551Z</time></trkpt><trkpt lat="44.0279904" lon="12.1304659"><ele>128.0</ele><time>2026-04-18T13:28:04.551Z</time></trkpt><trkpt lat="44.0279282" lon="12.1305005"><ele>128.0</ele><time>2026-04-18T13:28:05.547Z</time></trkpt><trkpt lat="44.0278502" lon="12.1305385"><ele>128.0</ele><time>2026-04-18T13:28:06.55Z</time></trkpt><trkpt lat="44.0277579" lon="12.1305747"><ele>128.0</ele><time>2026-04-18T13:28:07.555Z</time></trkpt><trkpt lat="44.0276538" lon="12.1306072"><ele>128.0</ele><time>2026-04-18T13:28:08.553Z</time></trkpt><trkpt lat="44.0275377" lon="12.1306183"><ele>127.2</ele><time>2026-04-18T13:28:09.549Z</time></trkpt><trkpt lat="44.0274168" lon="12.1306195"><ele>126.4</ele><time>2026-04-18T13:28:10.555Z</time></trkpt><trkpt lat="44.027307" lon="12.1306137"><ele>125.60000000000001</ele><time>2026-04-18T13:28:11.549Z</time></trkpt><trkpt lat="44.0272041" lon="12.1306089"><ele>124.80000000000001</ele><time>2026-04-18T13:28:12.549Z</time></trkpt><trkpt lat="44.0271133" lon="12.1305983"><ele>124.0</ele><time>2026-04-18T13:28:13.556Z</time></trkpt><trkpt lat="44.027026" lon="12.1305882"><ele>124.00000000000001</ele><time>2026-04-18T13:28:14.558Z</time></trkpt><trkpt lat="44.0269415" lon="12.1305717"><ele>124.0</ele><time>2026-04-18T13:28:15.547Z</time></trkpt><trkpt lat="44.0268637" lon="12.1305452"><ele>124.0</ele><time>2026-04-18T13:28:16.549Z</time></trkpt><trkpt lat="44.0267925" lon="12.1305198"><ele>124.0</ele><time>2026-04-18T13:28:17.555Z</time></trkpt><trkpt lat="44.026724" lon="12.1305079"><ele>124.00000000000001</ele><time>2026-04-18T13:28:18.551Z</time></trkpt><trkpt lat="44.0266227" lon="12.1305002"><ele>124.0</ele><time>2026-04-18T13:28:20.557Z</time></trkpt><trkpt lat="44.0265446" lon="12.1305251"><ele>122.80000000000001</ele><time>2026-04-18T13:28:22.556Z</time></trkpt><trkpt lat="44.0264863" lon="12.1306472"><ele>121.60000000000001</ele><time>2026-04-18T13:28:24.546Z</time></trkpt><trkpt lat="44.0264573" lon="12.1307578"><ele>120.4</ele><time>2026-04-18T13:28:25.546Z</time></trkpt><trkpt lat="44.0264194" lon="12.130885"><ele>119.2</ele><time>2026-04-18T13:28:26.55Z</time></trkpt><trkpt lat="44.0263821" lon="12.1310217"><ele>118.0</ele><time>2026-04-18T13:28:27.545Z</time></trkpt><trkpt lat="44.0263377" lon="12.1311679"><ele>116.5</ele><time>2026-04-18T13:28:28.552Z</time></trkpt><trkpt lat="44.0262925" lon="12.1313305"><ele>115.0</ele><time>2026-04-18T13:28:29.548Z</time></trkpt><trkpt lat="44.0262529" lon="12.1314974"><ele>113.5</ele><time>2026-04-18T13:28:30.548Z</time></trkpt><trkpt lat="44.0262139" lon="12.1316654"><ele>112.0</ele><time>2026-04-18T13:28:31.549Z</time></trkpt><trkpt lat="44.0261715" lon="12.1318387"><ele>111.75</ele><time>2026-04-18T13:28:32.548Z</time></trkpt><trkpt lat="44.0261257" lon="12.1320253"><ele>111.5</ele><time>2026-04-18T13:28:33.55Z</time></trkpt><trkpt lat="44.0260825" lon="12.1322165"><ele>111.25</ele><time>2026-04-18T13:28:34.547Z</time></trkpt><trkpt lat="44.0260384" lon="12.1324026"><ele>111.0</ele><time>2026-04-18T13:28:35.544Z</time></trkpt><trkpt lat="44.0259925" lon="12.1325727"><ele>111.0</ele><time>2026-04-18T13:28:36.554Z</time></trkpt><trkpt lat="44.0259504" lon="12.1327241"><ele>111.0</ele><time>2026-04-18T13:28:37.55Z</time></trkpt><trkpt lat="44.0259113" lon="12.1328783"><ele>111.0</ele><time>2026-04-18T13:28:38.552Z</time></trkpt><trkpt lat="44.0258729" lon="12.1330304"><ele>111.0</ele><time>2026-04-18T13:28:39.55Z</time></trkpt><trkpt lat="44.0258436" lon="12.1331804"><ele>111.75</ele><time>2026-04-18T13:28:40.546Z</time></trkpt><trkpt lat="44.0258286" lon="12.1333242"><ele>112.5</ele><time>2026-04-18T13:28:41.552Z</time></trkpt><trkpt lat="44.0258259" lon="12.1334873"><ele>113.25</ele><time>2026-04-18T13:28:42.551Z</time></trkpt><trkpt lat="44.0258558" lon="12.1336626"><ele>114.0</ele><time>2026-04-18T13:28:43.548Z</time></trkpt><trkpt lat="44.0258988" lon="12.1338384"><ele>114.0</ele><time>2026-04-18T13:28:44.552Z</time></trkpt><trkpt lat="44.0259357" lon="12.134003"><ele>114.0</ele><time>2026-04-18T13:28:45.548Z</time></trkpt><trkpt lat="44.0259736" lon="12.1341455"><ele>114.0</ele><time>2026-04-18T13:28:46.544Z</time></trkpt><trkpt lat="44.0260113" lon="12.1342734"><ele>114.0</ele><time>2026-04-18T13:28:47.553Z</time></trkpt><trkpt lat="44.0260422" lon="12.1343928"><ele>114.0</ele><time>2026-04-18T13:28:48.557Z</time></trkpt><trkpt lat="44.0260615" lon="12.1345014"><ele>115.16666666666667</ele><time>2026-04-18T13:28:49.549Z</time></trkpt><trkpt lat="44.0260731" lon="12.1346101"><ele>116.33333333333334</ele><time>2026-04-18T13:28:50.544Z</time></trkpt><trkpt lat="44.0260808" lon="12.1347137"><ele>117.5</ele><time>2026-04-18T13:28:51.562Z</time></trkpt><trkpt lat="44.0260829" lon="12.1348178"><ele>118.66666666666667</ele><time>2026-04-18T13:28:52.553Z</time></trkpt><trkpt lat="44.026088" lon="12.1349237"><ele>119.83333333333334</ele><time>2026-04-18T13:28:53.544Z</time></trkpt><trkpt lat="44.0260905" lon="12.1350302"><ele>121.0</ele><time>2026-04-18T13:28:54.551Z</time></trkpt><trkpt lat="44.0260924" lon="12.1351374"><ele>121.00000000000001</ele><time>2026-04-18T13:28:55.551Z</time></trkpt><trkpt lat="44.0260879" lon="12.1352379"><ele>121.0</ele><time>2026-04-18T13:28:56.544Z</time></trkpt><trkpt lat="44.0260765" lon="12.1353324"><ele>121.0</ele><time>2026-04-18T13:28:57.546Z</time></trkpt><trkpt lat="44.0260374" lon="12.1354801"><ele>121.0</ele><time>2026-04-18T13:28:59.545Z</time></trkpt><trkpt lat="44.0259753" lon="12.1356169"><ele>121.00000000000001</ele><time>2026-04-18T13:29:01.552Z</time></trkpt><trkpt lat="44.0259372" lon="12.1356882"><ele>121.0</ele><time>2026-04-18T13:29:02.55Z</time></trkpt><trkpt lat="44.0258961" lon="12.1357588"><ele>121.0</ele><time>2026-04-18T13:29:03.555Z</time></trkpt><trkpt lat="44.0258218" lon="12.1358791"><ele>121.0</ele><time>2026-04-18T13:29:05.549Z</time></trkpt><trkpt lat="44.0257812" lon="12.1359937"><ele>121.0</ele><time>2026-04-18T13:29:07.542Z</time></trkpt><trkpt lat="44.0258175" lon="12.136099"><ele>121.0</ele><time>2026-04-18T13:29:09.549Z</time></trkpt><trkpt lat="44.0259047" lon="12.1361605"><ele>121.0</ele><time>2026-04-18T13:29:11.549Z</time></trkpt><trkpt lat="44.0259861" lon="12.1361754"><ele>120.66666666666667</ele><time>2026-04-18T13:29:13.548Z</time></trkpt><trkpt lat="44.026056" lon="12.1361954"><ele>120.33333333333334</ele><time>2026-04-18T13:29:15.547Z</time></trkpt><trkpt lat="44.0261429" lon="12.1362183"><ele>120.0</ele><time>2026-04-18T13:29:18.548Z</time></trkpt><trkpt lat="44.0262324" lon="12.1362641"><ele>119.66666666666666</ele><time>2026-04-18T13:29:20.551Z</time></trkpt><trkpt lat="44.0262968" lon="12.1363067"><ele>119.33333333333333</ele><time>2026-04-18T13:29:23.55Z</time></trkpt><trkpt lat="44.0263763" lon="12.1363583"><ele>119.0</ele><time>2026-04-18T13:29:27.556Z</time></trkpt><trkpt lat="44.0264793" lon="12.1364201"><ele>118.99999999999999</ele><time>2026-04-18T13:29:29.551Z</time></trkpt><trkpt lat="44.0265571" lon="12.1364579"><ele>119.0</ele><time>2026-04-18T13:29:31.552Z</time></trkpt><trkpt lat="44.0266226" lon="12.1365083"><ele>119.0</ele><time>2026-04-18T13:29:34.548Z</time></trkpt><trkpt lat="44.0266866" lon="12.1365784"><ele>119.0</ele><time>2026-04-18T13:29:38.549Z</time></trkpt><trkpt lat="44.0266904" lon="12.1366856"><ele>118.99999999999999</ele><time>2026-04-18T13:29:41.545Z</time></trkpt><trkpt lat="44.0266081" lon="12.1367671"><ele>119.0</ele><time>2026-04-18T13:29:43.558Z</time></trkpt><trkpt lat="44.0264798" lon="12.1367825"><ele>121.6</ele><time>2026-04-18T13:29:45.552Z</time></trkpt><trkpt lat="44.026397" lon="12.1368056"><ele>124.2</ele><time>2026-04-18T13:29:46.554Z</time></trkpt><trkpt lat="44.0263041" lon="12.1368607"><ele>126.79999999999998</ele><time>2026-04-18T13:29:47.549Z</time></trkpt><trkpt lat="44.0262076" lon="12.1369245"><ele>129.4</ele><time>2026-04-18T13:29:48.553Z</time></trkpt><trkpt lat="44.026104" lon="12.1370107"><ele>132.0</ele><time>2026-04-18T13:29:49.556Z</time></trkpt><trkpt lat="44.0259992" lon="12.1371251"><ele>132.0</ele><time>2026-04-18T13:29:50.548Z</time></trkpt><trkpt lat="44.0259" lon="12.1372664"><ele>132.0</ele><time>2026-04-18T13:29:51.554Z</time></trkpt><trkpt lat="44.0258092" lon="12.1374108"><ele>132.0</ele><time>2026-04-18T13:29:52.549Z</time></trkpt><trkpt lat="44.0257115" lon="12.1375337"><ele>132.0</ele><time>2026-04-18T13:29:53.552Z</time></trkpt><trkpt lat="44.0256038" lon="12.1376382"><ele>134.25</ele><time>2026-04-18T13:29:54.549Z</time></trkpt><trkpt lat="44.0254876" lon="12.1377282"><ele>136.5</ele><time>2026-04-18T13:29:55.551Z</time></trkpt><trkpt lat="44.0253714" lon="12.1378179"><ele>138.75</ele><time>2026-04-18T13:29:56.557Z</time></trkpt><trkpt lat="44.0252479" lon="12.1379053"><ele>141.0</ele><time>2026-04-18T13:29:57.562Z</time></trkpt><trkpt lat="44.0251266" lon="12.1379817"><ele>141.0</ele><time>2026-04-18T13:29:58.549Z</time></trkpt><trkpt lat="44.0250006" lon="12.1380576"><ele>141.0</ele><time>2026-04-18T13:29:59.547Z</time></trkpt><trkpt lat="44.0248652" lon="12.1381242"><ele>141.0</ele><time>2026-04-18T13:30:00.551Z</time></trkpt><trkpt lat="44.0247291" lon="12.1381908"><ele>141.0</ele><time>2026-04-18T13:30:01.545Z</time></trkpt><trkpt lat="44.0245911" lon="12.138255"><ele>143.0</ele><time>2026-04-18T13:30:02.552Z</time></trkpt><trkpt lat="44.0244565" lon="12.1383165"><ele>145.0</ele><time>2026-04-18T13:30:03.553Z</time></trkpt><trkpt lat="44.0243273" lon="12.1383734"><ele>147.0</ele><time>2026-04-18T13:30:04.551Z</time></trkpt><trkpt lat="44.0242071" lon="12.138425"><ele>149.0</ele><time>2026-04-18T13:30:05.542Z</time></trkpt><trkpt lat="44.0240947" lon="12.1384763"><ele>149.0</ele><time>2026-04-18T13:30:06.55Z</time></trkpt><trkpt lat="44.0239823" lon="12.1385258"><ele>149.0</ele><time>2026-04-18T13:30:07.55Z</time></trkpt><trkpt lat="44.0238688" lon="12.1385707"><ele>149.0</ele><time>2026-04-18T13:30:08.547Z</time></trkpt><trkpt lat="44.0237514" lon="12.1386054"><ele>149.0</ele><time>2026-04-18T13:30:09.549Z</time></trkpt><trkpt lat="44.0236221" lon="12.1386225"><ele>149.0</ele><time>2026-04-18T13:30:10.547Z</time></trkpt><trkpt lat="44.0234909" lon="12.1386359"><ele>149.0</ele><time>2026-04-18T13:30:11.546Z</time></trkpt><trkpt lat="44.0233634" lon="12.1386506"><ele>149.0</ele><time>2026-04-18T13:30:12.552Z</time></trkpt><trkpt lat="44.0232509" lon="12.1386723"><ele>149.0</ele><time>2026-04-18T13:30:13.557Z</time></trkpt><trkpt lat="44.0231468" lon="12.1387057"><ele>148.8</ele><time>2026-04-18T13:30:14.547Z</time></trkpt><trkpt lat="44.0230565" lon="12.138771"><ele>148.60000000000002</ele><time>2026-04-18T13:30:15.551Z</time></trkpt><trkpt lat="44.0229954" lon="12.1388508"><ele>148.4</ele><time>2026-04-18T13:30:16.553Z</time></trkpt><trkpt lat="44.0229455" lon="12.1389717"><ele>148.20000000000002</ele><time>2026-04-18T13:30:17.549Z</time></trkpt><trkpt lat="44.0228817" lon="12.1390773"><ele>148.0</ele><time>2026-04-18T13:30:18.544Z</time></trkpt><trkpt lat="44.022812" lon="12.1391257"><ele>151.0</ele><time>2026-04-18T13:30:19.551Z</time></trkpt><trkpt lat="44.0227357" lon="12.1391575"><ele>154.0</ele><time>2026-04-18T13:30:20.553Z</time></trkpt><trkpt lat="44.0226226" lon="12.139167"><ele>157.0</ele><time>2026-04-18T13:30:21.553Z</time></trkpt><trkpt lat="44.0224934" lon="12.1391584"><ele>160.0</ele><time>2026-04-18T13:30:22.55Z</time></trkpt><trkpt lat="44.0223713" lon="12.1391614"><ele>163.0</ele><time>2026-04-18T13:30:23.546Z</time></trkpt><trkpt lat="44.0222689" lon="12.1391751"><ele>163.60000000000002</ele><time>2026-04-18T13:30:24.549Z</time></trkpt><trkpt lat="44.022177" lon="12.1391976"><ele>164.20000000000002</ele><time>2026-04-18T13:30:25.549Z</time></trkpt><trkpt lat="44.0220924" lon="12.1392561"><ele>164.8</ele><time>2026-04-18T13:30:26.548Z</time></trkpt><trkpt lat="44.022018" lon="12.1393431"><ele>165.4</ele><time>2026-04-18T13:30:27.548Z</time></trkpt><trkpt lat="44.0219423" lon="12.1394457"><ele>166.0</ele><time>2026-04-18T13:30:28.545Z</time></trkpt><trkpt lat="44.0218655" lon="12.1395682"><ele>166.0</ele><time>2026-04-18T13:30:29.551Z</time></trkpt><trkpt lat="44.0217869" lon="12.1396965"><ele>166.0</ele><time>2026-04-18T13:30:30.55Z</time></trkpt><trkpt lat="44.0217069" lon="12.1398368"><ele>166.0</ele><time>2026-04-18T13:30:31.548Z</time></trkpt><trkpt lat="44.0216249" lon="12.1399786"><ele>166.0</ele><time>2026-04-18T13:30:32.553Z</time></trkpt><trkpt lat="44.0215435" lon="12.1401199"><ele>166.0</ele><time>2026-04-18T13:30:33.547Z</time></trkpt><trkpt lat="44.0214593" lon="12.1402615"><ele>166.0</ele><time>2026-04-18T13:30:34.551Z</time></trkpt><trkpt lat="44.021379" lon="12.1403989"><ele>166.0</ele><time>2026-04-18T13:30:35.553Z</time></trkpt><trkpt lat="44.0212983" lon="12.1405337"><ele>166.0</ele><time>2026-04-18T13:30:36.555Z</time></trkpt><trkpt lat="44.0212163" lon="12.1406623"><ele>169.0</ele><time>2026-04-18T13:30:37.547Z</time></trkpt><trkpt lat="44.0211294" lon="12.1407933"><ele>172.0</ele><time>2026-04-18T13:30:38.559Z</time></trkpt><trkpt lat="44.0210448" lon="12.1409313"><ele>175.0</ele><time>2026-04-18T13:30:39.547Z</time></trkpt><trkpt lat="44.0209565" lon="12.1410738"><ele>178.0</ele><time>2026-04-18T13:30:40.55Z</time></trkpt><trkpt lat="44.0208692" lon="12.1412229"><ele>179.25</ele><time>2026-04-18T13:30:41.552Z</time></trkpt><trkpt lat="44.0207839" lon="12.1413735"><ele>180.5</ele><time>2026-04-18T13:30:42.544Z</time></trkpt><trkpt lat="44.0206988" lon="12.1415232"><ele>181.75</ele><time>2026-04-18T13:30:43.544Z</time></trkpt><trkpt lat="44.020611" lon="12.1416702"><ele>183.0</ele><time>2026-04-18T13:30:44.544Z</time></trkpt><trkpt lat="44.0205173" lon="12.1418085"><ele>185.75</ele><time>2026-04-18T13:30:45.547Z</time></trkpt><trkpt lat="44.0204171" lon="12.1419285"><ele>188.5</ele><time>2026-04-18T13:30:46.547Z</time></trkpt><trkpt lat="44.0203159" lon="12.1420513"><ele>191.25</ele><time>2026-04-18T13:30:47.55Z</time></trkpt><trkpt lat="44.0202102" lon="12.1421759"><ele>194.0</ele><time>2026-04-18T13:30:48.551Z</time></trkpt><trkpt lat="44.0201091" lon="12.1422887"><ele>195.5</ele><time>2026-04-18T13:30:49.543Z</time></trkpt><trkpt lat="44.0200118" lon="12.1423928"><ele>197.0</ele><time>2026-04-18T13:30:50.548Z</time></trkpt><trkpt lat="44.0199133" lon="12.1425038"><ele>198.5</ele><time>2026-04-18T13:30:51.551Z</time></trkpt><trkpt lat="44.0198191" lon="12.1426163"><ele>200.0</ele><time>2026-04-18T13:30:52.551Z</time></trkpt><trkpt lat="44.0197348" lon="12.1427254"><ele>202.0</ele><time>2026-04-18T13:30:53.549Z</time></trkpt><trkpt lat="44.019659" lon="12.1428163"><ele>204.0</ele><time>2026-04-18T13:30:54.543Z</time></trkpt><trkpt lat="44.0195837" lon="12.1428972"><ele>206.0</ele><time>2026-04-18T13:30:55.553Z</time></trkpt><trkpt lat="44.0194977" lon="12.1429865"><ele>208.0</ele><time>2026-04-18T13:30:56.547Z</time></trkpt><trkpt lat="44.0194143" lon="12.1430848"><ele>210.0</ele><time>2026-04-18T13:30:57.55Z</time></trkpt><trkpt lat="44.019348" lon="12.1431796"><ele>211.6</ele><time>2026-04-18T13:30:58.554Z</time></trkpt><trkpt lat="44.0193026" lon="12.1432604"><ele>213.2</ele><time>2026-04-18T13:30:59.55Z</time></trkpt><trkpt lat="44.0192387" lon="12.1434369"><ele>214.8</ele><time>2026-04-18T13:31:01.547Z</time></trkpt><trkpt lat="44.0192075" lon="12.1435405"><ele>216.4</ele><time>2026-04-18T13:31:02.552Z</time></trkpt><trkpt lat="44.0191727" lon="12.1436328"><ele>218.0</ele><time>2026-04-18T13:31:03.548Z</time></trkpt><trkpt lat="44.019108" lon="12.1437281"><ele>219.2</ele><time>2026-04-18T13:31:04.562Z</time></trkpt><trkpt lat="44.0190261" lon="12.1438241"><ele>220.4</ele><time>2026-04-18T13:31:05.548Z</time></trkpt><trkpt lat="44.0189477" lon="12.143916"><ele>221.59999999999997</ele><time>2026-04-18T13:31:06.551Z</time></trkpt><trkpt lat="44.0188735" lon="12.1440084"><ele>222.79999999999998</ele><time>2026-04-18T13:31:07.557Z</time></trkpt><trkpt lat="44.0188019" lon="12.1441075"><ele>224.0</ele><time>2026-04-18T13:31:08.552Z</time></trkpt><trkpt lat="44.0187299" lon="12.1442125"><ele>225.79999999999998</ele><time>2026-04-18T13:31:09.546Z</time></trkpt><trkpt lat="44.0186591" lon="12.1443138"><ele>227.59999999999997</ele><time>2026-04-18T13:31:10.549Z</time></trkpt><trkpt lat="44.0185827" lon="12.1444126"><ele>229.4</ele><time>2026-04-18T13:31:11.546Z</time></trkpt><trkpt lat="44.0185057" lon="12.1445221"><ele>231.2</ele><time>2026-04-18T13:31:12.548Z</time></trkpt><trkpt lat="44.0184271" lon="12.1446302"><ele>233.0</ele><time>2026-04-18T13:31:13.547Z</time></trkpt><trkpt lat="44.0183535" lon="12.144734"><ele>232.83333333333334</ele><time>2026-04-18T13:31:14.557Z</time></trkpt><trkpt lat="44.0182878" lon="12.1448305"><ele>232.66666666666669</ele><time>2026-04-18T13:31:15.558Z</time></trkpt><trkpt lat="44.0182278" lon="12.1449229"><ele>232.5</ele><time>2026-04-18T13:31:16.546Z</time></trkpt><trkpt lat="44.0181671" lon="12.1450126"><ele>232.33333333333331</ele><time>2026-04-18T13:31:17.561Z</time></trkpt><trkpt lat="44.0181094" lon="12.1450972"><ele>232.16666666666666</ele><time>2026-04-18T13:31:18.55Z</time></trkpt><trkpt lat="44.0180533" lon="12.1451785"><ele>232.0</ele><time>2026-04-18T13:31:19.549Z</time></trkpt><trkpt lat="44.0179937" lon="12.1452645"><ele>235.0</ele><time>2026-04-18T13:31:20.547Z</time></trkpt><trkpt lat="44.0179298" lon="12.1453426"><ele>238.0</ele><time>2026-04-18T13:31:21.55Z</time></trkpt><trkpt lat="44.0178581" lon="12.1454308"><ele>241.0</ele><time>2026-04-18T13:31:22.553Z</time></trkpt><trkpt lat="44.0177822" lon="12.1455285"><ele>244.0</ele><time>2026-04-18T13:31:23.545Z</time></trkpt><trkpt lat="44.0177047" lon="12.1456337"><ele>247.0</ele><time>2026-04-18T13:31:24.552Z</time></trkpt><trkpt lat="44.0176146" lon="12.1457482"><ele>248.66666666666666</ele><time>2026-04-18T13:31:25.544Z</time></trkpt><trkpt lat="44.0175283" lon="12.1458578"><ele>250.33333333333331</ele><time>2026-04-18T13:31:26.555Z</time></trkpt><trkpt lat="44.0174593" lon="12.1459401"><ele>252.0</ele><time>2026-04-18T13:31:27.546Z</time></trkpt><trkpt lat="44.0174142" lon="12.1460015"><ele>253.66666666666669</ele><time>2026-04-18T13:31:28.558Z</time></trkpt><trkpt lat="44.0173837" lon="12.146081"><ele>255.33333333333334</ele><time>2026-04-18T13:31:30.552Z</time></trkpt><trkpt lat="44.017434" lon="12.1461383"><ele>257.0</ele><time>2026-04-18T13:31:58.549Z</time></trkpt><trkpt lat="44.0175398" lon="12.1462318"><ele>257.0</ele><time>2026-04-18T13:32:00.551Z</time></trkpt><trkpt lat="44.0176031" lon="12.1463052"><ele>257.0</ele><time>2026-04-18T13:32:01.551Z</time></trkpt><trkpt lat="44.0176759" lon="12.1463911"><ele>257.0</ele><time>2026-04-18T13:32:02.554Z</time></trkpt><trkpt lat="44.0177553" lon="12.1464953"><ele>257.0</ele><time>2026-04-18T13:32:03.547Z</time></trkpt><trkpt lat="44.0178309" lon="12.1466047"><ele>257.0</ele><time>2026-04-18T13:32:04.552Z</time></trkpt><trkpt lat="44.0178916" lon="12.1467185"><ele>257.33333333333337</ele><time>2026-04-18T13:32:05.559Z</time></trkpt><trkpt lat="44.0179364" lon="12.1468312"><ele>257.6666666666667</ele><time>2026-04-18T13:32:06.547Z</time></trkpt><trkpt lat="44.0179661" lon="12.1469326"><ele>258.0</ele><time>2026-04-18T13:32:07.553Z</time></trkpt><trkpt lat="44.0179803" lon="12.147026"><ele>258.3333333333333</ele><time>2026-04-18T13:32:08.545Z</time></trkpt><trkpt lat="44.0179825" lon="12.1471257"><ele>258.66666666666663</ele><time>2026-04-18T13:32:09.546Z</time></trkpt><trkpt lat="44.0179752" lon="12.1472377"><ele>259.0</ele><time>2026-04-18T13:32:10.55Z</time></trkpt><trkpt lat="44.0179704" lon="12.1473526"><ele>257.5</ele><time>2026-04-18T13:32:11.549Z</time></trkpt><trkpt lat="44.0179748" lon="12.1474641"><ele>256.0</ele><time>2026-04-18T13:32:12.555Z</time></trkpt><trkpt lat="44.0179951" lon="12.1475643"><ele>254.5</ele><time>2026-04-18T13:32:13.553Z</time></trkpt><trkpt lat="44.0180255" lon="12.1476587"><ele>253.0</ele><time>2026-04-18T13:32:14.544Z</time></trkpt><trkpt lat="44.0180711" lon="12.1477455"><ele>251.49999999999997</ele><time>2026-04-18T13:32:15.547Z</time></trkpt><trkpt lat="44.0181341" lon="12.1478372"><ele>250.0</ele><time>2026-04-18T13:32:16.548Z</time></trkpt><trkpt lat="44.0182192" lon="12.1479322"><ele>250.0</ele><time>2026-04-18T13:32:17.548Z</time></trkpt><trkpt lat="44.0183119" lon="12.1480289"><ele>250.0</ele><time>2026-04-18T13:32:18.548Z</time></trkpt><trkpt lat="44.0184016" lon="12.1481221"><ele>250.0</ele><time>2026-04-18T13:32:19.551Z</time></trkpt><trkpt lat="44.018486" lon="12.1482067"><ele>250.0</ele><time>2026-04-18T13:32:20.555Z</time></trkpt><trkpt lat="44.0185641" lon="12.1482838"><ele>250.0</ele><time>2026-04-18T13:32:21.554Z</time></trkpt><trkpt lat="44.0186377" lon="12.148359"><ele>249.4</ele><time>2026-04-18T13:32:22.543Z</time></trkpt><trkpt lat="44.0186974" lon="12.1484442"><ele>248.8</ele><time>2026-04-18T13:32:23.557Z</time></trkpt><trkpt lat="44.0187508" lon="12.1485502"><ele>248.2</ele><time>2026-04-18T13:32:24.551Z</time></trkpt><trkpt lat="44.0187943" lon="12.148676"><ele>247.6</ele><time>2026-04-18T13:32:25.545Z</time></trkpt><trkpt lat="44.0188382" lon="12.1488284"><ele>247.0</ele><time>2026-04-18T13:32:26.548Z</time></trkpt><trkpt lat="44.0188801" lon="12.1489826"><ele>243.8</ele><time>2026-04-18T13:32:27.551Z</time></trkpt><trkpt lat="44.0189208" lon="12.1491206"><ele>240.6</ele><time>2026-04-18T13:32:28.544Z</time></trkpt><trkpt lat="44.0189452" lon="12.1492546"><ele>237.40000000000003</ele><time>2026-04-18T13:32:29.552Z</time></trkpt><trkpt lat="44.0189501" lon="12.1493912"><ele>234.20000000000002</ele><time>2026-04-18T13:32:30.542Z</time></trkpt><trkpt lat="44.0189431" lon="12.1495469"><ele>231.0</ele><time>2026-04-18T13:32:31.558Z</time></trkpt><trkpt lat="44.0189404" lon="12.1497255"><ele>229.5</ele><time>2026-04-18T13:32:32.552Z</time></trkpt><trkpt lat="44.0189505" lon="12.1499036"><ele>228.0</ele><time>2026-04-18T13:32:33.552Z</time></trkpt><trkpt lat="44.0189761" lon="12.1500789"><ele>226.5</ele><time>2026-04-18T13:32:34.561Z</time></trkpt><trkpt lat="44.0190137" lon="12.1502589"><ele>225.0</ele><time>2026-04-18T13:32:35.555Z</time></trkpt><trkpt lat="44.0190618" lon="12.1504263"><ele>225.0</ele><time>2026-04-18T13:32:36.551Z</time></trkpt><trkpt lat="44.0191141" lon="12.1505806"><ele>225.0</ele><time>2026-04-18T13:32:37.548Z</time></trkpt><trkpt lat="44.0191798" lon="12.1507158"><ele>225.0</ele><time>2026-04-18T13:32:38.545Z</time></trkpt><trkpt lat="44.0192655" lon="12.1508316"><ele>225.0</ele><time>2026-04-18T13:32:39.555Z</time></trkpt><trkpt lat="44.0193606" lon="12.1509414"><ele>227.5</ele><time>2026-04-18T13:32:40.555Z</time></trkpt><trkpt lat="44.0194457" lon="12.1510642"><ele>230.0</ele><time>2026-04-18T13:32:41.55Z</time></trkpt><trkpt lat="44.0195164" lon="12.1512071"><ele>232.5</ele><time>2026-04-18T13:32:42.559Z</time></trkpt><trkpt lat="44.0195856" lon="12.1513573"><ele>235.0</ele><time>2026-04-18T13:32:43.566Z</time></trkpt><trkpt lat="44.0196714" lon="12.1514846"><ele>235.5</ele><time>2026-04-18T13:32:44.548Z</time></trkpt><trkpt lat="44.0197674" lon="12.1516072"><ele>236.0</ele><time>2026-04-18T13:32:45.556Z</time></trkpt><trkpt lat="44.0198521" lon="12.15174"><ele>236.5</ele><time>2026-04-18T13:32:46.552Z</time></trkpt><trkpt lat="44.0199207" lon="12.1518827"><ele>237.0</ele><time>2026-04-18T13:32:47.548Z</time></trkpt><trkpt lat="44.0199909" lon="12.1520412"><ele>237.0</ele><time>2026-04-18T13:32:48.551Z</time></trkpt><trkpt lat="44.0200614" lon="12.1522096"><ele>237.0</ele><time>2026-04-18T13:32:49.542Z</time></trkpt><trkpt lat="44.0201272" lon="12.1523718"><ele>237.0</ele><time>2026-04-18T13:32:50.55Z</time></trkpt><trkpt lat="44.0201834" lon="12.1525089"><ele>237.0</ele><time>2026-04-18T13:32:51.551Z</time></trkpt><trkpt lat="44.0202463" lon="12.1526175"><ele>237.25</ele><time>2026-04-18T13:32:52.548Z</time></trkpt><trkpt lat="44.0203331" lon="12.1526902"><ele>237.5</ele><time>2026-04-18T13:32:53.552Z</time></trkpt><trkpt lat="44.0204424" lon="12.1527477"><ele>237.75</ele><time>2026-04-18T13:32:54.551Z</time></trkpt><trkpt lat="44.020558" lon="12.1528042"><ele>238.0</ele><time>2026-04-18T13:32:55.556Z</time></trkpt><trkpt lat="44.020681" lon="12.1528468"><ele>238.0</ele><time>2026-04-18T13:32:56.549Z</time></trkpt><trkpt lat="44.0208099" lon="12.1528824"><ele>238.0</ele><time>2026-04-18T13:32:57.56Z</time></trkpt><trkpt lat="44.0209212" lon="12.1529192"><ele>238.0</ele><time>2026-04-18T13:32:58.559Z</time></trkpt><trkpt lat="44.0210064" lon="12.1529652"><ele>238.0</ele><time>2026-04-18T13:32:59.553Z</time></trkpt><trkpt lat="44.0210668" lon="12.1530381"><ele>238.0</ele><time>2026-04-18T13:33:00.548Z</time></trkpt><trkpt lat="44.0211039" lon="12.1531375"><ele>240.2</ele><time>2026-04-18T13:33:01.554Z</time></trkpt><trkpt lat="44.0211101" lon="12.1532482"><ele>242.4</ele><time>2026-04-18T13:33:02.548Z</time></trkpt><trkpt lat="44.0210937" lon="12.1533778"><ele>244.59999999999997</ele><time>2026-04-18T13:33:03.549Z</time></trkpt><trkpt lat="44.021066" lon="12.1535216"><ele>246.79999999999998</ele><time>2026-04-18T13:33:04.542Z</time></trkpt><trkpt lat="44.0210241" lon="12.1536766"><ele>249.0</ele><time>2026-04-18T13:33:05.55Z</time></trkpt><trkpt lat="44.0209618" lon="12.1538561"><ele>249.0</ele><time>2026-04-18T13:33:06.556Z</time></trkpt><trkpt lat="44.0209016" lon="12.1540432"><ele>249.0</ele><time>2026-04-18T13:33:07.557Z</time></trkpt><trkpt lat="44.0208422" lon="12.1542247"><ele>249.0</ele><time>2026-04-18T13:33:08.555Z</time></trkpt><trkpt lat="44.0207867" lon="12.1544087"><ele>249.0</ele><time>2026-04-18T13:33:09.552Z</time></trkpt><trkpt lat="44.0207231" lon="12.1546027"><ele>248.0</ele><time>2026-04-18T13:33:10.549Z</time></trkpt><trkpt lat="44.0206595" lon="12.1547895"><ele>247.0</ele><time>2026-04-18T13:33:11.548Z</time></trkpt><trkpt lat="44.0206055" lon="12.154982"><ele>246.0</ele><time>2026-04-18T13:33:12.546Z</time></trkpt><trkpt lat="44.0205592" lon="12.1551806"><ele>245.0</ele><time>2026-04-18T13:33:13.552Z</time></trkpt><trkpt lat="44.0205253" lon="12.1553912"><ele>245.0</ele><time>2026-04-18T13:33:14.548Z</time></trkpt><trkpt lat="44.0205037" lon="12.1555843"><ele>245.0</ele><time>2026-04-18T13:33:15.55Z</time></trkpt><trkpt lat="44.020492" lon="12.1557636"><ele>245.0</ele><time>2026-04-18T13:33:16.547Z</time></trkpt><trkpt lat="44.0204903" lon="12.1559337"><ele>245.0</ele><time>2026-04-18T13:33:17.562Z</time></trkpt><trkpt lat="44.0204999" lon="12.1560966"><ele>247.0</ele><time>2026-04-18T13:33:18.549Z</time></trkpt><trkpt lat="44.0205224" lon="12.1562586"><ele>249.0</ele><time>2026-04-18T13:33:19.549Z</time></trkpt><trkpt lat="44.0205593" lon="12.1564282"><ele>251.0</ele><time>2026-04-18T13:33:20.556Z</time></trkpt><trkpt lat="44.0206106" lon="12.1566068"><ele>253.0</ele><time>2026-04-18T13:33:21.551Z</time></trkpt><trkpt lat="44.0206681" lon="12.1567809"><ele>253.0</ele><time>2026-04-18T13:33:22.553Z</time></trkpt><trkpt lat="44.0207291" lon="12.1569443"><ele>253.0</ele><time>2026-04-18T13:33:23.552Z</time></trkpt><trkpt lat="44.0207903" lon="12.1570896"><ele>253.0</ele><time>2026-04-18T13:33:24.551Z</time></trkpt><trkpt lat="44.0208537" lon="12.1572279"><ele>253.0</ele><time>2026-04-18T13:33:25.547Z</time></trkpt><trkpt lat="44.0209246" lon="12.1573636"><ele>253.0</ele><time>2026-04-18T13:33:26.553Z</time></trkpt><trkpt lat="44.0210081" lon="12.1574981"><ele>253.0</ele><time>2026-04-18T13:33:27.554Z</time></trkpt><trkpt lat="44.0211082" lon="12.1576244"><ele>253.0</ele><time>2026-04-18T13:33:28.556Z</time></trkpt><trkpt lat="44.021216" lon="12.1577549"><ele>253.0</ele><time>2026-04-18T13:33:29.556Z</time></trkpt><trkpt lat="44.021327" lon="12.1578847"><ele>253.0</ele><time>2026-04-18T13:33:30.547Z</time></trkpt><trkpt lat="44.021442" lon="12.1580151"><ele>253.0</ele><time>2026-04-18T13:33:31.557Z</time></trkpt><trkpt lat="44.0215556" lon="12.1581467"><ele>253.0</ele><time>2026-04-18T13:33:32.546Z</time></trkpt><trkpt lat="44.0216654" lon="12.158279"><ele>253.0</ele><time>2026-04-18T13:33:33.546Z</time></trkpt><trkpt lat="44.0217708" lon="12.1584082"><ele>251.25</ele><time>2026-04-18T13:33:34.548Z</time></trkpt><trkpt lat="44.0218751" lon="12.1585337"><ele>249.5</ele><time>2026-04-18T13:33:35.555Z</time></trkpt><trkpt lat="44.0219828" lon="12.1586648"><ele>247.75</ele><time>2026-04-18T13:33:36.553Z</time></trkpt><trkpt lat="44.0220963" lon="12.1588016"><ele>246.0</ele><time>2026-04-18T13:33:37.546Z</time></trkpt><trkpt lat="44.0222052" lon="12.1589348"><ele>245.25</ele><time>2026-04-18T13:33:38.556Z</time></trkpt><trkpt lat="44.022314" lon="12.1590679"><ele>244.5</ele><time>2026-04-18T13:33:39.544Z</time></trkpt><trkpt lat="44.0224302" lon="12.1591927"><ele>243.75</ele><time>2026-04-18T13:33:40.552Z</time></trkpt><trkpt lat="44.022547" lon="12.1593044"><ele>243.0</ele><time>2026-04-18T13:33:41.546Z</time></trkpt><trkpt lat="44.0226686" lon="12.1594068"><ele>243.0</ele><time>2026-04-18T13:33:42.552Z</time></trkpt><trkpt lat="44.0227928" lon="12.1595044"><ele>243.0</ele><time>2026-04-18T13:33:43.549Z</time></trkpt><trkpt lat="44.0229204" lon="12.1595961"><ele>243.0</ele><time>2026-04-18T13:33:44.554Z</time></trkpt><trkpt lat="44.0230407" lon="12.1596777"><ele>243.0</ele><time>2026-04-18T13:33:45.55Z</time></trkpt><trkpt lat="44.0231525" lon="12.1597543"><ele>243.0</ele><time>2026-04-18T13:33:46.554Z</time></trkpt><trkpt lat="44.0232633" lon="12.1598359"><ele>243.0</ele><time>2026-04-18T13:33:47.543Z</time></trkpt><trkpt lat="44.0233727" lon="12.1599272"><ele>243.0</ele><time>2026-04-18T13:33:48.544Z</time></trkpt><trkpt lat="44.0234861" lon="12.1600251"><ele>243.0</ele><time>2026-04-18T13:33:49.558Z</time></trkpt><trkpt lat="44.0236084" lon="12.1601212"><ele>243.0</ele><time>2026-04-18T13:33:50.557Z</time></trkpt><trkpt lat="44.0237318" lon="12.1602259"><ele>243.0</ele><time>2026-04-18T13:33:51.546Z</time></trkpt><trkpt lat="44.0238521" lon="12.1603341"><ele>243.0</ele><time>2026-04-18T13:33:52.558Z</time></trkpt><trkpt lat="44.0239736" lon="12.160458"><ele>243.0</ele><time>2026-04-18T13:33:53.552Z</time></trkpt><trkpt lat="44.0240977" lon="12.1605844"><ele>243.66666666666669</ele><time>2026-04-18T13:33:54.549Z</time></trkpt><trkpt lat="44.0242213" lon="12.1607105"><ele>244.33333333333334</ele><time>2026-04-18T13:33:55.558Z</time></trkpt><trkpt lat="44.0243404" lon="12.1608366"><ele>245.0</ele><time>2026-04-18T13:33:56.555Z</time></trkpt><trkpt lat="44.0244592" lon="12.1609626"><ele>245.0</ele><time>2026-04-18T13:33:57.553Z</time></trkpt><trkpt lat="44.0245856" lon="12.1610851"><ele>245.0</ele><time>2026-04-18T13:33:58.553Z</time></trkpt><trkpt lat="44.0247168" lon="12.1612038"><ele>245.0</ele><time>2026-04-18T13:33:59.548Z</time></trkpt><trkpt lat="44.024845" lon="12.1613311"><ele>245.0</ele><time>2026-04-18T13:34:00.557Z</time></trkpt><trkpt lat="44.0249697" lon="12.1614616"><ele>245.0</ele><time>2026-04-18T13:34:01.548Z</time></trkpt><trkpt lat="44.025084" lon="12.1615948"><ele>245.0</ele><time>2026-04-18T13:34:02.548Z</time></trkpt><trkpt lat="44.0251889" lon="12.161736"><ele>246.6</ele><time>2026-04-18T13:34:03.549Z</time></trkpt><trkpt lat="44.0252755" lon="12.1618698"><ele>248.2</ele><time>2026-04-18T13:34:04.547Z</time></trkpt><trkpt lat="44.025351" lon="12.1619805"><ele>249.8</ele><time>2026-04-18T13:34:05.549Z</time></trkpt><trkpt lat="44.0254194" lon="12.162061"><ele>251.4</ele><time>2026-04-18T13:34:06.554Z</time></trkpt><trkpt lat="44.0255064" lon="12.1621042"><ele>253.0</ele><time>2026-04-18T13:34:07.552Z</time></trkpt><trkpt lat="44.025605" lon="12.1621235"><ele>253.0</ele><time>2026-04-18T13:34:08.548Z</time></trkpt><trkpt lat="44.0257196" lon="12.1621475"><ele>253.0</ele><time>2026-04-18T13:34:09.551Z</time></trkpt><trkpt lat="44.0258491" lon="12.1621808"><ele>253.0</ele><time>2026-04-18T13:34:10.551Z</time></trkpt><trkpt lat="44.0259839" lon="12.1622255"><ele>253.0</ele><time>2026-04-18T13:34:11.547Z</time></trkpt><trkpt lat="44.0261054" lon="12.1622583"><ele>253.0</ele><time>2026-04-18T13:34:12.548Z</time></trkpt><trkpt lat="44.0262198" lon="12.1623075"><ele>253.0</ele><time>2026-04-18T13:34:13.544Z</time></trkpt><trkpt lat="44.0263238" lon="12.1623815"><ele>253.0</ele><time>2026-04-18T13:34:14.546Z</time></trkpt><trkpt lat="44.0264298" lon="12.162479"><ele>253.0</ele><time>2026-04-18T13:34:15.551Z</time></trkpt><trkpt lat="44.0265295" lon="12.1626118"><ele>255.0</ele><time>2026-04-18T13:34:16.55Z</time></trkpt><trkpt lat="44.0266359" lon="12.1627653"><ele>257.0</ele><time>2026-04-18T13:34:17.553Z</time></trkpt><trkpt lat="44.0267532" lon="12.1629196"><ele>259.0</ele><time>2026-04-18T13:34:18.546Z</time></trkpt><trkpt lat="44.0268727" lon="12.1630765"><ele>260.25</ele><time>2026-04-18T13:34:19.548Z</time></trkpt><trkpt lat="44.0269979" lon="12.163232"><ele>261.5</ele><time>2026-04-18T13:34:20.546Z</time></trkpt><trkpt lat="44.027113" lon="12.1633695"><ele>262.75</ele><time>2026-04-18T13:34:21.547Z</time></trkpt><trkpt lat="44.02721" lon="12.1634857"><ele>264.0</ele><time>2026-04-18T13:34:22.551Z</time></trkpt><trkpt lat="44.0272865" lon="12.1635863"><ele>264.0</ele><time>2026-04-18T13:34:23.553Z</time></trkpt><trkpt lat="44.0273521" lon="12.1636936"><ele>264.0</ele><time>2026-04-18T13:34:24.554Z</time></trkpt><trkpt lat="44.0273965" lon="12.1638108"><ele>264.0</ele><time>2026-04-18T13:34:25.55Z</time></trkpt><trkpt lat="44.0274176" lon="12.1639567"><ele>264.0</ele><time>2026-04-18T13:34:26.554Z</time></trkpt><trkpt lat="44.0274216" lon="12.1641311"><ele>264.0</ele><time>2026-04-18T13:34:27.547Z</time></trkpt><trkpt lat="44.0274287" lon="12.1643403"><ele>265.25</ele><time>2026-04-18T13:34:28.549Z</time></trkpt><trkpt lat="44.0274314" lon="12.1645414"><ele>266.5</ele><time>2026-04-18T13:34:29.55Z</time></trkpt><trkpt lat="44.027434" lon="12.1647188"><ele>267.75</ele><time>2026-04-18T13:34:30.545Z</time></trkpt><trkpt lat="44.0274335" lon="12.1648833"><ele>269.0</ele><time>2026-04-18T13:34:31.556Z</time></trkpt><trkpt lat="44.0274289" lon="12.1650559"><ele>269.4</ele><time>2026-04-18T13:34:32.546Z</time></trkpt><trkpt lat="44.0274102" lon="12.16522"><ele>269.79999999999995</ele><time>2026-04-18T13:34:33.55Z</time></trkpt><trkpt lat="44.0273829" lon="12.1653609"><ele>270.20000000000005</ele><time>2026-04-18T13:34:34.551Z</time></trkpt><trkpt lat="44.0273503" lon="12.1654804"><ele>270.6</ele><time>2026-04-18T13:34:35.547Z</time></trkpt><trkpt lat="44.0273117" lon="12.1655723"><ele>271.0</ele><time>2026-04-18T13:34:36.553Z</time></trkpt><trkpt lat="44.0272585" lon="12.1656449"><ele>271.0</ele><time>2026-04-18T13:34:37.556Z</time></trkpt><trkpt lat="44.0271874" lon="12.1656787"><ele>271.0</ele><time>2026-04-18T13:34:38.547Z</time></trkpt><trkpt lat="44.0271022" lon="12.1656822"><ele>271.0</ele><time>2026-04-18T13:34:39.553Z</time></trkpt><trkpt lat="44.0270141" lon="12.165672"><ele>271.0</ele><time>2026-04-18T13:34:40.55Z</time></trkpt><trkpt lat="44.0269301" lon="12.1656588"><ele>271.0</ele><time>2026-04-18T13:34:41.548Z</time></trkpt><trkpt lat="44.0268633" lon="12.1656767"><ele>271.0</ele><time>2026-04-18T13:34:42.552Z</time></trkpt><trkpt lat="44.0268133" lon="12.1657332"><ele>270.40000000000003</ele><time>2026-04-18T13:34:43.549Z</time></trkpt><trkpt lat="44.0267841" lon="12.1658131"><ele>269.8</ele><time>2026-04-18T13:34:44.549Z</time></trkpt><trkpt lat="44.0267763" lon="12.1659192"><ele>269.20000000000005</ele><time>2026-04-18T13:34:45.549Z</time></trkpt><trkpt lat="44.0267825" lon="12.1660569"><ele>268.6</ele><time>2026-04-18T13:34:46.554Z</time></trkpt><trkpt lat="44.0268017" lon="12.166213"><ele>268.0</ele><time>2026-04-18T13:34:47.55Z</time></trkpt><trkpt lat="44.0268462" lon="12.1663806"><ele>267.0</ele><time>2026-04-18T13:34:48.553Z</time></trkpt><trkpt lat="44.0269066" lon="12.1665418"><ele>266.0</ele><time>2026-04-18T13:34:49.547Z</time></trkpt><trkpt lat="44.0269691" lon="12.1667021"><ele>265.0</ele><time>2026-04-18T13:34:50.548Z</time></trkpt><trkpt lat="44.0270206" lon="12.1668389"><ele>264.0</ele><time>2026-04-18T13:34:51.551Z</time></trkpt><trkpt lat="44.0270687" lon="12.1669748"><ele>264.0</ele><time>2026-04-18T13:34:52.552Z</time></trkpt><trkpt lat="44.0271347" lon="12.1671085"><ele>264.0</ele><time>2026-04-18T13:34:53.546Z</time></trkpt><trkpt lat="44.0272221" lon="12.1672445"><ele>264.0</ele><time>2026-04-18T13:34:54.549Z</time></trkpt><trkpt lat="44.0273153" lon="12.16738"><ele>264.0</ele><time>2026-04-18T13:34:55.554Z</time></trkpt><trkpt lat="44.0273954" lon="12.1675263"><ele>263.0</ele><time>2026-04-18T13:34:56.548Z</time></trkpt><trkpt lat="44.0274539" lon="12.1676933"><ele>262.0</ele><time>2026-04-18T13:34:57.545Z</time></trkpt><trkpt lat="44.0275012" lon="12.1678508"><ele>261.0</ele><time>2026-04-18T13:34:58.546Z</time></trkpt><trkpt lat="44.0275498" lon="12.1680097"><ele>260.0</ele><time>2026-04-18T13:34:59.55Z</time></trkpt><trkpt lat="44.0276043" lon="12.1681542"><ele>259.5</ele><time>2026-04-18T13:35:00.548Z</time></trkpt><trkpt lat="44.0276687" lon="12.1682797"><ele>259.0</ele><time>2026-04-18T13:35:01.551Z</time></trkpt><trkpt lat="44.0277495" lon="12.1683922"><ele>258.5</ele><time>2026-04-18T13:35:02.545Z</time></trkpt><trkpt lat="44.0278411" lon="12.1684949"><ele>258.0</ele><time>2026-04-18T13:35:03.556Z</time></trkpt><trkpt lat="44.0279257" lon="12.168593"><ele>258.0</ele><time>2026-04-18T13:35:04.542Z</time></trkpt><trkpt lat="44.0280024" lon="12.1686842"><ele>258.0</ele><time>2026-04-18T13:35:05.547Z</time></trkpt><trkpt lat="44.0280581" lon="12.1687828"><ele>258.0</ele><time>2026-04-18T13:35:06.552Z</time></trkpt><trkpt lat="44.0280962" lon="12.1688835"><ele>258.0</ele><time>2026-04-18T13:35:07.549Z</time></trkpt><trkpt lat="44.0281253" lon="12.1689976"><ele>258.0</ele><time>2026-04-18T13:35:08.549Z</time></trkpt><trkpt lat="44.02816" lon="12.1690969"><ele>258.0</ele><time>2026-04-18T13:35:09.556Z</time></trkpt><trkpt lat="44.0282046" lon="12.1691859"><ele>256.2</ele><time>2026-04-18T13:35:10.55Z</time></trkpt><trkpt lat="44.0282645" lon="12.1692618"><ele>254.4</ele><time>2026-04-18T13:35:11.556Z</time></trkpt><trkpt lat="44.0283386" lon="12.1693271"><ele>252.59999999999997</ele><time>2026-04-18T13:35:12.545Z</time></trkpt><trkpt lat="44.0284202" lon="12.1693892"><ele>250.79999999999998</ele><time>2026-04-18T13:35:13.552Z</time></trkpt><trkpt lat="44.0285062" lon="12.1694773"><ele>249.0</ele><time>2026-04-18T13:35:14.548Z</time></trkpt><trkpt lat="44.028581" lon="12.1695826"><ele>248.75</ele><time>2026-04-18T13:35:15.55Z</time></trkpt><trkpt lat="44.0286497" lon="12.1697089"><ele>248.5</ele><time>2026-04-18T13:35:16.553Z</time></trkpt><trkpt lat="44.0287188" lon="12.1698698"><ele>248.25</ele><time>2026-04-18T13:35:17.555Z</time></trkpt><trkpt lat="44.0287835" lon="12.1700419"><ele>248.0</ele><time>2026-04-18T13:35:18.549Z</time></trkpt><trkpt lat="44.028844" lon="12.1701988"><ele>248.2</ele><time>2026-04-18T13:35:19.555Z</time></trkpt><trkpt lat="44.0289006" lon="12.1703323"><ele>248.4</ele><time>2026-04-18T13:35:20.556Z</time></trkpt><trkpt lat="44.0289639" lon="12.1704388"><ele>248.59999999999997</ele><time>2026-04-18T13:35:21.551Z</time></trkpt><trkpt lat="44.0290486" lon="12.1705244"><ele>248.79999999999998</ele><time>2026-04-18T13:35:22.546Z</time></trkpt><trkpt lat="44.0291454" lon="12.170577"><ele>249.0</ele><time>2026-04-18T13:35:23.553Z</time></trkpt><trkpt lat="44.0292466" lon="12.1706235"><ele>249.0</ele><time>2026-04-18T13:35:24.546Z</time></trkpt><trkpt lat="44.0293394" lon="12.170677"><ele>248.99999999999997</ele><time>2026-04-18T13:35:25.551Z</time></trkpt><trkpt lat="44.0294179" lon="12.1707645"><ele>248.99999999999997</ele><time>2026-04-18T13:35:26.552Z</time></trkpt><trkpt lat="44.0295034" lon="12.1708688"><ele>249.0</ele><time>2026-04-18T13:35:27.55Z</time></trkpt><trkpt lat="44.0295822" lon="12.1709538"><ele>249.0</ele><time>2026-04-18T13:35:28.554Z</time></trkpt><trkpt lat="44.0296637" lon="12.1710083"><ele>249.2</ele><time>2026-04-18T13:35:29.542Z</time></trkpt><trkpt lat="44.0297532" lon="12.1710366"><ele>249.39999999999998</ele><time>2026-04-18T13:35:30.551Z</time></trkpt><trkpt lat="44.029841" lon="12.1710671"><ele>249.6</ele><time>2026-04-18T13:35:31.549Z</time></trkpt><trkpt lat="44.0299213" lon="12.1711295"><ele>249.8</ele><time>2026-04-18T13:35:32.551Z</time></trkpt><trkpt lat="44.0299895" lon="12.1712402"><ele>250.0</ele><time>2026-04-18T13:35:33.552Z</time></trkpt><trkpt lat="44.0300397" lon="12.1713663"><ele>250.0</ele><time>2026-04-18T13:35:34.543Z</time></trkpt><trkpt lat="44.0300938" lon="12.171501"><ele>250.0</ele><time>2026-04-18T13:35:35.552Z</time></trkpt><trkpt lat="44.0301674" lon="12.1716265"><ele>250.0</ele><time>2026-04-18T13:35:36.542Z</time></trkpt><trkpt lat="44.0302561" lon="12.1717321"><ele>250.0</ele><time>2026-04-18T13:35:37.543Z</time></trkpt><trkpt lat="44.0303609" lon="12.1718084"><ele>253.5</ele><time>2026-04-18T13:35:38.551Z</time></trkpt><trkpt lat="44.0304775" lon="12.1718484"><ele>257.0</ele><time>2026-04-18T13:35:39.542Z</time></trkpt><trkpt lat="44.0305959" lon="12.1718685"><ele>260.5</ele><time>2026-04-18T13:35:40.545Z</time></trkpt><trkpt lat="44.0307223" lon="12.171876"><ele>264.0</ele><time>2026-04-18T13:35:41.555Z</time></trkpt><trkpt lat="44.0308512" lon="12.1718829"><ele>264.59999999999997</ele><time>2026-04-18T13:35:42.552Z</time></trkpt><trkpt lat="44.0309662" lon="12.1718794"><ele>265.2</ele><time>2026-04-18T13:35:43.545Z</time></trkpt><trkpt lat="44.0310711" lon="12.1718705"><ele>265.79999999999995</ele><time>2026-04-18T13:35:44.551Z</time></trkpt><trkpt lat="44.0311708" lon="12.1718645"><ele>266.4</ele><time>2026-04-18T13:35:45.549Z</time></trkpt><trkpt lat="44.0312822" lon="12.1718667"><ele>267.0</ele><time>2026-04-18T13:35:46.545Z</time></trkpt><trkpt lat="44.0314045" lon="12.1718823"><ele>267.0</ele><time>2026-04-18T13:35:47.545Z</time></trkpt><trkpt lat="44.0315305" lon="12.1719115"><ele>267.0</ele><time>2026-04-18T13:35:48.554Z</time></trkpt><trkpt lat="44.0316501" lon="12.171952"><ele>267.0</ele><time>2026-04-18T13:35:49.556Z</time></trkpt><trkpt lat="44.0317618" lon="12.1719851"><ele>267.0</ele><time>2026-04-18T13:35:50.549Z</time></trkpt><trkpt lat="44.0318655" lon="12.1720047"><ele>266.0</ele><time>2026-04-18T13:35:51.551Z</time></trkpt><trkpt lat="44.0319632" lon="12.1720005"><ele>265.0</ele><time>2026-04-18T13:35:52.542Z</time></trkpt><trkpt lat="44.0320639" lon="12.1719849"><ele>264.0</ele><time>2026-04-18T13:35:53.551Z</time></trkpt><trkpt lat="44.0321653" lon="12.171969"><ele>263.0</ele><time>2026-04-18T13:35:54.552Z</time></trkpt><trkpt lat="44.0322564" lon="12.1719452"><ele>262.0</ele><time>2026-04-18T13:35:55.55Z</time></trkpt><trkpt lat="44.0323392" lon="12.1719107"><ele>262.0</ele><time>2026-04-18T13:35:56.546Z</time></trkpt><trkpt lat="44.0324271" lon="12.1718525"><ele>262.0</ele><time>2026-04-18T13:35:57.545Z</time></trkpt><trkpt lat="44.032526" lon="12.1717683"><ele>262.0</ele><time>2026-04-18T13:35:58.551Z</time></trkpt><trkpt lat="44.0326243" lon="12.1716719"><ele>262.0</ele><time>2026-04-18T13:35:59.548Z</time></trkpt><trkpt lat="44.0327228" lon="12.1715704"><ele>257.2</ele><time>2026-04-18T13:36:00.551Z</time></trkpt><trkpt lat="44.0328214" lon="12.1714717"><ele>252.39999999999998</ele><time>2026-04-18T13:36:01.545Z</time></trkpt><trkpt lat="44.0329102" lon="12.1713771"><ele>247.60000000000002</ele><time>2026-04-18T13:36:02.548Z</time></trkpt><trkpt lat="44.0329816" lon="12.17129"><ele>242.8</ele><time>2026-04-18T13:36:03.548Z</time></trkpt><trkpt lat="44.0330466" lon="12.1712068"><ele>238.0</ele><time>2026-04-18T13:36:04.554Z</time></trkpt><trkpt lat="44.0331102" lon="12.1711188"><ele>238.0</ele><time>2026-04-18T13:36:05.544Z</time></trkpt><trkpt lat="44.0331778" lon="12.17102"><ele>238.0</ele><time>2026-04-18T13:36:06.542Z</time></trkpt><trkpt lat="44.0332583" lon="12.1709272"><ele>238.0</ele><time>2026-04-18T13:36:07.548Z</time></trkpt><trkpt lat="44.03335" lon="12.1708403"><ele>238.0</ele><time>2026-04-18T13:36:08.544Z</time></trkpt><trkpt lat="44.0334496" lon="12.1707649"><ele>238.0</ele><time>2026-04-18T13:36:09.556Z</time></trkpt><trkpt lat="44.0335473" lon="12.1707093"><ele>236.66666666666666</ele><time>2026-04-18T13:36:10.542Z</time></trkpt><trkpt lat="44.0336384" lon="12.1706575"><ele>235.33333333333331</ele><time>2026-04-18T13:36:11.552Z</time></trkpt><trkpt lat="44.0337215" lon="12.1706162"><ele>234.0</ele><time>2026-04-18T13:36:12.544Z</time></trkpt><trkpt lat="44.0338037" lon="12.1705894"><ele>232.66666666666669</ele><time>2026-04-18T13:36:13.544Z</time></trkpt><trkpt lat="44.0338859" lon="12.1705895"><ele>231.33333333333334</ele><time>2026-04-18T13:36:14.552Z</time></trkpt><trkpt lat="44.0339693" lon="12.1706169"><ele>230.0</ele><time>2026-04-18T13:36:15.556Z</time></trkpt><trkpt lat="44.0340573" lon="12.1706698"><ele>234.2</ele><time>2026-04-18T13:36:16.543Z</time></trkpt><trkpt lat="44.0341468" lon="12.1707527"><ele>238.4</ele><time>2026-04-18T13:36:17.55Z</time></trkpt><trkpt lat="44.0342279" lon="12.1708536"><ele>242.60000000000002</ele><time>2026-04-18T13:36:18.544Z</time></trkpt><trkpt lat="44.0343016" lon="12.170956"><ele>246.8</ele><time>2026-04-18T13:36:19.544Z</time></trkpt><trkpt lat="44.0343731" lon="12.1710495"><ele>251.0</ele><time>2026-04-18T13:36:20.549Z</time></trkpt><trkpt lat="44.0344506" lon="12.1711362"><ele>251.0</ele><time>2026-04-18T13:36:21.547Z</time></trkpt><trkpt lat="44.0345394" lon="12.1712137"><ele>251.0</ele><time>2026-04-18T13:36:22.551Z</time></trkpt><trkpt lat="44.034644" lon="12.1712831"><ele>251.0</ele><time>2026-04-18T13:36:23.553Z</time></trkpt><trkpt lat="44.0347591" lon="12.1713425"><ele>251.0</ele><time>2026-04-18T13:36:24.548Z</time></trkpt><trkpt lat="44.034872" lon="12.1713962"><ele>248.0</ele><time>2026-04-18T13:36:25.56Z</time></trkpt><trkpt lat="44.0349919" lon="12.1714461"><ele>245.0</ele><time>2026-04-18T13:36:26.547Z</time></trkpt><trkpt lat="44.0351139" lon="12.1715025"><ele>242.0</ele><time>2026-04-18T13:36:27.55Z</time></trkpt><trkpt lat="44.0352293" lon="12.1715601"><ele>239.0</ele><time>2026-04-18T13:36:28.547Z</time></trkpt><trkpt lat="44.0353491" lon="12.1716308"><ele>239.0</ele><time>2026-04-18T13:36:29.547Z</time></trkpt><trkpt lat="44.0354656" lon="12.1717185"><ele>239.0</ele><time>2026-04-18T13:36:30.547Z</time></trkpt><trkpt lat="44.0355681" lon="12.1718098"><ele>239.0</ele><time>2026-04-18T13:36:31.546Z</time></trkpt><trkpt lat="44.035655" lon="12.1718909"><ele>239.0</ele><time>2026-04-18T13:36:32.549Z</time></trkpt><trkpt lat="44.0357377" lon="12.1719769"><ele>238.79999999999998</ele><time>2026-04-18T13:36:33.55Z</time></trkpt><trkpt lat="44.0358135" lon="12.1720786"><ele>238.59999999999997</ele><time>2026-04-18T13:36:34.544Z</time></trkpt><trkpt lat="44.035879" lon="12.1721909"><ele>238.4</ele><time>2026-04-18T13:36:35.554Z</time></trkpt><trkpt lat="44.0359365" lon="12.1723032"><ele>238.2</ele><time>2026-04-18T13:36:36.55Z</time></trkpt><trkpt lat="44.035988" lon="12.172399"><ele>238.0</ele><time>2026-04-18T13:36:37.549Z</time></trkpt><trkpt lat="44.0360405" lon="12.1724752"><ele>238.0</ele><time>2026-04-18T13:36:38.55Z</time></trkpt><trkpt lat="44.0361313" lon="12.1725366"><ele>238.0</ele><time>2026-04-18T13:36:40.557Z</time></trkpt><trkpt lat="44.036227" lon="12.1724949"><ele>238.0</ele><time>2026-04-18T13:36:42.551Z</time></trkpt><trkpt lat="44.0362889" lon="12.1723561"><ele>238.0</ele><time>2026-04-18T13:36:44.553Z</time></trkpt><trkpt lat="44.0363779" lon="12.1722545"><ele>238.0</ele><time>2026-04-18T13:36:46.552Z</time></trkpt><trkpt lat="44.0364839" lon="12.1722767"><ele>237.99999999999997</ele><time>2026-04-18T13:36:48.545Z</time></trkpt><trkpt lat="44.0365371" lon="12.1723357"><ele>238.0</ele><time>2026-04-18T13:36:49.546Z</time></trkpt><trkpt lat="44.0365888" lon="12.1724349"><ele>238.0</ele><time>2026-04-18T13:36:50.545Z</time></trkpt><trkpt lat="44.0366378" lon="12.1725528"><ele>238.0</ele><time>2026-04-18T13:36:51.551Z</time></trkpt><trkpt lat="44.0366856" lon="12.1726626"><ele>237.99999999999997</ele><time>2026-04-18T13:36:52.547Z</time></trkpt><trkpt lat="44.0367403" lon="12.1727528"><ele>238.0</ele><time>2026-04-18T13:36:53.549Z</time></trkpt><trkpt lat="44.0368097" lon="12.1728216"><ele>237.16666666666666</ele><time>2026-04-18T13:36:54.556Z</time></trkpt><trkpt lat="44.0368914" lon="12.1728616"><ele>236.33333333333331</ele><time>2026-04-18T13:36:55.554Z</time></trkpt><trkpt lat="44.0369811" lon="12.1728849"><ele>235.5</ele><time>2026-04-18T13:36:56.549Z</time></trkpt><trkpt lat="44.0370704" lon="12.1729029"><ele>234.66666666666669</ele><time>2026-04-18T13:36:57.554Z</time></trkpt><trkpt lat="44.0371578" lon="12.1729326"><ele>233.83333333333334</ele><time>2026-04-18T13:36:58.548Z</time></trkpt><trkpt lat="44.0372413" lon="12.1729794"><ele>233.0</ele><time>2026-04-18T13:36:59.55Z</time></trkpt><trkpt lat="44.037326" lon="12.1730422"><ele>233.00000000000003</ele><time>2026-04-18T13:37:00.547Z</time></trkpt><trkpt lat="44.0374045" lon="12.1731151"><ele>233.0</ele><time>2026-04-18T13:37:01.549Z</time></trkpt><trkpt lat="44.0374776" lon="12.1731875"><ele>233.0</ele><time>2026-04-18T13:37:02.546Z</time></trkpt><trkpt lat="44.0375503" lon="12.173253"><ele>233.0</ele><time>2026-04-18T13:37:03.552Z</time></trkpt><trkpt lat="44.0376245" lon="12.1733"><ele>233.00000000000003</ele><time>2026-04-18T13:37:04.549Z</time></trkpt><trkpt lat="44.0376984" lon="12.173334"><ele>233.0</ele><time>2026-04-18T13:37:05.547Z</time></trkpt><trkpt lat="44.0377766" lon="12.1733572"><ele>230.60000000000002</ele><time>2026-04-18T13:37:06.547Z</time></trkpt><trkpt lat="44.0378611" lon="12.1733632"><ele>228.20000000000002</ele><time>2026-04-18T13:37:07.551Z</time></trkpt><trkpt lat="44.0379608" lon="12.173369"><ele>225.8</ele><time>2026-04-18T13:37:08.554Z</time></trkpt><trkpt lat="44.0380742" lon="12.1733727"><ele>223.4</ele><time>2026-04-18T13:37:09.548Z</time></trkpt><trkpt lat="44.0381881" lon="12.1733738"><ele>221.0</ele><time>2026-04-18T13:37:10.554Z</time></trkpt><trkpt lat="44.0382985" lon="12.1733648"><ele>219.4</ele><time>2026-04-18T13:37:11.553Z</time></trkpt><trkpt lat="44.0384083" lon="12.1733463"><ele>217.8</ele><time>2026-04-18T13:37:12.55Z</time></trkpt><trkpt lat="44.0385176" lon="12.1733321"><ele>216.20000000000002</ele><time>2026-04-18T13:37:13.557Z</time></trkpt><trkpt lat="44.0386283" lon="12.1733317"><ele>214.60000000000002</ele><time>2026-04-18T13:37:14.549Z</time></trkpt><trkpt lat="44.038738" lon="12.1733462"><ele>213.0</ele><time>2026-04-18T13:37:15.549Z</time></trkpt><trkpt lat="44.0388411" lon="12.1733975"><ele>213.0</ele><time>2026-04-18T13:37:16.549Z</time></trkpt><trkpt lat="44.038938" lon="12.1734719"><ele>213.0</ele><time>2026-04-18T13:37:17.558Z</time></trkpt><trkpt lat="44.0390308" lon="12.1735662"><ele>213.0</ele><time>2026-04-18T13:37:18.549Z</time></trkpt><trkpt lat="44.0391216" lon="12.1736655"><ele>213.0</ele><time>2026-04-18T13:37:19.545Z</time></trkpt><trkpt lat="44.0392037" lon="12.1737724"><ele>213.4</ele><time>2026-04-18T13:37:20.548Z</time></trkpt><trkpt lat="44.0392811" lon="12.1738873"><ele>213.8</ele><time>2026-04-18T13:37:21.553Z</time></trkpt><trkpt lat="44.039353" lon="12.1739917"><ele>214.2</ele><time>2026-04-18T13:37:22.549Z</time></trkpt><trkpt lat="44.0394184" lon="12.1740892"><ele>214.6</ele><time>2026-04-18T13:37:23.547Z</time></trkpt><trkpt lat="44.0394821" lon="12.1741793"><ele>215.0</ele><time>2026-04-18T13:37:24.551Z</time></trkpt><trkpt lat="44.0395488" lon="12.1742651"><ele>215.0</ele><time>2026-04-18T13:37:25.547Z</time></trkpt><trkpt lat="44.0396318" lon="12.1743506"><ele>215.0</ele><time>2026-04-18T13:37:26.55Z</time></trkpt><trkpt lat="44.0397314" lon="12.1744405"><ele>215.0</ele><time>2026-04-18T13:37:27.552Z</time></trkpt><trkpt lat="44.0398318" lon="12.1745319"><ele>215.0</ele><time>2026-04-18T13:37:28.559Z</time></trkpt><trkpt lat="44.0399298" lon="12.1746185"><ele>214.6</ele><time>2026-04-18T13:37:29.551Z</time></trkpt><trkpt lat="44.0400248" lon="12.1747085"><ele>214.2</ele><time>2026-04-18T13:37:30.554Z</time></trkpt><trkpt lat="44.0401184" lon="12.1747951"><ele>213.8</ele><time>2026-04-18T13:37:31.551Z</time></trkpt><trkpt lat="44.0402133" lon="12.1748642"><ele>213.4</ele><time>2026-04-18T13:37:32.549Z</time></trkpt><trkpt lat="44.0403156" lon="12.1748972"><ele>213.0</ele><time>2026-04-18T13:37:33.543Z</time></trkpt><trkpt lat="44.0404243" lon="12.1749112"><ele>211.75</ele><time>2026-04-18T13:37:34.554Z</time></trkpt><trkpt lat="44.0405302" lon="12.1749249"><ele>210.5</ele><time>2026-04-18T13:37:35.547Z</time></trkpt><trkpt lat="44.0406431" lon="12.1749438"><ele>209.25</ele><time>2026-04-18T13:37:36.551Z</time></trkpt><trkpt lat="44.040763" lon="12.1749693"><ele>208.0</ele><time>2026-04-18T13:37:37.555Z</time></trkpt><trkpt lat="44.0408817" lon="12.1749891"><ele>206.4</ele><time>2026-04-18T13:37:38.546Z</time></trkpt><trkpt lat="44.0409956" lon="12.1750068"><ele>204.8</ele><time>2026-04-18T13:37:39.547Z</time></trkpt><trkpt lat="44.0411053" lon="12.1750298"><ele>203.2</ele><time>2026-04-18T13:37:40.547Z</time></trkpt><trkpt lat="44.0412052" lon="12.1750478"><ele>201.6</ele><time>2026-04-18T13:37:41.547Z</time></trkpt><trkpt lat="44.0413008" lon="12.1750516"><ele>200.0</ele><time>2026-04-18T13:37:42.547Z</time></trkpt><trkpt lat="44.0413919" lon="12.1750281"><ele>200.0</ele><time>2026-04-18T13:37:43.547Z</time></trkpt><trkpt lat="44.0414811" lon="12.1749841"><ele>200.0</ele><time>2026-04-18T13:37:44.556Z</time></trkpt><trkpt lat="44.0415718" lon="12.174919"><ele>200.0</ele><time>2026-04-18T13:37:45.551Z</time></trkpt><trkpt lat="44.0416669" lon="12.1748388"><ele>200.0</ele><time>2026-04-18T13:37:46.551Z</time></trkpt><trkpt lat="44.0417705" lon="12.1747543"><ele>200.0</ele><time>2026-04-18T13:37:47.547Z</time></trkpt><trkpt lat="44.0418772" lon="12.1746699"><ele>200.2</ele><time>2026-04-18T13:37:48.548Z</time></trkpt><trkpt lat="44.041982" lon="12.174596"><ele>200.4</ele><time>2026-04-18T13:37:49.55Z</time></trkpt><trkpt lat="44.042089" lon="12.1745443"><ele>200.60000000000002</ele><time>2026-04-18T13:37:50.549Z</time></trkpt><trkpt lat="44.0421965" lon="12.1745058"><ele>200.8</ele><time>2026-04-18T13:37:51.545Z</time></trkpt><trkpt lat="44.0423004" lon="12.1744801"><ele>201.0</ele><time>2026-04-18T13:37:52.549Z</time></trkpt><trkpt lat="44.0424096" lon="12.1744679"><ele>196.75</ele><time>2026-04-18T13:37:53.551Z</time></trkpt><trkpt lat="44.0425255" lon="12.174475"><ele>192.5</ele><time>2026-04-18T13:37:54.549Z</time></trkpt><trkpt lat="44.0426464" lon="12.174483"><ele>188.25</ele><time>2026-04-18T13:37:55.55Z</time></trkpt><trkpt lat="44.0427744" lon="12.1744907"><ele>184.0</ele><time>2026-04-18T13:37:56.546Z</time></trkpt><trkpt lat="44.042901" lon="12.1745013"><ele>184.0</ele><time>2026-04-18T13:37:57.554Z</time></trkpt><trkpt lat="44.0430183" lon="12.1745153"><ele>184.0</ele><time>2026-04-18T13:37:58.548Z</time></trkpt><trkpt lat="44.0431234" lon="12.1745354"><ele>184.0</ele><time>2026-04-18T13:37:59.549Z</time></trkpt><trkpt lat="44.0432176" lon="12.174562"><ele>184.0</ele><time>2026-04-18T13:38:00.562Z</time></trkpt><trkpt lat="44.0432876" lon="12.1746036"><ele>184.0</ele><time>2026-04-18T13:38:01.55Z</time></trkpt><trkpt lat="44.0433494" lon="12.1746649"><ele>183.79999999999998</ele><time>2026-04-18T13:38:02.544Z</time></trkpt><trkpt lat="44.0434142" lon="12.1747572"><ele>183.6</ele><time>2026-04-18T13:38:03.548Z</time></trkpt><trkpt lat="44.0434762" lon="12.1748749"><ele>183.4</ele><time>2026-04-18T13:38:04.549Z</time></trkpt><trkpt lat="44.0435419" lon="12.1750001"><ele>183.2</ele><time>2026-04-18T13:38:05.555Z</time></trkpt><trkpt lat="44.0436045" lon="12.1751141"><ele>183.0</ele><time>2026-04-18T13:38:06.554Z</time></trkpt><trkpt lat="44.0436719" lon="12.1752186"><ele>183.0</ele><time>2026-04-18T13:38:07.549Z</time></trkpt><trkpt lat="44.0437441" lon="12.1753197"><ele>183.0</ele><time>2026-04-18T13:38:08.56Z</time></trkpt><trkpt lat="44.043819" lon="12.1754187"><ele>183.0</ele><time>2026-04-18T13:38:09.551Z</time></trkpt><trkpt lat="44.0438981" lon="12.1755168"><ele>183.0</ele><time>2026-04-18T13:38:10.551Z</time></trkpt><trkpt lat="44.043983" lon="12.1756056"><ele>183.0</ele><time>2026-04-18T13:38:11.545Z</time></trkpt><trkpt lat="44.0440804" lon="12.175679"><ele>178.75</ele><time>2026-04-18T13:38:12.547Z</time></trkpt><trkpt lat="44.0441823" lon="12.1757414"><ele>174.5</ele><time>2026-04-18T13:38:13.55Z</time></trkpt><trkpt lat="44.0442824" lon="12.175812"><ele>170.25</ele><time>2026-04-18T13:38:14.55Z</time></trkpt><trkpt lat="44.0443827" lon="12.1758837"><ele>166.0</ele><time>2026-04-18T13:38:15.553Z</time></trkpt><trkpt lat="44.0444897" lon="12.1759369"><ele>166.0</ele><time>2026-04-18T13:38:16.553Z</time></trkpt><trkpt lat="44.0446001" lon="12.1759655"><ele>166.0</ele><time>2026-04-18T13:38:17.547Z</time></trkpt><trkpt lat="44.0447093" lon="12.176"><ele>166.0</ele><time>2026-04-18T13:38:18.55Z</time></trkpt><trkpt lat="44.0448168" lon="12.176045"><ele>166.0</ele><time>2026-04-18T13:38:19.549Z</time></trkpt><trkpt lat="44.0449246" lon="12.1760962"><ele>162.0</ele><time>2026-04-18T13:38:20.553Z</time></trkpt><trkpt lat="44.0450312" lon="12.176166"><ele>158.0</ele><time>2026-04-18T13:38:21.548Z</time></trkpt><trkpt lat="44.0451287" lon="12.1762589"><ele>154.0</ele><time>2026-04-18T13:38:22.551Z</time></trkpt><trkpt lat="44.0452152" lon="12.1763662"><ele>150.0</ele><time>2026-04-18T13:38:23.548Z</time></trkpt><trkpt lat="44.045284" lon="12.1764832"><ele>152.2</ele><time>2026-04-18T13:38:24.549Z</time></trkpt><trkpt lat="44.0453393" lon="12.1766065"><ele>154.4</ele><time>2026-04-18T13:38:25.547Z</time></trkpt><trkpt lat="44.0453796" lon="12.1767283"><ele>156.60000000000002</ele><time>2026-04-18T13:38:26.559Z</time></trkpt><trkpt lat="44.045388" lon="12.1768542"><ele>158.8</ele><time>2026-04-18T13:38:27.557Z</time></trkpt><trkpt lat="44.0453649" lon="12.1769701"><ele>161.0</ele><time>2026-04-18T13:38:28.546Z</time></trkpt><trkpt lat="44.0453163" lon="12.1770733"><ele>161.0</ele><time>2026-04-18T13:38:29.549Z</time></trkpt><trkpt lat="44.0452454" lon="12.1771452"><ele>161.0</ele><time>2026-04-18T13:38:30.553Z</time></trkpt><trkpt lat="44.0451661" lon="12.1772"><ele>161.0</ele><time>2026-04-18T13:38:31.55Z</time></trkpt><trkpt lat="44.0450819" lon="12.1772415"><ele>161.0</ele><time>2026-04-18T13:38:32.551Z</time></trkpt><trkpt lat="44.0449952" lon="12.1772525"><ele>161.0</ele><time>2026-04-18T13:38:33.55Z</time></trkpt><trkpt lat="44.044905" lon="12.1772417"><ele>161.0</ele><time>2026-04-18T13:38:34.552Z</time></trkpt><trkpt lat="44.0448192" lon="12.1772283"><ele>161.0</ele><time>2026-04-18T13:38:35.546Z</time></trkpt><trkpt lat="44.0447391" lon="12.1772314"><ele>161.0</ele><time>2026-04-18T13:38:36.551Z</time></trkpt><trkpt lat="44.0446757" lon="12.1772523"><ele>161.0</ele><time>2026-04-18T13:38:37.557Z</time></trkpt><trkpt lat="44.0446074" lon="12.1773424"><ele>161.0</ele><time>2026-04-18T13:38:39.553Z</time></trkpt><trkpt lat="44.0446665" lon="12.1774592"><ele>161.0</ele><time>2026-04-18T13:38:41.554Z</time></trkpt><trkpt lat="44.0447778" lon="12.1775109"><ele>157.60000000000002</ele><time>2026-04-18T13:38:43.548Z</time></trkpt><trkpt lat="44.0448649" lon="12.1775272"><ele>154.20000000000002</ele><time>2026-04-18T13:38:44.557Z</time></trkpt><trkpt lat="44.0449679" lon="12.1775511"><ele>150.8</ele><time>2026-04-18T13:38:45.555Z</time></trkpt><trkpt lat="44.0450759" lon="12.1775853"><ele>147.4</ele><time>2026-04-18T13:38:46.549Z</time></trkpt><trkpt lat="44.0451801" lon="12.1776133"><ele>144.0</ele><time>2026-04-18T13:38:47.553Z</time></trkpt><trkpt lat="44.045281" lon="12.1776327"><ele>144.0</ele><time>2026-04-18T13:38:48.547Z</time></trkpt><trkpt lat="44.0453752" lon="12.1776485"><ele>144.0</ele><time>2026-04-18T13:38:49.549Z</time></trkpt><trkpt lat="44.0454647" lon="12.1776366"><ele>144.0</ele><time>2026-04-18T13:38:50.551Z</time></trkpt><trkpt lat="44.0455498" lon="12.1775891"><ele>144.0</ele><time>2026-04-18T13:38:51.546Z</time></trkpt><trkpt lat="44.0456279" lon="12.1775195"><ele>144.0</ele><time>2026-04-18T13:38:52.544Z</time></trkpt><trkpt lat="44.0456959" lon="12.1774249"><ele>141.33333333333334</ele><time>2026-04-18T13:38:53.548Z</time></trkpt><trkpt lat="44.0457541" lon="12.1773144"><ele>138.66666666666666</ele><time>2026-04-18T13:38:54.545Z</time></trkpt><trkpt lat="44.0457934" lon="12.1771934"><ele>136.0</ele><time>2026-04-18T13:38:55.55Z</time></trkpt><trkpt lat="44.0458" lon="12.1770643"><ele>133.33333333333331</ele><time>2026-04-18T13:38:56.552Z</time></trkpt><trkpt lat="44.0457812" lon="12.1769504"><ele>130.66666666666666</ele><time>2026-04-18T13:38:57.559Z</time></trkpt><trkpt lat="44.0457506" lon="12.1768585"><ele>128.0</ele><time>2026-04-18T13:38:58.558Z</time></trkpt><trkpt lat="44.0457447" lon="12.1767467"><ele>128.0</ele><time>2026-04-18T13:39:00.557Z</time></trkpt><trkpt lat="44.0458346" lon="12.1767474"><ele>128.0</ele><time>2026-04-18T13:39:02.558Z</time></trkpt><trkpt lat="44.0459016" lon="12.1768916"><ele>128.0</ele><time>2026-04-18T13:39:04.548Z</time></trkpt><trkpt lat="44.0459327" lon="12.1769953"><ele>128.0</ele><time>2026-04-18T13:39:05.547Z</time></trkpt><trkpt lat="44.0459572" lon="12.1771041"><ele>128.0</ele><time>2026-04-18T13:39:06.552Z</time></trkpt><trkpt lat="44.0459759" lon="12.1772144"><ele>128.0</ele><time>2026-04-18T13:39:07.551Z</time></trkpt><trkpt lat="44.0459847" lon="12.177335"><ele>128.0</ele><time>2026-04-18T13:39:08.554Z</time></trkpt><trkpt lat="44.0459835" lon="12.1774671"><ele>128.0</ele><time>2026-04-18T13:39:09.543Z</time></trkpt><trkpt lat="44.0459769" lon="12.1776083"><ele>128.0</ele><time>2026-04-18T13:39:10.55Z</time></trkpt><trkpt lat="44.0459731" lon="12.1777483"><ele>128.0</ele><time>2026-04-18T13:39:11.547Z</time></trkpt><trkpt lat="44.0459763" lon="12.177881"><ele>127.66666666666666</ele><time>2026-04-18T13:39:12.557Z</time></trkpt><trkpt lat="44.0459782" lon="12.1780086"><ele>127.33333333333333</ele><time>2026-04-18T13:39:13.547Z</time></trkpt><trkpt lat="44.0459779" lon="12.1781273"><ele>127.0</ele><time>2026-04-18T13:39:14.549Z</time></trkpt><trkpt lat="44.0459839" lon="12.1782229"><ele>126.66666666666666</ele><time>2026-04-18T13:39:15.55Z</time></trkpt><trkpt lat="44.0460471" lon="12.1783342"><ele>126.33333333333333</ele><time>2026-04-18T13:39:17.554Z</time></trkpt><trkpt lat="44.0461428" lon="12.1783035"><ele>126.0</ele><time>2026-04-18T13:39:19.556Z</time></trkpt><trkpt lat="44.0462158" lon="12.1781916"><ele>126.0</ele><time>2026-04-18T13:39:21.546Z</time></trkpt><trkpt lat="44.0462974" lon="12.1781023"><ele>126.0</ele><time>2026-04-18T13:39:23.553Z</time></trkpt><trkpt lat="44.0463928" lon="12.17819"><ele>126.0</ele><time>2026-04-18T13:39:25.547Z</time></trkpt><trkpt lat="44.0464138" lon="12.1782838"><ele>126.0</ele><time>2026-04-18T13:39:26.548Z</time></trkpt><trkpt lat="44.0464332" lon="12.1783844"><ele>126.0</ele><time>2026-04-18T13:39:27.549Z</time></trkpt><trkpt lat="44.046451" lon="12.1785112"><ele>124.4</ele><time>2026-04-18T13:39:28.551Z</time></trkpt><trkpt lat="44.0464776" lon="12.1786476"><ele>122.8</ele><time>2026-04-18T13:39:29.548Z</time></trkpt><trkpt lat="44.0465185" lon="12.1787803"><ele>121.20000000000002</ele><time>2026-04-18T13:39:30.549Z</time></trkpt><trkpt lat="44.0465475" lon="12.1789142"><ele>119.60000000000001</ele><time>2026-04-18T13:39:31.554Z</time></trkpt><trkpt lat="44.0465637" lon="12.1790521"><ele>118.0</ele><time>2026-04-18T13:39:32.552Z</time></trkpt><trkpt lat="44.0465585" lon="12.1791843"><ele>116.00000000000001</ele><time>2026-04-18T13:39:33.552Z</time></trkpt><trkpt lat="44.0465467" lon="12.1793148"><ele>114.0</ele><time>2026-04-18T13:39:34.551Z</time></trkpt><trkpt lat="44.0465278" lon="12.1794372"><ele>112.0</ele><time>2026-04-18T13:39:35.549Z</time></trkpt><trkpt lat="44.0465131" lon="12.1795439"><ele>110.0</ele><time>2026-04-18T13:39:36.554Z</time></trkpt><trkpt lat="44.0464982" lon="12.1796769"><ele>108.00000000000001</ele><time>2026-04-18T13:39:38.55Z</time></trkpt><trkpt lat="44.0464538" lon="12.1797809"><ele>106.0</ele><time>2026-04-18T13:39:41.551Z</time></trkpt><trkpt lat="44.0464185" lon="12.179938"><ele>105.00000000000001</ele><time>2026-04-18T13:39:43.547Z</time></trkpt><trkpt lat="44.0464236" lon="12.1800489"><ele>104.0</ele><time>2026-04-18T13:39:44.546Z</time></trkpt><trkpt lat="44.0464378" lon="12.1801664"><ele>103.0</ele><time>2026-04-18T13:39:45.55Z</time></trkpt><trkpt lat="44.0464508" lon="12.1802777"><ele>102.0</ele><time>2026-04-18T13:39:46.557Z</time></trkpt><trkpt lat="44.0464628" lon="12.1803866"><ele>101.00000000000001</ele><time>2026-04-18T13:39:47.556Z</time></trkpt><trkpt lat="44.0464766" lon="12.1805067"><ele>100.0</ele><time>2026-04-18T13:39:48.552Z</time></trkpt><trkpt lat="44.0464898" lon="12.1806249"><ele>99.33333333333334</ele><time>2026-04-18T13:39:49.548Z</time></trkpt><trkpt lat="44.0465067" lon="12.1807444"><ele>98.66666666666667</ele><time>2026-04-18T13:39:50.552Z</time></trkpt><trkpt lat="44.0465236" lon="12.1808619"><ele>98.0</ele><time>2026-04-18T13:39:51.551Z</time></trkpt><trkpt lat="44.0465388" lon="12.1809782"><ele>97.33333333333334</ele><time>2026-04-18T13:39:52.553Z</time></trkpt><trkpt lat="44.0465488" lon="12.1810894"><ele>96.66666666666667</ele><time>2026-04-18T13:39:53.547Z</time></trkpt><trkpt lat="44.0465588" lon="12.1812027"><ele>96.0</ele><time>2026-04-18T13:39:54.544Z</time></trkpt><trkpt lat="44.0465682" lon="12.1813133"><ele>96.0</ele><time>2026-04-18T13:39:55.548Z</time></trkpt><trkpt lat="44.046579" lon="12.1814276"><ele>96.0</ele><time>2026-04-18T13:39:56.544Z</time></trkpt><trkpt lat="44.046594" lon="12.1815542"><ele>96.0</ele><time>2026-04-18T13:39:57.546Z</time></trkpt><trkpt lat="44.0466097" lon="12.1816897"><ele>96.0</ele><time>2026-04-18T13:39:58.556Z</time></trkpt><trkpt lat="44.0466228" lon="12.1818369"><ele>96.0</ele><time>2026-04-18T13:39:59.548Z</time></trkpt><trkpt lat="44.0466469" lon="12.1819994"><ele>94.75</ele><time>2026-04-18T13:40:00.549Z</time></trkpt><trkpt lat="44.0466639" lon="12.1821551"><ele>93.5</ele><time>2026-04-18T13:40:01.547Z</time></trkpt><trkpt lat="44.0466873" lon="12.1823224"><ele>92.25</ele><time>2026-04-18T13:40:02.548Z</time></trkpt><trkpt lat="44.0467089" lon="12.1824957"><ele>91.0</ele><time>2026-04-18T13:40:03.547Z</time></trkpt><trkpt lat="44.0467252" lon="12.1826719"><ele>89.75</ele><time>2026-04-18T13:40:04.547Z</time></trkpt><trkpt lat="44.0467456" lon="12.1828385"><ele>88.5</ele><time>2026-04-18T13:40:05.549Z</time></trkpt><trkpt lat="44.0467643" lon="12.1830063"><ele>87.25</ele><time>2026-04-18T13:40:06.551Z</time></trkpt><trkpt lat="44.0467837" lon="12.1831725"><ele>86.0</ele><time>2026-04-18T13:40:07.546Z</time></trkpt><trkpt lat="44.0468026" lon="12.1833378"><ele>85.75</ele><time>2026-04-18T13:40:08.547Z</time></trkpt><trkpt lat="44.0468178" lon="12.1835057"><ele>85.5</ele><time>2026-04-18T13:40:09.551Z</time></trkpt><trkpt lat="44.0468272" lon="12.1836758"><ele>85.25</ele><time>2026-04-18T13:40:10.55Z</time></trkpt><trkpt lat="44.0468369" lon="12.1838438"><ele>85.0</ele><time>2026-04-18T13:40:11.548Z</time></trkpt><trkpt lat="44.046847" lon="12.1840212"><ele>84.25</ele><time>2026-04-18T13:40:12.56Z</time></trkpt><trkpt lat="44.0468583" lon="12.1841966"><ele>83.5</ele><time>2026-04-18T13:40:13.553Z</time></trkpt><trkpt lat="44.0468658" lon="12.1843689"><ele>82.75</ele><time>2026-04-18T13:40:14.547Z</time></trkpt><trkpt lat="44.0468751" lon="12.1845329"><ele>82.0</ele><time>2026-04-18T13:40:15.553Z</time></trkpt><trkpt lat="44.0468832" lon="12.1846861"><ele>82.0</ele><time>2026-04-18T13:40:16.549Z</time></trkpt><trkpt lat="44.0468855" lon="12.1848385"><ele>82.0</ele><time>2026-04-18T13:40:17.551Z</time></trkpt><trkpt lat="44.0468877" lon="12.1849948"><ele>82.0</ele><time>2026-04-18T13:40:18.543Z</time></trkpt><trkpt lat="44.0468896" lon="12.1851517"><ele>82.0</ele><time>2026-04-18T13:40:19.551Z</time></trkpt><trkpt lat="44.0468878" lon="12.1853048"><ele>82.0</ele><time>2026-04-18T13:40:20.551Z</time></trkpt><trkpt lat="44.0468825" lon="12.1854564"><ele>81.6</ele><time>2026-04-18T13:40:21.553Z</time></trkpt><trkpt lat="44.046875" lon="12.1856063"><ele>81.19999999999999</ele><time>2026-04-18T13:40:22.552Z</time></trkpt><trkpt lat="44.0468643" lon="12.1857544"><ele>80.8</ele><time>2026-04-18T13:40:23.548Z</time></trkpt><trkpt lat="44.046847" lon="12.1858964"><ele>80.4</ele><time>2026-04-18T13:40:24.552Z</time></trkpt><trkpt lat="44.046819" lon="12.1860397"><ele>80.0</ele><time>2026-04-18T13:40:25.55Z</time></trkpt><trkpt lat="44.0467784" lon="12.1861753"><ele>79.83333333333334</ele><time>2026-04-18T13:40:26.549Z</time></trkpt><trkpt lat="44.0467298" lon="12.1862976"><ele>79.66666666666667</ele><time>2026-04-18T13:40:27.543Z</time></trkpt><trkpt lat="44.0466815" lon="12.1864067"><ele>79.5</ele><time>2026-04-18T13:40:28.552Z</time></trkpt><trkpt lat="44.0466319" lon="12.1865052"><ele>79.33333333333333</ele><time>2026-04-18T13:40:29.549Z</time></trkpt><trkpt lat="44.0465741" lon="12.1865872"><ele>79.16666666666666</ele><time>2026-04-18T13:40:30.554Z</time></trkpt><trkpt lat="44.0465205" lon="12.1866513"><ele>79.0</ele><time>2026-04-18T13:40:31.547Z</time></trkpt><trkpt lat="44.0464615" lon="12.1867845"><ele>78.16666666666666</ele><time>2026-04-18T13:40:33.559Z</time></trkpt><trkpt lat="44.0464655" lon="12.1869032"><ele>77.33333333333333</ele><time>2026-04-18T13:40:35.554Z</time></trkpt><trkpt lat="44.0464976" lon="12.1869872"><ele>76.5</ele><time>2026-04-18T13:40:38.553Z</time></trkpt><trkpt lat="44.0465324" lon="12.1870851"><ele>75.66666666666667</ele><time>2026-04-18T13:41:51.552Z</time></trkpt><trkpt lat="44.0465453" lon="12.1871793"><ele>74.83333333333334</ele><time>2026-04-18T13:41:52.55Z</time></trkpt><trkpt lat="44.046534" lon="12.1872792"><ele>74.0</ele><time>2026-04-18T13:41:53.545Z</time></trkpt><trkpt lat="44.0464981" lon="12.1873968"><ele>72.25</ele><time>2026-04-18T13:41:54.549Z</time></trkpt><trkpt lat="44.0464439" lon="12.1875255"><ele>70.5</ele><time>2026-04-18T13:41:55.558Z</time></trkpt><trkpt lat="44.0463845" lon="12.1876532"><ele>68.75</ele><time>2026-04-18T13:41:56.549Z</time></trkpt><trkpt lat="44.0463115" lon="12.1877937"><ele>67.0</ele><time>2026-04-18T13:41:57.555Z</time></trkpt><trkpt lat="44.0462356" lon="12.1879407"><ele>67.0</ele><time>2026-04-18T13:41:58.556Z</time></trkpt><trkpt lat="44.0461548" lon="12.188096"><ele>67.0</ele><time>2026-04-18T13:41:59.554Z</time></trkpt><trkpt lat="44.0460755" lon="12.188256"><ele>67.0</ele><time>2026-04-18T13:42:00.549Z</time></trkpt><trkpt lat="44.0459965" lon="12.1884226"><ele>67.0</ele><time>2026-04-18T13:42:01.562Z</time></trkpt><trkpt lat="44.0459185" lon="12.1885889"><ele>67.25</ele><time>2026-04-18T13:42:02.548Z</time></trkpt><trkpt lat="44.045849" lon="12.1887389"><ele>67.5</ele><time>2026-04-18T13:42:03.552Z</time></trkpt><trkpt lat="44.0457842" lon="12.1888744"><ele>67.75</ele><time>2026-04-18T13:42:04.559Z</time></trkpt><trkpt lat="44.0457252" lon="12.1889925"><ele>68.0</ele><time>2026-04-18T13:42:05.55Z</time></trkpt><trkpt lat="44.045665" lon="12.1891149"><ele>68.0</ele><time>2026-04-18T13:42:06.555Z</time></trkpt><trkpt lat="44.0456071" lon="12.1892352"><ele>68.0</ele><time>2026-04-18T13:42:07.557Z</time></trkpt><trkpt lat="44.0455473" lon="12.18935"><ele>68.0</ele><time>2026-04-18T13:42:08.552Z</time></trkpt><trkpt lat="44.0454937" lon="12.1894595"><ele>68.0</ele><time>2026-04-18T13:42:09.559Z</time></trkpt><trkpt lat="44.0454493" lon="12.1895586"><ele>68.0</ele><time>2026-04-18T13:42:10.549Z</time></trkpt><trkpt lat="44.0454281" lon="12.1896426"><ele>68.0</ele><time>2026-04-18T13:42:11.549Z</time></trkpt><trkpt lat="44.0454648" lon="12.1897945"><ele>69.0</ele><time>2026-04-18T13:42:13.565Z</time></trkpt><trkpt lat="44.0455186" lon="12.1898615"><ele>70.0</ele><time>2026-04-18T13:42:14.556Z</time></trkpt><trkpt lat="44.0455894" lon="12.1899418"><ele>71.0</ele><time>2026-04-18T13:42:15.548Z</time></trkpt><trkpt lat="44.0456798" lon="12.1900336"><ele>72.0</ele><time>2026-04-18T13:42:16.547Z</time></trkpt><trkpt lat="44.0457775" lon="12.1901261"><ele>73.0</ele><time>2026-04-18T13:42:17.557Z</time></trkpt><trkpt lat="44.0458734" lon="12.190224"><ele>73.0</ele><time>2026-04-18T13:42:18.572Z</time></trkpt><trkpt lat="44.0459605" lon="12.1903214"><ele>73.0</ele><time>2026-04-18T13:42:19.548Z</time></trkpt><trkpt lat="44.0460384" lon="12.190416"><ele>73.0</ele><time>2026-04-18T13:42:20.556Z</time></trkpt><trkpt lat="44.0461165" lon="12.1905012"><ele>73.0</ele><time>2026-04-18T13:42:21.556Z</time></trkpt><trkpt lat="44.0461992" lon="12.1905927"><ele>73.0</ele><time>2026-04-18T13:42:22.569Z</time></trkpt><trkpt lat="44.0462861" lon="12.1906836"><ele>74.0</ele><time>2026-04-18T13:42:23.551Z</time></trkpt><trkpt lat="44.0463685" lon="12.1907536"><ele>75.0</ele><time>2026-04-18T13:42:24.552Z</time></trkpt><trkpt lat="44.0464501" lon="12.1908064"><ele>76.0</ele><time>2026-04-18T13:42:25.551Z</time></trkpt><trkpt lat="44.046541" lon="12.1908263"><ele>77.0</ele><time>2026-04-18T13:42:26.547Z</time></trkpt><trkpt lat="44.046645" lon="12.1908162"><ele>78.0</ele><time>2026-04-18T13:42:27.549Z</time></trkpt><trkpt lat="44.0467541" lon="12.190779"><ele>78.0</ele><time>2026-04-18T13:42:28.55Z</time></trkpt><trkpt lat="44.0468547" lon="12.1907081"><ele>78.0</ele><time>2026-04-18T13:42:29.558Z</time></trkpt><trkpt lat="44.0469512" lon="12.1906069"><ele>78.0</ele><time>2026-04-18T13:42:30.554Z</time></trkpt><trkpt lat="44.047037" lon="12.1904948"><ele>78.0</ele><time>2026-04-18T13:42:31.551Z</time></trkpt><trkpt lat="44.0471075" lon="12.1903842"><ele>77.2</ele><time>2026-04-18T13:42:32.559Z</time></trkpt><trkpt lat="44.0471808" lon="12.1903013"><ele>76.4</ele><time>2026-04-18T13:42:33.554Z</time></trkpt><trkpt lat="44.0472558" lon="12.1902497"><ele>75.60000000000001</ele><time>2026-04-18T13:42:34.555Z</time></trkpt><trkpt lat="44.0473471" lon="12.1902345"><ele>74.8</ele><time>2026-04-18T13:42:35.549Z</time></trkpt><trkpt lat="44.0474465" lon="12.1902594"><ele>74.0</ele><time>2026-04-18T13:42:36.546Z</time></trkpt><trkpt lat="44.047542" lon="12.1902936"><ele>74.0</ele><time>2026-04-18T13:42:37.548Z</time></trkpt><trkpt lat="44.0476399" lon="12.1902932"><ele>74.0</ele><time>2026-04-18T13:42:38.556Z</time></trkpt><trkpt lat="44.0477301" lon="12.1902451"><ele>74.0</ele><time>2026-04-18T13:42:39.553Z</time></trkpt><trkpt lat="44.0478131" lon="12.1901528"><ele>74.0</ele><time>2026-04-18T13:42:40.551Z</time></trkpt><trkpt lat="44.0478834" lon="12.1900457"><ele>74.0</ele><time>2026-04-18T13:42:41.558Z</time></trkpt><trkpt lat="44.0479521" lon="12.1899646"><ele>74.0</ele><time>2026-04-18T13:42:42.551Z</time></trkpt><trkpt lat="44.0480418" lon="12.1899222"><ele>74.0</ele><time>2026-04-18T13:42:43.555Z</time></trkpt><trkpt lat="44.0481533" lon="12.1899226"><ele>74.0</ele><time>2026-04-18T13:42:44.551Z</time></trkpt><trkpt lat="44.0482737" lon="12.1899534"><ele>74.0</ele><time>2026-04-18T13:42:45.555Z</time></trkpt><trkpt lat="44.0483737" lon="12.1900096"><ele>74.0</ele><time>2026-04-18T13:42:46.55Z</time></trkpt><trkpt lat="44.0484568" lon="12.1900877"><ele>74.0</ele><time>2026-04-18T13:42:47.543Z</time></trkpt><trkpt lat="44.0485052" lon="12.1901961"><ele>74.0</ele><time>2026-04-18T13:42:48.564Z</time></trkpt><trkpt lat="44.0485233" lon="12.1903003"><ele>74.0</ele><time>2026-04-18T13:42:49.558Z</time></trkpt><trkpt lat="44.0484934" lon="12.1903991"><ele>74.0</ele><time>2026-04-18T13:42:50.554Z</time></trkpt><trkpt lat="44.0484193" lon="12.1904778"><ele>74.0</ele><time>2026-04-18T13:42:51.559Z</time></trkpt><trkpt lat="44.0483123" lon="12.1905158"><ele>74.0</ele><time>2026-04-18T13:42:52.558Z</time></trkpt><trkpt lat="44.0481901" lon="12.190514"><ele>74.0</ele><time>2026-04-18T13:42:53.57Z</time></trkpt><trkpt lat="44.0480784" lon="12.1905062"><ele>74.0</ele><time>2026-04-18T13:42:54.552Z</time></trkpt><trkpt lat="44.0479928" lon="12.1905277"><ele>74.0</ele><time>2026-04-18T13:42:55.563Z</time></trkpt><trkpt lat="44.0479538" lon="12.1906762"><ele>74.0</ele><time>2026-04-18T13:42:57.56Z</time></trkpt><trkpt lat="44.0479883" lon="12.1907527"><ele>74.0</ele><time>2026-04-18T13:42:58.552Z</time></trkpt><trkpt lat="44.0480565" lon="12.190813"><ele>76.25</ele><time>2026-04-18T13:42:59.554Z</time></trkpt><trkpt lat="44.0481708" lon="12.1908324"><ele>78.5</ele><time>2026-04-18T13:43:00.566Z</time></trkpt><trkpt lat="44.048295" lon="12.1908484"><ele>80.75</ele><time>2026-04-18T13:43:01.558Z</time></trkpt><trkpt lat="44.0484255" lon="12.1908699"><ele>83.0</ele><time>2026-04-18T13:43:02.552Z</time></trkpt><trkpt lat="44.0485627" lon="12.1908955"><ele>85.0</ele><time>2026-04-18T13:43:03.547Z</time></trkpt><trkpt lat="44.0486936" lon="12.1909043"><ele>87.0</ele><time>2026-04-18T13:43:04.569Z</time></trkpt><trkpt lat="44.0488123" lon="12.1909022"><ele>89.0</ele><time>2026-04-18T13:43:05.555Z</time></trkpt><trkpt lat="44.0489119" lon="12.1909048"><ele>91.0</ele><time>2026-04-18T13:43:06.55Z</time></trkpt><trkpt lat="44.0489873" lon="12.1909233"><ele>93.0</ele><time>2026-04-18T13:43:07.552Z</time></trkpt><trkpt lat="44.0490484" lon="12.1910498"><ele>93.0</ele><time>2026-04-18T13:43:09.55Z</time></trkpt><trkpt lat="44.0489758" lon="12.1911899"><ele>93.0</ele><time>2026-04-18T13:43:11.555Z</time></trkpt><trkpt lat="44.0488739" lon="12.1912223"><ele>93.0</ele><time>2026-04-18T13:43:12.553Z</time></trkpt><trkpt lat="44.0487464" lon="12.1912357"><ele>93.0</ele><time>2026-04-18T13:43:13.551Z</time></trkpt><trkpt lat="44.0486008" lon="12.1912424"><ele>93.0</ele><time>2026-04-18T13:43:14.558Z</time></trkpt><trkpt lat="44.0484632" lon="12.1912399"><ele>93.0</ele><time>2026-04-18T13:43:15.549Z</time></trkpt><trkpt lat="44.0483511" lon="12.1912338"><ele>93.0</ele><time>2026-04-18T13:43:16.555Z</time></trkpt><trkpt lat="44.0482672" lon="12.1912439"><ele>93.0</ele><time>2026-04-18T13:43:17.551Z</time></trkpt><trkpt lat="44.0482061" lon="12.1912804"><ele>93.0</ele><time>2026-04-18T13:43:18.547Z</time></trkpt><trkpt lat="44.0481636" lon="12.1913526"><ele>93.60000000000001</ele><time>2026-04-18T13:43:19.556Z</time></trkpt><trkpt lat="44.0481919" lon="12.1914984"><ele>94.2</ele><time>2026-04-18T13:43:21.558Z</time></trkpt><trkpt lat="44.0482602" lon="12.1915547"><ele>94.8</ele><time>2026-04-18T13:43:22.549Z</time></trkpt><trkpt lat="44.04835" lon="12.1916112"><ele>95.4</ele><time>2026-04-18T13:43:23.55Z</time></trkpt><trkpt lat="44.0484518" lon="12.191671"><ele>96.0</ele><time>2026-04-18T13:43:24.549Z</time></trkpt><trkpt lat="44.0485631" lon="12.1917331"><ele>98.0</ele><time>2026-04-18T13:43:25.545Z</time></trkpt><trkpt lat="44.048683" lon="12.1917901"><ele>100.0</ele><time>2026-04-18T13:43:26.554Z</time></trkpt><trkpt lat="44.0488132" lon="12.1918532"><ele>102.0</ele><time>2026-04-18T13:43:27.552Z</time></trkpt><trkpt lat="44.048949" lon="12.1919284"><ele>104.0</ele><time>2026-04-18T13:43:28.549Z</time></trkpt><trkpt lat="44.0490869" lon="12.1920169"><ele>105.33333333333333</ele><time>2026-04-18T13:43:29.55Z</time></trkpt><trkpt lat="44.0492253" lon="12.1921196"><ele>106.66666666666666</ele><time>2026-04-18T13:43:30.55Z</time></trkpt><trkpt lat="44.0493649" lon="12.1922315"><ele>108.0</ele><time>2026-04-18T13:43:31.551Z</time></trkpt><trkpt lat="44.049488" lon="12.1923347"><ele>110.5</ele><time>2026-04-18T13:43:32.564Z</time></trkpt><trkpt lat="44.0495819" lon="12.1924229"><ele>113.0</ele><time>2026-04-18T13:43:33.556Z</time></trkpt><trkpt lat="44.0496444" lon="12.1925178"><ele>115.5</ele><time>2026-04-18T13:43:34.554Z</time></trkpt><trkpt lat="44.0496659" lon="12.1926119"><ele>118.0</ele><time>2026-04-18T13:43:35.562Z</time></trkpt><trkpt lat="44.0496472" lon="12.1927051"><ele>120.5</ele><time>2026-04-18T13:43:36.552Z</time></trkpt><trkpt lat="44.0495914" lon="12.1927544"><ele>123.0</ele><time>2026-04-18T13:43:37.548Z</time></trkpt><trkpt lat="44.0495206" lon="12.1927548"><ele>123.0</ele><time>2026-04-18T13:43:38.554Z</time></trkpt><trkpt lat="44.0494435" lon="12.1927049"><ele>123.00000000000001</ele><time>2026-04-18T13:43:39.552Z</time></trkpt><trkpt lat="44.0493632" lon="12.1926223"><ele>123.00000000000001</ele><time>2026-04-18T13:43:40.551Z</time></trkpt><trkpt lat="44.0492835" lon="12.1925487"><ele>123.0</ele><time>2026-04-18T13:43:41.555Z</time></trkpt><trkpt lat="44.0491996" lon="12.192536"><ele>123.0</ele><time>2026-04-18T13:43:42.546Z</time></trkpt><trkpt lat="44.0491007" lon="12.1925764"><ele>122.0</ele><time>2026-04-18T13:43:43.554Z</time></trkpt><trkpt lat="44.0489981" lon="12.19266"><ele>121.00000000000001</ele><time>2026-04-18T13:43:44.552Z</time></trkpt><trkpt lat="44.0489205" lon="12.1927477"><ele>120.00000000000001</ele><time>2026-04-18T13:43:45.561Z</time></trkpt><trkpt lat="44.0488728" lon="12.1928422"><ele>119.0</ele><time>2026-04-18T13:43:46.557Z</time></trkpt><trkpt lat="44.0488648" lon="12.1929753"><ele>118.0</ele><time>2026-04-18T13:43:47.56Z</time></trkpt><trkpt lat="44.0488715" lon="12.1931485"><ele>121.75</ele><time>2026-04-18T13:43:48.549Z</time></trkpt><trkpt lat="44.0488676" lon="12.1933327"><ele>125.5</ele><time>2026-04-18T13:43:49.546Z</time></trkpt><trkpt lat="44.04884" lon="12.1935195"><ele>129.25</ele><time>2026-04-18T13:43:50.563Z</time></trkpt><trkpt lat="44.0488033" lon="12.1937147"><ele>133.0</ele><time>2026-04-18T13:43:51.562Z</time></trkpt><trkpt lat="44.0487853" lon="12.1939222"><ele>135.25</ele><time>2026-04-18T13:43:52.549Z</time></trkpt><trkpt lat="44.0487867" lon="12.19414"><ele>137.5</ele><time>2026-04-18T13:43:53.546Z</time></trkpt><trkpt lat="44.048783" lon="12.1943265"><ele>139.75</ele><time>2026-04-18T13:43:54.551Z</time></trkpt><trkpt lat="44.0487825" lon="12.194499"><ele>142.0</ele><time>2026-04-18T13:43:55.549Z</time></trkpt><trkpt lat="44.0488016" lon="12.1946591"><ele>142.0</ele><time>2026-04-18T13:43:56.554Z</time></trkpt><trkpt lat="44.0488533" lon="12.1948201"><ele>142.0</ele><time>2026-04-18T13:43:57.553Z</time></trkpt><trkpt lat="44.0489186" lon="12.194966"><ele>142.0</ele><time>2026-04-18T13:43:58.559Z</time></trkpt><trkpt lat="44.048987" lon="12.1950672"><ele>142.0</ele><time>2026-04-18T13:43:59.557Z</time></trkpt><trkpt lat="44.0490567" lon="12.1951309"><ele>142.0</ele><time>2026-04-18T13:44:00.544Z</time></trkpt><trkpt lat="44.0491236" lon="12.195139"><ele>144.2</ele><time>2026-04-18T13:44:01.554Z</time></trkpt><trkpt lat="44.0491967" lon="12.1950996"><ele>146.39999999999998</ele><time>2026-04-18T13:44:02.553Z</time></trkpt><trkpt lat="44.0492721" lon="12.1950017"><ele>148.60000000000002</ele><time>2026-04-18T13:44:03.553Z</time></trkpt><trkpt lat="44.049364" lon="12.1948803"><ele>150.8</ele><time>2026-04-18T13:44:04.549Z</time></trkpt><trkpt lat="44.0494637" lon="12.1947578"><ele>153.0</ele><time>2026-04-18T13:44:05.556Z</time></trkpt><trkpt lat="44.0495641" lon="12.1946407"><ele>153.0</ele><time>2026-04-18T13:44:06.557Z</time></trkpt><trkpt lat="44.0496535" lon="12.194543"><ele>153.0</ele><time>2026-04-18T13:44:07.551Z</time></trkpt><trkpt lat="44.0497529" lon="12.1944653"><ele>153.0</ele><time>2026-04-18T13:44:08.547Z</time></trkpt><trkpt lat="44.0498661" lon="12.194417"><ele>153.0</ele><time>2026-04-18T13:44:09.558Z</time></trkpt><trkpt lat="44.0499931" lon="12.1943974"><ele>156.33333333333334</ele><time>2026-04-18T13:44:10.55Z</time></trkpt><trkpt lat="44.0501403" lon="12.1943916"><ele>159.66666666666669</ele><time>2026-04-18T13:44:11.546Z</time></trkpt><trkpt lat="44.0502945" lon="12.1943836"><ele>163.0</ele><time>2026-04-18T13:44:12.551Z</time></trkpt><trkpt lat="44.050453" lon="12.1943687"><ele>163.0</ele><time>2026-04-18T13:44:13.559Z</time></trkpt><trkpt lat="44.0506219" lon="12.1943452"><ele>163.0</ele><time>2026-04-18T13:44:14.557Z</time></trkpt><trkpt lat="44.0508099" lon="12.1943225"><ele>163.0</ele><time>2026-04-18T13:44:15.553Z</time></trkpt><trkpt lat="44.0509993" lon="12.1943107"><ele>166.66666666666669</ele><time>2026-04-18T13:44:16.547Z</time></trkpt><trkpt lat="44.0511761" lon="12.1942891"><ele>170.33333333333334</ele><time>2026-04-18T13:44:17.548Z</time></trkpt><trkpt lat="44.0513313" lon="12.1942734"><ele>174.0</ele><time>2026-04-18T13:44:18.558Z</time></trkpt><trkpt lat="44.0514632" lon="12.1942577"><ele>174.0</ele><time>2026-04-18T13:44:19.553Z</time></trkpt><trkpt lat="44.0515751" lon="12.1942303"><ele>174.0</ele><time>2026-04-18T13:44:20.548Z</time></trkpt><trkpt lat="44.0516695" lon="12.1941745"><ele>174.0</ele><time>2026-04-18T13:44:21.552Z</time></trkpt><trkpt lat="44.0517533" lon="12.1940863"><ele>174.0</ele><time>2026-04-18T13:44:22.549Z</time></trkpt><trkpt lat="44.0518345" lon="12.1939673"><ele>174.0</ele><time>2026-04-18T13:44:23.556Z</time></trkpt><trkpt lat="44.0519167" lon="12.1938067"><ele>174.25</ele><time>2026-04-18T13:44:24.558Z</time></trkpt><trkpt lat="44.0519824" lon="12.1936191"><ele>174.5</ele><time>2026-04-18T13:44:25.557Z</time></trkpt><trkpt lat="44.0520344" lon="12.1934389"><ele>174.75</ele><time>2026-04-18T13:44:26.555Z</time></trkpt><trkpt lat="44.0520915" lon="12.1933024"><ele>175.0</ele><time>2026-04-18T13:44:27.564Z</time></trkpt><trkpt lat="44.0521671" lon="12.1932077"><ele>175.5</ele><time>2026-04-18T13:44:28.556Z</time></trkpt><trkpt lat="44.0522612" lon="12.1931374"><ele>176.0</ele><time>2026-04-18T13:44:29.557Z</time></trkpt><trkpt lat="44.0523766" lon="12.1930788"><ele>176.5</ele><time>2026-04-18T13:44:30.546Z</time></trkpt><trkpt lat="44.0525276" lon="12.1930345"><ele>177.0</ele><time>2026-04-18T13:44:31.554Z</time></trkpt><trkpt lat="44.0526835" lon="12.1929859"><ele>177.0</ele><time>2026-04-18T13:44:32.547Z</time></trkpt><trkpt lat="44.0528182" lon="12.1929084"><ele>177.0</ele><time>2026-04-18T13:44:33.557Z</time></trkpt><trkpt lat="44.052916" lon="12.1928263"><ele>177.0</ele><time>2026-04-18T13:44:34.559Z</time></trkpt><trkpt lat="44.0529963" lon="12.192765"><ele>177.0</ele><time>2026-04-18T13:44:35.556Z</time></trkpt><trkpt lat="44.053069" lon="12.1927406"><ele>177.0</ele><time>2026-04-18T13:44:36.55Z</time></trkpt><trkpt lat="44.0531446" lon="12.1928537"><ele>177.0</ele><time>2026-04-18T13:44:38.565Z</time></trkpt><trkpt lat="44.0530591" lon="12.1930271"><ele>177.0</ele><time>2026-04-18T13:44:40.561Z</time></trkpt><trkpt lat="44.0529537" lon="12.193124"><ele>177.0</ele><time>2026-04-18T13:44:41.545Z</time></trkpt><trkpt lat="44.0528272" lon="12.1932279"><ele>177.0</ele><time>2026-04-18T13:44:42.55Z</time></trkpt><trkpt lat="44.0527044" lon="12.1933274"><ele>182.0</ele><time>2026-04-18T13:44:43.549Z</time></trkpt><trkpt lat="44.0526118" lon="12.1934092"><ele>187.0</ele><time>2026-04-18T13:44:44.564Z</time></trkpt><trkpt lat="44.0525337" lon="12.1934866"><ele>192.0</ele><time>2026-04-18T13:44:45.558Z</time></trkpt><trkpt lat="44.0524897" lon="12.1935637"><ele>197.0</ele><time>2026-04-18T13:44:46.553Z</time></trkpt><trkpt lat="44.0525327" lon="12.1937063"><ele>202.0</ele><time>2026-04-18T13:44:48.546Z</time></trkpt><trkpt lat="44.0526001" lon="12.1937099"><ele>202.0</ele><time>2026-04-18T13:44:49.558Z</time></trkpt><trkpt lat="44.0526834" lon="12.1936596"><ele>202.0</ele><time>2026-04-18T13:44:50.555Z</time></trkpt><trkpt lat="44.0527872" lon="12.1936016"><ele>202.0</ele><time>2026-04-18T13:44:51.561Z</time></trkpt><trkpt lat="44.0528703" lon="12.19359"><ele>202.0</ele><time>2026-04-18T13:44:52.548Z</time></trkpt><trkpt lat="44.052943" lon="12.1936353"><ele>202.0</ele><time>2026-04-18T13:44:53.552Z</time></trkpt><trkpt lat="44.0529998" lon="12.1937351"><ele>202.0</ele><time>2026-04-18T13:44:54.565Z</time></trkpt><trkpt lat="44.0530341" lon="12.1938528"><ele>202.0</ele><time>2026-04-18T13:44:55.558Z</time></trkpt><trkpt lat="44.0530441" lon="12.1940066"><ele>202.0</ele><time>2026-04-18T13:44:56.555Z</time></trkpt><trkpt lat="44.0530407" lon="12.1941909"><ele>202.0</ele><time>2026-04-18T13:44:57.552Z</time></trkpt><trkpt lat="44.0530332" lon="12.1943967"><ele>205.5</ele><time>2026-04-18T13:44:58.556Z</time></trkpt><trkpt lat="44.053023" lon="12.1946025"><ele>209.0</ele><time>2026-04-18T13:44:59.552Z</time></trkpt><trkpt lat="44.0530102" lon="12.1947791"><ele>212.5</ele><time>2026-04-18T13:45:00.554Z</time></trkpt><trkpt lat="44.052984" lon="12.1949209"><ele>216.0</ele><time>2026-04-18T13:45:01.546Z</time></trkpt><trkpt lat="44.0529355" lon="12.195054"><ele>219.33333333333331</ele><time>2026-04-18T13:45:02.556Z</time></trkpt><trkpt lat="44.0528469" lon="12.1951934"><ele>222.66666666666666</ele><time>2026-04-18T13:45:03.557Z</time></trkpt><trkpt lat="44.0527373" lon="12.1953367"><ele>226.0</ele><time>2026-04-18T13:45:04.552Z</time></trkpt><trkpt lat="44.0526206" lon="12.1955034"><ele>228.75</ele><time>2026-04-18T13:45:05.55Z</time></trkpt><trkpt lat="44.052507" lon="12.1956756"><ele>231.5</ele><time>2026-04-18T13:45:06.556Z</time></trkpt><trkpt lat="44.0524068" lon="12.1958025"><ele>234.25</ele><time>2026-04-18T13:45:07.553Z</time></trkpt><trkpt lat="44.0522934" lon="12.1958997"><ele>237.0</ele><time>2026-04-18T13:45:08.559Z</time></trkpt><trkpt lat="44.0521741" lon="12.1959621"><ele>235.5</ele><time>2026-04-18T13:45:09.558Z</time></trkpt><trkpt lat="44.0520437" lon="12.1959685"><ele>234.0</ele><time>2026-04-18T13:45:10.552Z</time></trkpt><trkpt lat="44.0518997" lon="12.1959365"><ele>232.5</ele><time>2026-04-18T13:45:11.555Z</time></trkpt><trkpt lat="44.0517551" lon="12.1959241"><ele>231.0</ele><time>2026-04-18T13:45:12.568Z</time></trkpt><trkpt lat="44.0515951" lon="12.1959431"><ele>231.0</ele><time>2026-04-18T13:45:13.559Z</time></trkpt><trkpt lat="44.0514496" lon="12.1959424"><ele>231.00000000000003</ele><time>2026-04-18T13:45:14.55Z</time></trkpt><trkpt lat="44.0513349" lon="12.1959321"><ele>231.00000000000003</ele><time>2026-04-18T13:45:15.557Z</time></trkpt><trkpt lat="44.0512452" lon="12.1959454"><ele>231.0</ele><time>2026-04-18T13:45:16.559Z</time></trkpt><trkpt lat="44.0511777" lon="12.1959766"><ele>231.0</ele><time>2026-04-18T13:45:17.555Z</time></trkpt><trkpt lat="44.051109" lon="12.1961433"><ele>231.0</ele><time>2026-04-18T13:45:19.554Z</time></trkpt><trkpt lat="44.0511176" lon="12.1962926"><ele>231.0</ele><time>2026-04-18T13:45:20.563Z</time></trkpt><trkpt lat="44.0511587" lon="12.1964661"><ele>231.0</ele><time>2026-04-18T13:45:21.563Z</time></trkpt><trkpt lat="44.0512044" lon="12.1966651"><ele>231.0</ele><time>2026-04-18T13:45:22.555Z</time></trkpt><trkpt lat="44.0512496" lon="12.1968767"><ele>232.5</ele><time>2026-04-18T13:45:23.563Z</time></trkpt><trkpt lat="44.0512958" lon="12.1970527"><ele>234.0</ele><time>2026-04-18T13:45:24.557Z</time></trkpt><trkpt lat="44.0513719" lon="12.1972037"><ele>235.5</ele><time>2026-04-18T13:45:25.561Z</time></trkpt><trkpt lat="44.0514789" lon="12.1973495"><ele>237.0</ele><time>2026-04-18T13:45:26.556Z</time></trkpt><trkpt lat="44.0515908" lon="12.1974951"><ele>244.0</ele><time>2026-04-18T13:45:27.563Z</time></trkpt><trkpt lat="44.0517014" lon="12.1976498"><ele>251.0</ele><time>2026-04-18T13:45:28.555Z</time></trkpt><trkpt lat="44.051802" lon="12.1977796"><ele>258.0</ele><time>2026-04-18T13:45:29.551Z</time></trkpt><trkpt lat="44.0518941" lon="12.1978895"><ele>265.0</ele><time>2026-04-18T13:45:30.562Z</time></trkpt><trkpt lat="44.0519993" lon="12.1979857"><ele>265.0</ele><time>2026-04-18T13:45:31.551Z</time></trkpt><trkpt lat="44.0521134" lon="12.1980824"><ele>265.0</ele><time>2026-04-18T13:45:32.566Z</time></trkpt><trkpt lat="44.0522166" lon="12.1981712"><ele>265.0</ele><time>2026-04-18T13:45:33.564Z</time></trkpt><trkpt lat="44.0522975" lon="12.1982776"><ele>265.0</ele><time>2026-04-18T13:45:34.549Z</time></trkpt><trkpt lat="44.0523599" lon="12.1984139"><ele>264.75</ele><time>2026-04-18T13:45:35.552Z</time></trkpt><trkpt lat="44.0524001" lon="12.1985845"><ele>264.5</ele><time>2026-04-18T13:45:36.55Z</time></trkpt><trkpt lat="44.0524165" lon="12.1987691"><ele>264.25</ele><time>2026-04-18T13:45:37.55Z</time></trkpt><trkpt lat="44.0524165" lon="12.1989735"><ele>264.0</ele><time>2026-04-18T13:45:38.557Z</time></trkpt><trkpt lat="44.0523974" lon="12.1991889"><ele>264.0</ele><time>2026-04-18T13:45:39.547Z</time></trkpt><trkpt lat="44.0523697" lon="12.1994101"><ele>264.0</ele><time>2026-04-18T13:45:40.545Z</time></trkpt><trkpt lat="44.0523472" lon="12.1996397"><ele>264.0</ele><time>2026-04-18T13:45:41.557Z</time></trkpt><trkpt lat="44.0523217" lon="12.1998824"><ele>266.5</ele><time>2026-04-18T13:45:42.552Z</time></trkpt><trkpt lat="44.0522957" lon="12.200115"><ele>269.0</ele><time>2026-04-18T13:45:43.554Z</time></trkpt><trkpt lat="44.0522721" lon="12.2003102"><ele>271.5</ele><time>2026-04-18T13:45:44.545Z</time></trkpt><trkpt lat="44.0522485" lon="12.2004762"><ele>274.0</ele><time>2026-04-18T13:45:45.558Z</time></trkpt><trkpt lat="44.0522216" lon="12.2006218"><ele>275.75</ele><time>2026-04-18T13:45:46.549Z</time></trkpt><trkpt lat="44.0521845" lon="12.2007632"><ele>277.5</ele><time>2026-04-18T13:45:47.562Z</time></trkpt><trkpt lat="44.0521325" lon="12.200899"><ele>279.25</ele><time>2026-04-18T13:45:48.553Z</time></trkpt><trkpt lat="44.0520497" lon="12.2010151"><ele>281.0</ele><time>2026-04-18T13:45:49.551Z</time></trkpt><trkpt lat="44.0519445" lon="12.2011091"><ele>281.0</ele><time>2026-04-18T13:45:50.553Z</time></trkpt><trkpt lat="44.051804" lon="12.2011723"><ele>281.0</ele><time>2026-04-18T13:45:51.558Z</time></trkpt><trkpt lat="44.0516315" lon="12.2012167"><ele>281.0</ele><time>2026-04-18T13:45:52.553Z</time></trkpt><trkpt lat="44.0514415" lon="12.2012574"><ele>282.0</ele><time>2026-04-18T13:45:53.556Z</time></trkpt><trkpt lat="44.0512454" lon="12.2013004"><ele>283.0</ele><time>2026-04-18T13:45:54.553Z</time></trkpt><trkpt lat="44.0510621" lon="12.2013287"><ele>284.0</ele><time>2026-04-18T13:45:55.56Z</time></trkpt><trkpt lat="44.0508956" lon="12.201364"><ele>289.5</ele><time>2026-04-18T13:45:56.556Z</time></trkpt><trkpt lat="44.0507433" lon="12.2014016"><ele>295.0</ele><time>2026-04-18T13:45:57.556Z</time></trkpt><trkpt lat="44.0506028" lon="12.2014291"><ele>300.5</ele><time>2026-04-18T13:45:58.549Z</time></trkpt><trkpt lat="44.0504806" lon="12.2014315"><ele>306.0</ele><time>2026-04-18T13:45:59.55Z</time></trkpt><trkpt lat="44.0503737" lon="12.2013887"><ele>306.0</ele><time>2026-04-18T13:46:00.552Z</time></trkpt><trkpt lat="44.0502734" lon="12.2013132"><ele>306.0</ele><time>2026-04-18T13:46:01.552Z</time></trkpt><trkpt lat="44.0501916" lon="12.2011998"><ele>306.0</ele><time>2026-04-18T13:46:02.566Z</time></trkpt><trkpt lat="44.0501288" lon="12.20105"><ele>306.0</ele><time>2026-04-18T13:46:03.556Z</time></trkpt><trkpt lat="44.0500942" lon="12.2008589"><ele>303.5</ele><time>2026-04-18T13:46:04.557Z</time></trkpt><trkpt lat="44.0500697" lon="12.2006499"><ele>301.0</ele><time>2026-04-18T13:46:05.546Z</time></trkpt><trkpt lat="44.0500595" lon="12.2004614"><ele>298.5</ele><time>2026-04-18T13:46:06.567Z</time></trkpt><trkpt lat="44.0500557" lon="12.2002955"><ele>296.0</ele><time>2026-04-18T13:46:07.552Z</time></trkpt><trkpt lat="44.0500509" lon="12.2001502"><ele>296.0</ele><time>2026-04-18T13:46:08.554Z</time></trkpt><trkpt lat="44.0500471" lon="12.2000316"><ele>296.0</ele><time>2026-04-18T13:46:09.548Z</time></trkpt><trkpt lat="44.050026" lon="12.1999395"><ele>296.0</ele><time>2026-04-18T13:46:10.548Z</time></trkpt><trkpt lat="44.0499132" lon="12.1999203"><ele>296.0</ele><time>2026-04-18T13:46:12.573Z</time></trkpt><trkpt lat="44.0498514" lon="12.1999938"><ele>296.0</ele><time>2026-04-18T13:46:13.561Z</time></trkpt><trkpt lat="44.0497702" lon="12.200122"><ele>296.75</ele><time>2026-04-18T13:46:14.552Z</time></trkpt><trkpt lat="44.0496726" lon="12.2002621"><ele>297.5</ele><time>2026-04-18T13:46:15.554Z</time></trkpt><trkpt lat="44.0495878" lon="12.2003975"><ele>298.25</ele><time>2026-04-18T13:46:16.549Z</time></trkpt><trkpt lat="44.0495252" lon="12.2005435"><ele>299.0</ele><time>2026-04-18T13:46:17.557Z</time></trkpt><trkpt lat="44.0494901" lon="12.2007057"><ele>299.0</ele><time>2026-04-18T13:46:18.568Z</time></trkpt><trkpt lat="44.0494765" lon="12.2008893"><ele>299.0</ele><time>2026-04-18T13:46:19.552Z</time></trkpt><trkpt lat="44.0494896" lon="12.2010575"><ele>299.0</ele><time>2026-04-18T13:46:20.553Z</time></trkpt><trkpt lat="44.0495174" lon="12.2012008"><ele>299.0</ele><time>2026-04-18T13:46:21.552Z</time></trkpt><trkpt lat="44.0495681" lon="12.2013306"><ele>299.0</ele><time>2026-04-18T13:46:22.553Z</time></trkpt><trkpt lat="44.0496481" lon="12.2014642"><ele>299.0</ele><time>2026-04-18T13:46:23.554Z</time></trkpt><trkpt lat="44.049726" lon="12.201622"><ele>299.0</ele><time>2026-04-18T13:46:24.561Z</time></trkpt><trkpt lat="44.0497946" lon="12.2017984"><ele>299.0</ele><time>2026-04-18T13:46:25.557Z</time></trkpt><trkpt lat="44.049846" lon="12.2019929"><ele>301.25</ele><time>2026-04-18T13:46:26.562Z</time></trkpt><trkpt lat="44.0498942" lon="12.2021884"><ele>303.5</ele><time>2026-04-18T13:46:27.55Z</time></trkpt><trkpt lat="44.0499388" lon="12.2023818"><ele>305.75</ele><time>2026-04-18T13:46:28.552Z</time></trkpt><trkpt lat="44.0499778" lon="12.2025782"><ele>308.0</ele><time>2026-04-18T13:46:29.553Z</time></trkpt><trkpt lat="44.050013" lon="12.2027679"><ele>309.5</ele><time>2026-04-18T13:46:30.554Z</time></trkpt><trkpt lat="44.0500344" lon="12.2029428"><ele>311.0</ele><time>2026-04-18T13:46:31.556Z</time></trkpt><trkpt lat="44.0500301" lon="12.20311"><ele>312.5</ele><time>2026-04-18T13:46:32.554Z</time></trkpt><trkpt lat="44.0500036" lon="12.2032793"><ele>314.0</ele><time>2026-04-18T13:46:33.551Z</time></trkpt><trkpt lat="44.049948" lon="12.2034561"><ele>320.33333333333337</ele><time>2026-04-18T13:46:34.55Z</time></trkpt><trkpt lat="44.0498682" lon="12.2036458"><ele>326.6666666666667</ele><time>2026-04-18T13:46:35.559Z</time></trkpt><trkpt lat="44.0497846" lon="12.2038522"><ele>333.0</ele><time>2026-04-18T13:46:36.558Z</time></trkpt><trkpt lat="44.0497048" lon="12.2040622"><ele>334.5</ele><time>2026-04-18T13:46:37.57Z</time></trkpt><trkpt lat="44.0496419" lon="12.2042689"><ele>336.0</ele><time>2026-04-18T13:46:38.553Z</time></trkpt><trkpt lat="44.0495845" lon="12.2044519"><ele>337.5</ele><time>2026-04-18T13:46:39.553Z</time></trkpt><trkpt lat="44.049528" lon="12.2046109"><ele>339.0</ele><time>2026-04-18T13:46:40.556Z</time></trkpt><trkpt lat="44.0494628" lon="12.2047509"><ele>338.5</ele><time>2026-04-18T13:46:41.562Z</time></trkpt><trkpt lat="44.0493794" lon="12.20488"><ele>338.0</ele><time>2026-04-18T13:46:42.574Z</time></trkpt><trkpt lat="44.0492806" lon="12.2049967"><ele>337.5</ele><time>2026-04-18T13:46:43.551Z</time></trkpt><trkpt lat="44.04916" lon="12.2051119"><ele>337.0</ele><time>2026-04-18T13:46:44.554Z</time></trkpt><trkpt lat="44.0490304" lon="12.2052185"><ele>337.0</ele><time>2026-04-18T13:46:45.553Z</time></trkpt><trkpt lat="44.0489027" lon="12.2053304"><ele>337.0</ele><time>2026-04-18T13:46:46.552Z</time></trkpt><trkpt lat="44.04878" lon="12.2054444"><ele>337.0</ele><time>2026-04-18T13:46:47.552Z</time></trkpt><trkpt lat="44.0486711" lon="12.2055746"><ele>337.0</ele><time>2026-04-18T13:46:48.554Z</time></trkpt><trkpt lat="44.0485598" lon="12.2057119"><ele>337.0</ele><time>2026-04-18T13:46:49.555Z</time></trkpt><trkpt lat="44.0484549" lon="12.2058716"><ele>337.0</ele><time>2026-04-18T13:46:50.552Z</time></trkpt><trkpt lat="44.0483745" lon="12.2060577"><ele>337.0</ele><time>2026-04-18T13:46:51.559Z</time></trkpt><trkpt lat="44.0483193" lon="12.2062498"><ele>337.25</ele><time>2026-04-18T13:46:52.559Z</time></trkpt><trkpt lat="44.0482929" lon="12.2064434"><ele>337.5</ele><time>2026-04-18T13:46:53.557Z</time></trkpt><trkpt lat="44.04829" lon="12.2066422"><ele>337.75</ele><time>2026-04-18T13:46:54.549Z</time></trkpt><trkpt lat="44.0482849" lon="12.2068288"><ele>338.0</ele><time>2026-04-18T13:46:55.559Z</time></trkpt><trkpt lat="44.0482653" lon="12.2070048"><ele>338.0</ele><time>2026-04-18T13:46:56.558Z</time></trkpt><trkpt lat="44.0482183" lon="12.2071445"><ele>338.0</ele><time>2026-04-18T13:46:57.558Z</time></trkpt><trkpt lat="44.0481538" lon="12.2072532"><ele>338.0</ele><time>2026-04-18T13:46:58.55Z</time></trkpt><trkpt lat="44.0480686" lon="12.2073215"><ele>338.0</ele><time>2026-04-18T13:46:59.556Z</time></trkpt><trkpt lat="44.0479619" lon="12.2073563"><ele>338.0</ele><time>2026-04-18T13:47:00.555Z</time></trkpt><trkpt lat="44.0478325" lon="12.2073751"><ele>339.75</ele><time>2026-04-18T13:47:01.551Z</time></trkpt><trkpt lat="44.0476853" lon="12.207395"><ele>341.5</ele><time>2026-04-18T13:47:02.555Z</time></trkpt><trkpt lat="44.0475459" lon="12.207431"><ele>343.25</ele><time>2026-04-18T13:47:03.553Z</time></trkpt><trkpt lat="44.0474216" lon="12.2075075"><ele>345.0</ele><time>2026-04-18T13:47:04.554Z</time></trkpt><trkpt lat="44.0473069" lon="12.2076174"><ele>349.3333333333333</ele><time>2026-04-18T13:47:05.554Z</time></trkpt><trkpt lat="44.0471854" lon="12.2077503"><ele>353.66666666666663</ele><time>2026-04-18T13:47:06.551Z</time></trkpt><trkpt lat="44.0470665" lon="12.2078942"><ele>358.0</ele><time>2026-04-18T13:47:07.554Z</time></trkpt><trkpt lat="44.0469527" lon="12.2080215"><ele>358.0</ele><time>2026-04-18T13:47:08.559Z</time></trkpt><trkpt lat="44.0468341" lon="12.2081287"><ele>358.0</ele><time>2026-04-18T13:47:09.554Z</time></trkpt><trkpt lat="44.0466957" lon="12.2082154"><ele>358.0</ele><time>2026-04-18T13:47:10.55Z</time></trkpt><trkpt lat="44.0465294" lon="12.2082863"><ele>363.0</ele><time>2026-04-18T13:47:11.56Z</time></trkpt><trkpt lat="44.0463525" lon="12.2083568"><ele>368.0</ele><time>2026-04-18T13:47:12.559Z</time></trkpt><trkpt lat="44.0462002" lon="12.2084208"><ele>373.0</ele><time>2026-04-18T13:47:13.55Z</time></trkpt><trkpt lat="44.0460694" lon="12.2084822"><ele>373.0</ele><time>2026-04-18T13:47:14.569Z</time></trkpt><trkpt lat="44.0459536" lon="12.2085558"><ele>373.0</ele><time>2026-04-18T13:47:15.56Z</time></trkpt><trkpt lat="44.0458594" lon="12.2086625"><ele>373.0</ele><time>2026-04-18T13:47:16.554Z</time></trkpt><trkpt lat="44.0457747" lon="12.2088128"><ele>373.0</ele><time>2026-04-18T13:47:17.552Z</time></trkpt><trkpt lat="44.0456944" lon="12.2089763"><ele>372.75</ele><time>2026-04-18T13:47:18.556Z</time></trkpt><trkpt lat="44.0456049" lon="12.2091223"><ele>372.5</ele><time>2026-04-18T13:47:19.562Z</time></trkpt><trkpt lat="44.0454936" lon="12.2092364"><ele>372.25</ele><time>2026-04-18T13:47:20.562Z</time></trkpt><trkpt lat="44.045371" lon="12.2093209"><ele>372.0</ele><time>2026-04-18T13:47:21.553Z</time></trkpt><trkpt lat="44.0452753" lon="12.2094037"><ele>372.0</ele><time>2026-04-18T13:47:22.561Z</time></trkpt><trkpt lat="44.045201" lon="12.2095172"><ele>372.0</ele><time>2026-04-18T13:47:23.57Z</time></trkpt><trkpt lat="44.0451488" lon="12.2096816"><ele>372.0</ele><time>2026-04-18T13:47:24.563Z</time></trkpt><trkpt lat="44.0451104" lon="12.2098902"><ele>372.0</ele><time>2026-04-18T13:47:25.561Z</time></trkpt><trkpt lat="44.045073" lon="12.2101366"><ele>372.3333333333333</ele><time>2026-04-18T13:47:26.555Z</time></trkpt><trkpt lat="44.0450341" lon="12.2103937"><ele>372.66666666666663</ele><time>2026-04-18T13:47:27.561Z</time></trkpt><trkpt lat="44.0449958" lon="12.2106284"><ele>373.0</ele><time>2026-04-18T13:47:28.556Z</time></trkpt><trkpt lat="44.0449583" lon="12.2108358"><ele>368.75</ele><time>2026-04-18T13:47:29.557Z</time></trkpt><trkpt lat="44.0449223" lon="12.2110299"><ele>364.5</ele><time>2026-04-18T13:47:30.554Z</time></trkpt><trkpt lat="44.0449025" lon="12.2112086"><ele>360.25</ele><time>2026-04-18T13:47:31.553Z</time></trkpt><trkpt lat="44.0449141" lon="12.2113898"><ele>356.0</ele><time>2026-04-18T13:47:32.552Z</time></trkpt><trkpt lat="44.0449532" lon="12.2115882"><ele>359.33333333333337</ele><time>2026-04-18T13:47:33.547Z</time></trkpt><trkpt lat="44.0450085" lon="12.2118084"><ele>362.6666666666667</ele><time>2026-04-18T13:47:34.55Z</time></trkpt><trkpt lat="44.0450723" lon="12.2120344"><ele>366.0</ele><time>2026-04-18T13:47:35.552Z</time></trkpt><trkpt lat="44.0451467" lon="12.2122677"><ele>366.6666666666667</ele><time>2026-04-18T13:47:36.55Z</time></trkpt><trkpt lat="44.0452301" lon="12.2125206"><ele>367.33333333333337</ele><time>2026-04-18T13:47:37.548Z</time></trkpt><trkpt lat="44.0453083" lon="12.2127754"><ele>368.0</ele><time>2026-04-18T13:47:38.546Z</time></trkpt><trkpt lat="44.0453741" lon="12.2130028"><ele>369.75</ele><time>2026-04-18T13:47:39.55Z</time></trkpt><trkpt lat="44.0454302" lon="12.213196"><ele>371.5</ele><time>2026-04-18T13:47:40.547Z</time></trkpt><trkpt lat="44.0454931" lon="12.2133579"><ele>373.25</ele><time>2026-04-18T13:47:41.544Z</time></trkpt><trkpt lat="44.0455673" lon="12.2134983"><ele>375.0</ele><time>2026-04-18T13:47:42.555Z</time></trkpt><trkpt lat="44.045655" lon="12.2136297"><ele>375.0</ele><time>2026-04-18T13:47:43.56Z</time></trkpt><trkpt lat="44.0457491" lon="12.2137505"><ele>375.0</ele><time>2026-04-18T13:47:44.554Z</time></trkpt><trkpt lat="44.0458369" lon="12.2138687"><ele>375.0</ele><time>2026-04-18T13:47:45.549Z</time></trkpt><trkpt lat="44.0459204" lon="12.2139859"><ele>375.0</ele><time>2026-04-18T13:47:46.551Z</time></trkpt><trkpt lat="44.0460112" lon="12.2140733"><ele>378.75</ele><time>2026-04-18T13:47:47.549Z</time></trkpt><trkpt lat="44.0461223" lon="12.2141436"><ele>382.5</ele><time>2026-04-18T13:47:48.542Z</time></trkpt><trkpt lat="44.0462502" lon="12.2142063"><ele>386.25</ele><time>2026-04-18T13:47:49.559Z</time></trkpt><trkpt lat="44.0463796" lon="12.2142881"><ele>390.0</ele><time>2026-04-18T13:47:50.547Z</time></trkpt><trkpt lat="44.0465054" lon="12.2143913"><ele>390.0</ele><time>2026-04-18T13:47:51.551Z</time></trkpt><trkpt lat="44.0466216" lon="12.2144902"><ele>390.0</ele><time>2026-04-18T13:47:52.543Z</time></trkpt><trkpt lat="44.0467293" lon="12.2145791"><ele>390.0</ele><time>2026-04-18T13:47:53.553Z</time></trkpt><trkpt lat="44.0468209" lon="12.2146666"><ele>390.0</ele><time>2026-04-18T13:47:54.551Z</time></trkpt><trkpt lat="44.046891" lon="12.214779"><ele>387.6666666666667</ele><time>2026-04-18T13:47:55.551Z</time></trkpt><trkpt lat="44.0469392" lon="12.214912"><ele>385.3333333333333</ele><time>2026-04-18T13:47:56.551Z</time></trkpt><trkpt lat="44.0469638" lon="12.2150361"><ele>383.0</ele><time>2026-04-18T13:47:57.549Z</time></trkpt><trkpt lat="44.0469701" lon="12.2151546"><ele>380.66666666666663</ele><time>2026-04-18T13:47:58.551Z</time></trkpt><trkpt lat="44.0469595" lon="12.2152658"><ele>378.3333333333333</ele><time>2026-04-18T13:47:59.549Z</time></trkpt><trkpt lat="44.0469267" lon="12.2153715"><ele>376.0</ele><time>2026-04-18T13:48:00.553Z</time></trkpt><trkpt lat="44.0468844" lon="12.2154563"><ele>376.0</ele><time>2026-04-18T13:48:01.551Z</time></trkpt><trkpt lat="44.0468316" lon="12.2155581"><ele>376.0</ele><time>2026-04-18T13:48:03.552Z</time></trkpt><trkpt lat="44.0468917" lon="12.2156511"><ele>376.0</ele><time>2026-04-18T13:48:06.549Z</time></trkpt><trkpt lat="44.0469623" lon="12.2156864"><ele>376.0</ele><time>2026-04-18T13:48:07.555Z</time></trkpt><trkpt lat="44.047052" lon="12.2157154"><ele>376.0</ele><time>2026-04-18T13:48:08.545Z</time></trkpt><trkpt lat="44.0471562" lon="12.2157675"><ele>373.5</ele><time>2026-04-18T13:48:09.559Z</time></trkpt><trkpt lat="44.0472672" lon="12.2158633"><ele>371.0</ele><time>2026-04-18T13:48:10.555Z</time></trkpt><trkpt lat="44.0473768" lon="12.2159987"><ele>368.5</ele><time>2026-04-18T13:48:11.553Z</time></trkpt><trkpt lat="44.047482" lon="12.2161591"><ele>366.0</ele><time>2026-04-18T13:48:12.553Z</time></trkpt><trkpt lat="44.0475872" lon="12.2163297"><ele>364.0</ele><time>2026-04-18T13:48:13.546Z</time></trkpt><trkpt lat="44.0476677" lon="12.2165041"><ele>362.0</ele><time>2026-04-18T13:48:14.551Z</time></trkpt><trkpt lat="44.0477102" lon="12.2166756"><ele>360.0</ele><time>2026-04-18T13:48:15.551Z</time></trkpt><trkpt lat="44.0477452" lon="12.2168361"><ele>358.0</ele><time>2026-04-18T13:48:16.559Z</time></trkpt><trkpt lat="44.047789" lon="12.2169784"><ele>358.0</ele><time>2026-04-18T13:48:17.553Z</time></trkpt><trkpt lat="44.0478391" lon="12.2171086"><ele>358.0</ele><time>2026-04-18T13:48:18.548Z</time></trkpt><trkpt lat="44.0478974" lon="12.2172173"><ele>358.0</ele><time>2026-04-18T13:48:19.55Z</time></trkpt><trkpt lat="44.0479605" lon="12.2172964"><ele>358.0</ele><time>2026-04-18T13:48:20.548Z</time></trkpt><trkpt lat="44.0480271" lon="12.2173431"><ele>358.0</ele><time>2026-04-18T13:48:21.553Z</time></trkpt><trkpt lat="44.0481118" lon="12.2173556"><ele>358.0</ele><time>2026-04-18T13:48:22.547Z</time></trkpt><trkpt lat="44.0482152" lon="12.2173449"><ele>357.0</ele><time>2026-04-18T13:48:23.547Z</time></trkpt><trkpt lat="44.048335" lon="12.2173681"><ele>356.0</ele><time>2026-04-18T13:48:24.55Z</time></trkpt><trkpt lat="44.0484561" lon="12.2174304"><ele>355.0</ele><time>2026-04-18T13:48:25.541Z</time></trkpt><trkpt lat="44.0485733" lon="12.2175311"><ele>354.0</ele><time>2026-04-18T13:48:26.545Z</time></trkpt><trkpt lat="44.0486879" lon="12.2176593"><ele>354.0</ele><time>2026-04-18T13:48:27.549Z</time></trkpt><trkpt lat="44.0488062" lon="12.2177928"><ele>354.0</ele><time>2026-04-18T13:48:28.548Z</time></trkpt><trkpt lat="44.0489206" lon="12.2179325"><ele>354.0</ele><time>2026-04-18T13:48:29.547Z</time></trkpt><trkpt lat="44.049026" lon="12.218094"><ele>354.0</ele><time>2026-04-18T13:48:30.544Z</time></trkpt><trkpt lat="44.0491328" lon="12.2182702"><ele>354.0</ele><time>2026-04-18T13:48:31.546Z</time></trkpt><trkpt lat="44.0492472" lon="12.2184511"><ele>354.0</ele><time>2026-04-18T13:48:32.546Z</time></trkpt><trkpt lat="44.0493567" lon="12.2186154"><ele>354.0</ele><time>2026-04-18T13:48:33.548Z</time></trkpt><trkpt lat="44.0494607" lon="12.2187629"><ele>354.0</ele><time>2026-04-18T13:48:34.545Z</time></trkpt><trkpt lat="44.0495668" lon="12.2189073"><ele>354.0</ele><time>2026-04-18T13:48:35.544Z</time></trkpt><trkpt lat="44.0496832" lon="12.219055"><ele>353.0</ele><time>2026-04-18T13:48:36.551Z</time></trkpt><trkpt lat="44.0497955" lon="12.2192099"><ele>352.0</ele><time>2026-04-18T13:48:37.546Z</time></trkpt><trkpt lat="44.0498976" lon="12.2193718"><ele>351.0</ele><time>2026-04-18T13:48:38.541Z</time></trkpt><trkpt lat="44.0499761" lon="12.2195405"><ele>351.0</ele><time>2026-04-18T13:48:39.548Z</time></trkpt><trkpt lat="44.0500405" lon="12.2197049"><ele>351.0</ele><time>2026-04-18T13:48:40.546Z</time></trkpt><trkpt lat="44.0501037" lon="12.2198559"><ele>351.0</ele><time>2026-04-18T13:48:41.549Z</time></trkpt><trkpt lat="44.0501668" lon="12.2199693"><ele>351.0</ele><time>2026-04-18T13:48:42.544Z</time></trkpt><trkpt lat="44.0502402" lon="12.2200259"><ele>351.0</ele><time>2026-04-18T13:48:43.55Z</time></trkpt><trkpt lat="44.0503105" lon="12.2200299"><ele>351.0</ele><time>2026-04-18T13:48:44.545Z</time></trkpt><trkpt lat="44.0503834" lon="12.2199989"><ele>351.0</ele><time>2026-04-18T13:48:45.549Z</time></trkpt><trkpt lat="44.0504379" lon="12.2199173"><ele>351.0</ele><time>2026-04-18T13:48:46.547Z</time></trkpt><trkpt lat="44.0504701" lon="12.2197886"><ele>351.0</ele><time>2026-04-18T13:48:47.544Z</time></trkpt><trkpt lat="44.050476" lon="12.2196143"><ele>351.0</ele><time>2026-04-18T13:48:48.547Z</time></trkpt><trkpt lat="44.050466" lon="12.2194284"><ele>351.0</ele><time>2026-04-18T13:48:49.551Z</time></trkpt><trkpt lat="44.0504657" lon="12.219255"><ele>351.0</ele><time>2026-04-18T13:48:50.545Z</time></trkpt><trkpt lat="44.0504855" lon="12.2191109"><ele>351.0</ele><time>2026-04-18T13:48:51.543Z</time></trkpt><trkpt lat="44.0505228" lon="12.2189994"><ele>351.0</ele><time>2026-04-18T13:48:52.548Z</time></trkpt><trkpt lat="44.0505727" lon="12.2189328"><ele>351.0</ele><time>2026-04-18T13:48:53.55Z</time></trkpt><trkpt lat="44.0506527" lon="12.218884"><ele>349.25</ele><time>2026-04-18T13:48:54.547Z</time></trkpt><trkpt lat="44.0507665" lon="12.2188737"><ele>347.5</ele><time>2026-04-18T13:48:55.544Z</time></trkpt><trkpt lat="44.0509069" lon="12.2188826"><ele>345.75</ele><time>2026-04-18T13:48:56.55Z</time></trkpt><trkpt lat="44.0510751" lon="12.2189393"><ele>344.0</ele><time>2026-04-18T13:48:57.554Z</time></trkpt><trkpt lat="44.0512515" lon="12.2190196"><ele>343.33333333333337</ele><time>2026-04-18T13:48:58.554Z</time></trkpt><trkpt lat="44.0514129" lon="12.2191073"><ele>342.6666666666667</ele><time>2026-04-18T13:48:59.545Z</time></trkpt><trkpt lat="44.0515711" lon="12.219204"><ele>342.0</ele><time>2026-04-18T13:49:00.545Z</time></trkpt><trkpt lat="44.0516819" lon="12.2193285"><ele>340.8</ele><time>2026-04-18T13:49:01.548Z</time></trkpt><trkpt lat="44.0517507" lon="12.2194689"><ele>339.6</ele><time>2026-04-18T13:49:02.562Z</time></trkpt><trkpt lat="44.0518045" lon="12.2196227"><ele>338.40000000000003</ele><time>2026-04-18T13:49:03.549Z</time></trkpt><trkpt lat="44.0518531" lon="12.2197588"><ele>337.20000000000005</ele><time>2026-04-18T13:49:04.555Z</time></trkpt><trkpt lat="44.0519125" lon="12.2198499"><ele>336.0</ele><time>2026-04-18T13:49:05.555Z</time></trkpt><trkpt lat="44.0519829" lon="12.2198986"><ele>336.0</ele><time>2026-04-18T13:49:06.554Z</time></trkpt><trkpt lat="44.052073" lon="12.2198937"><ele>336.0</ele><time>2026-04-18T13:49:07.547Z</time></trkpt><trkpt lat="44.0521822" lon="12.2198456"><ele>336.0</ele><time>2026-04-18T13:49:08.551Z</time></trkpt><trkpt lat="44.0523098" lon="12.2197518"><ele>336.0</ele><time>2026-04-18T13:49:09.557Z</time></trkpt><trkpt lat="44.0524458" lon="12.2196543"><ele>333.75</ele><time>2026-04-18T13:49:10.548Z</time></trkpt><trkpt lat="44.052574" lon="12.2195682"><ele>331.5</ele><time>2026-04-18T13:49:11.55Z</time></trkpt><trkpt lat="44.0526852" lon="12.2194756"><ele>329.25</ele><time>2026-04-18T13:49:12.551Z</time></trkpt><trkpt lat="44.0527897" lon="12.2193717"><ele>327.0</ele><time>2026-04-18T13:49:13.543Z</time></trkpt><trkpt lat="44.0528976" lon="12.2192798"><ele>327.0</ele><time>2026-04-18T13:49:14.545Z</time></trkpt><trkpt lat="44.053015" lon="12.2192151"><ele>327.0</ele><time>2026-04-18T13:49:15.547Z</time></trkpt><trkpt lat="44.0531489" lon="12.2192058"><ele>327.0</ele><time>2026-04-18T13:49:16.546Z</time></trkpt><trkpt lat="44.0532765" lon="12.2192086"><ele>327.0</ele><time>2026-04-18T13:49:17.553Z</time></trkpt><trkpt lat="44.0534009" lon="12.2191995"><ele>324.6</ele><time>2026-04-18T13:49:18.555Z</time></trkpt><trkpt lat="44.0535074" lon="12.219164"><ele>322.20000000000005</ele><time>2026-04-18T13:49:19.556Z</time></trkpt><trkpt lat="44.053597" lon="12.2190996"><ele>319.8</ele><time>2026-04-18T13:49:20.549Z</time></trkpt><trkpt lat="44.0536422" lon="12.2190155"><ele>317.4</ele><time>2026-04-18T13:49:21.546Z</time></trkpt><trkpt lat="44.0536395" lon="12.2189006"><ele>315.0</ele><time>2026-04-18T13:49:22.549Z</time></trkpt><trkpt lat="44.0536009" lon="12.2187679"><ele>313.0</ele><time>2026-04-18T13:49:23.549Z</time></trkpt><trkpt lat="44.0535385" lon="12.2186158"><ele>311.0</ele><time>2026-04-18T13:49:24.551Z</time></trkpt><trkpt lat="44.0534676" lon="12.2184541"><ele>309.0</ele><time>2026-04-18T13:49:25.549Z</time></trkpt><trkpt lat="44.053416" lon="12.2183081"><ele>307.0</ele><time>2026-04-18T13:49:26.557Z</time></trkpt><trkpt lat="44.0533948" lon="12.2181629"><ele>303.25</ele><time>2026-04-18T13:49:27.552Z</time></trkpt><trkpt lat="44.0534137" lon="12.2180117"><ele>299.5</ele><time>2026-04-18T13:49:28.549Z</time></trkpt><trkpt lat="44.0534713" lon="12.2178601"><ele>295.75</ele><time>2026-04-18T13:49:29.548Z</time></trkpt><trkpt lat="44.0535657" lon="12.2177244"><ele>292.0</ele><time>2026-04-18T13:49:30.55Z</time></trkpt><trkpt lat="44.0536881" lon="12.2175999"><ele>292.0</ele><time>2026-04-18T13:49:31.551Z</time></trkpt><trkpt lat="44.0538252" lon="12.2174813"><ele>292.0</ele><time>2026-04-18T13:49:32.55Z</time></trkpt><trkpt lat="44.0539679" lon="12.217386"><ele>292.0</ele><time>2026-04-18T13:49:33.554Z</time></trkpt><trkpt lat="44.0541054" lon="12.2173186"><ele>289.0</ele><time>2026-04-18T13:49:34.551Z</time></trkpt><trkpt lat="44.0542485" lon="12.2172733"><ele>286.0</ele><time>2026-04-18T13:49:35.545Z</time></trkpt><trkpt lat="44.0544077" lon="12.2172518"><ele>283.0</ele><time>2026-04-18T13:49:36.554Z</time></trkpt><trkpt lat="44.0545801" lon="12.2172468"><ele>283.0</ele><time>2026-04-18T13:49:37.546Z</time></trkpt><trkpt lat="44.0547633" lon="12.2172583"><ele>283.0</ele><time>2026-04-18T13:49:38.546Z</time></trkpt><trkpt lat="44.0549532" lon="12.2172981"><ele>283.0</ele><time>2026-04-18T13:49:39.549Z</time></trkpt><trkpt lat="44.0551362" lon="12.2173583"><ele>289.0</ele><time>2026-04-18T13:49:40.55Z</time></trkpt><trkpt lat="44.0553057" lon="12.2174116"><ele>295.0</ele><time>2026-04-18T13:49:41.544Z</time></trkpt><trkpt lat="44.0554497" lon="12.2174598"><ele>301.0</ele><time>2026-04-18T13:49:42.553Z</time></trkpt><trkpt lat="44.0555754" lon="12.2175135"><ele>301.0</ele><time>2026-04-18T13:49:43.55Z</time></trkpt><trkpt lat="44.0556712" lon="12.2175673"><ele>301.0</ele><time>2026-04-18T13:49:44.548Z</time></trkpt><trkpt lat="44.0557383" lon="12.2176639"><ele>301.0</ele><time>2026-04-18T13:49:45.557Z</time></trkpt><trkpt lat="44.0557639" lon="12.2177938"><ele>301.0</ele><time>2026-04-18T13:49:46.557Z</time></trkpt><trkpt lat="44.0557605" lon="12.2179407"><ele>301.0</ele><time>2026-04-18T13:49:47.552Z</time></trkpt><trkpt lat="44.0557392" lon="12.2180977"><ele>302.8</ele><time>2026-04-18T13:49:48.554Z</time></trkpt><trkpt lat="44.0557286" lon="12.2182412"><ele>304.6</ele><time>2026-04-18T13:49:49.549Z</time></trkpt><trkpt lat="44.0557581" lon="12.2183441"><ele>306.4</ele><time>2026-04-18T13:49:50.547Z</time></trkpt><trkpt lat="44.0558222" lon="12.2184126"><ele>308.2</ele><time>2026-04-18T13:49:51.554Z</time></trkpt><trkpt lat="44.0559141" lon="12.2184591"><ele>310.0</ele><time>2026-04-18T13:49:52.547Z</time></trkpt><trkpt lat="44.0560293" lon="12.2184976"><ele>310.0</ele><time>2026-04-18T13:49:53.549Z</time></trkpt><trkpt lat="44.0561659" lon="12.2185575"><ele>310.0</ele><time>2026-04-18T13:49:54.549Z</time></trkpt><trkpt lat="44.0563089" lon="12.2186369"><ele>310.0</ele><time>2026-04-18T13:49:55.542Z</time></trkpt><trkpt lat="44.0564484" lon="12.2187453"><ele>310.0</ele><time>2026-04-18T13:49:56.544Z</time></trkpt><trkpt lat="44.0565853" lon="12.2188563"><ele>310.0</ele><time>2026-04-18T13:49:57.548Z</time></trkpt><trkpt lat="44.0567117" lon="12.2189556"><ele>310.0</ele><time>2026-04-18T13:49:58.544Z</time></trkpt><trkpt lat="44.0568127" lon="12.2190345"><ele>310.0</ele><time>2026-04-18T13:49:59.55Z</time></trkpt><trkpt lat="44.0568935" lon="12.2190933"><ele>311.2</ele><time>2026-04-18T13:50:00.541Z</time></trkpt><trkpt lat="44.0569624" lon="12.2191099"><ele>312.4</ele><time>2026-04-18T13:50:01.545Z</time></trkpt><trkpt lat="44.0570462" lon="12.2190238"><ele>313.6</ele><time>2026-04-18T13:50:03.543Z</time></trkpt><trkpt lat="44.0569912" lon="12.2188715"><ele>314.8</ele><time>2026-04-18T13:50:05.544Z</time></trkpt><trkpt lat="44.0569057" lon="12.2188104"><ele>316.0</ele><time>2026-04-18T13:50:06.545Z</time></trkpt><trkpt lat="44.0567902" lon="12.218735"><ele>314.5</ele><time>2026-04-18T13:50:07.547Z</time></trkpt><trkpt lat="44.0566626" lon="12.2186273"><ele>313.0</ele><time>2026-04-18T13:50:08.539Z</time></trkpt><trkpt lat="44.0565554" lon="12.2185189"><ele>311.5</ele><time>2026-04-18T13:50:09.541Z</time></trkpt><trkpt lat="44.0564612" lon="12.2184285"><ele>310.0</ele><time>2026-04-18T13:50:10.552Z</time></trkpt><trkpt lat="44.056389" lon="12.2183534"><ele>310.0</ele><time>2026-04-18T13:50:11.548Z</time></trkpt><trkpt lat="44.056353" lon="12.218263"><ele>310.0</ele><time>2026-04-18T13:50:12.548Z</time></trkpt><trkpt lat="44.0563515" lon="12.2181588"><ele>310.0</ele><time>2026-04-18T13:50:13.553Z</time></trkpt><trkpt lat="44.0563902" lon="12.2180741"><ele>310.0</ele><time>2026-04-18T13:50:14.545Z</time></trkpt><trkpt lat="44.0564756" lon="12.2180253"><ele>310.0</ele><time>2026-04-18T13:50:15.55Z</time></trkpt><trkpt lat="44.0565907" lon="12.217999"><ele>310.0</ele><time>2026-04-18T13:50:16.544Z</time></trkpt><trkpt lat="44.0567231" lon="12.2179939"><ele>310.0</ele><time>2026-04-18T13:50:17.545Z</time></trkpt><trkpt lat="44.0568628" lon="12.2180107"><ele>310.0</ele><time>2026-04-18T13:50:18.551Z</time></trkpt><trkpt lat="44.0570001" lon="12.2180537"><ele>310.0</ele><time>2026-04-18T13:50:19.544Z</time></trkpt><trkpt lat="44.0571286" lon="12.2181321"><ele>310.0</ele><time>2026-04-18T13:50:20.545Z</time></trkpt><trkpt lat="44.0572551" lon="12.2182441"><ele>316.0</ele><time>2026-04-18T13:50:21.545Z</time></trkpt><trkpt lat="44.0573914" lon="12.2183643"><ele>322.0</ele><time>2026-04-18T13:50:22.545Z</time></trkpt><trkpt lat="44.05753" lon="12.2184894"><ele>328.0</ele><time>2026-04-18T13:50:23.546Z</time></trkpt><trkpt lat="44.0576646" lon="12.2186143"><ele>330.25</ele><time>2026-04-18T13:50:24.551Z</time></trkpt><trkpt lat="44.0577928" lon="12.2187471"><ele>332.5</ele><time>2026-04-18T13:50:25.548Z</time></trkpt><trkpt lat="44.0578996" lon="12.2188659"><ele>334.75</ele><time>2026-04-18T13:50:26.546Z</time></trkpt><trkpt lat="44.0579819" lon="12.2189928"><ele>337.0</ele><time>2026-04-18T13:50:27.548Z</time></trkpt><trkpt lat="44.0580354" lon="12.2191461"><ele>337.0</ele><time>2026-04-18T13:50:28.546Z</time></trkpt><trkpt lat="44.0580542" lon="12.2193274"><ele>337.0</ele><time>2026-04-18T13:50:29.545Z</time></trkpt><trkpt lat="44.0580576" lon="12.2195286"><ele>337.0</ele><time>2026-04-18T13:50:30.546Z</time></trkpt><trkpt lat="44.0580692" lon="12.2197267"><ele>337.0</ele><time>2026-04-18T13:50:31.552Z</time></trkpt><trkpt lat="44.0581021" lon="12.2198932"><ele>335.5</ele><time>2026-04-18T13:50:32.546Z</time></trkpt><trkpt lat="44.0581593" lon="12.2200408"><ele>334.0</ele><time>2026-04-18T13:50:33.546Z</time></trkpt><trkpt lat="44.0582498" lon="12.2201894"><ele>332.5</ele><time>2026-04-18T13:50:34.549Z</time></trkpt><trkpt lat="44.0583669" lon="12.2203321"><ele>331.0</ele><time>2026-04-18T13:50:35.544Z</time></trkpt><trkpt lat="44.0584877" lon="12.2204583"><ele>334.75</ele><time>2026-04-18T13:50:36.548Z</time></trkpt><trkpt lat="44.0585935" lon="12.220566"><ele>338.5</ele><time>2026-04-18T13:50:37.552Z</time></trkpt><trkpt lat="44.0586783" lon="12.2206692"><ele>342.25</ele><time>2026-04-18T13:50:38.548Z</time></trkpt><trkpt lat="44.0587346" lon="12.2207885"><ele>346.0</ele><time>2026-04-18T13:50:39.545Z</time></trkpt><trkpt lat="44.0587633" lon="12.2209276"><ele>346.0</ele><time>2026-04-18T13:50:40.552Z</time></trkpt><trkpt lat="44.0587508" lon="12.2210619"><ele>346.0</ele><time>2026-04-18T13:50:41.548Z</time></trkpt><trkpt lat="44.0587169" lon="12.2212044"><ele>346.0</ele><time>2026-04-18T13:50:42.551Z</time></trkpt><trkpt lat="44.0586814" lon="12.2213482"><ele>346.0</ele><time>2026-04-18T13:50:43.549Z</time></trkpt><trkpt lat="44.058661" lon="12.2214823"><ele>346.0</ele><time>2026-04-18T13:50:44.557Z</time></trkpt><trkpt lat="44.0586732" lon="12.2216124"><ele>347.8333333333333</ele><time>2026-04-18T13:50:45.548Z</time></trkpt><trkpt lat="44.058703" lon="12.2217342"><ele>349.66666666666663</ele><time>2026-04-18T13:50:46.55Z</time></trkpt><trkpt lat="44.0587479" lon="12.2218341"><ele>351.5</ele><time>2026-04-18T13:50:47.55Z</time></trkpt><trkpt lat="44.058801" lon="12.2219139"><ele>353.3333333333333</ele><time>2026-04-18T13:50:48.545Z</time></trkpt><trkpt lat="44.0588606" lon="12.2219652"><ele>355.1666666666667</ele><time>2026-04-18T13:50:49.559Z</time></trkpt><trkpt lat="44.0589323" lon="12.2219768"><ele>357.0</ele><time>2026-04-18T13:50:50.548Z</time></trkpt><trkpt lat="44.0590178" lon="12.221931"><ele>358.5</ele><time>2026-04-18T13:50:51.542Z</time></trkpt><trkpt lat="44.0591253" lon="12.2218518"><ele>360.0</ele><time>2026-04-18T13:50:52.545Z</time></trkpt><trkpt lat="44.0592469" lon="12.2217674"><ele>361.5</ele><time>2026-04-18T13:50:53.552Z</time></trkpt><trkpt lat="44.0593734" lon="12.2216895"><ele>363.0</ele><time>2026-04-18T13:50:54.559Z</time></trkpt><trkpt lat="44.0595112" lon="12.2216471"><ele>363.0</ele><time>2026-04-18T13:50:55.546Z</time></trkpt><trkpt lat="44.0596561" lon="12.2216632"><ele>363.0</ele><time>2026-04-18T13:50:56.542Z</time></trkpt><trkpt lat="44.0597969" lon="12.2217184"><ele>363.0</ele><time>2026-04-18T13:50:57.546Z</time></trkpt><trkpt lat="44.0599251" lon="12.2218033"><ele>363.0</ele><time>2026-04-18T13:50:58.547Z</time></trkpt><trkpt lat="44.0600384" lon="12.2219031"><ele>363.2</ele><time>2026-04-18T13:50:59.554Z</time></trkpt><trkpt lat="44.0601299" lon="12.2220077"><ele>363.4</ele><time>2026-04-18T13:51:00.541Z</time></trkpt><trkpt lat="44.0602016" lon="12.222107"><ele>363.59999999999997</ele><time>2026-04-18T13:51:01.542Z</time></trkpt><trkpt lat="44.0602709" lon="12.222164"><ele>363.79999999999995</ele><time>2026-04-18T13:51:02.544Z</time></trkpt><trkpt lat="44.0603444" lon="12.2221826"><ele>364.0</ele><time>2026-04-18T13:51:03.542Z</time></trkpt><trkpt lat="44.0604196" lon="12.2221755"><ele>364.0</ele><time>2026-04-18T13:51:04.55Z</time></trkpt><trkpt lat="44.0604857" lon="12.2221371"><ele>364.0</ele><time>2026-04-18T13:51:05.545Z</time></trkpt><trkpt lat="44.060545" lon="12.2220422"><ele>364.0</ele><time>2026-04-18T13:51:06.553Z</time></trkpt><trkpt lat="44.0606072" lon="12.2219175"><ele>364.0</ele><time>2026-04-18T13:51:07.545Z</time></trkpt><trkpt lat="44.0606747" lon="12.2217852"><ele>364.0</ele><time>2026-04-18T13:51:08.545Z</time></trkpt><trkpt lat="44.0607593" lon="12.221694"><ele>363.0</ele><time>2026-04-18T13:51:09.54Z</time></trkpt><trkpt lat="44.0608579" lon="12.2216225"><ele>362.0</ele><time>2026-04-18T13:51:10.541Z</time></trkpt><trkpt lat="44.0609737" lon="12.2215727"><ele>361.0</ele><time>2026-04-18T13:51:11.547Z</time></trkpt><trkpt lat="44.0611195" lon="12.2215642"><ele>360.0</ele><time>2026-04-18T13:51:12.552Z</time></trkpt><trkpt lat="44.0612732" lon="12.2215842"><ele>360.0</ele><time>2026-04-18T13:51:13.549Z</time></trkpt><trkpt lat="44.0614233" lon="12.2216461"><ele>360.0</ele><time>2026-04-18T13:51:14.545Z</time></trkpt><trkpt lat="44.0615678" lon="12.2217289"><ele>360.0</ele><time>2026-04-18T13:51:15.551Z</time></trkpt><trkpt lat="44.0617134" lon="12.2218205"><ele>360.0</ele><time>2026-04-18T13:51:16.552Z</time></trkpt><trkpt lat="44.0618515" lon="12.2219106"><ele>360.0</ele><time>2026-04-18T13:51:17.546Z</time></trkpt><trkpt lat="44.0619797" lon="12.2220105"><ele>360.0</ele><time>2026-04-18T13:51:18.543Z</time></trkpt><trkpt lat="44.0620963" lon="12.2221304"><ele>360.0</ele><time>2026-04-18T13:51:19.548Z</time></trkpt><trkpt lat="44.0622051" lon="12.2222811"><ele>360.3333333333333</ele><time>2026-04-18T13:51:20.546Z</time></trkpt><trkpt lat="44.0623031" lon="12.2224521"><ele>360.66666666666663</ele><time>2026-04-18T13:51:21.551Z</time></trkpt><trkpt lat="44.0623989" lon="12.2226308"><ele>361.0</ele><time>2026-04-18T13:51:22.556Z</time></trkpt><trkpt lat="44.0624864" lon="12.222809"><ele>361.0</ele><time>2026-04-18T13:51:23.547Z</time></trkpt><trkpt lat="44.0625685" lon="12.2229655"><ele>361.0</ele><time>2026-04-18T13:51:24.55Z</time></trkpt><trkpt lat="44.0626446" lon="12.2230913"><ele>361.0</ele><time>2026-04-18T13:51:25.554Z</time></trkpt><trkpt lat="44.0627187" lon="12.2231991"><ele>361.0</ele><time>2026-04-18T13:51:26.545Z</time></trkpt><trkpt lat="44.0628079" lon="12.2232937"><ele>359.25</ele><time>2026-04-18T13:51:27.553Z</time></trkpt><trkpt lat="44.0628963" lon="12.2233894"><ele>357.5</ele><time>2026-04-18T13:51:28.544Z</time></trkpt><trkpt lat="44.0629764" lon="12.223521"><ele>355.75</ele><time>2026-04-18T13:51:29.547Z</time></trkpt><trkpt lat="44.0630409" lon="12.2236851"><ele>354.0</ele><time>2026-04-18T13:51:30.546Z</time></trkpt><trkpt lat="44.063094" lon="12.2238745"><ele>351.6666666666667</ele><time>2026-04-18T13:51:31.553Z</time></trkpt><trkpt lat="44.0631441" lon="12.2240818"><ele>349.33333333333337</ele><time>2026-04-18T13:51:32.548Z</time></trkpt><trkpt lat="44.0631925" lon="12.2242794"><ele>347.0</ele><time>2026-04-18T13:51:33.55Z</time></trkpt><trkpt lat="44.0632494" lon="12.2244782"><ele>349.25</ele><time>2026-04-18T13:51:34.559Z</time></trkpt><trkpt lat="44.063316" lon="12.2246467"><ele>351.5</ele><time>2026-04-18T13:51:35.551Z</time></trkpt><trkpt lat="44.063397" lon="12.2247736"><ele>353.75</ele><time>2026-04-18T13:51:36.545Z</time></trkpt><trkpt lat="44.063497" lon="12.2248589"><ele>356.0</ele><time>2026-04-18T13:51:37.546Z</time></trkpt><trkpt lat="44.0636219" lon="12.2249445"><ele>356.0</ele><time>2026-04-18T13:51:38.547Z</time></trkpt><trkpt lat="44.0637572" lon="12.2250173"><ele>356.0</ele><time>2026-04-18T13:51:39.544Z</time></trkpt><trkpt lat="44.0638916" lon="12.2250941"><ele>356.0</ele><time>2026-04-18T13:51:40.544Z</time></trkpt><trkpt lat="44.0640182" lon="12.2251888"><ele>356.0</ele><time>2026-04-18T13:51:41.546Z</time></trkpt><trkpt lat="44.0641273" lon="12.225296"><ele>357.0</ele><time>2026-04-18T13:51:42.551Z</time></trkpt><trkpt lat="44.0642224" lon="12.2254107"><ele>358.0</ele><time>2026-04-18T13:51:43.545Z</time></trkpt><trkpt lat="44.0643063" lon="12.2255527"><ele>359.0</ele><time>2026-04-18T13:51:44.544Z</time></trkpt><trkpt lat="44.0643818" lon="12.2257228"><ele>360.0</ele><time>2026-04-18T13:51:45.551Z</time></trkpt><trkpt lat="44.0644628" lon="12.225905"><ele>359.3333333333333</ele><time>2026-04-18T13:51:46.548Z</time></trkpt><trkpt lat="44.0645503" lon="12.2261108"><ele>358.66666666666663</ele><time>2026-04-18T13:51:47.544Z</time></trkpt><trkpt lat="44.0646405" lon="12.2263218"><ele>358.0</ele><time>2026-04-18T13:51:48.546Z</time></trkpt><trkpt lat="44.0647396" lon="12.226544"><ele>358.0</ele><time>2026-04-18T13:51:49.55Z</time></trkpt><trkpt lat="44.0648467" lon="12.2267749"><ele>358.0</ele><time>2026-04-18T13:51:50.549Z</time></trkpt><trkpt lat="44.0649483" lon="12.2270053"><ele>358.0</ele><time>2026-04-18T13:51:51.549Z</time></trkpt><trkpt lat="44.0650351" lon="12.2272117"><ele>363.25</ele><time>2026-04-18T13:51:52.545Z</time></trkpt><trkpt lat="44.0651068" lon="12.2273991"><ele>368.5</ele><time>2026-04-18T13:51:53.553Z</time></trkpt><trkpt lat="44.0651649" lon="12.2275835"><ele>373.75</ele><time>2026-04-18T13:51:54.548Z</time></trkpt><trkpt lat="44.0652031" lon="12.2277712"><ele>379.0</ele><time>2026-04-18T13:51:55.548Z</time></trkpt><trkpt lat="44.0652204" lon="12.2279529"><ele>379.0</ele><time>2026-04-18T13:51:56.552Z</time></trkpt><trkpt lat="44.0652194" lon="12.2281316"><ele>379.0</ele><time>2026-04-18T13:51:57.548Z</time></trkpt><trkpt lat="44.0652015" lon="12.2283139"><ele>379.0</ele><time>2026-04-18T13:51:58.546Z</time></trkpt><trkpt lat="44.0651669" lon="12.2285034"><ele>379.0</ele><time>2026-04-18T13:51:59.541Z</time></trkpt><trkpt lat="44.0651159" lon="12.2286884"><ele>379.25</ele><time>2026-04-18T13:52:00.55Z</time></trkpt><trkpt lat="44.0650565" lon="12.2288455"><ele>379.5</ele><time>2026-04-18T13:52:01.547Z</time></trkpt><trkpt lat="44.0650007" lon="12.2289821"><ele>379.75</ele><time>2026-04-18T13:52:02.552Z</time></trkpt><trkpt lat="44.064956" lon="12.2291248"><ele>380.0</ele><time>2026-04-18T13:52:03.553Z</time></trkpt><trkpt lat="44.0649194" lon="12.2292761"><ele>381.0</ele><time>2026-04-18T13:52:04.548Z</time></trkpt><trkpt lat="44.0648995" lon="12.2294159"><ele>382.0</ele><time>2026-04-18T13:52:05.545Z</time></trkpt><trkpt lat="44.0648928" lon="12.2295448"><ele>383.0</ele><time>2026-04-18T13:52:06.551Z</time></trkpt><trkpt lat="44.0649145" lon="12.2296481"><ele>384.0</ele><time>2026-04-18T13:52:07.548Z</time></trkpt><trkpt lat="44.0649651" lon="12.2297237"><ele>384.99999999999994</ele><time>2026-04-18T13:52:08.546Z</time></trkpt><trkpt lat="44.0650393" lon="12.2297628"><ele>386.0</ele><time>2026-04-18T13:52:09.548Z</time></trkpt><trkpt lat="44.0651246" lon="12.2297824"><ele>386.0</ele><time>2026-04-18T13:52:10.547Z</time></trkpt><trkpt lat="44.0652259" lon="12.2297498"><ele>386.0</ele><time>2026-04-18T13:52:11.552Z</time></trkpt><trkpt lat="44.0653355" lon="12.2296908"><ele>386.0</ele><time>2026-04-18T13:52:12.544Z</time></trkpt><trkpt lat="44.0654542" lon="12.2295944"><ele>386.0</ele><time>2026-04-18T13:52:13.55Z</time></trkpt><trkpt lat="44.0655579" lon="12.2294908"><ele>386.0</ele><time>2026-04-18T13:52:14.549Z</time></trkpt><trkpt lat="44.0656505" lon="12.2293918"><ele>386.0</ele><time>2026-04-18T13:52:15.552Z</time></trkpt><trkpt lat="44.0657451" lon="12.2293095"><ele>386.0</ele><time>2026-04-18T13:52:16.549Z</time></trkpt><trkpt lat="44.0658395" lon="12.2292482"><ele>386.0</ele><time>2026-04-18T13:52:17.547Z</time></trkpt><trkpt lat="44.0659405" lon="12.2292273"><ele>386.0</ele><time>2026-04-18T13:52:18.549Z</time></trkpt><trkpt lat="44.0660629" lon="12.22926"><ele>387.0</ele><time>2026-04-18T13:52:19.555Z</time></trkpt><trkpt lat="44.066188" lon="12.2293346"><ele>388.0</ele><time>2026-04-18T13:52:20.545Z</time></trkpt><trkpt lat="44.0663034" lon="12.229435"><ele>389.0</ele><time>2026-04-18T13:52:21.552Z</time></trkpt><trkpt lat="44.066416" lon="12.2295222"><ele>390.0</ele><time>2026-04-18T13:52:22.55Z</time></trkpt><trkpt lat="44.0665269" lon="12.229603"><ele>391.0</ele><time>2026-04-18T13:52:23.552Z</time></trkpt><trkpt lat="44.0666396" lon="12.2296619"><ele>392.0</ele><time>2026-04-18T13:52:24.547Z</time></trkpt><trkpt lat="44.0667554" lon="12.2297087"><ele>393.0</ele><time>2026-04-18T13:52:25.546Z</time></trkpt><trkpt lat="44.0668744" lon="12.2297487"><ele>394.0</ele><time>2026-04-18T13:52:26.546Z</time></trkpt><trkpt lat="44.0669917" lon="12.2297929"><ele>389.25</ele><time>2026-04-18T13:52:27.552Z</time></trkpt><trkpt lat="44.0671015" lon="12.2298567"><ele>384.5</ele><time>2026-04-18T13:52:28.548Z</time></trkpt><trkpt lat="44.0672064" lon="12.2299543"><ele>379.75</ele><time>2026-04-18T13:52:29.555Z</time></trkpt><trkpt lat="44.0673171" lon="12.2300814"><ele>375.0</ele><time>2026-04-18T13:52:30.547Z</time></trkpt><trkpt lat="44.0674318" lon="12.2302493"><ele>376.0</ele><time>2026-04-18T13:52:31.543Z</time></trkpt><trkpt lat="44.0675666" lon="12.2304339"><ele>377.0</ele><time>2026-04-18T13:52:32.546Z</time></trkpt><trkpt lat="44.0677038" lon="12.2306096"><ele>378.0</ele><time>2026-04-18T13:52:33.55Z</time></trkpt><trkpt lat="44.0678395" lon="12.2307662"><ele>373.0</ele><time>2026-04-18T13:52:34.548Z</time></trkpt><trkpt lat="44.0679716" lon="12.2309038"><ele>368.0</ele><time>2026-04-18T13:52:35.547Z</time></trkpt><trkpt lat="44.0681025" lon="12.2310267"><ele>363.0</ele><time>2026-04-18T13:52:36.55Z</time></trkpt><trkpt lat="44.0682294" lon="12.2311193"><ele>365.75</ele><time>2026-04-18T13:52:37.551Z</time></trkpt><trkpt lat="44.0683573" lon="12.2311927"><ele>368.5</ele><time>2026-04-18T13:52:38.553Z</time></trkpt><trkpt lat="44.0684909" lon="12.2312376"><ele>371.25</ele><time>2026-04-18T13:52:39.543Z</time></trkpt><trkpt lat="44.0686313" lon="12.2312594"><ele>374.0</ele><time>2026-04-18T13:52:40.552Z</time></trkpt><trkpt lat="44.0687676" lon="12.2312706"><ele>374.0</ele><time>2026-04-18T13:52:41.552Z</time></trkpt><trkpt lat="44.0688962" lon="12.2312718"><ele>374.0</ele><time>2026-04-18T13:52:42.545Z</time></trkpt><trkpt lat="44.0690156" lon="12.2312669"><ele>374.0</ele><time>2026-04-18T13:52:43.55Z</time></trkpt><trkpt lat="44.0691287" lon="12.231243"><ele>374.0</ele><time>2026-04-18T13:52:44.55Z</time></trkpt><trkpt lat="44.0692373" lon="12.2311987"><ele>372.0</ele><time>2026-04-18T13:52:45.557Z</time></trkpt><trkpt lat="44.0693436" lon="12.2311399"><ele>370.0</ele><time>2026-04-18T13:52:46.549Z</time></trkpt><trkpt lat="44.069443" lon="12.2310663"><ele>368.0</ele><time>2026-04-18T13:52:47.548Z</time></trkpt><trkpt lat="44.0695339" lon="12.23097"><ele>366.0</ele><time>2026-04-18T13:52:48.547Z</time></trkpt><trkpt lat="44.0696182" lon="12.2308597"><ele>366.0</ele><time>2026-04-18T13:52:49.555Z</time></trkpt><trkpt lat="44.0696863" lon="12.2307441"><ele>366.0</ele><time>2026-04-18T13:52:50.55Z</time></trkpt><trkpt lat="44.0697363" lon="12.2306336"><ele>366.0</ele><time>2026-04-18T13:52:51.547Z</time></trkpt><trkpt lat="44.0697781" lon="12.2305546"><ele>366.0</ele><time>2026-04-18T13:52:52.554Z</time></trkpt><trkpt lat="44.069848" lon="12.2305222"><ele>366.0</ele><time>2026-04-18T13:52:54.549Z</time></trkpt><trkpt lat="44.0698892" lon="12.2306236"><ele>366.0</ele><time>2026-04-18T13:52:56.543Z</time></trkpt><trkpt lat="44.0698893" lon="12.2307169"><ele>366.0</ele><time>2026-04-18T13:52:57.542Z</time></trkpt><trkpt lat="44.0698872" lon="12.2308382"><ele>366.0</ele><time>2026-04-18T13:52:58.552Z</time></trkpt><trkpt lat="44.0698905" lon="12.2309882"><ele>366.0</ele><time>2026-04-18T13:52:59.547Z</time></trkpt><trkpt lat="44.069897" lon="12.2311568"><ele>366.0</ele><time>2026-04-18T13:53:00.542Z</time></trkpt><trkpt lat="44.0698948" lon="12.2313417"><ele>366.0</ele><time>2026-04-18T13:53:01.555Z</time></trkpt><trkpt lat="44.069882" lon="12.2315296"><ele>363.0</ele><time>2026-04-18T13:53:02.544Z</time></trkpt><trkpt lat="44.069854" lon="12.2317242"><ele>360.0</ele><time>2026-04-18T13:53:03.552Z</time></trkpt><trkpt lat="44.0698057" lon="12.2319125"><ele>357.0</ele><time>2026-04-18T13:53:04.541Z</time></trkpt><trkpt lat="44.0697528" lon="12.2320775"><ele>354.0</ele><time>2026-04-18T13:53:05.551Z</time></trkpt><trkpt lat="44.0697113" lon="12.2322285"><ele>351.75</ele><time>2026-04-18T13:53:06.548Z</time></trkpt><trkpt lat="44.0696802" lon="12.2323812"><ele>349.5</ele><time>2026-04-18T13:53:07.553Z</time></trkpt><trkpt lat="44.0696704" lon="12.2325462"><ele>347.25</ele><time>2026-04-18T13:53:08.552Z</time></trkpt><trkpt lat="44.0697155" lon="12.2327265"><ele>345.0</ele><time>2026-04-18T13:53:09.556Z</time></trkpt><trkpt lat="44.0697902" lon="12.2329018"><ele>345.0</ele><time>2026-04-18T13:53:10.546Z</time></trkpt><trkpt lat="44.0698743" lon="12.2330744"><ele>345.0</ele><time>2026-04-18T13:53:11.543Z</time></trkpt><trkpt lat="44.0699498" lon="12.2332472"><ele>345.0</ele><time>2026-04-18T13:53:12.549Z</time></trkpt><trkpt lat="44.070006" lon="12.2334206"><ele>345.0</ele><time>2026-04-18T13:53:13.558Z</time></trkpt><trkpt lat="44.0700472" lon="12.233597"><ele>344.8</ele><time>2026-04-18T13:53:14.549Z</time></trkpt><trkpt lat="44.0700845" lon="12.2337565"><ele>344.6</ele><time>2026-04-18T13:53:15.554Z</time></trkpt><trkpt lat="44.0701218" lon="12.2338933"><ele>344.4</ele><time>2026-04-18T13:53:16.55Z</time></trkpt><trkpt lat="44.0701628" lon="12.2340168"><ele>344.2</ele><time>2026-04-18T13:53:17.561Z</time></trkpt><trkpt lat="44.0702144" lon="12.234127"><ele>344.0</ele><time>2026-04-18T13:53:18.552Z</time></trkpt><trkpt lat="44.0702891" lon="12.2342268"><ele>342.5</ele><time>2026-04-18T13:53:19.547Z</time></trkpt><trkpt lat="44.070388" lon="12.2342968"><ele>341.0</ele><time>2026-04-18T13:53:20.551Z</time></trkpt><trkpt lat="44.0705054" lon="12.2343498"><ele>339.5</ele><time>2026-04-18T13:53:21.55Z</time></trkpt><trkpt lat="44.0706346" lon="12.2343862"><ele>338.0</ele><time>2026-04-18T13:53:22.546Z</time></trkpt><trkpt lat="44.0707673" lon="12.2344211"><ele>338.25</ele><time>2026-04-18T13:53:23.557Z</time></trkpt><trkpt lat="44.0708952" lon="12.2344389"><ele>338.5</ele><time>2026-04-18T13:53:24.55Z</time></trkpt><trkpt lat="44.0710207" lon="12.2344247"><ele>338.75</ele><time>2026-04-18T13:53:25.549Z</time></trkpt><trkpt lat="44.0711386" lon="12.2344025"><ele>339.0</ele><time>2026-04-18T13:53:26.547Z</time></trkpt><trkpt lat="44.0712484" lon="12.2343765"><ele>339.0</ele><time>2026-04-18T13:53:27.554Z</time></trkpt><trkpt lat="44.0713532" lon="12.2343633"><ele>339.0</ele><time>2026-04-18T13:53:28.558Z</time></trkpt><trkpt lat="44.0714557" lon="12.2343879"><ele>339.0</ele><time>2026-04-18T13:53:29.552Z</time></trkpt><trkpt lat="44.0715523" lon="12.2344454"><ele>339.0</ele><time>2026-04-18T13:53:30.556Z</time></trkpt><trkpt lat="44.0716511" lon="12.2345317"><ele>339.0</ele><time>2026-04-18T13:53:31.541Z</time></trkpt><trkpt lat="44.0717498" lon="12.2346279"><ele>337.75</ele><time>2026-04-18T13:53:32.549Z</time></trkpt><trkpt lat="44.0718464" lon="12.2347284"><ele>336.5</ele><time>2026-04-18T13:53:33.56Z</time></trkpt><trkpt lat="44.0719463" lon="12.2348335"><ele>335.25</ele><time>2026-04-18T13:53:34.552Z</time></trkpt><trkpt lat="44.0720426" lon="12.2349337"><ele>334.0</ele><time>2026-04-18T13:53:35.549Z</time></trkpt><trkpt lat="44.0721424" lon="12.2350314"><ele>334.0</ele><time>2026-04-18T13:53:36.548Z</time></trkpt><trkpt lat="44.0722382" lon="12.2351291"><ele>334.0</ele><time>2026-04-18T13:53:37.554Z</time></trkpt><trkpt lat="44.0723326" lon="12.2352177"><ele>334.0</ele><time>2026-04-18T13:53:38.549Z</time></trkpt><trkpt lat="44.0724165" lon="12.2353116"><ele>334.0</ele><time>2026-04-18T13:53:39.545Z</time></trkpt><trkpt lat="44.072497" lon="12.2354153"><ele>333.4</ele><time>2026-04-18T13:53:40.551Z</time></trkpt><trkpt lat="44.0725598" lon="12.2355339"><ele>332.79999999999995</ele><time>2026-04-18T13:53:41.551Z</time></trkpt><trkpt lat="44.0726035" lon="12.2356689"><ele>332.20000000000005</ele><time>2026-04-18T13:53:42.543Z</time></trkpt><trkpt lat="44.0726372" lon="12.235809"><ele>331.6</ele><time>2026-04-18T13:53:43.546Z</time></trkpt><trkpt lat="44.0726595" lon="12.2359535"><ele>331.0</ele><time>2026-04-18T13:53:44.551Z</time></trkpt><trkpt lat="44.0726757" lon="12.236103"><ele>331.0</ele><time>2026-04-18T13:53:45.555Z</time></trkpt><trkpt lat="44.0726934" lon="12.2362543"><ele>331.0</ele><time>2026-04-18T13:53:46.549Z</time></trkpt><trkpt lat="44.0727102" lon="12.2364125"><ele>331.0</ele><time>2026-04-18T13:53:47.548Z</time></trkpt><trkpt lat="44.072729" lon="12.2365712"><ele>331.0</ele><time>2026-04-18T13:53:48.55Z</time></trkpt><trkpt lat="44.0727444" lon="12.2367318"><ele>328.25</ele><time>2026-04-18T13:53:49.554Z</time></trkpt><trkpt lat="44.0727567" lon="12.2368989"><ele>325.5</ele><time>2026-04-18T13:53:50.548Z</time></trkpt><trkpt lat="44.0727618" lon="12.2370651"><ele>322.75</ele><time>2026-04-18T13:53:51.553Z</time></trkpt><trkpt lat="44.0727614" lon="12.2372316"><ele>320.0</ele><time>2026-04-18T13:53:52.553Z</time></trkpt><trkpt lat="44.0727491" lon="12.2373999"><ele>317.75</ele><time>2026-04-18T13:53:53.552Z</time></trkpt><trkpt lat="44.0727208" lon="12.2375605"><ele>315.5</ele><time>2026-04-18T13:53:54.545Z</time></trkpt><trkpt lat="44.072675" lon="12.2377123"><ele>313.25</ele><time>2026-04-18T13:53:55.547Z</time></trkpt><trkpt lat="44.0726187" lon="12.2378563"><ele>311.0</ele><time>2026-04-18T13:53:56.547Z</time></trkpt><trkpt lat="44.0725587" lon="12.2380033"><ele>311.75</ele><time>2026-04-18T13:53:57.55Z</time></trkpt><trkpt lat="44.0725" lon="12.2381509"><ele>312.5</ele><time>2026-04-18T13:53:58.55Z</time></trkpt><trkpt lat="44.0724359" lon="12.2382851"><ele>313.25</ele><time>2026-04-18T13:53:59.55Z</time></trkpt><trkpt lat="44.0723752" lon="12.238427"><ele>314.0</ele><time>2026-04-18T13:54:00.554Z</time></trkpt><trkpt lat="44.0723136" lon="12.2385701"><ele>307.5</ele><time>2026-04-18T13:54:01.552Z</time></trkpt><trkpt lat="44.0722509" lon="12.238715"><ele>301.0</ele><time>2026-04-18T13:54:02.553Z</time></trkpt><trkpt lat="44.0721871" lon="12.2388654"><ele>294.5</ele><time>2026-04-18T13:54:03.55Z</time></trkpt><trkpt lat="44.0721224" lon="12.2390201"><ele>288.0</ele><time>2026-04-18T13:54:04.55Z</time></trkpt><trkpt lat="44.0720505" lon="12.2391733"><ele>288.0</ele><time>2026-04-18T13:54:05.547Z</time></trkpt><trkpt lat="44.0719621" lon="12.239307"><ele>288.0</ele><time>2026-04-18T13:54:06.546Z</time></trkpt><trkpt lat="44.0718552" lon="12.2394161"><ele>288.0</ele><time>2026-04-18T13:54:07.542Z</time></trkpt><trkpt lat="44.0717378" lon="12.2395027"><ele>288.0</ele><time>2026-04-18T13:54:08.552Z</time></trkpt><trkpt lat="44.0716215" lon="12.2395911"><ele>284.2</ele><time>2026-04-18T13:54:09.547Z</time></trkpt><trkpt lat="44.0715097" lon="12.2396728"><ele>280.4</ele><time>2026-04-18T13:54:10.549Z</time></trkpt><trkpt lat="44.071427" lon="12.2397496"><ele>276.59999999999997</ele><time>2026-04-18T13:54:11.544Z</time></trkpt><trkpt lat="44.0713661" lon="12.2398267"><ele>272.8</ele><time>2026-04-18T13:54:12.545Z</time></trkpt><trkpt lat="44.071342" lon="12.2399179"><ele>269.0</ele><time>2026-04-18T13:54:13.547Z</time></trkpt><trkpt lat="44.0713735" lon="12.2400121"><ele>269.0</ele><time>2026-04-18T13:54:14.554Z</time></trkpt><trkpt lat="44.0714364" lon="12.2401007"><ele>269.0</ele><time>2026-04-18T13:54:15.551Z</time></trkpt><trkpt lat="44.071532" lon="12.2401729"><ele>269.0</ele><time>2026-04-18T13:54:16.544Z</time></trkpt><trkpt lat="44.0716471" lon="12.2402515"><ele>269.0</ele><time>2026-04-18T13:54:17.549Z</time></trkpt><trkpt lat="44.0717652" lon="12.2403416"><ele>270.5</ele><time>2026-04-18T13:54:18.542Z</time></trkpt><trkpt lat="44.0718874" lon="12.2404358"><ele>272.0</ele><time>2026-04-18T13:54:19.551Z</time></trkpt><trkpt lat="44.0720126" lon="12.2405389"><ele>273.5</ele><time>2026-04-18T13:54:20.552Z</time></trkpt><trkpt lat="44.0721346" lon="12.2406693"><ele>275.0</ele><time>2026-04-18T13:54:21.546Z</time></trkpt><trkpt lat="44.0722498" lon="12.2408239"><ele>275.0</ele><time>2026-04-18T13:54:22.549Z</time></trkpt><trkpt lat="44.0723512" lon="12.2409994"><ele>275.0</ele><time>2026-04-18T13:54:23.552Z</time></trkpt><trkpt lat="44.0724446" lon="12.2411746"><ele>275.0</ele><time>2026-04-18T13:54:24.544Z</time></trkpt><trkpt lat="44.0725383" lon="12.2413445"><ele>278.25</ele><time>2026-04-18T13:54:25.551Z</time></trkpt><trkpt lat="44.0726383" lon="12.2415045"><ele>281.5</ele><time>2026-04-18T13:54:26.537Z</time></trkpt><trkpt lat="44.0727382" lon="12.2416527"><ele>284.75</ele><time>2026-04-18T13:54:27.544Z</time></trkpt><trkpt lat="44.072833" lon="12.2417917"><ele>288.0</ele><time>2026-04-18T13:54:28.546Z</time></trkpt><trkpt lat="44.0729175" lon="12.2419209"><ele>288.0</ele><time>2026-04-18T13:54:29.549Z</time></trkpt><trkpt lat="44.0729919" lon="12.2420378"><ele>288.0</ele><time>2026-04-18T13:54:30.543Z</time></trkpt><trkpt lat="44.0730516" lon="12.2421463"><ele>288.0</ele><time>2026-04-18T13:54:31.551Z</time></trkpt><trkpt lat="44.0730823" lon="12.2422708"><ele>288.0</ele><time>2026-04-18T13:54:32.547Z</time></trkpt><trkpt lat="44.073094" lon="12.2424118"><ele>288.0</ele><time>2026-04-18T13:54:33.544Z</time></trkpt><trkpt lat="44.07309" lon="12.2425625"><ele>286.25</ele><time>2026-04-18T13:54:34.544Z</time></trkpt><trkpt lat="44.0730806" lon="12.2427325"><ele>284.5</ele><time>2026-04-18T13:54:35.557Z</time></trkpt><trkpt lat="44.0730624" lon="12.2429187"><ele>282.75</ele><time>2026-04-18T13:54:36.547Z</time></trkpt><trkpt lat="44.0730332" lon="12.2431108"><ele>281.0</ele><time>2026-04-18T13:54:37.552Z</time></trkpt><trkpt lat="44.0729883" lon="12.2432988"><ele>281.0</ele><time>2026-04-18T13:54:38.554Z</time></trkpt><trkpt lat="44.0729348" lon="12.2434712"><ele>281.0</ele><time>2026-04-18T13:54:39.553Z</time></trkpt><trkpt lat="44.0728732" lon="12.2436198"><ele>281.0</ele><time>2026-04-18T13:54:40.544Z</time></trkpt><trkpt lat="44.0727961" lon="12.2437517"><ele>281.0</ele><time>2026-04-18T13:54:41.548Z</time></trkpt><trkpt lat="44.0726969" lon="12.2438459"><ele>281.0</ele><time>2026-04-18T13:54:42.549Z</time></trkpt><trkpt lat="44.072589" lon="12.2439384"><ele>281.0</ele><time>2026-04-18T13:54:43.556Z</time></trkpt><trkpt lat="44.0724872" lon="12.2440479"><ele>281.0</ele><time>2026-04-18T13:54:44.543Z</time></trkpt><trkpt lat="44.0723918" lon="12.2441927"><ele>281.0</ele><time>2026-04-18T13:54:45.549Z</time></trkpt><trkpt lat="44.0722904" lon="12.2443207"><ele>279.5</ele><time>2026-04-18T13:54:46.556Z</time></trkpt><trkpt lat="44.072175" lon="12.2444251"><ele>278.0</ele><time>2026-04-18T13:54:47.549Z</time></trkpt><trkpt lat="44.0720433" lon="12.2444924"><ele>276.5</ele><time>2026-04-18T13:54:48.549Z</time></trkpt><trkpt lat="44.0718988" lon="12.2445402"><ele>275.0</ele><time>2026-04-18T13:54:49.548Z</time></trkpt><trkpt lat="44.0717621" lon="12.2446023"><ele>275.0</ele><time>2026-04-18T13:54:50.542Z</time></trkpt><trkpt lat="44.0716352" lon="12.2446971"><ele>275.0</ele><time>2026-04-18T13:54:51.555Z</time></trkpt><trkpt lat="44.0715231" lon="12.2448269"><ele>275.0</ele><time>2026-04-18T13:54:52.549Z</time></trkpt><trkpt lat="44.0714176" lon="12.244969"><ele>275.0</ele><time>2026-04-18T13:54:53.546Z</time></trkpt><trkpt lat="44.0713191" lon="12.245108"><ele>273.75</ele><time>2026-04-18T13:54:54.549Z</time></trkpt><trkpt lat="44.0712311" lon="12.2452475"><ele>272.5</ele><time>2026-04-18T13:54:55.551Z</time></trkpt><trkpt lat="44.0711452" lon="12.2453592"><ele>271.25</ele><time>2026-04-18T13:54:56.545Z</time></trkpt><trkpt lat="44.0710574" lon="12.2454415"><ele>270.0</ele><time>2026-04-18T13:54:57.545Z</time></trkpt><trkpt lat="44.0709668" lon="12.2454988"><ele>270.0</ele><time>2026-04-18T13:54:58.543Z</time></trkpt><trkpt lat="44.0708639" lon="12.2455119"><ele>270.0</ele><time>2026-04-18T13:54:59.552Z</time></trkpt><trkpt lat="44.0707504" lon="12.2455361"><ele>270.0</ele><time>2026-04-18T13:55:00.543Z</time></trkpt><trkpt lat="44.0706484" lon="12.2456142"><ele>270.0</ele><time>2026-04-18T13:55:01.548Z</time></trkpt><trkpt lat="44.070567" lon="12.2457434"><ele>266.25</ele><time>2026-04-18T13:55:02.553Z</time></trkpt><trkpt lat="44.0704977" lon="12.2458941"><ele>262.5</ele><time>2026-04-18T13:55:03.544Z</time></trkpt><trkpt lat="44.0704504" lon="12.2460529"><ele>258.75</ele><time>2026-04-18T13:55:04.54Z</time></trkpt><trkpt lat="44.0704404" lon="12.2462298"><ele>255.0</ele><time>2026-04-18T13:55:05.545Z</time></trkpt><trkpt lat="44.0704413" lon="12.2464175"><ele>255.0</ele><time>2026-04-18T13:55:06.545Z</time></trkpt><trkpt lat="44.0704293" lon="12.2466128"><ele>255.0</ele><time>2026-04-18T13:55:07.544Z</time></trkpt><trkpt lat="44.0703906" lon="12.2467985"><ele>255.0</ele><time>2026-04-18T13:55:08.548Z</time></trkpt><trkpt lat="44.0703361" lon="12.2469864"><ele>255.0</ele><time>2026-04-18T13:55:09.544Z</time></trkpt><trkpt lat="44.0702676" lon="12.2471684"><ele>255.75</ele><time>2026-04-18T13:55:10.55Z</time></trkpt><trkpt lat="44.0701953" lon="12.2473352"><ele>256.5</ele><time>2026-04-18T13:55:11.552Z</time></trkpt><trkpt lat="44.0701292" lon="12.247492"><ele>257.25</ele><time>2026-04-18T13:55:12.545Z</time></trkpt><trkpt lat="44.0700762" lon="12.2476406"><ele>258.0</ele><time>2026-04-18T13:55:13.544Z</time></trkpt><trkpt lat="44.0700416" lon="12.2478039"><ele>258.0</ele><time>2026-04-18T13:55:14.55Z</time></trkpt><trkpt lat="44.0700105" lon="12.2479931"><ele>258.0</ele><time>2026-04-18T13:55:15.551Z</time></trkpt><trkpt lat="44.0699698" lon="12.2481804"><ele>258.0</ele><time>2026-04-18T13:55:16.548Z</time></trkpt><trkpt lat="44.0699161" lon="12.2483574"><ele>258.0</ele><time>2026-04-18T13:55:17.548Z</time></trkpt><trkpt lat="44.0698547" lon="12.2485213"><ele>253.5</ele><time>2026-04-18T13:55:18.547Z</time></trkpt><trkpt lat="44.0698172" lon="12.2486765"><ele>249.0</ele><time>2026-04-18T13:55:19.544Z</time></trkpt><trkpt lat="44.069796" lon="12.2488398"><ele>244.5</ele><time>2026-04-18T13:55:20.54Z</time></trkpt><trkpt lat="44.0697836" lon="12.2490062"><ele>240.0</ele><time>2026-04-18T13:55:21.547Z</time></trkpt><trkpt lat="44.0697815" lon="12.2491654"><ele>240.0</ele><time>2026-04-18T13:55:22.545Z</time></trkpt><trkpt lat="44.0697644" lon="12.2493297"><ele>240.0</ele><time>2026-04-18T13:55:23.548Z</time></trkpt><trkpt lat="44.0697326" lon="12.2494804"><ele>240.0</ele><time>2026-04-18T13:55:24.541Z</time></trkpt><trkpt lat="44.0697028" lon="12.2496145"><ele>240.0</ele><time>2026-04-18T13:55:25.549Z</time></trkpt><trkpt lat="44.0697057" lon="12.2497435"><ele>240.0</ele><time>2026-04-18T13:55:26.548Z</time></trkpt><trkpt lat="44.0697433" lon="12.2498476"><ele>241.75</ele><time>2026-04-18T13:55:27.553Z</time></trkpt><trkpt lat="44.0698176" lon="12.2499554"><ele>243.5</ele><time>2026-04-18T13:55:28.551Z</time></trkpt><trkpt lat="44.0699276" lon="12.2500667"><ele>245.25</ele><time>2026-04-18T13:55:29.547Z</time></trkpt><trkpt lat="44.0700633" lon="12.2501766"><ele>247.0</ele><time>2026-04-18T13:55:30.546Z</time></trkpt><trkpt lat="44.070207" lon="12.2503015"><ele>248.66666666666666</ele><time>2026-04-18T13:55:31.552Z</time></trkpt><trkpt lat="44.0703535" lon="12.2504454"><ele>250.33333333333331</ele><time>2026-04-18T13:55:32.551Z</time></trkpt><trkpt lat="44.0704979" lon="12.2506074"><ele>252.0</ele><time>2026-04-18T13:55:33.549Z</time></trkpt><trkpt lat="44.070629" lon="12.2507814"><ele>252.0</ele><time>2026-04-18T13:55:34.547Z</time></trkpt><trkpt lat="44.0707452" lon="12.2509663"><ele>252.0</ele><time>2026-04-18T13:55:35.546Z</time></trkpt><trkpt lat="44.0708405" lon="12.2511317"><ele>252.0</ele><time>2026-04-18T13:55:36.546Z</time></trkpt><trkpt lat="44.0709264" lon="12.2512902"><ele>254.0</ele><time>2026-04-18T13:55:37.547Z</time></trkpt><trkpt lat="44.0709973" lon="12.2514332"><ele>256.0</ele><time>2026-04-18T13:55:38.553Z</time></trkpt><trkpt lat="44.0710513" lon="12.2515477"><ele>258.0</ele><time>2026-04-18T13:55:39.55Z</time></trkpt><trkpt lat="44.0710949" lon="12.2516235"><ele>260.0</ele><time>2026-04-18T13:55:40.547Z</time></trkpt><trkpt lat="44.0712042" lon="12.25165"><ele>262.0</ele><time>2026-04-18T13:55:42.554Z</time></trkpt><trkpt lat="44.0712713" lon="12.2516227"><ele>262.0</ele><time>2026-04-18T13:55:43.551Z</time></trkpt><trkpt lat="44.0713556" lon="12.2515679"><ele>262.0</ele><time>2026-04-18T13:55:44.55Z</time></trkpt><trkpt lat="44.0714578" lon="12.2515143"><ele>262.0</ele><time>2026-04-18T13:55:45.548Z</time></trkpt><trkpt lat="44.0715904" lon="12.2514774"><ele>262.0</ele><time>2026-04-18T13:55:46.548Z</time></trkpt><trkpt lat="44.071752" lon="12.2514628"><ele>267.0</ele><time>2026-04-18T13:55:47.553Z</time></trkpt><trkpt lat="44.0719343" lon="12.2514463"><ele>272.0</ele><time>2026-04-18T13:55:48.549Z</time></trkpt><trkpt lat="44.0721171" lon="12.2514325"><ele>277.0</ele><time>2026-04-18T13:55:49.543Z</time></trkpt><trkpt lat="44.0722742" lon="12.2514153"><ele>277.0</ele><time>2026-04-18T13:55:50.543Z</time></trkpt><trkpt lat="44.0723904" lon="12.2514125"><ele>277.0</ele><time>2026-04-18T13:55:51.547Z</time></trkpt><trkpt lat="44.072495" lon="12.2514363"><ele>277.0</ele><time>2026-04-18T13:55:52.546Z</time></trkpt><trkpt lat="44.0725838" lon="12.2515146"><ele>277.0</ele><time>2026-04-18T13:55:53.546Z</time></trkpt><trkpt lat="44.0726406" lon="12.2516642"><ele>277.0</ele><time>2026-04-18T13:55:54.546Z</time></trkpt><trkpt lat="44.072682" lon="12.2518516"><ele>275.4</ele><time>2026-04-18T13:55:55.545Z</time></trkpt><trkpt lat="44.072723" lon="12.2520345"><ele>273.79999999999995</ele><time>2026-04-18T13:55:56.548Z</time></trkpt><trkpt lat="44.0727564" lon="12.2521605"><ele>272.2</ele><time>2026-04-18T13:55:57.55Z</time></trkpt><trkpt lat="44.0728106" lon="12.2522345"><ele>270.59999999999997</ele><time>2026-04-18T13:55:58.549Z</time></trkpt><trkpt lat="44.0728849" lon="12.2522688"><ele>269.0</ele><time>2026-04-18T13:55:59.549Z</time></trkpt><trkpt lat="44.0729887" lon="12.2522589"><ele>269.0</ele><time>2026-04-18T13:56:00.549Z</time></trkpt><trkpt lat="44.0731143" lon="12.2522176"><ele>269.0</ele><time>2026-04-18T13:56:01.552Z</time></trkpt><trkpt lat="44.0732462" lon="12.2521852"><ele>269.0</ele><time>2026-04-18T13:56:02.552Z</time></trkpt><trkpt lat="44.0733872" lon="12.2521479"><ele>269.0</ele><time>2026-04-18T13:56:03.544Z</time></trkpt><trkpt lat="44.0735516" lon="12.2521149"><ele>273.0</ele><time>2026-04-18T13:56:04.559Z</time></trkpt><trkpt lat="44.0737242" lon="12.2520889"><ele>277.0</ele><time>2026-04-18T13:56:05.548Z</time></trkpt><trkpt lat="44.0739044" lon="12.2520604"><ele>281.0</ele><time>2026-04-18T13:56:06.546Z</time></trkpt><trkpt lat="44.0740962" lon="12.2520421"><ele>277.6666666666667</ele><time>2026-04-18T13:56:07.549Z</time></trkpt><trkpt lat="44.074285" lon="12.2520145"><ele>274.3333333333333</ele><time>2026-04-18T13:56:08.547Z</time></trkpt><trkpt lat="44.0744555" lon="12.2519943"><ele>271.0</ele><time>2026-04-18T13:56:09.546Z</time></trkpt><trkpt lat="44.0746078" lon="12.2519809"><ele>271.0</ele><time>2026-04-18T13:56:10.549Z</time></trkpt><trkpt lat="44.0747435" lon="12.2519739"><ele>271.0</ele><time>2026-04-18T13:56:11.548Z</time></trkpt><trkpt lat="44.0748731" lon="12.2519689"><ele>271.0</ele><time>2026-04-18T13:56:12.544Z</time></trkpt><trkpt lat="44.0750113" lon="12.2519816"><ele>271.0</ele><time>2026-04-18T13:56:13.548Z</time></trkpt><trkpt lat="44.075158" lon="12.2520066"><ele>270.75</ele><time>2026-04-18T13:56:14.549Z</time></trkpt><trkpt lat="44.075304" lon="12.2520407"><ele>270.5</ele><time>2026-04-18T13:56:15.546Z</time></trkpt><trkpt lat="44.075444" lon="12.2520616"><ele>270.25</ele><time>2026-04-18T13:56:16.548Z</time></trkpt><trkpt lat="44.0755857" lon="12.2520556"><ele>270.0</ele><time>2026-04-18T13:56:17.547Z</time></trkpt><trkpt lat="44.0757339" lon="12.2520433"><ele>268.0</ele><time>2026-04-18T13:56:18.557Z</time></trkpt><trkpt lat="44.0758855" lon="12.2520386"><ele>266.0</ele><time>2026-04-18T13:56:19.546Z</time></trkpt><trkpt lat="44.0760273" lon="12.2520694"><ele>264.0</ele><time>2026-04-18T13:56:20.552Z</time></trkpt><trkpt lat="44.076175" lon="12.2521397"><ele>264.0</ele><time>2026-04-18T13:56:21.55Z</time></trkpt><trkpt lat="44.0763252" lon="12.2522271"><ele>264.0</ele><time>2026-04-18T13:56:22.552Z</time></trkpt><trkpt lat="44.0764825" lon="12.2523221"><ele>264.0</ele><time>2026-04-18T13:56:23.546Z</time></trkpt><trkpt lat="44.0766675" lon="12.2524314"><ele>259.6666666666667</ele><time>2026-04-18T13:56:24.546Z</time></trkpt><trkpt lat="44.0768707" lon="12.2525407"><ele>255.33333333333334</ele><time>2026-04-18T13:56:25.548Z</time></trkpt><trkpt lat="44.0770668" lon="12.252637"><ele>251.0</ele><time>2026-04-18T13:56:26.546Z</time></trkpt><trkpt lat="44.0772442" lon="12.252729"><ele>251.0</ele><time>2026-04-18T13:56:27.552Z</time></trkpt><trkpt lat="44.0774139" lon="12.2528142"><ele>251.0</ele><time>2026-04-18T13:56:28.56Z</time></trkpt><trkpt lat="44.0775772" lon="12.2528936"><ele>251.0</ele><time>2026-04-18T13:56:29.55Z</time></trkpt><trkpt lat="44.0777304" lon="12.2529625"><ele>251.0</ele><time>2026-04-18T13:56:30.545Z</time></trkpt><trkpt lat="44.0778816" lon="12.2530137"><ele>251.0</ele><time>2026-04-18T13:56:31.548Z</time></trkpt><trkpt lat="44.0780277" lon="12.2530366"><ele>251.0</ele><time>2026-04-18T13:56:32.547Z</time></trkpt><trkpt lat="44.0781673" lon="12.2530541"><ele>251.0</ele><time>2026-04-18T13:56:33.546Z</time></trkpt><trkpt lat="44.0782935" lon="12.2530746"><ele>251.0</ele><time>2026-04-18T13:56:34.556Z</time></trkpt><trkpt lat="44.0784174" lon="12.2531154"><ele>251.0</ele><time>2026-04-18T13:56:35.547Z</time></trkpt><trkpt lat="44.0785514" lon="12.253187"><ele>251.0</ele><time>2026-04-18T13:56:36.547Z</time></trkpt><trkpt lat="44.078686" lon="12.2532856"><ele>251.0</ele><time>2026-04-18T13:56:37.548Z</time></trkpt><trkpt lat="44.0788169" lon="12.2534037"><ele>253.75</ele><time>2026-04-18T13:56:38.557Z</time></trkpt><trkpt lat="44.0789439" lon="12.2535167"><ele>256.5</ele><time>2026-04-18T13:56:39.553Z</time></trkpt><trkpt lat="44.0790682" lon="12.2536111"><ele>259.25</ele><time>2026-04-18T13:56:40.544Z</time></trkpt><trkpt lat="44.0791949" lon="12.2536963"><ele>262.0</ele><time>2026-04-18T13:56:41.545Z</time></trkpt><trkpt lat="44.079326" lon="12.253768"><ele>262.0</ele><time>2026-04-18T13:56:42.547Z</time></trkpt><trkpt lat="44.0794636" lon="12.2538154"><ele>262.0</ele><time>2026-04-18T13:56:43.55Z</time></trkpt><trkpt lat="44.0796014" lon="12.2538435"><ele>262.0</ele><time>2026-04-18T13:56:44.56Z</time></trkpt><trkpt lat="44.0797222" lon="12.2538582"><ele>262.0</ele><time>2026-04-18T13:56:45.558Z</time></trkpt><trkpt lat="44.0798408" lon="12.2538694"><ele>263.2</ele><time>2026-04-18T13:56:46.558Z</time></trkpt><trkpt lat="44.079946" lon="12.2538839"><ele>264.4</ele><time>2026-04-18T13:56:47.547Z</time></trkpt><trkpt lat="44.0800426" lon="12.2539147"><ele>265.6</ele><time>2026-04-18T13:56:48.549Z</time></trkpt><trkpt lat="44.0801416" lon="12.2539667"><ele>266.8</ele><time>2026-04-18T13:56:49.544Z</time></trkpt><trkpt lat="44.0802468" lon="12.2540558"><ele>268.0</ele><time>2026-04-18T13:56:50.555Z</time></trkpt><trkpt lat="44.0803497" lon="12.2541845"><ele>268.0</ele><time>2026-04-18T13:56:51.55Z</time></trkpt><trkpt lat="44.0804289" lon="12.2543315"><ele>268.0</ele><time>2026-04-18T13:56:52.54Z</time></trkpt><trkpt lat="44.0804781" lon="12.2544875"><ele>268.0</ele><time>2026-04-18T13:56:53.55Z</time></trkpt><trkpt lat="44.0805047" lon="12.2546546"><ele>268.0</ele><time>2026-04-18T13:56:54.545Z</time></trkpt><trkpt lat="44.0805141" lon="12.2548278"><ele>263.0</ele><time>2026-04-18T13:56:55.551Z</time></trkpt><trkpt lat="44.0805318" lon="12.2550109"><ele>258.0</ele><time>2026-04-18T13:56:56.552Z</time></trkpt><trkpt lat="44.0805772" lon="12.2552"><ele>253.0</ele><time>2026-04-18T13:56:57.546Z</time></trkpt><trkpt lat="44.0806442" lon="12.2553779"><ele>248.0</ele><time>2026-04-18T13:56:58.554Z</time></trkpt><trkpt lat="44.0807224" lon="12.2555276"><ele>251.0</ele><time>2026-04-18T13:56:59.552Z</time></trkpt><trkpt lat="44.0808096" lon="12.255624"><ele>254.0</ele><time>2026-04-18T13:57:00.545Z</time></trkpt><trkpt lat="44.0809146" lon="12.2556749"><ele>257.0</ele><time>2026-04-18T13:57:01.55Z</time></trkpt><trkpt lat="44.0810316" lon="12.2557047"><ele>260.0</ele><time>2026-04-18T13:57:02.55Z</time></trkpt><trkpt lat="44.0811746" lon="12.2557165"><ele>260.0</ele><time>2026-04-18T13:57:03.558Z</time></trkpt><trkpt lat="44.0813241" lon="12.2557135"><ele>260.0</ele><time>2026-04-18T13:57:04.542Z</time></trkpt><trkpt lat="44.0814891" lon="12.2556814"><ele>260.0</ele><time>2026-04-18T13:57:05.548Z</time></trkpt><trkpt lat="44.0816658" lon="12.2556213"><ele>266.6666666666667</ele><time>2026-04-18T13:57:06.548Z</time></trkpt><trkpt lat="44.0818426" lon="12.2555592"><ele>273.3333333333333</ele><time>2026-04-18T13:57:07.539Z</time></trkpt><trkpt lat="44.0820111" lon="12.25551"><ele>280.0</ele><time>2026-04-18T13:57:08.543Z</time></trkpt><trkpt lat="44.0821647" lon="12.2555035"><ele>280.0</ele><time>2026-04-18T13:57:09.541Z</time></trkpt><trkpt lat="44.0823127" lon="12.2555273"><ele>280.0</ele><time>2026-04-18T13:57:10.551Z</time></trkpt><trkpt lat="44.0824525" lon="12.255569"><ele>280.0</ele><time>2026-04-18T13:57:11.549Z</time></trkpt><trkpt lat="44.0825768" lon="12.2556047"><ele>280.0</ele><time>2026-04-18T13:57:12.548Z</time></trkpt><trkpt lat="44.0826898" lon="12.2556403"><ele>277.6</ele><time>2026-04-18T13:57:13.545Z</time></trkpt><trkpt lat="44.0827902" lon="12.2556758"><ele>275.2</ele><time>2026-04-18T13:57:14.546Z</time></trkpt><trkpt lat="44.0828824" lon="12.255698"><ele>272.8</ele><time>2026-04-18T13:57:15.55Z</time></trkpt><trkpt lat="44.0829751" lon="12.2557096"><ele>270.4</ele><time>2026-04-18T13:57:16.552Z</time></trkpt><trkpt lat="44.0830688" lon="12.2557013"><ele>268.0</ele><time>2026-04-18T13:57:17.554Z</time></trkpt><trkpt lat="44.0831674" lon="12.2556628"><ele>266.5</ele><time>2026-04-18T13:57:18.548Z</time></trkpt><trkpt lat="44.0832715" lon="12.2556178"><ele>265.0</ele><time>2026-04-18T13:57:19.55Z</time></trkpt><trkpt lat="44.0833821" lon="12.2555607"><ele>263.5</ele><time>2026-04-18T13:57:20.546Z</time></trkpt><trkpt lat="44.0835015" lon="12.2554994"><ele>262.0</ele><time>2026-04-18T13:57:21.547Z</time></trkpt><trkpt lat="44.0836134" lon="12.2554444"><ele>262.0</ele><time>2026-04-18T13:57:22.549Z</time></trkpt><trkpt lat="44.0837195" lon="12.2553891"><ele>262.0</ele><time>2026-04-18T13:57:23.551Z</time></trkpt><trkpt lat="44.083818" lon="12.2553382"><ele>262.0</ele><time>2026-04-18T13:57:24.545Z</time></trkpt><trkpt lat="44.0839176" lon="12.2552882"><ele>262.0</ele><time>2026-04-18T13:57:25.558Z</time></trkpt><trkpt lat="44.0840237" lon="12.2552506"><ele>262.0</ele><time>2026-04-18T13:57:26.553Z</time></trkpt><trkpt lat="44.0841366" lon="12.2552261"><ele>262.4</ele><time>2026-04-18T13:57:27.552Z</time></trkpt><trkpt lat="44.0842475" lon="12.2552041"><ele>262.79999999999995</ele><time>2026-04-18T13:57:28.553Z</time></trkpt><trkpt lat="44.0843505" lon="12.2552008"><ele>263.2</ele><time>2026-04-18T13:57:29.548Z</time></trkpt><trkpt lat="44.0844532" lon="12.2552266"><ele>263.59999999999997</ele><time>2026-04-18T13:57:30.546Z</time></trkpt><trkpt lat="44.0845621" lon="12.2552889"><ele>264.0</ele><time>2026-04-18T13:57:31.551Z</time></trkpt><trkpt lat="44.0846817" lon="12.2553762"><ele>264.0</ele><time>2026-04-18T13:57:32.546Z</time></trkpt><trkpt lat="44.0848093" lon="12.25548"><ele>264.0</ele><time>2026-04-18T13:57:33.549Z</time></trkpt><trkpt lat="44.084944" lon="12.2555877"><ele>264.0</ele><time>2026-04-18T13:57:34.544Z</time></trkpt><trkpt lat="44.0850858" lon="12.2556912"><ele>265.0</ele><time>2026-04-18T13:57:35.551Z</time></trkpt><trkpt lat="44.0852334" lon="12.2557712"><ele>266.0</ele><time>2026-04-18T13:57:36.563Z</time></trkpt><trkpt lat="44.0853798" lon="12.2558321"><ele>267.0</ele><time>2026-04-18T13:57:37.55Z</time></trkpt><trkpt lat="44.0855224" lon="12.2558853"><ele>267.0</ele><time>2026-04-18T13:57:38.543Z</time></trkpt><trkpt lat="44.0856557" lon="12.2559347"><ele>267.0</ele><time>2026-04-18T13:57:39.553Z</time></trkpt><trkpt lat="44.0857793" lon="12.2559784"><ele>267.0</ele><time>2026-04-18T13:57:40.55Z</time></trkpt><trkpt lat="44.0858829" lon="12.2560093"><ele>267.0</ele><time>2026-04-18T13:57:41.554Z</time></trkpt><trkpt lat="44.0859663" lon="12.2560288"><ele>266.0</ele><time>2026-04-18T13:57:42.552Z</time></trkpt><trkpt lat="44.0860292" lon="12.2560431"><ele>265.0</ele><time>2026-04-18T13:57:43.545Z</time></trkpt><trkpt lat="44.086084" lon="12.2561331"><ele>264.0</ele><time>2026-04-18T13:57:45.545Z</time></trkpt><trkpt lat="44.086051" lon="12.2563"><ele>263.0</ele><time>2026-04-18T13:57:47.551Z</time></trkpt><trkpt lat="44.0860119" lon="12.2564213"><ele>262.0</ele><time>2026-04-18T13:57:48.553Z</time></trkpt><trkpt lat="44.0859561" lon="12.2565633"><ele>262.0</ele><time>2026-04-18T13:57:49.544Z</time></trkpt><trkpt lat="44.0858983" lon="12.2567229"><ele>262.0</ele><time>2026-04-18T13:57:50.551Z</time></trkpt><trkpt lat="44.0858378" lon="12.2569009"><ele>262.0</ele><time>2026-04-18T13:57:51.55Z</time></trkpt><trkpt lat="44.0857679" lon="12.2571077"><ele>262.0</ele><time>2026-04-18T13:57:52.551Z</time></trkpt><trkpt lat="44.0856999" lon="12.2573158"><ele>266.0</ele><time>2026-04-18T13:57:53.548Z</time></trkpt><trkpt lat="44.0856228" lon="12.2575226"><ele>270.0</ele><time>2026-04-18T13:57:54.55Z</time></trkpt><trkpt lat="44.0855322" lon="12.2577273"><ele>274.0</ele><time>2026-04-18T13:57:55.545Z</time></trkpt><trkpt lat="44.085428" lon="12.2579348"><ele>274.0</ele><time>2026-04-18T13:57:56.548Z</time></trkpt><trkpt lat="44.0853114" lon="12.2581371"><ele>274.0</ele><time>2026-04-18T13:57:57.557Z</time></trkpt><trkpt lat="44.085186" lon="12.2583445"><ele>274.0</ele><time>2026-04-18T13:57:58.55Z</time></trkpt><trkpt lat="44.0850536" lon="12.258556"><ele>274.3333333333333</ele><time>2026-04-18T13:57:59.55Z</time></trkpt><trkpt lat="44.0849188" lon="12.2587689"><ele>274.6666666666667</ele><time>2026-04-18T13:58:00.55Z</time></trkpt><trkpt lat="44.0847986" lon="12.2589697"><ele>275.0</ele><time>2026-04-18T13:58:01.557Z</time></trkpt><trkpt lat="44.084691" lon="12.259155"><ele>275.33333333333337</ele><time>2026-04-18T13:58:02.547Z</time></trkpt><trkpt lat="44.084582" lon="12.2593293"><ele>275.6666666666667</ele><time>2026-04-18T13:58:03.547Z</time></trkpt><trkpt lat="44.0844784" lon="12.2594928"><ele>276.0</ele><time>2026-04-18T13:58:04.547Z</time></trkpt><trkpt lat="44.0843829" lon="12.259638"><ele>276.0</ele><time>2026-04-18T13:58:05.553Z</time></trkpt><trkpt lat="44.084303" lon="12.2597765"><ele>276.0</ele><time>2026-04-18T13:58:06.55Z</time></trkpt><trkpt lat="44.084238" lon="12.2599191"><ele>276.0</ele><time>2026-04-18T13:58:07.549Z</time></trkpt><trkpt lat="44.0841825" lon="12.2600913"><ele>276.0</ele><time>2026-04-18T13:58:08.545Z</time></trkpt><trkpt lat="44.084141" lon="12.2603"><ele>275.6666666666667</ele><time>2026-04-18T13:58:09.552Z</time></trkpt><trkpt lat="44.0841077" lon="12.2605331"><ele>275.33333333333337</ele><time>2026-04-18T13:58:10.553Z</time></trkpt><trkpt lat="44.0840678" lon="12.2607691"><ele>275.0</ele><time>2026-04-18T13:58:11.551Z</time></trkpt><trkpt lat="44.0840136" lon="12.2609908"><ele>269.33333333333337</ele><time>2026-04-18T13:58:12.547Z</time></trkpt><trkpt lat="44.0839435" lon="12.2612071"><ele>263.6666666666667</ele><time>2026-04-18T13:58:13.552Z</time></trkpt><trkpt lat="44.0838569" lon="12.2614207"><ele>258.0</ele><time>2026-04-18T13:58:14.549Z</time></trkpt><trkpt lat="44.083768" lon="12.2616185"><ele>258.0</ele><time>2026-04-18T13:58:15.556Z</time></trkpt><trkpt lat="44.0836763" lon="12.2618061"><ele>258.0</ele><time>2026-04-18T13:58:16.548Z</time></trkpt><trkpt lat="44.0835833" lon="12.2619785"><ele>258.0</ele><time>2026-04-18T13:58:17.549Z</time></trkpt><trkpt lat="44.0834961" lon="12.2621433"><ele>257.5</ele><time>2026-04-18T13:58:18.553Z</time></trkpt><trkpt lat="44.0834176" lon="12.2623001"><ele>257.0</ele><time>2026-04-18T13:58:19.548Z</time></trkpt><trkpt lat="44.0833386" lon="12.2624562"><ele>256.5</ele><time>2026-04-18T13:58:20.55Z</time></trkpt><trkpt lat="44.0832454" lon="12.2625864"><ele>256.0</ele><time>2026-04-18T13:58:21.549Z</time></trkpt><trkpt lat="44.0831329" lon="12.2626864"><ele>256.0</ele><time>2026-04-18T13:58:22.544Z</time></trkpt><trkpt lat="44.0830115" lon="12.2627599"><ele>256.0</ele><time>2026-04-18T13:58:23.547Z</time></trkpt><trkpt lat="44.0828897" lon="12.2628093"><ele>256.0</ele><time>2026-04-18T13:58:24.546Z</time></trkpt><trkpt lat="44.0827733" lon="12.2628585"><ele>256.0</ele><time>2026-04-18T13:58:25.55Z</time></trkpt><trkpt lat="44.0826757" lon="12.2629303"><ele>256.0</ele><time>2026-04-18T13:58:26.555Z</time></trkpt><trkpt lat="44.0825941" lon="12.2630275"><ele>256.0</ele><time>2026-04-18T13:58:27.548Z</time></trkpt><trkpt lat="44.0825455" lon="12.2631605"><ele>256.0</ele><time>2026-04-18T13:58:28.55Z</time></trkpt><trkpt lat="44.0825264" lon="12.2633334"><ele>256.0</ele><time>2026-04-18T13:58:29.551Z</time></trkpt><trkpt lat="44.0825202" lon="12.263525"><ele>257.0</ele><time>2026-04-18T13:58:30.546Z</time></trkpt><trkpt lat="44.0825186" lon="12.2637384"><ele>258.0</ele><time>2026-04-18T13:58:31.552Z</time></trkpt><trkpt lat="44.0825171" lon="12.2639556"><ele>259.0</ele><time>2026-04-18T13:58:32.551Z</time></trkpt><trkpt lat="44.0825162" lon="12.2641629"><ele>257.25</ele><time>2026-04-18T13:58:33.552Z</time></trkpt><trkpt lat="44.0825201" lon="12.2643596"><ele>255.5</ele><time>2026-04-18T13:58:34.549Z</time></trkpt><trkpt lat="44.0825279" lon="12.2645385"><ele>253.75</ele><time>2026-04-18T13:58:35.551Z</time></trkpt><trkpt lat="44.082542" lon="12.2646894"><ele>252.0</ele><time>2026-04-18T13:58:36.552Z</time></trkpt><trkpt lat="44.0825699" lon="12.2648222"><ele>249.0</ele><time>2026-04-18T13:58:37.552Z</time></trkpt><trkpt lat="44.082618" lon="12.2649305"><ele>246.0</ele><time>2026-04-18T13:58:38.555Z</time></trkpt><trkpt lat="44.0826967" lon="12.2650147"><ele>243.0</ele><time>2026-04-18T13:58:39.547Z</time></trkpt><trkpt lat="44.0828092" lon="12.2650862"><ele>240.0</ele><time>2026-04-18T13:58:40.546Z</time></trkpt><trkpt lat="44.0829555" lon="12.2651584"><ele>240.0</ele><time>2026-04-18T13:58:41.556Z</time></trkpt><trkpt lat="44.0831056" lon="12.265249"><ele>240.0</ele><time>2026-04-18T13:58:42.544Z</time></trkpt><trkpt lat="44.083235" lon="12.265378"><ele>240.0</ele><time>2026-04-18T13:58:43.553Z</time></trkpt><trkpt lat="44.0833356" lon="12.2655409"><ele>238.25</ele><time>2026-04-18T13:58:44.542Z</time></trkpt><trkpt lat="44.0834178" lon="12.2657095"><ele>236.5</ele><time>2026-04-18T13:58:45.548Z</time></trkpt><trkpt lat="44.0834905" lon="12.2658751"><ele>234.75</ele><time>2026-04-18T13:58:46.549Z</time></trkpt><trkpt lat="44.0835507" lon="12.2660343"><ele>233.0</ele><time>2026-04-18T13:58:47.55Z</time></trkpt><trkpt lat="44.0835811" lon="12.2662019"><ele>233.0</ele><time>2026-04-18T13:58:48.548Z</time></trkpt><trkpt lat="44.0835891" lon="12.2663543"><ele>233.0</ele><time>2026-04-18T13:58:49.545Z</time></trkpt><trkpt lat="44.0835747" lon="12.2665084"><ele>233.0</ele><time>2026-04-18T13:58:50.544Z</time></trkpt><trkpt lat="44.0835344" lon="12.2666692"><ele>233.0</ele><time>2026-04-18T13:58:51.553Z</time></trkpt><trkpt lat="44.0834839" lon="12.2668354"><ele>231.75</ele><time>2026-04-18T13:58:52.544Z</time></trkpt><trkpt lat="44.0834373" lon="12.2670019"><ele>230.5</ele><time>2026-04-18T13:58:53.549Z</time></trkpt><trkpt lat="44.0833954" lon="12.2671487"><ele>229.25</ele><time>2026-04-18T13:58:54.551Z</time></trkpt><trkpt lat="44.0833474" lon="12.2672933"><ele>228.0</ele><time>2026-04-18T13:58:55.554Z</time></trkpt><trkpt lat="44.0832797" lon="12.2674238"><ele>225.0</ele><time>2026-04-18T13:58:56.553Z</time></trkpt><trkpt lat="44.0831925" lon="12.2675363"><ele>222.0</ele><time>2026-04-18T13:58:57.551Z</time></trkpt><trkpt lat="44.0830796" lon="12.2676371"><ele>219.0</ele><time>2026-04-18T13:58:58.545Z</time></trkpt><trkpt lat="44.0829622" lon="12.2677259"><ele>216.0</ele><time>2026-04-18T13:58:59.548Z</time></trkpt><trkpt lat="44.0828522" lon="12.2678308"><ele>216.0</ele><time>2026-04-18T13:59:00.547Z</time></trkpt><trkpt lat="44.0827663" lon="12.267965"><ele>216.0</ele><time>2026-04-18T13:59:01.552Z</time></trkpt><trkpt lat="44.0826967" lon="12.2681476"><ele>216.0</ele><time>2026-04-18T13:59:02.546Z</time></trkpt><trkpt lat="44.0826303" lon="12.2683607"><ele>216.0</ele><time>2026-04-18T13:59:03.561Z</time></trkpt><trkpt lat="44.0825712" lon="12.2685741"><ele>217.5</ele><time>2026-04-18T13:59:04.544Z</time></trkpt><trkpt lat="44.0825065" lon="12.2687631"><ele>219.0</ele><time>2026-04-18T13:59:05.553Z</time></trkpt><trkpt lat="44.0824487" lon="12.268915"><ele>220.5</ele><time>2026-04-18T13:59:06.548Z</time></trkpt><trkpt lat="44.0824028" lon="12.2690427"><ele>222.0</ele><time>2026-04-18T13:59:07.551Z</time></trkpt><trkpt lat="44.0823858" lon="12.2691894"><ele>222.0</ele><time>2026-04-18T13:59:08.546Z</time></trkpt><trkpt lat="44.0824116" lon="12.2693478"><ele>222.0</ele><time>2026-04-18T13:59:09.544Z</time></trkpt><trkpt lat="44.0824676" lon="12.2695559"><ele>222.0</ele><time>2026-04-18T13:59:10.543Z</time></trkpt><trkpt lat="44.0825258" lon="12.2697551"><ele>222.0</ele><time>2026-04-18T13:59:11.555Z</time></trkpt><trkpt lat="44.0825771" lon="12.2699395"><ele>222.75</ele><time>2026-04-18T13:59:12.55Z</time></trkpt><trkpt lat="44.0826274" lon="12.2701061"><ele>223.5</ele><time>2026-04-18T13:59:13.556Z</time></trkpt><trkpt lat="44.0826792" lon="12.2702629"><ele>224.25</ele><time>2026-04-18T13:59:14.551Z</time></trkpt><trkpt lat="44.0827338" lon="12.2704107"><ele>225.0</ele><time>2026-04-18T13:59:15.55Z</time></trkpt><trkpt lat="44.0827798" lon="12.2705548"><ele>224.0</ele><time>2026-04-18T13:59:16.553Z</time></trkpt><trkpt lat="44.0828268" lon="12.2706923"><ele>223.0</ele><time>2026-04-18T13:59:17.547Z</time></trkpt><trkpt lat="44.0828765" lon="12.2708267"><ele>222.0</ele><time>2026-04-18T13:59:18.553Z</time></trkpt><trkpt lat="44.0829269" lon="12.2709698"><ele>221.0</ele><time>2026-04-18T13:59:19.55Z</time></trkpt><trkpt lat="44.0829738" lon="12.2711231"><ele>221.0</ele><time>2026-04-18T13:59:20.544Z</time></trkpt><trkpt lat="44.0830146" lon="12.2712846"><ele>221.0</ele><time>2026-04-18T13:59:21.547Z</time></trkpt><trkpt lat="44.0830343" lon="12.2714597"><ele>221.0</ele><time>2026-04-18T13:59:22.549Z</time></trkpt><trkpt lat="44.0830357" lon="12.2716458"><ele>221.0</ele><time>2026-04-18T13:59:23.548Z</time></trkpt><trkpt lat="44.0830299" lon="12.2718274"><ele>218.5</ele><time>2026-04-18T13:59:24.554Z</time></trkpt><trkpt lat="44.0830397" lon="12.271992"><ele>216.0</ele><time>2026-04-18T13:59:25.545Z</time></trkpt><trkpt lat="44.0830778" lon="12.2721645"><ele>213.5</ele><time>2026-04-18T13:59:26.552Z</time></trkpt><trkpt lat="44.0831286" lon="12.2723438"><ele>211.0</ele><time>2026-04-18T13:59:27.545Z</time></trkpt><trkpt lat="44.0831884" lon="12.2725311"><ele>209.0</ele><time>2026-04-18T13:59:28.554Z</time></trkpt><trkpt lat="44.0832433" lon="12.2727211"><ele>207.0</ele><time>2026-04-18T13:59:29.548Z</time></trkpt><trkpt lat="44.0832905" lon="12.2729242"><ele>205.0</ele><time>2026-04-18T13:59:30.547Z</time></trkpt><trkpt lat="44.0833254" lon="12.2731332"><ele>204.0</ele><time>2026-04-18T13:59:31.556Z</time></trkpt><trkpt lat="44.0833497" lon="12.2733393"><ele>203.0</ele><time>2026-04-18T13:59:32.547Z</time></trkpt><trkpt lat="44.083378" lon="12.2735383"><ele>202.0</ele><time>2026-04-18T13:59:33.551Z</time></trkpt><trkpt lat="44.0834067" lon="12.2737335"><ele>201.0</ele><time>2026-04-18T13:59:34.547Z</time></trkpt><trkpt lat="44.0834327" lon="12.2739287"><ele>200.5</ele><time>2026-04-18T13:59:35.549Z</time></trkpt><trkpt lat="44.0834567" lon="12.2741179"><ele>200.0</ele><time>2026-04-18T13:59:36.55Z</time></trkpt><trkpt lat="44.0834839" lon="12.2742991"><ele>199.5</ele><time>2026-04-18T13:59:37.55Z</time></trkpt><trkpt lat="44.0835102" lon="12.2744681"><ele>199.0</ele><time>2026-04-18T13:59:38.556Z</time></trkpt><trkpt lat="44.0835432" lon="12.2746313"><ele>196.75</ele><time>2026-04-18T13:59:39.548Z</time></trkpt><trkpt lat="44.0835908" lon="12.274774"><ele>194.5</ele><time>2026-04-18T13:59:40.55Z</time></trkpt><trkpt lat="44.0836493" lon="12.2749043"><ele>192.25</ele><time>2026-04-18T13:59:41.545Z</time></trkpt><trkpt lat="44.0837184" lon="12.2750261"><ele>190.0</ele><time>2026-04-18T13:59:42.552Z</time></trkpt><trkpt lat="44.083789" lon="12.2751619"><ele>190.0</ele><time>2026-04-18T13:59:43.546Z</time></trkpt><trkpt lat="44.0838432" lon="12.2752943"><ele>190.0</ele><time>2026-04-18T13:59:44.548Z</time></trkpt><trkpt lat="44.0838801" lon="12.2754311"><ele>190.0</ele><time>2026-04-18T13:59:45.556Z</time></trkpt><trkpt lat="44.0838898" lon="12.2755773"><ele>190.0</ele><time>2026-04-18T13:59:46.548Z</time></trkpt><trkpt lat="44.0838708" lon="12.2757426"><ele>190.0</ele><time>2026-04-18T13:59:47.541Z</time></trkpt><trkpt lat="44.0838336" lon="12.2759216"><ele>189.5</ele><time>2026-04-18T13:59:48.55Z</time></trkpt><trkpt lat="44.0837804" lon="12.2760987"><ele>189.0</ele><time>2026-04-18T13:59:49.557Z</time></trkpt><trkpt lat="44.0837219" lon="12.2762826"><ele>188.5</ele><time>2026-04-18T13:59:50.542Z</time></trkpt><trkpt lat="44.0836675" lon="12.2764591"><ele>188.0</ele><time>2026-04-18T13:59:51.548Z</time></trkpt><trkpt lat="44.0836164" lon="12.2766289"><ele>188.0</ele><time>2026-04-18T13:59:52.544Z</time></trkpt><trkpt lat="44.083567" lon="12.2767862"><ele>188.0</ele><time>2026-04-18T13:59:53.546Z</time></trkpt><trkpt lat="44.0835107" lon="12.2769261"><ele>188.0</ele><time>2026-04-18T13:59:54.551Z</time></trkpt><trkpt lat="44.083439" lon="12.2770299"><ele>188.0</ele><time>2026-04-18T13:59:55.547Z</time></trkpt><trkpt lat="44.0833475" lon="12.2771303"><ele>187.0</ele><time>2026-04-18T13:59:56.548Z</time></trkpt><trkpt lat="44.083242" lon="12.2772348"><ele>186.0</ele><time>2026-04-18T13:59:57.55Z</time></trkpt><trkpt lat="44.0831329" lon="12.2773436"><ele>185.0</ele><time>2026-04-18T13:59:58.546Z</time></trkpt><trkpt lat="44.0830304" lon="12.27745"><ele>184.0</ele><time>2026-04-18T13:59:59.548Z</time></trkpt><trkpt lat="44.0829469" lon="12.2775661"><ele>184.0</ele><time>2026-04-18T14:00:00.557Z</time></trkpt><trkpt lat="44.0828866" lon="12.2776837"><ele>184.0</ele><time>2026-04-18T14:00:01.557Z</time></trkpt><trkpt lat="44.0828557" lon="12.2778085"><ele>184.0</ele><time>2026-04-18T14:00:02.549Z</time></trkpt><trkpt lat="44.0828601" lon="12.2779387"><ele>184.0</ele><time>2026-04-18T14:00:03.548Z</time></trkpt><trkpt lat="44.082892" lon="12.278081"><ele>184.0</ele><time>2026-04-18T14:00:04.551Z</time></trkpt><trkpt lat="44.0829404" lon="12.2782382"><ele>187.0</ele><time>2026-04-18T14:00:05.548Z</time></trkpt><trkpt lat="44.0829963" lon="12.2784109"><ele>190.0</ele><time>2026-04-18T14:00:06.55Z</time></trkpt><trkpt lat="44.0830505" lon="12.2785935"><ele>193.0</ele><time>2026-04-18T14:00:07.547Z</time></trkpt><trkpt lat="44.083102" lon="12.2787699"><ele>196.0</ele><time>2026-04-18T14:00:08.552Z</time></trkpt><trkpt lat="44.0831542" lon="12.2789388"><ele>196.0</ele><time>2026-04-18T14:00:09.553Z</time></trkpt><trkpt lat="44.0832055" lon="12.2791025"><ele>196.0</ele><time>2026-04-18T14:00:10.55Z</time></trkpt><trkpt lat="44.0832519" lon="12.2792682"><ele>196.0</ele><time>2026-04-18T14:00:11.551Z</time></trkpt><trkpt lat="44.0832878" lon="12.2794296"><ele>196.0</ele><time>2026-04-18T14:00:12.545Z</time></trkpt><trkpt lat="44.0833241" lon="12.279573"><ele>192.0</ele><time>2026-04-18T14:00:13.548Z</time></trkpt><trkpt lat="44.0833729" lon="12.2797022"><ele>188.0</ele><time>2026-04-18T14:00:14.559Z</time></trkpt><trkpt lat="44.0834469" lon="12.2798003"><ele>184.0</ele><time>2026-04-18T14:00:15.55Z</time></trkpt><trkpt lat="44.083544" lon="12.2798574"><ele>180.0</ele><time>2026-04-18T14:00:16.553Z</time></trkpt><trkpt lat="44.0836706" lon="12.2798719"><ele>176.0</ele><time>2026-04-18T14:00:17.547Z</time></trkpt><trkpt lat="44.0838143" lon="12.2798714"><ele>174.5</ele><time>2026-04-18T14:00:18.547Z</time></trkpt><trkpt lat="44.083959" lon="12.2798733"><ele>173.0</ele><time>2026-04-18T14:00:19.545Z</time></trkpt><trkpt lat="44.0840945" lon="12.2798883"><ele>171.5</ele><time>2026-04-18T14:00:20.547Z</time></trkpt><trkpt lat="44.0842117" lon="12.2799342"><ele>170.0</ele><time>2026-04-18T14:00:21.544Z</time></trkpt><trkpt lat="44.0843196" lon="12.2800034"><ele>168.2</ele><time>2026-04-18T14:00:22.548Z</time></trkpt><trkpt lat="44.0844166" lon="12.2800938"><ele>166.4</ele><time>2026-04-18T14:00:23.549Z</time></trkpt><trkpt lat="44.084497" lon="12.2801984"><ele>164.60000000000002</ele><time>2026-04-18T14:00:24.552Z</time></trkpt><trkpt lat="44.0845494" lon="12.2803195"><ele>162.8</ele><time>2026-04-18T14:00:25.551Z</time></trkpt><trkpt lat="44.0845876" lon="12.2804476"><ele>161.0</ele><time>2026-04-18T14:00:26.552Z</time></trkpt><trkpt lat="44.0846301" lon="12.2805694"><ele>160.75</ele><time>2026-04-18T14:00:27.552Z</time></trkpt><trkpt lat="44.0846897" lon="12.2806836"><ele>160.5</ele><time>2026-04-18T14:00:28.55Z</time></trkpt><trkpt lat="44.0847928" lon="12.2807604"><ele>160.25</ele><time>2026-04-18T14:00:29.553Z</time></trkpt><trkpt lat="44.0849149" lon="12.2807904"><ele>160.0</ele><time>2026-04-18T14:00:30.547Z</time></trkpt><trkpt lat="44.0850593" lon="12.2807978"><ele>160.5</ele><time>2026-04-18T14:00:31.552Z</time></trkpt><trkpt lat="44.0852053" lon="12.2807789"><ele>161.0</ele><time>2026-04-18T14:00:32.549Z</time></trkpt><trkpt lat="44.0853419" lon="12.2807649"><ele>161.5</ele><time>2026-04-18T14:00:33.545Z</time></trkpt><trkpt lat="44.0854712" lon="12.2807701"><ele>162.0</ele><time>2026-04-18T14:00:34.556Z</time></trkpt><trkpt lat="44.0856062" lon="12.2807889"><ele>162.0</ele><time>2026-04-18T14:00:35.552Z</time></trkpt><trkpt lat="44.0857471" lon="12.2808206"><ele>162.0</ele><time>2026-04-18T14:00:36.549Z</time></trkpt><trkpt lat="44.0859009" lon="12.2808375"><ele>162.0</ele><time>2026-04-18T14:00:37.557Z</time></trkpt><trkpt lat="44.0860451" lon="12.2808588"><ele>162.0</ele><time>2026-04-18T14:00:38.545Z</time></trkpt><trkpt lat="44.0861828" lon="12.2808903"><ele>161.5</ele><time>2026-04-18T14:00:39.552Z</time></trkpt><trkpt lat="44.0862996" lon="12.2809349"><ele>161.0</ele><time>2026-04-18T14:00:40.547Z</time></trkpt><trkpt lat="44.0864174" lon="12.2810193"><ele>160.5</ele><time>2026-04-18T14:00:41.543Z</time></trkpt><trkpt lat="44.0865415" lon="12.2811261"><ele>160.0</ele><time>2026-04-18T14:00:42.554Z</time></trkpt><trkpt lat="44.0866644" lon="12.281233"><ele>159.0</ele><time>2026-04-18T14:00:43.549Z</time></trkpt><trkpt lat="44.0867849" lon="12.281333"><ele>158.0</ele><time>2026-04-18T14:00:44.55Z</time></trkpt><trkpt lat="44.0869056" lon="12.2814186"><ele>157.0</ele><time>2026-04-18T14:00:45.547Z</time></trkpt><trkpt lat="44.0870235" lon="12.2814979"><ele>156.0</ele><time>2026-04-18T14:00:46.547Z</time></trkpt><trkpt lat="44.0871386" lon="12.2815696"><ele>156.0</ele><time>2026-04-18T14:00:47.548Z</time></trkpt><trkpt lat="44.0872555" lon="12.2816264"><ele>156.0</ele><time>2026-04-18T14:00:48.551Z</time></trkpt><trkpt lat="44.0873762" lon="12.2816704"><ele>156.0</ele><time>2026-04-18T14:00:49.547Z</time></trkpt><trkpt lat="44.0874998" lon="12.2816886"><ele>156.0</ele><time>2026-04-18T14:00:50.555Z</time></trkpt><trkpt lat="44.0876287" lon="12.2816796"><ele>152.8</ele><time>2026-04-18T14:00:51.55Z</time></trkpt><trkpt lat="44.0877492" lon="12.2816647"><ele>149.6</ele><time>2026-04-18T14:00:52.546Z</time></trkpt><trkpt lat="44.0878512" lon="12.2816459"><ele>146.4</ele><time>2026-04-18T14:00:53.553Z</time></trkpt><trkpt lat="44.087938" lon="12.2816047"><ele>143.2</ele><time>2026-04-18T14:00:54.549Z</time></trkpt><trkpt lat="44.0880026" lon="12.2815301"><ele>140.0</ele><time>2026-04-18T14:00:55.549Z</time></trkpt><trkpt lat="44.0880539" lon="12.281426"><ele>139.33333333333331</ele><time>2026-04-18T14:00:56.549Z</time></trkpt><trkpt lat="44.0880745" lon="12.2812886"><ele>138.66666666666666</ele><time>2026-04-18T14:00:57.546Z</time></trkpt><trkpt lat="44.0880895" lon="12.2811473"><ele>138.0</ele><time>2026-04-18T14:00:58.548Z</time></trkpt><trkpt lat="44.0881201" lon="12.2810355"><ele>137.33333333333334</ele><time>2026-04-18T14:00:59.544Z</time></trkpt><trkpt lat="44.0881708" lon="12.2809654"><ele>136.66666666666669</ele><time>2026-04-18T14:01:00.552Z</time></trkpt><trkpt lat="44.0882345" lon="12.2809305"><ele>136.0</ele><time>2026-04-18T14:01:01.548Z</time></trkpt><trkpt lat="44.0883122" lon="12.2809422"><ele>134.6</ele><time>2026-04-18T14:01:02.542Z</time></trkpt><trkpt lat="44.0883857" lon="12.2809847"><ele>133.2</ele><time>2026-04-18T14:01:03.553Z</time></trkpt><trkpt lat="44.0884477" lon="12.2810793"><ele>131.8</ele><time>2026-04-18T14:01:04.552Z</time></trkpt><trkpt lat="44.0885208" lon="12.2812052"><ele>130.4</ele><time>2026-04-18T14:01:05.556Z</time></trkpt><trkpt lat="44.0886002" lon="12.2813479"><ele>129.0</ele><time>2026-04-18T14:01:06.541Z</time></trkpt><trkpt lat="44.0886876" lon="12.2815014"><ele>129.0</ele><time>2026-04-18T14:01:07.55Z</time></trkpt><trkpt lat="44.088767" lon="12.2816565"><ele>129.0</ele><time>2026-04-18T14:01:08.551Z</time></trkpt><trkpt lat="44.0888578" lon="12.2818031"><ele>129.0</ele><time>2026-04-18T14:01:09.547Z</time></trkpt><trkpt lat="44.0889519" lon="12.2819499"><ele>129.0</ele><time>2026-04-18T14:01:10.555Z</time></trkpt><trkpt lat="44.0890504" lon="12.2820997"><ele>123.75</ele><time>2026-04-18T14:01:11.545Z</time></trkpt><trkpt lat="44.0891506" lon="12.2822478"><ele>118.5</ele><time>2026-04-18T14:01:12.548Z</time></trkpt><trkpt lat="44.0892482" lon="12.2823951"><ele>113.25</ele><time>2026-04-18T14:01:13.549Z</time></trkpt><trkpt lat="44.0893448" lon="12.2825448"><ele>108.0</ele><time>2026-04-18T14:01:14.554Z</time></trkpt><trkpt lat="44.0894357" lon="12.2826955"><ele>108.0</ele><time>2026-04-18T14:01:15.551Z</time></trkpt><trkpt lat="44.0895228" lon="12.2828438"><ele>108.0</ele><time>2026-04-18T14:01:16.554Z</time></trkpt><trkpt lat="44.0896071" lon="12.2829869"><ele>108.0</ele><time>2026-04-18T14:01:17.549Z</time></trkpt><trkpt lat="44.0896955" lon="12.2831227"><ele>108.0</ele><time>2026-04-18T14:01:18.557Z</time></trkpt><trkpt lat="44.089778" lon="12.2832564"><ele>106.5</ele><time>2026-04-18T14:01:19.551Z</time></trkpt><trkpt lat="44.0898517" lon="12.2833949"><ele>105.0</ele><time>2026-04-18T14:01:20.548Z</time></trkpt><trkpt lat="44.0899172" lon="12.2835438"><ele>103.5</ele><time>2026-04-18T14:01:21.555Z</time></trkpt><trkpt lat="44.0899728" lon="12.2837002"><ele>102.0</ele><time>2026-04-18T14:01:22.548Z</time></trkpt><trkpt lat="44.0900164" lon="12.2838657"><ele>97.5</ele><time>2026-04-18T14:01:23.554Z</time></trkpt><trkpt lat="44.0900497" lon="12.2840366"><ele>93.0</ele><time>2026-04-18T14:01:24.546Z</time></trkpt><trkpt lat="44.0900872" lon="12.2842033"><ele>88.5</ele><time>2026-04-18T14:01:25.544Z</time></trkpt><trkpt lat="44.0901343" lon="12.2843421"><ele>84.0</ele><time>2026-04-18T14:01:26.552Z</time></trkpt><trkpt lat="44.0901891" lon="12.2844385"><ele>84.0</ele><time>2026-04-18T14:01:27.548Z</time></trkpt><trkpt lat="44.0902557" lon="12.2844984"><ele>84.0</ele><time>2026-04-18T14:01:28.55Z</time></trkpt><trkpt lat="44.0903268" lon="12.2845183"><ele>84.0</ele><time>2026-04-18T14:01:29.543Z</time></trkpt><trkpt lat="44.0903986" lon="12.2844977"><ele>84.0</ele><time>2026-04-18T14:01:30.551Z</time></trkpt><trkpt lat="44.0904611" lon="12.2844331"><ele>84.0</ele><time>2026-04-18T14:01:31.549Z</time></trkpt><trkpt lat="44.0905014" lon="12.2843425"><ele>84.0</ele><time>2026-04-18T14:01:32.553Z</time></trkpt><trkpt lat="44.0905368" lon="12.2842484"><ele>84.0</ele><time>2026-04-18T14:01:33.552Z</time></trkpt><trkpt lat="44.0905894" lon="12.2841796"><ele>84.0</ele><time>2026-04-18T14:01:34.556Z</time></trkpt><trkpt lat="44.0907086" lon="12.2842228"><ele>84.0</ele><time>2026-04-18T14:01:36.546Z</time></trkpt><trkpt lat="44.0907588" lon="12.2843026"><ele>84.0</ele><time>2026-04-18T14:01:37.549Z</time></trkpt><trkpt lat="44.0908098" lon="12.2844231"><ele>84.0</ele><time>2026-04-18T14:01:38.556Z</time></trkpt><trkpt lat="44.0908567" lon="12.2845677"><ele>80.5</ele><time>2026-04-18T14:01:39.545Z</time></trkpt><trkpt lat="44.090909" lon="12.284736"><ele>77.0</ele><time>2026-04-18T14:01:40.548Z</time></trkpt><trkpt lat="44.0909706" lon="12.2849117"><ele>73.5</ele><time>2026-04-18T14:01:41.553Z</time></trkpt><trkpt lat="44.0910253" lon="12.2851032"><ele>70.0</ele><time>2026-04-18T14:01:42.548Z</time></trkpt><trkpt lat="44.0910672" lon="12.2853044"><ele>70.0</ele><time>2026-04-18T14:01:43.55Z</time></trkpt><trkpt lat="44.0910909" lon="12.2855045"><ele>70.0</ele><time>2026-04-18T14:01:44.551Z</time></trkpt><trkpt lat="44.0910923" lon="12.2856975"><ele>70.0</ele><time>2026-04-18T14:01:45.545Z</time></trkpt><trkpt lat="44.0910906" lon="12.2858867"><ele>70.0</ele><time>2026-04-18T14:01:46.56Z</time></trkpt><trkpt lat="44.0910934" lon="12.2860985"><ele>68.0</ele><time>2026-04-18T14:01:47.55Z</time></trkpt><trkpt lat="44.0910962" lon="12.2863228"><ele>66.0</ele><time>2026-04-18T14:01:48.552Z</time></trkpt><trkpt lat="44.0910941" lon="12.2865381"><ele>64.0</ele><time>2026-04-18T14:01:49.545Z</time></trkpt><trkpt lat="44.0910918" lon="12.2867557"><ele>63.33333333333333</ele><time>2026-04-18T14:01:50.548Z</time></trkpt><trkpt lat="44.0910969" lon="12.28697"><ele>62.66666666666667</ele><time>2026-04-18T14:01:51.559Z</time></trkpt><trkpt lat="44.0911119" lon="12.287188"><ele>62.0</ele><time>2026-04-18T14:01:52.546Z</time></trkpt><trkpt lat="44.0911304" lon="12.2874046"><ele>61.333333333333336</ele><time>2026-04-18T14:01:53.551Z</time></trkpt><trkpt lat="44.0911308" lon="12.2876141"><ele>60.66666666666667</ele><time>2026-04-18T14:01:54.559Z</time></trkpt><trkpt lat="44.0911006" lon="12.2878252"><ele>60.0</ele><time>2026-04-18T14:01:55.551Z</time></trkpt><trkpt lat="44.0910458" lon="12.2880119"><ele>59.66666666666667</ele><time>2026-04-18T14:01:56.545Z</time></trkpt><trkpt lat="44.0909831" lon="12.2881881"><ele>59.333333333333336</ele><time>2026-04-18T14:01:57.549Z</time></trkpt><trkpt lat="44.0908978" lon="12.288355"><ele>59.0</ele><time>2026-04-18T14:01:58.552Z</time></trkpt><trkpt lat="44.0907878" lon="12.2885324"><ele>59.333333333333336</ele><time>2026-04-18T14:01:59.549Z</time></trkpt><trkpt lat="44.0906706" lon="12.2887154"><ele>59.66666666666667</ele><time>2026-04-18T14:02:00.553Z</time></trkpt><trkpt lat="44.0905591" lon="12.2888853"><ele>60.0</ele><time>2026-04-18T14:02:01.546Z</time></trkpt><trkpt lat="44.0904566" lon="12.2890434"><ele>60.0</ele><time>2026-04-18T14:02:02.549Z</time></trkpt><trkpt lat="44.0903631" lon="12.2891949"><ele>60.0</ele><time>2026-04-18T14:02:03.555Z</time></trkpt><trkpt lat="44.0902867" lon="12.2893384"><ele>60.0</ele><time>2026-04-18T14:02:04.552Z</time></trkpt><trkpt lat="44.0902274" lon="12.2894981"><ele>60.0</ele><time>2026-04-18T14:02:05.556Z</time></trkpt><trkpt lat="44.0901767" lon="12.2896656"><ele>59.5</ele><time>2026-04-18T14:02:06.548Z</time></trkpt><trkpt lat="44.090145" lon="12.289845"><ele>59.0</ele><time>2026-04-18T14:02:07.553Z</time></trkpt><trkpt lat="44.0901229" lon="12.290032"><ele>58.5</ele><time>2026-04-18T14:02:08.561Z</time></trkpt><trkpt lat="44.0901039" lon="12.2902223"><ele>58.0</ele><time>2026-04-18T14:02:09.556Z</time></trkpt><trkpt lat="44.0900941" lon="12.2904082"><ele>58.0</ele><time>2026-04-18T14:02:10.547Z</time></trkpt><trkpt lat="44.0900955" lon="12.2905818"><ele>58.0</ele><time>2026-04-18T14:02:11.556Z</time></trkpt><trkpt lat="44.0901105" lon="12.2907422"><ele>58.0</ele><time>2026-04-18T14:02:12.543Z</time></trkpt><trkpt lat="44.0901347" lon="12.2908986"><ele>58.0</ele><time>2026-04-18T14:02:13.543Z</time></trkpt><trkpt lat="44.090169" lon="12.2910395"><ele>58.166666666666664</ele><time>2026-04-18T14:02:14.551Z</time></trkpt><trkpt lat="44.09021" lon="12.2911652"><ele>58.33333333333333</ele><time>2026-04-18T14:02:15.55Z</time></trkpt><trkpt lat="44.09026" lon="12.2912599"><ele>58.5</ele><time>2026-04-18T14:02:16.541Z</time></trkpt><trkpt lat="44.0903216" lon="12.2913163"><ele>58.66666666666667</ele><time>2026-04-18T14:02:17.547Z</time></trkpt><trkpt lat="44.090396" lon="12.291348"><ele>58.833333333333336</ele><time>2026-04-18T14:02:18.548Z</time></trkpt><trkpt lat="44.090483" lon="12.2913644"><ele>59.0</ele><time>2026-04-18T14:02:19.55Z</time></trkpt><trkpt lat="44.0905904" lon="12.2913697"><ele>59.0</ele><time>2026-04-18T14:02:20.549Z</time></trkpt><trkpt lat="44.0907162" lon="12.2913677"><ele>59.0</ele><time>2026-04-18T14:02:21.55Z</time></trkpt><trkpt lat="44.0908651" lon="12.2913595"><ele>59.0</ele><time>2026-04-18T14:02:22.558Z</time></trkpt><trkpt lat="44.0910316" lon="12.2913567"><ele>59.0</ele><time>2026-04-18T14:02:23.552Z</time></trkpt><trkpt lat="44.0912049" lon="12.2913597"><ele>58.333333333333336</ele><time>2026-04-18T14:02:24.549Z</time></trkpt><trkpt lat="44.0913759" lon="12.2913732"><ele>57.66666666666667</ele><time>2026-04-18T14:02:25.545Z</time></trkpt><trkpt lat="44.0915463" lon="12.2913857"><ele>57.0</ele><time>2026-04-18T14:02:26.553Z</time></trkpt><trkpt lat="44.0917143" lon="12.2913981"><ele>58.0</ele><time>2026-04-18T14:02:27.546Z</time></trkpt><trkpt lat="44.0918754" lon="12.2914117"><ele>59.0</ele><time>2026-04-18T14:02:28.545Z</time></trkpt><trkpt lat="44.0920274" lon="12.2914197"><ele>60.0</ele><time>2026-04-18T14:02:29.551Z</time></trkpt><trkpt lat="44.0921681" lon="12.2914245"><ele>60.0</ele><time>2026-04-18T14:02:30.545Z</time></trkpt><trkpt lat="44.0923024" lon="12.2914521"><ele>60.0</ele><time>2026-04-18T14:02:31.549Z</time></trkpt><trkpt lat="44.0924243" lon="12.2915077"><ele>60.0</ele><time>2026-04-18T14:02:32.544Z</time></trkpt><trkpt lat="44.0925304" lon="12.2916135"><ele>60.0</ele><time>2026-04-18T14:02:33.556Z</time></trkpt><trkpt lat="44.0926159" lon="12.2917551"><ele>60.0</ele><time>2026-04-18T14:02:34.554Z</time></trkpt><trkpt lat="44.0926991" lon="12.2919199"><ele>60.0</ele><time>2026-04-18T14:02:35.543Z</time></trkpt><trkpt lat="44.0927886" lon="12.2920849"><ele>60.0</ele><time>2026-04-18T14:02:36.553Z</time></trkpt><trkpt lat="44.0928882" lon="12.2922433"><ele>60.0</ele><time>2026-04-18T14:02:37.552Z</time></trkpt><trkpt lat="44.0930013" lon="12.2923757"><ele>60.0</ele><time>2026-04-18T14:02:38.552Z</time></trkpt><trkpt lat="44.0931225" lon="12.2924926"><ele>60.0</ele><time>2026-04-18T14:02:39.546Z</time></trkpt><trkpt lat="44.0932582" lon="12.2926051"><ele>60.0</ele><time>2026-04-18T14:02:40.543Z</time></trkpt><trkpt lat="44.0934033" lon="12.2926976"><ele>63.33333333333333</ele><time>2026-04-18T14:02:41.547Z</time></trkpt><trkpt lat="44.0935544" lon="12.2927875"><ele>66.66666666666666</ele><time>2026-04-18T14:02:42.549Z</time></trkpt><trkpt lat="44.0937056" lon="12.2928629"><ele>70.0</ele><time>2026-04-18T14:02:43.546Z</time></trkpt><trkpt lat="44.0938596" lon="12.2929258"><ele>70.0</ele><time>2026-04-18T14:02:44.552Z</time></trkpt><trkpt lat="44.0940125" lon="12.2929766"><ele>70.0</ele><time>2026-04-18T14:02:45.547Z</time></trkpt><trkpt lat="44.0941611" lon="12.2930204"><ele>70.0</ele><time>2026-04-18T14:02:46.549Z</time></trkpt><trkpt lat="44.0943115" lon="12.2930641"><ele>67.66666666666666</ele><time>2026-04-18T14:02:47.545Z</time></trkpt><trkpt lat="44.0944609" lon="12.293111"><ele>65.33333333333333</ele><time>2026-04-18T14:02:48.55Z</time></trkpt><trkpt lat="44.0946193" lon="12.2931584"><ele>63.0</ele><time>2026-04-18T14:02:49.551Z</time></trkpt><trkpt lat="44.0947831" lon="12.2932114"><ele>64.66666666666667</ele><time>2026-04-18T14:02:50.553Z</time></trkpt><trkpt lat="44.0949572" lon="12.2932719"><ele>66.33333333333334</ele><time>2026-04-18T14:02:51.555Z</time></trkpt><trkpt lat="44.0951336" lon="12.2933418"><ele>68.0</ele><time>2026-04-18T14:02:52.548Z</time></trkpt><trkpt lat="44.0953114" lon="12.2934177"><ele>68.0</ele><time>2026-04-18T14:02:53.552Z</time></trkpt><trkpt lat="44.0954937" lon="12.293501"><ele>68.0</ele><time>2026-04-18T14:02:54.545Z</time></trkpt><trkpt lat="44.0956789" lon="12.293593"><ele>68.0</ele><time>2026-04-18T14:02:55.55Z</time></trkpt><trkpt lat="44.0958664" lon="12.2936873"><ele>68.33333333333334</ele><time>2026-04-18T14:02:56.551Z</time></trkpt><trkpt lat="44.0960486" lon="12.2937772"><ele>68.66666666666667</ele><time>2026-04-18T14:02:57.55Z</time></trkpt><trkpt lat="44.0962182" lon="12.293863"><ele>69.0</ele><time>2026-04-18T14:02:58.548Z</time></trkpt><trkpt lat="44.0963713" lon="12.2939384"><ele>69.25</ele><time>2026-04-18T14:02:59.549Z</time></trkpt><trkpt lat="44.0965103" lon="12.2939966"><ele>69.5</ele><time>2026-04-18T14:03:00.547Z</time></trkpt><trkpt lat="44.0966364" lon="12.2940551"><ele>69.75</ele><time>2026-04-18T14:03:01.558Z</time></trkpt><trkpt lat="44.0967448" lon="12.2941247"><ele>70.0</ele><time>2026-04-18T14:03:02.548Z</time></trkpt><trkpt lat="44.0968419" lon="12.2942102"><ele>70.0</ele><time>2026-04-18T14:03:03.548Z</time></trkpt><trkpt lat="44.0969332" lon="12.2943242"><ele>70.0</ele><time>2026-04-18T14:03:04.551Z</time></trkpt><trkpt lat="44.0970187" lon="12.2944726"><ele>70.0</ele><time>2026-04-18T14:03:05.55Z</time></trkpt><trkpt lat="44.0970972" lon="12.2946356"><ele>70.0</ele><time>2026-04-18T14:03:06.548Z</time></trkpt><trkpt lat="44.0971724" lon="12.2947939"><ele>69.0</ele><time>2026-04-18T14:03:07.555Z</time></trkpt><trkpt lat="44.0972428" lon="12.2949419"><ele>68.0</ele><time>2026-04-18T14:03:08.552Z</time></trkpt><trkpt lat="44.0973047" lon="12.2950897"><ele>67.0</ele><time>2026-04-18T14:03:09.55Z</time></trkpt><trkpt lat="44.0973609" lon="12.2952377"><ele>66.0</ele><time>2026-04-18T14:03:10.554Z</time></trkpt><trkpt lat="44.0973964" lon="12.2953949"><ele>66.0</ele><time>2026-04-18T14:03:11.548Z</time></trkpt><trkpt lat="44.0974125" lon="12.2955584"><ele>66.0</ele><time>2026-04-18T14:03:12.554Z</time></trkpt><trkpt lat="44.0974225" lon="12.2957219"><ele>66.0</ele><time>2026-04-18T14:03:13.554Z</time></trkpt><trkpt lat="44.0974447" lon="12.295879"><ele>66.0</ele><time>2026-04-18T14:03:14.55Z</time></trkpt><trkpt lat="44.0974888" lon="12.2960272"><ele>65.5</ele><time>2026-04-18T14:03:15.551Z</time></trkpt><trkpt lat="44.0975572" lon="12.2961592"><ele>65.0</ele><time>2026-04-18T14:03:16.549Z</time></trkpt><trkpt lat="44.097646" lon="12.2962559"><ele>64.5</ele><time>2026-04-18T14:03:17.547Z</time></trkpt><trkpt lat="44.0977669" lon="12.2963318"><ele>64.0</ele><time>2026-04-18T14:03:18.549Z</time></trkpt><trkpt lat="44.0979226" lon="12.2964033"><ele>62.0</ele><time>2026-04-18T14:03:19.551Z</time></trkpt><trkpt lat="44.0981012" lon="12.2964781"><ele>60.0</ele><time>2026-04-18T14:03:20.557Z</time></trkpt><trkpt lat="44.0982843" lon="12.2965633"><ele>58.0</ele><time>2026-04-18T14:03:21.547Z</time></trkpt><trkpt lat="44.0984761" lon="12.2966486"><ele>57.0</ele><time>2026-04-18T14:03:22.544Z</time></trkpt><trkpt lat="44.0986689" lon="12.2967335"><ele>56.0</ele><time>2026-04-18T14:03:23.549Z</time></trkpt><trkpt lat="44.0988612" lon="12.2968115"><ele>55.0</ele><time>2026-04-18T14:03:24.558Z</time></trkpt><trkpt lat="44.0990443" lon="12.2968908"><ele>54.666666666666664</ele><time>2026-04-18T14:03:25.547Z</time></trkpt><trkpt lat="44.0992206" lon="12.296967"><ele>54.33333333333333</ele><time>2026-04-18T14:03:26.55Z</time></trkpt><trkpt lat="44.0993947" lon="12.2970344"><ele>54.0</ele><time>2026-04-18T14:03:27.549Z</time></trkpt><trkpt lat="44.0995607" lon="12.2970983"><ele>54.0</ele><time>2026-04-18T14:03:28.553Z</time></trkpt><trkpt lat="44.0997242" lon="12.2971592"><ele>54.0</ele><time>2026-04-18T14:03:29.55Z</time></trkpt><trkpt lat="44.0998764" lon="12.2972211"><ele>54.0</ele><time>2026-04-18T14:03:30.549Z</time></trkpt><trkpt lat="44.1000208" lon="12.297281"><ele>53.5</ele><time>2026-04-18T14:03:31.552Z</time></trkpt><trkpt lat="44.1001538" lon="12.2973392"><ele>53.0</ele><time>2026-04-18T14:03:32.562Z</time></trkpt><trkpt lat="44.1002801" lon="12.2973896"><ele>52.5</ele><time>2026-04-18T14:03:33.545Z</time></trkpt><trkpt lat="44.1003892" lon="12.2974376"><ele>52.0</ele><time>2026-04-18T14:03:34.552Z</time></trkpt><trkpt lat="44.1004812" lon="12.2975066"><ele>52.0</ele><time>2026-04-18T14:03:35.546Z</time></trkpt><trkpt lat="44.100548" lon="12.2976009"><ele>52.0</ele><time>2026-04-18T14:03:36.551Z</time></trkpt><trkpt lat="44.1005847" lon="12.2977066"><ele>52.0</ele><time>2026-04-18T14:03:37.551Z</time></trkpt><trkpt lat="44.1005977" lon="12.2978353"><ele>52.0</ele><time>2026-04-18T14:03:38.55Z</time></trkpt><trkpt lat="44.1005983" lon="12.2979844"><ele>52.0</ele><time>2026-04-18T14:03:39.549Z</time></trkpt><trkpt lat="44.1005982" lon="12.2981491"><ele>51.2</ele><time>2026-04-18T14:03:40.546Z</time></trkpt><trkpt lat="44.1006024" lon="12.2983083"><ele>50.400000000000006</ele><time>2026-04-18T14:03:41.556Z</time></trkpt><trkpt lat="44.1006168" lon="12.2984597"><ele>49.599999999999994</ele><time>2026-04-18T14:03:42.559Z</time></trkpt><trkpt lat="44.1006486" lon="12.2985968"><ele>48.8</ele><time>2026-04-18T14:03:43.55Z</time></trkpt><trkpt lat="44.1006966" lon="12.2987267"><ele>48.0</ele><time>2026-04-18T14:03:44.544Z</time></trkpt><trkpt lat="44.1007582" lon="12.298856"><ele>47.25</ele><time>2026-04-18T14:03:45.555Z</time></trkpt><trkpt lat="44.1008339" lon="12.2989886"><ele>46.5</ele><time>2026-04-18T14:03:46.548Z</time></trkpt><trkpt lat="44.1009168" lon="12.299116"><ele>45.75</ele><time>2026-04-18T14:03:47.55Z</time></trkpt><trkpt lat="44.1009979" lon="12.2992426"><ele>45.0</ele><time>2026-04-18T14:03:48.552Z</time></trkpt><trkpt lat="44.1010753" lon="12.2993727"><ele>45.0</ele><time>2026-04-18T14:03:49.545Z</time></trkpt><trkpt lat="44.1011483" lon="12.2995027"><ele>45.0</ele><time>2026-04-18T14:03:50.549Z</time></trkpt><trkpt lat="44.101218" lon="12.2996414"><ele>45.0</ele><time>2026-04-18T14:03:51.551Z</time></trkpt><trkpt lat="44.1012891" lon="12.2997887"><ele>45.0</ele><time>2026-04-18T14:03:52.545Z</time></trkpt><trkpt lat="44.1013547" lon="12.2999505"><ele>45.5</ele><time>2026-04-18T14:03:53.553Z</time></trkpt><trkpt lat="44.1014177" lon="12.3001179"><ele>46.0</ele><time>2026-04-18T14:03:54.556Z</time></trkpt><trkpt lat="44.1014752" lon="12.3002949"><ele>46.5</ele><time>2026-04-18T14:03:55.548Z</time></trkpt><trkpt lat="44.1015243" lon="12.300472"><ele>47.0</ele><time>2026-04-18T14:03:56.554Z</time></trkpt><trkpt lat="44.1015725" lon="12.3006343"><ele>47.2</ele><time>2026-04-18T14:03:57.545Z</time></trkpt><trkpt lat="44.1016176" lon="12.3007847"><ele>47.400000000000006</ele><time>2026-04-18T14:03:58.555Z</time></trkpt><trkpt lat="44.1016577" lon="12.300921"><ele>47.599999999999994</ele><time>2026-04-18T14:03:59.548Z</time></trkpt><trkpt lat="44.1016922" lon="12.3010411"><ele>47.8</ele><time>2026-04-18T14:04:00.548Z</time></trkpt><trkpt lat="44.1017264" lon="12.301148"><ele>48.0</ele><time>2026-04-18T14:04:01.556Z</time></trkpt><trkpt lat="44.101753" lon="12.3012377"><ele>48.0</ele><time>2026-04-18T14:04:02.546Z</time></trkpt><trkpt lat="44.1017874" lon="12.3013616"><ele>48.0</ele><time>2026-04-18T14:04:04.547Z</time></trkpt><trkpt lat="44.101814" lon="12.3014505"><ele>48.0</ele><time>2026-04-18T14:04:14.551Z</time></trkpt><trkpt lat="44.101751" lon="12.3015582"><ele>48.0</ele><time>2026-04-18T14:04:23.544Z</time></trkpt><trkpt lat="44.1016133" lon="12.3016213"><ele>48.0</ele><time>2026-04-18T14:04:25.554Z</time></trkpt><trkpt lat="44.101525" lon="12.301661"><ele>48.0</ele><time>2026-04-18T14:04:26.548Z</time></trkpt><trkpt lat="44.1014505" lon="12.3017006"><ele>48.0</ele><time>2026-04-18T14:04:27.553Z</time></trkpt><trkpt lat="44.1013783" lon="12.3017424"><ele>48.0</ele><time>2026-04-18T14:04:28.549Z</time></trkpt><trkpt lat="44.1013221" lon="12.3018056"><ele>48.0</ele><time>2026-04-18T14:04:29.561Z</time></trkpt><trkpt lat="44.1013106" lon="12.3019264"><ele>48.0</ele><time>2026-04-18T14:04:30.553Z</time></trkpt><trkpt lat="44.1013184" lon="12.3020822"><ele>48.0</ele><time>2026-04-18T14:04:31.562Z</time></trkpt><trkpt lat="44.1013124" lon="12.3022218"><ele>48.0</ele><time>2026-04-18T14:04:32.545Z</time></trkpt><trkpt lat="44.1013073" lon="12.3023475"><ele>48.0</ele><time>2026-04-18T14:04:33.548Z</time></trkpt><trkpt lat="44.1012977" lon="12.3024663"><ele>48.0</ele><time>2026-04-18T14:04:34.551Z</time></trkpt><trkpt lat="44.1012792" lon="12.3025995"><ele>48.0</ele><time>2026-04-18T14:04:35.552Z</time></trkpt><trkpt lat="44.1012582" lon="12.3027561"><ele>48.0</ele><time>2026-04-18T14:04:36.551Z</time></trkpt><trkpt lat="44.1012283" lon="12.302921"><ele>48.0</ele><time>2026-04-18T14:04:37.549Z</time></trkpt><trkpt lat="44.1011991" lon="12.3030867"><ele>48.0</ele><time>2026-04-18T14:04:38.555Z</time></trkpt><trkpt lat="44.1011726" lon="12.30326"><ele>48.0</ele><time>2026-04-18T14:04:39.549Z</time></trkpt><trkpt lat="44.1011487" lon="12.3034452"><ele>48.0</ele><time>2026-04-18T14:04:40.554Z</time></trkpt><trkpt lat="44.1011218" lon="12.3036419"><ele>48.0</ele><time>2026-04-18T14:04:41.557Z</time></trkpt><trkpt lat="44.1010936" lon="12.3038446"><ele>48.0</ele><time>2026-04-18T14:04:42.558Z</time></trkpt><trkpt lat="44.101078" lon="12.3040485"><ele>48.0</ele><time>2026-04-18T14:04:43.551Z</time></trkpt><trkpt lat="44.1010716" lon="12.3042577"><ele>48.0</ele><time>2026-04-18T14:04:44.552Z</time></trkpt><trkpt lat="44.1010672" lon="12.3044616"><ele>47.75</ele><time>2026-04-18T14:04:45.55Z</time></trkpt><trkpt lat="44.1010615" lon="12.3046529"><ele>47.5</ele><time>2026-04-18T14:04:46.55Z</time></trkpt><trkpt lat="44.1010513" lon="12.3048312"><ele>47.25</ele><time>2026-04-18T14:04:47.544Z</time></trkpt><trkpt lat="44.1010324" lon="12.3050012"><ele>47.0</ele><time>2026-04-18T14:04:48.553Z</time></trkpt><trkpt lat="44.101006" lon="12.3051656"><ele>46.75</ele><time>2026-04-18T14:04:49.553Z</time></trkpt><trkpt lat="44.1009716" lon="12.3053275"><ele>46.5</ele><time>2026-04-18T14:04:50.546Z</time></trkpt><trkpt lat="44.1009366" lon="12.3054864"><ele>46.25</ele><time>2026-04-18T14:04:51.545Z</time></trkpt><trkpt lat="44.1008953" lon="12.3056475"><ele>46.0</ele><time>2026-04-18T14:04:52.55Z</time></trkpt><trkpt lat="44.100853" lon="12.3058165"><ele>46.0</ele><time>2026-04-18T14:04:53.551Z</time></trkpt><trkpt lat="44.1008053" lon="12.3059983"><ele>46.0</ele><time>2026-04-18T14:04:54.55Z</time></trkpt><trkpt lat="44.1007533" lon="12.3061895"><ele>46.0</ele><time>2026-04-18T14:04:55.548Z</time></trkpt><trkpt lat="44.1007018" lon="12.306384"><ele>46.0</ele><time>2026-04-18T14:04:56.551Z</time></trkpt><trkpt lat="44.100649" lon="12.3065889"><ele>45.66666666666667</ele><time>2026-04-18T14:04:57.548Z</time></trkpt><trkpt lat="44.1006012" lon="12.3067892"><ele>45.333333333333336</ele><time>2026-04-18T14:04:58.545Z</time></trkpt><trkpt lat="44.1005483" lon="12.3069892"><ele>45.0</ele><time>2026-04-18T14:04:59.544Z</time></trkpt><trkpt lat="44.1004973" lon="12.3071919"><ele>45.0</ele><time>2026-04-18T14:05:00.551Z</time></trkpt><trkpt lat="44.1004454" lon="12.307393"><ele>45.0</ele><time>2026-04-18T14:05:01.548Z</time></trkpt><trkpt lat="44.1003956" lon="12.3075967"><ele>45.0</ele><time>2026-04-18T14:05:02.546Z</time></trkpt><trkpt lat="44.1003482" lon="12.3078055"><ele>45.0</ele><time>2026-04-18T14:05:03.545Z</time></trkpt><trkpt lat="44.1002977" lon="12.3080183"><ele>45.0</ele><time>2026-04-18T14:05:04.548Z</time></trkpt><trkpt lat="44.1002436" lon="12.3082313"><ele>45.0</ele><time>2026-04-18T14:05:05.548Z</time></trkpt><trkpt lat="44.1001839" lon="12.3084404"><ele>45.0</ele><time>2026-04-18T14:05:06.546Z</time></trkpt><trkpt lat="44.100116" lon="12.3086419"><ele>45.0</ele><time>2026-04-18T14:05:07.545Z</time></trkpt><trkpt lat="44.100032" lon="12.3088219"><ele>45.0</ele><time>2026-04-18T14:05:08.551Z</time></trkpt><trkpt lat="44.0999425" lon="12.308997"><ele>45.333333333333336</ele><time>2026-04-18T14:05:09.549Z</time></trkpt><trkpt lat="44.0998456" lon="12.3091695"><ele>45.66666666666667</ele><time>2026-04-18T14:05:10.554Z</time></trkpt><trkpt lat="44.0997509" lon="12.3093487"><ele>46.0</ele><time>2026-04-18T14:05:11.549Z</time></trkpt><trkpt lat="44.0996529" lon="12.3095399"><ele>46.0</ele><time>2026-04-18T14:05:12.549Z</time></trkpt><trkpt lat="44.0995524" lon="12.3097338"><ele>46.0</ele><time>2026-04-18T14:05:13.552Z</time></trkpt><trkpt lat="44.0994525" lon="12.3099248"><ele>46.0</ele><time>2026-04-18T14:05:14.545Z</time></trkpt><trkpt lat="44.0993497" lon="12.3101218"><ele>46.0</ele><time>2026-04-18T14:05:15.55Z</time></trkpt><trkpt lat="44.0992493" lon="12.3103219"><ele>46.0</ele><time>2026-04-18T14:05:16.551Z</time></trkpt><trkpt lat="44.0991534" lon="12.3105226"><ele>46.0</ele><time>2026-04-18T14:05:17.547Z</time></trkpt><trkpt lat="44.0990621" lon="12.310718"><ele>46.0</ele><time>2026-04-18T14:05:18.554Z</time></trkpt><trkpt lat="44.0989742" lon="12.3109004"><ele>46.0</ele><time>2026-04-18T14:05:19.55Z</time></trkpt><trkpt lat="44.0988961" lon="12.3110647"><ele>46.0</ele><time>2026-04-18T14:05:20.551Z</time></trkpt><trkpt lat="44.0988238" lon="12.3112164"><ele>46.0</ele><time>2026-04-18T14:05:21.552Z</time></trkpt><trkpt lat="44.098758" lon="12.3113472"><ele>45.8</ele><time>2026-04-18T14:05:22.548Z</time></trkpt><trkpt lat="44.0986975" lon="12.3114758"><ele>45.599999999999994</ele><time>2026-04-18T14:05:23.552Z</time></trkpt><trkpt lat="44.0986399" lon="12.3115958"><ele>45.4</ele><time>2026-04-18T14:05:24.55Z</time></trkpt><trkpt lat="44.0985815" lon="12.3117089"><ele>45.2</ele><time>2026-04-18T14:05:25.548Z</time></trkpt><trkpt lat="44.0985153" lon="12.311829"><ele>45.0</ele><time>2026-04-18T14:05:26.548Z</time></trkpt><trkpt lat="44.0984437" lon="12.3119591"><ele>45.0</ele><time>2026-04-18T14:05:27.552Z</time></trkpt><trkpt lat="44.098365" lon="12.3120905"><ele>45.0</ele><time>2026-04-18T14:05:28.546Z</time></trkpt><trkpt lat="44.0982647" lon="12.3122008"><ele>45.0</ele><time>2026-04-18T14:05:29.551Z</time></trkpt><trkpt lat="44.0981509" lon="12.3122906"><ele>45.0</ele><time>2026-04-18T14:05:30.547Z</time></trkpt><trkpt lat="44.0980381" lon="12.312369"><ele>45.5</ele><time>2026-04-18T14:05:31.552Z</time></trkpt><trkpt lat="44.0979292" lon="12.3124558"><ele>46.0</ele><time>2026-04-18T14:05:32.549Z</time></trkpt><trkpt lat="44.0978234" lon="12.31254"><ele>46.5</ele><time>2026-04-18T14:05:33.547Z</time></trkpt><trkpt lat="44.0977161" lon="12.312624"><ele>47.0</ele><time>2026-04-18T14:05:34.561Z</time></trkpt><trkpt lat="44.0976113" lon="12.3127067"><ele>47.0</ele><time>2026-04-18T14:05:35.55Z</time></trkpt><trkpt lat="44.0975097" lon="12.3127908"><ele>47.0</ele><time>2026-04-18T14:05:36.554Z</time></trkpt><trkpt lat="44.0974088" lon="12.3128681"><ele>47.0</ele><time>2026-04-18T14:05:37.546Z</time></trkpt><trkpt lat="44.0973083" lon="12.3129435"><ele>47.0</ele><time>2026-04-18T14:05:38.551Z</time></trkpt><trkpt lat="44.0972101" lon="12.3130179"><ele>47.0</ele><time>2026-04-18T14:05:39.554Z</time></trkpt><trkpt lat="44.0971147" lon="12.313092"><ele>47.0</ele><time>2026-04-18T14:05:40.549Z</time></trkpt><trkpt lat="44.0970243" lon="12.3131586"><ele>47.0</ele><time>2026-04-18T14:05:41.548Z</time></trkpt><trkpt lat="44.0969441" lon="12.3132192"><ele>47.0</ele><time>2026-04-18T14:05:42.553Z</time></trkpt><trkpt lat="44.0968728" lon="12.3132834"><ele>47.0</ele><time>2026-04-18T14:05:43.546Z</time></trkpt><trkpt lat="44.0968068" lon="12.3133533"><ele>47.0</ele><time>2026-04-18T14:05:44.552Z</time></trkpt><trkpt lat="44.0967494" lon="12.3134172"><ele>47.0</ele><time>2026-04-18T14:05:45.553Z</time></trkpt><trkpt lat="44.0966634" lon="12.3135195"><ele>47.0</ele><time>2026-04-18T14:05:47.562Z</time></trkpt><trkpt lat="44.096574" lon="12.3136203"><ele>47.0</ele><time>2026-04-18T14:05:49.551Z</time></trkpt><trkpt lat="44.0964648" lon="12.3136969"><ele>47.0</ele><time>2026-04-18T14:05:51.546Z</time></trkpt><trkpt lat="44.0964112" lon="12.3137468"><ele>47.400000000000006</ele><time>2026-04-18T14:05:52.549Z</time></trkpt><trkpt lat="44.0963525" lon="12.313896"><ele>47.800000000000004</ele><time>2026-04-18T14:05:54.551Z</time></trkpt><trkpt lat="44.096328" lon="12.3140084"><ele>48.2</ele><time>2026-04-18T14:05:55.544Z</time></trkpt><trkpt lat="44.0962833" lon="12.3141236"><ele>48.6</ele><time>2026-04-18T14:05:56.552Z</time></trkpt><trkpt lat="44.096212" lon="12.3142187"><ele>49.0</ele><time>2026-04-18T14:05:57.551Z</time></trkpt><trkpt lat="44.0961133" lon="12.3142975"><ele>49.0</ele><time>2026-04-18T14:05:58.551Z</time></trkpt><trkpt lat="44.0960097" lon="12.3143764"><ele>49.0</ele><time>2026-04-18T14:05:59.553Z</time></trkpt><trkpt lat="44.0959173" lon="12.3144736"><ele>49.0</ele><time>2026-04-18T14:06:00.548Z</time></trkpt><trkpt lat="44.0958538" lon="12.3146044"><ele>49.0</ele><time>2026-04-18T14:06:01.548Z</time></trkpt><trkpt lat="44.0958113" lon="12.3147546"><ele>49.25</ele><time>2026-04-18T14:06:02.55Z</time></trkpt><trkpt lat="44.0957705" lon="12.3149089"><ele>49.5</ele><time>2026-04-18T14:06:03.546Z</time></trkpt><trkpt lat="44.0957211" lon="12.3150596"><ele>49.75</ele><time>2026-04-18T14:06:04.546Z</time></trkpt><trkpt lat="44.0956586" lon="12.3151957"><ele>50.0</ele><time>2026-04-18T14:06:05.55Z</time></trkpt><trkpt lat="44.0955804" lon="12.3153114"><ele>50.0</ele><time>2026-04-18T14:06:06.548Z</time></trkpt><trkpt lat="44.0954869" lon="12.3154136"><ele>50.0</ele><time>2026-04-18T14:06:07.55Z</time></trkpt><trkpt lat="44.0953853" lon="12.31551"><ele>50.0</ele><time>2026-04-18T14:06:08.551Z</time></trkpt><trkpt lat="44.0952885" lon="12.3156092"><ele>50.0</ele><time>2026-04-18T14:06:09.547Z</time></trkpt><trkpt lat="44.0951952" lon="12.3157037"><ele>50.0</ele><time>2026-04-18T14:06:10.555Z</time></trkpt><trkpt lat="44.0951103" lon="12.3157927"><ele>50.0</ele><time>2026-04-18T14:06:11.547Z</time></trkpt><trkpt lat="44.0950271" lon="12.3158836"><ele>50.0</ele><time>2026-04-18T14:06:12.553Z</time></trkpt><trkpt lat="44.0949397" lon="12.3159779"><ele>50.0</ele><time>2026-04-18T14:06:13.544Z</time></trkpt><trkpt lat="44.0948547" lon="12.3160684"><ele>50.0</ele><time>2026-04-18T14:06:14.55Z</time></trkpt><trkpt lat="44.0947739" lon="12.3161414"><ele>49.833333333333336</ele><time>2026-04-18T14:06:15.552Z</time></trkpt><trkpt lat="44.0947026" lon="12.3161984"><ele>49.66666666666667</ele><time>2026-04-18T14:06:16.557Z</time></trkpt><trkpt lat="44.0946415" lon="12.3162501"><ele>49.5</ele><time>2026-04-18T14:06:17.549Z</time></trkpt><trkpt lat="44.0945907" lon="12.3163761"><ele>49.33333333333333</ele><time>2026-04-18T14:06:19.548Z</time></trkpt><trkpt lat="44.0946299" lon="12.3164595"><ele>49.166666666666664</ele><time>2026-04-18T14:06:20.556Z</time></trkpt><trkpt lat="44.0946927" lon="12.3165225"><ele>49.0</ele><time>2026-04-18T14:06:21.549Z</time></trkpt><trkpt lat="44.0947834" lon="12.3165578"><ele>48.75</ele><time>2026-04-18T14:06:22.545Z</time></trkpt><trkpt lat="44.0948925" lon="12.3165741"><ele>48.5</ele><time>2026-04-18T14:06:23.554Z</time></trkpt><trkpt lat="44.095022" lon="12.3165791"><ele>48.25</ele><time>2026-04-18T14:06:24.548Z</time></trkpt><trkpt lat="44.0951649" lon="12.3165932"><ele>48.0</ele><time>2026-04-18T14:06:25.548Z</time></trkpt><trkpt lat="44.0952942" lon="12.3165951"><ele>48.0</ele><time>2026-04-18T14:06:26.55Z</time></trkpt><trkpt lat="44.0954109" lon="12.3165962"><ele>48.0</ele><time>2026-04-18T14:06:27.56Z</time></trkpt><trkpt lat="44.0955174" lon="12.3166038"><ele>48.0</ele><time>2026-04-18T14:06:28.553Z</time></trkpt><trkpt lat="44.0956199" lon="12.3166067"><ele>48.0</ele><time>2026-04-18T14:06:29.549Z</time></trkpt><trkpt lat="44.0957176" lon="12.3166212"><ele>48.0</ele><time>2026-04-18T14:06:30.555Z</time></trkpt><trkpt lat="44.0958044" lon="12.3166606"><ele>47.8</ele><time>2026-04-18T14:06:31.557Z</time></trkpt><trkpt lat="44.0958592" lon="12.3167423"><ele>47.599999999999994</ele><time>2026-04-18T14:06:32.553Z</time></trkpt><trkpt lat="44.0958946" lon="12.3168509"><ele>47.400000000000006</ele><time>2026-04-18T14:06:33.553Z</time></trkpt><trkpt lat="44.0959167" lon="12.3169881"><ele>47.2</ele><time>2026-04-18T14:06:34.554Z</time></trkpt><trkpt lat="44.095929" lon="12.3171547"><ele>47.0</ele><time>2026-04-18T14:06:35.547Z</time></trkpt><trkpt lat="44.0959355" lon="12.3173459"><ele>46.75</ele><time>2026-04-18T14:06:36.55Z</time></trkpt><trkpt lat="44.0959474" lon="12.3175398"><ele>46.5</ele><time>2026-04-18T14:06:37.547Z</time></trkpt><trkpt lat="44.0959643" lon="12.3177451"><ele>46.25</ele><time>2026-04-18T14:06:38.546Z</time></trkpt><trkpt lat="44.0959835" lon="12.317968"><ele>46.0</ele><time>2026-04-18T14:06:39.539Z</time></trkpt><trkpt lat="44.0959985" lon="12.3182014"><ele>45.0</ele><time>2026-04-18T14:06:40.559Z</time></trkpt><trkpt lat="44.0960099" lon="12.318428"><ele>44.0</ele><time>2026-04-18T14:06:41.546Z</time></trkpt><trkpt lat="44.0960244" lon="12.3186688"><ele>43.0</ele><time>2026-04-18T14:06:42.554Z</time></trkpt><trkpt lat="44.0960389" lon="12.3189138"><ele>42.66666666666667</ele><time>2026-04-18T14:06:43.546Z</time></trkpt><trkpt lat="44.0960554" lon="12.319158"><ele>42.333333333333336</ele><time>2026-04-18T14:06:44.545Z</time></trkpt><trkpt lat="44.0960721" lon="12.3194011"><ele>42.0</ele><time>2026-04-18T14:06:45.548Z</time></trkpt><trkpt lat="44.0960894" lon="12.3196438"><ele>42.333333333333336</ele><time>2026-04-18T14:06:46.549Z</time></trkpt><trkpt lat="44.0961058" lon="12.3198841"><ele>42.66666666666667</ele><time>2026-04-18T14:06:47.549Z</time></trkpt><trkpt lat="44.0961218" lon="12.3201255"><ele>43.0</ele><time>2026-04-18T14:06:48.551Z</time></trkpt><trkpt lat="44.0961414" lon="12.3203757"><ele>43.333333333333336</ele><time>2026-04-18T14:06:49.548Z</time></trkpt><trkpt lat="44.0961622" lon="12.3206308"><ele>43.666666666666664</ele><time>2026-04-18T14:06:50.551Z</time></trkpt><trkpt lat="44.0961803" lon="12.3208917"><ele>44.0</ele><time>2026-04-18T14:06:51.555Z</time></trkpt><trkpt lat="44.0961988" lon="12.3211567"><ele>44.0</ele><time>2026-04-18T14:06:52.552Z</time></trkpt><trkpt lat="44.0962223" lon="12.3214224"><ele>44.0</ele><time>2026-04-18T14:06:53.552Z</time></trkpt><trkpt lat="44.0962547" lon="12.3216905"><ele>44.0</ele><time>2026-04-18T14:06:54.553Z</time></trkpt><trkpt lat="44.0962933" lon="12.3219605"><ele>44.0</ele><time>2026-04-18T14:06:55.547Z</time></trkpt><trkpt lat="44.0963322" lon="12.32222"><ele>44.0</ele><time>2026-04-18T14:06:56.551Z</time></trkpt><trkpt lat="44.0963679" lon="12.3224806"><ele>44.0</ele><time>2026-04-18T14:06:57.546Z</time></trkpt><trkpt lat="44.0963917" lon="12.3227285"><ele>44.0</ele><time>2026-04-18T14:06:58.547Z</time></trkpt><trkpt lat="44.0963918" lon="12.3229716"><ele>44.0</ele><time>2026-04-18T14:06:59.549Z</time></trkpt><trkpt lat="44.0963637" lon="12.3232087"><ele>44.0</ele><time>2026-04-18T14:07:00.552Z</time></trkpt><trkpt lat="44.0963195" lon="12.3234538"><ele>43.666666666666664</ele><time>2026-04-18T14:07:01.549Z</time></trkpt><trkpt lat="44.0962652" lon="12.3236976"><ele>43.333333333333336</ele><time>2026-04-18T14:07:02.551Z</time></trkpt><trkpt lat="44.0962066" lon="12.3239465"><ele>43.0</ele><time>2026-04-18T14:07:03.549Z</time></trkpt><trkpt lat="44.0961473" lon="12.3241972"><ele>42.66666666666667</ele><time>2026-04-18T14:07:04.551Z</time></trkpt><trkpt lat="44.0960876" lon="12.3244436"><ele>42.333333333333336</ele><time>2026-04-18T14:07:05.546Z</time></trkpt><trkpt lat="44.0960358" lon="12.3246754"><ele>42.0</ele><time>2026-04-18T14:07:06.545Z</time></trkpt><trkpt lat="44.0959856" lon="12.324898"><ele>42.0</ele><time>2026-04-18T14:07:07.55Z</time></trkpt><trkpt lat="44.095941" lon="12.3251053"><ele>42.0</ele><time>2026-04-18T14:07:08.544Z</time></trkpt><trkpt lat="44.0958995" lon="12.3252954"><ele>42.0</ele><time>2026-04-18T14:07:09.549Z</time></trkpt><trkpt lat="44.0958595" lon="12.3254734"><ele>42.0</ele><time>2026-04-18T14:07:10.554Z</time></trkpt><trkpt lat="44.0958274" lon="12.3256407"><ele>42.0</ele><time>2026-04-18T14:07:11.548Z</time></trkpt><trkpt lat="44.0958159" lon="12.325804"><ele>42.0</ele><time>2026-04-18T14:07:12.546Z</time></trkpt><trkpt lat="44.0958324" lon="12.3259539"><ele>42.0</ele><time>2026-04-18T14:07:13.544Z</time></trkpt><trkpt lat="44.0958705" lon="12.3260898"><ele>42.0</ele><time>2026-04-18T14:07:14.552Z</time></trkpt><trkpt lat="44.0959355" lon="12.3262152"><ele>42.0</ele><time>2026-04-18T14:07:15.551Z</time></trkpt><trkpt lat="44.0960329" lon="12.3263396"><ele>41.666666666666664</ele><time>2026-04-18T14:07:16.548Z</time></trkpt><trkpt lat="44.0961679" lon="12.3264627"><ele>41.33333333333333</ele><time>2026-04-18T14:07:17.553Z</time></trkpt><trkpt lat="44.0963297" lon="12.3265805"><ele>41.0</ele><time>2026-04-18T14:07:18.543Z</time></trkpt><trkpt lat="44.0965094" lon="12.3266904"><ele>40.5</ele><time>2026-04-18T14:07:19.548Z</time></trkpt><trkpt lat="44.0967109" lon="12.3267914"><ele>40.0</ele><time>2026-04-18T14:07:20.545Z</time></trkpt><trkpt lat="44.0969349" lon="12.3269002"><ele>40.0</ele><time>2026-04-18T14:07:21.549Z</time></trkpt><trkpt lat="44.0971551" lon="12.3270224"><ele>40.0</ele><time>2026-04-18T14:07:22.548Z</time></trkpt><trkpt lat="44.097353" lon="12.3271413"><ele>39.66666666666667</ele><time>2026-04-18T14:07:23.547Z</time></trkpt><trkpt lat="44.0975292" lon="12.3272512"><ele>39.333333333333336</ele><time>2026-04-18T14:07:24.557Z</time></trkpt><trkpt lat="44.0976973" lon="12.3273555"><ele>39.0</ele><time>2026-04-18T14:07:25.55Z</time></trkpt><trkpt lat="44.0978415" lon="12.3274494"><ele>39.0</ele><time>2026-04-18T14:07:26.556Z</time></trkpt><trkpt lat="44.0979572" lon="12.3275347"><ele>39.0</ele><time>2026-04-18T14:07:27.553Z</time></trkpt><trkpt lat="44.0980471" lon="12.3276389"><ele>39.0</ele><time>2026-04-18T14:07:28.551Z</time></trkpt><trkpt lat="44.0981047" lon="12.3277631"><ele>39.0</ele><time>2026-04-18T14:07:29.547Z</time></trkpt><trkpt lat="44.0981353" lon="12.3279011"><ele>39.0</ele><time>2026-04-18T14:07:30.558Z</time></trkpt><trkpt lat="44.0981466" lon="12.3280645"><ele>39.0</ele><time>2026-04-18T14:07:31.553Z</time></trkpt><trkpt lat="44.0981486" lon="12.3282263"><ele>39.0</ele><time>2026-04-18T14:07:32.549Z</time></trkpt><trkpt lat="44.0981458" lon="12.3283905"><ele>39.0</ele><time>2026-04-18T14:07:33.545Z</time></trkpt><trkpt lat="44.0981618" lon="12.3285485"><ele>39.0</ele><time>2026-04-18T14:07:34.547Z</time></trkpt><trkpt lat="44.0981915" lon="12.3287151"><ele>39.0</ele><time>2026-04-18T14:07:35.556Z</time></trkpt><trkpt lat="44.0982115" lon="12.3288622"><ele>39.0</ele><time>2026-04-18T14:07:36.547Z</time></trkpt><trkpt lat="44.0982097" lon="12.3290053"><ele>39.0</ele><time>2026-04-18T14:07:37.556Z</time></trkpt><trkpt lat="44.0981942" lon="12.3291321"><ele>39.0</ele><time>2026-04-18T14:07:38.551Z</time></trkpt><trkpt lat="44.0981791" lon="12.3292627"><ele>39.2</ele><time>2026-04-18T14:07:39.55Z</time></trkpt><trkpt lat="44.0981735" lon="12.3293975"><ele>39.4</ele><time>2026-04-18T14:07:40.552Z</time></trkpt><trkpt lat="44.0981854" lon="12.3295354"><ele>39.6</ele><time>2026-04-18T14:07:41.547Z</time></trkpt><trkpt lat="44.0982031" lon="12.3296765"><ele>39.8</ele><time>2026-04-18T14:07:42.553Z</time></trkpt><trkpt lat="44.0982378" lon="12.3298023"><ele>40.0</ele><time>2026-04-18T14:07:43.547Z</time></trkpt><trkpt lat="44.0982842" lon="12.3299143"><ele>40.0</ele><time>2026-04-18T14:07:44.549Z</time></trkpt><trkpt lat="44.0983352" lon="12.3300189"><ele>40.0</ele><time>2026-04-18T14:07:45.549Z</time></trkpt><trkpt lat="44.0983869" lon="12.3301298"><ele>40.0</ele><time>2026-04-18T14:07:46.56Z</time></trkpt><trkpt lat="44.098444" lon="12.3302422"><ele>40.0</ele><time>2026-04-18T14:07:47.547Z</time></trkpt><trkpt lat="44.098496" lon="12.3303455"><ele>40.0</ele><time>2026-04-18T14:07:48.547Z</time></trkpt><trkpt lat="44.0985431" lon="12.3304376"><ele>40.0</ele><time>2026-04-18T14:07:49.552Z</time></trkpt><trkpt lat="44.0985922" lon="12.3305153"><ele>40.0</ele><time>2026-04-18T14:07:50.55Z</time></trkpt><trkpt lat="44.0986409" lon="12.3305898"><ele>40.0</ele><time>2026-04-18T14:07:51.552Z</time></trkpt><trkpt lat="44.0986832" lon="12.3306668"><ele>40.0</ele><time>2026-04-18T14:07:52.548Z</time></trkpt><trkpt lat="44.0987234" lon="12.3307634"><ele>40.0</ele><time>2026-04-18T14:07:53.554Z</time></trkpt><trkpt lat="44.0987645" lon="12.3308706"><ele>40.0</ele><time>2026-04-18T14:07:54.552Z</time></trkpt><trkpt lat="44.0988042" lon="12.3309836"><ele>40.16666666666667</ele><time>2026-04-18T14:07:55.551Z</time></trkpt><trkpt lat="44.098847" lon="12.3310887"><ele>40.333333333333336</ele><time>2026-04-18T14:07:56.553Z</time></trkpt><trkpt lat="44.0988875" lon="12.3311769"><ele>40.5</ele><time>2026-04-18T14:07:57.552Z</time></trkpt><trkpt lat="44.0989242" lon="12.331254"><ele>40.666666666666664</ele><time>2026-04-18T14:07:58.548Z</time></trkpt><trkpt lat="44.0989887" lon="12.3313886"><ele>40.83333333333333</ele><time>2026-04-18T14:08:00.554Z</time></trkpt><trkpt lat="44.0990237" lon="12.3315127"><ele>41.0</ele><time>2026-04-18T14:08:02.558Z</time></trkpt><trkpt lat="44.0990832" lon="12.3316283"><ele>40.4</ele><time>2026-04-18T14:08:04.554Z</time></trkpt><trkpt lat="44.0991866" lon="12.3316379"><ele>39.8</ele><time>2026-04-18T14:08:06.549Z</time></trkpt><trkpt lat="44.0992951" lon="12.331602"><ele>39.199999999999996</ele><time>2026-04-18T14:08:08.552Z</time></trkpt><trkpt lat="44.0993939" lon="12.3315835"><ele>38.599999999999994</ele><time>2026-04-18T14:08:10.554Z</time></trkpt><trkpt lat="44.0994784" lon="12.3316204"><ele>38.0</ele><time>2026-04-18T14:08:12.551Z</time></trkpt><trkpt lat="44.0995379" lon="12.3317485"><ele>38.0</ele><time>2026-04-18T14:08:14.552Z</time></trkpt><trkpt lat="44.0995548" lon="12.3318445"><ele>38.0</ele><time>2026-04-18T14:08:15.557Z</time></trkpt><trkpt lat="44.099577" lon="12.3319373"><ele>38.0</ele><time>2026-04-18T14:08:16.552Z</time></trkpt><trkpt lat="44.0995992" lon="12.3320425"><ele>38.0</ele><time>2026-04-18T14:08:17.55Z</time></trkpt><trkpt lat="44.099625" lon="12.3321473"><ele>38.0</ele><time>2026-04-18T14:08:18.557Z</time></trkpt><trkpt lat="44.0996502" lon="12.3322593"><ele>38.0</ele><time>2026-04-18T14:08:19.547Z</time></trkpt><trkpt lat="44.099673" lon="12.3323828"><ele>37.6</ele><time>2026-04-18T14:08:20.551Z</time></trkpt><trkpt lat="44.0996958" lon="12.3325088"><ele>37.199999999999996</ele><time>2026-04-18T14:08:21.546Z</time></trkpt><trkpt lat="44.0997256" lon="12.3326342"><ele>36.8</ele><time>2026-04-18T14:08:22.551Z</time></trkpt><trkpt lat="44.0997636" lon="12.3327775"><ele>36.4</ele><time>2026-04-18T14:08:23.555Z</time></trkpt><trkpt lat="44.0998132" lon="12.3329493"><ele>36.0</ele><time>2026-04-18T14:08:24.546Z</time></trkpt><trkpt lat="44.099857" lon="12.3331446"><ele>35.0</ele><time>2026-04-18T14:08:25.559Z</time></trkpt><trkpt lat="44.0998956" lon="12.3333582"><ele>34.0</ele><time>2026-04-18T14:08:26.552Z</time></trkpt><trkpt lat="44.0999367" lon="12.3336"><ele>33.0</ele><time>2026-04-18T14:08:27.555Z</time></trkpt><trkpt lat="44.0999855" lon="12.3338595"><ele>33.0</ele><time>2026-04-18T14:08:28.55Z</time></trkpt><trkpt lat="44.1000519" lon="12.3341503"><ele>33.0</ele><time>2026-04-18T14:08:29.548Z</time></trkpt><trkpt lat="44.1001256" lon="12.3344529"><ele>33.0</ele><time>2026-04-18T14:08:30.553Z</time></trkpt><trkpt lat="44.100206" lon="12.3347621"><ele>33.0</ele><time>2026-04-18T14:08:31.549Z</time></trkpt><trkpt lat="44.1003021" lon="12.3350833"><ele>33.0</ele><time>2026-04-18T14:08:32.563Z</time></trkpt><trkpt lat="44.1004079" lon="12.3354008"><ele>32.0</ele><time>2026-04-18T14:08:33.551Z</time></trkpt><trkpt lat="44.1005131" lon="12.3356922"><ele>31.0</ele><time>2026-04-18T14:08:34.548Z</time></trkpt><trkpt lat="44.1006124" lon="12.3359609"><ele>31.0</ele><time>2026-04-18T14:08:35.551Z</time></trkpt><trkpt lat="44.1007045" lon="12.3362136"><ele>31.0</ele><time>2026-04-18T14:08:36.547Z</time></trkpt><trkpt lat="44.1007899" lon="12.3364552"><ele>31.0</ele><time>2026-04-18T14:08:37.548Z</time></trkpt><trkpt lat="44.100874" lon="12.3366798"><ele>31.333333333333336</ele><time>2026-04-18T14:08:38.547Z</time></trkpt><trkpt lat="44.1009662" lon="12.3368795"><ele>31.666666666666664</ele><time>2026-04-18T14:08:39.553Z</time></trkpt><trkpt lat="44.1010853" lon="12.3370698"><ele>32.0</ele><time>2026-04-18T14:08:40.552Z</time></trkpt><trkpt lat="44.1012339" lon="12.3372511"><ele>32.0</ele><time>2026-04-18T14:08:41.548Z</time></trkpt><trkpt lat="44.101408" lon="12.337421"><ele>32.0</ele><time>2026-04-18T14:08:42.553Z</time></trkpt><trkpt lat="44.1015868" lon="12.3375928"><ele>32.0</ele><time>2026-04-18T14:08:43.554Z</time></trkpt><trkpt lat="44.1017442" lon="12.3377533"><ele>31.333333333333332</ele><time>2026-04-18T14:08:44.552Z</time></trkpt><trkpt lat="44.1018929" lon="12.3379103"><ele>30.666666666666664</ele><time>2026-04-18T14:08:45.549Z</time></trkpt><trkpt lat="44.102037" lon="12.3380567"><ele>30.0</ele><time>2026-04-18T14:08:46.558Z</time></trkpt><trkpt lat="44.10217" lon="12.3381837"><ele>30.0</ele><time>2026-04-18T14:08:47.552Z</time></trkpt><trkpt lat="44.1022813" lon="12.3382961"><ele>30.0</ele><time>2026-04-18T14:08:48.549Z</time></trkpt><trkpt lat="44.1023675" lon="12.3384129"><ele>30.0</ele><time>2026-04-18T14:08:49.551Z</time></trkpt><trkpt lat="44.102428" lon="12.338526"><ele>30.0</ele><time>2026-04-18T14:08:50.554Z</time></trkpt><trkpt lat="44.102462" lon="12.3386675"><ele>30.0</ele><time>2026-04-18T14:08:51.553Z</time></trkpt><trkpt lat="44.1024817" lon="12.3388388"><ele>30.0</ele><time>2026-04-18T14:08:52.547Z</time></trkpt><trkpt lat="44.1024723" lon="12.3390142"><ele>30.0</ele><time>2026-04-18T14:08:53.547Z</time></trkpt><trkpt lat="44.1024319" lon="12.3391905"><ele>30.0</ele><time>2026-04-18T14:08:54.549Z</time></trkpt><trkpt lat="44.102355" lon="12.3393841"><ele>30.333333333333336</ele><time>2026-04-18T14:08:55.551Z</time></trkpt><trkpt lat="44.1022513" lon="12.3395852"><ele>30.666666666666668</ele><time>2026-04-18T14:08:56.552Z</time></trkpt><trkpt lat="44.1021237" lon="12.3398032"><ele>31.0</ele><time>2026-04-18T14:08:57.549Z</time></trkpt><trkpt lat="44.1019994" lon="12.3400173"><ele>30.333333333333336</ele><time>2026-04-18T14:08:58.551Z</time></trkpt><trkpt lat="44.1018912" lon="12.3402173"><ele>29.666666666666664</ele><time>2026-04-18T14:08:59.545Z</time></trkpt><trkpt lat="44.1017866" lon="12.3403943"><ele>29.0</ele><time>2026-04-18T14:09:00.555Z</time></trkpt><trkpt lat="44.1016928" lon="12.3405633"><ele>29.0</ele><time>2026-04-18T14:09:01.56Z</time></trkpt><trkpt lat="44.1016049" lon="12.3407216"><ele>29.0</ele><time>2026-04-18T14:09:02.554Z</time></trkpt><trkpt lat="44.1015282" lon="12.3408674"><ele>29.0</ele><time>2026-04-18T14:09:03.551Z</time></trkpt><trkpt lat="44.101461" lon="12.3409913"><ele>29.0</ele><time>2026-04-18T14:09:04.546Z</time></trkpt><trkpt lat="44.1014007" lon="12.3410879"><ele>30.0</ele><time>2026-04-18T14:09:05.555Z</time></trkpt><trkpt lat="44.1013527" lon="12.3411552"><ele>30.0</ele><time>2026-04-18T14:09:06.549Z</time></trkpt><trkpt lat="44.1012832" lon="12.3411984"><ele>30.0</ele><time>2026-04-18T14:09:08.556Z</time></trkpt><trkpt lat="44.101212" lon="12.3411431"><ele>30.0</ele><time>2026-04-18T14:09:10.554Z</time></trkpt><trkpt lat="44.1011544" lon="12.3411061"><ele>30.0</ele><time>2026-04-18T14:09:12.547Z</time></trkpt><trkpt lat="44.1010908" lon="12.3411266"><ele>30.0</ele><time>2026-04-18T14:09:14.546Z</time></trkpt><trkpt lat="44.1010268" lon="12.3411945"><ele>30.0</ele><time>2026-04-18T14:09:17.555Z</time></trkpt></trkseg></trk></gpx>